# Wetter Temperatur Luftdruck Luftfeuchtigkeit Sichtweite Windgeschwindigkeit Windrichtung Zeit
1 Clouds 29 1006 70 6437 2.1 70 02:51 05.04.2020
2 Clouds 30 1005 66 8047 3.1 80 01:48 05.04.2020
3 Clouds 30 1005 66 8047 3.1 80 01:28 05.04.2020
4 Clouds 30 1005 66 8047 3.1 80 01:28 05.04.2020
5 Clouds 31 1006 59 8047 4.1 90 00:44 05.04.2020
6 Clouds 32 1006 59 8047 4.1 90 00:21 05.04.2020
7 Clouds 31 1006 66 8047 2.6 110 23:55 04.04.2020
8 Clouds 31 1006 66 8047 2.6 110 23:37 04.04.2020
9 Clouds 31 1006 66 8047 2.6 110 23:19 04.04.2020
10 Clouds 32 1008 62 6437 5.1 20 22:40 04.04.2020
11 Clouds 32 1008 62 6437 5.1 20 22:21 04.04.2020
12 Clouds 32 1009 59 6437 4.6 20 21:58 04.04.2020
13 Clouds 32 1009 59 6437 4.6 20 21:39 04.04.2020
14 Clouds 32 1009 59 6437 4.6 20 21:19 04.04.2020
15 Clouds 32 1010 55 8047 5.7 30 20:58 04.04.2020
16 Clouds 32 1010 55 8047 5.7 30 20:39 04.04.2020
17 Clouds 32 1010 55 8047 5.7 30 20:21 04.04.2020
18 Clouds 31 1010 62 6437 2.6 70 19:57 04.04.2020
19 Clouds 31 1010 62 6437 2.6 70 19:37 04.04.2020
20 Clouds 31 1010 62 6437 2.6 70 19:19 04.04.2020
21 Clouds 31 1010 62 6437 2.6 70 19:19 04.04.2020
22 Clouds 30 1011 62 6437 4.1 30 18:55 04.04.2020
23 Clouds 31 1011 62 6437 4.1 30 18:37 04.04.2020
24 Clouds 30 1011 62 6437 4.1 30 18:18 04.04.2020
25 Mist 29 1010 74 6437 1.5 90 17:41 04.04.2020
26 Mist 29 1010 74 6437 1.5 90 17:41 04.04.2020
27 Mist 28 1010 74 6437 1.5 90 17:20 04.04.2020
28 Mist 27 1009 88 4828 1.5 10 16:56 04.04.2020
29 Mist 27 1009 88 4828 1.5 10 16:38 04.04.2020
30 Mist 26 1009 88 4828 1.5 10 16:19 04.04.2020
31 Mist 25 1008 94 4828 0.25 66 15:41 04.04.2020
32 Mist 25 1008 94 4828 0.53 150 15:23 04.04.2020
33 Mist 25 1007 100 6437 1.9 177 14:59 04.04.2020
34 Mist 25 1007 100 6437 2.05 171 14:40 04.04.2020
35 Clouds 25 1006 100 0 1.9 177 14:22 04.04.2020
36 Clouds 25 1005 100 0 1.9 177 13:55 04.04.2020
37 Clouds 25 1005 100 0 1.9 177 13:37 04.04.2020
38 Clouds 25 1005 100 0 1.9 177 13:18 04.04.2020
39 Clouds 25 1005 100 0 0.45 240 12:44 04.04.2020
40 Clouds 25 1005 100 0 0.45 240 12:23 04.04.2020
41 Clouds 25 1005 100 0 0.45 240 12:23 04.04.2020
42 Clouds 25 1004 100 0 2.72 175 11:55 04.04.2020
43 Clouds 25 1004 100 0 2.72 175 11:37 04.04.2020
44 Clouds 24 1004 100 0 2.72 175 11:18 04.04.2020
45 Clouds 24 1004 100 0 2.72 175 10:55 04.04.2020
46 Clouds 24 1005 100 0 2.72 175 10:37 04.04.2020
47 Clouds 25 1005 100 0 0.45 240 10:18 04.04.2020
48 Clouds 25 1005 100 0 0.45 240 09:54 04.04.2020
49 Clouds 25 1006 100 0 0.89 240 09:36 04.04.2020
50 Clouds 25 1006 100 0 0.45 240 09:18 04.04.2020
51 Clouds 26 1007 100 0 0.45 240 08:38 04.04.2020
52 Clouds 26 1007 100 0 0.89 89 08:19 04.04.2020
53 Clouds 26 1009 94 8047 0.21 95 07:41 04.04.2020
54 Clouds 26 1009 94 8047 0.21 95 07:23 04.04.2020
55 Clouds 27 1009 88 8047 0.21 95 06:46 04.04.2020
56 Clouds 27 1009 88 8047 1.74 357 06:18 04.04.2020
57 Mist 27 1008 88 8047 1 70 05:41 04.04.2020
58 Mist 27 1008 88 8047 1 70 05:22 04.04.2020
59 Mist 27 1008 88 8047 1 60 04:25 04.04.2020
60 Mist 27 1007 88 4828 1 60 03:47 04.04.2020
61 Mist 28 1006 83 4828 2.6 80 02:49 04.04.2020
62 Mist 28 1006 83 4828 2.6 80 02:30 04.04.2020
63 Clouds 29 1006 74 8047 2.6 80 01:51 04.04.2020
64 Clouds 29 1006 74 8047 2.6 80 01:22 04.04.2020
65 Clouds 30 1006 70 8047 4.1 60 00:47 04.04.2020
66 Clouds 30 1006 70 8047 4.1 60 00:27 04.04.2020
67 Clear 31 1007 66 8047 2.6 100 23:39 03.04.2020
68 Clear 31 1007 66 8047 2.6 100 23:21 03.04.2020
69 Clear 31 1007 66 8047 5.1 50 22:56 03.04.2020
70 Clear 31 1007 66 8047 5.1 50 22:38 03.04.2020
71 Clear 31 1007 66 8047 5.1 50 22:18 03.04.2020
72 Clouds 31 1008 66 8047 4.6 40 21:43 03.04.2020
73 Clouds 31 1008 66 8047 4.6 40 21:23 03.04.2020
74 Clouds 31 1009 66 8047 1.5 90 20:56 03.04.2020
75 Clouds 31 1009 66 8047 1.5 90 20:37 03.04.2020
76 Clouds 31 1009 66 8047 1.5 90 20:19 03.04.2020
77 Clouds 31 1009 70 8047 3.01 109 19:56 03.04.2020
78 Clouds 31 1009 70 8047 3.01 109 19:38 03.04.2020
79 Clouds 30 1009 70 8047 3.01 109 19:19 03.04.2020
80 Clouds 30 1009 66 8047 3.6 180 18:58 03.04.2020
81 Clouds 30 1009 66 8047 3.6 180 18:40 03.04.2020
82 Clouds 30 1009 66 8047 3.6 180 18:22 03.04.2020
83 Clouds 29 1009 78 8047 3.7 166 17:43 03.04.2020
84 Clouds 29 1009 78 8047 3.7 166 17:21 03.04.2020
85 Clouds 29 1009 78 8047 3.7 166 17:21 03.04.2020
86 Mist 27 1009 88 8047 3.7 166 16:58 03.04.2020
87 Mist 27 1009 88 8047 3.7 166 16:40 03.04.2020
88 Mist 26 1009 88 8047 3.7 166 16:21 03.04.2020
89 Mist 26 1008 94 6437 3.7 166 15:57 03.04.2020
90 Mist 26 1008 94 6437 3.7 166 15:38 03.04.2020
91 Mist 25 1008 94 6437 3.2 166 15:19 03.04.2020
92 Mist 25 1008 94 6437 3.2 166 15:19 03.04.2020
93 Clouds 24 1007 100 0 3.2 166 14:41 03.04.2020
94 Clouds 24 1007 100 0 3.2 166 14:41 03.04.2020
95 Clouds 24 1007 100 0 3.44 167 14:22 03.04.2020
96 Clouds 24 1007 100 0 3.44 167 13:57 03.04.2020
97 Clouds 24 1007 100 0 3.44 167 13:38 03.04.2020
98 Clouds 24 1006 100 0 3.44 167 13:20 03.04.2020
99 Clouds 24 1006 100 0 3.44 167 12:43 03.04.2020
100 Clouds 25 1006 100 0 0.45 172 12:20 03.04.2020
101 Clouds 25 1006 100 0 0.45 172 11:57 03.04.2020
102 Clouds 26 1006 100 0 1.92 145 11:38 03.04.2020
103 Clouds 26 1006 100 0 1.92 145 11:38 03.04.2020
104 Clouds 26 1006 100 0 1.34 172 11:20 03.04.2020
105 Clouds 26 1006 100 0 1.34 172 10:58 03.04.2020
106 Clouds 26 1006 100 0 1.92 145 10:38 03.04.2020
107 Clouds 26 1006 100 0 0.89 113 10:20 03.04.2020
108 Clouds 26 1006 100 0 0.89 113 09:57 03.04.2020
109 Clouds 26 1006 100 0 0.45 111 09:39 03.04.2020
110 Clouds 27 1007 100 0 0.89 110 09:21 03.04.2020
111 Clouds 27 1007 100 0 0.58 85 08:55 03.04.2020
112 Clouds 27 1007 100 0 0.58 85 08:36 03.04.2020
113 Clouds 27 1008 100 0 0.45 107 08:18 03.04.2020
114 Clouds 26 1010 88 9656 0.58 85 07:42 03.04.2020
115 Clouds 26 1010 88 9656 0.58 85 07:23 03.04.2020
116 Clear 26 1010 83 9656 1.5 30 06:38 03.04.2020
117 Clear 27 1010 83 9656 1.5 30 06:20 03.04.2020
118 Clear 26 1009 83 8047 2.94 80 05:34 03.04.2020
119 Clouds 27 1007 78 8047 1.5 100 03:40 03.04.2020
120 Clouds 28 1007 74 8047 2.6 90 02:54 03.04.2020
121 Clear 29 1007 62 8047 6.2 80 01:53 03.04.2020
122 Clear 30 1007 62 8047 6.2 80 01:18 03.04.2020
123 Clear 31 1006 59 8047 5.1 70 00:34 03.04.2020
124 Clouds 31 1007 62 8047 5.1 90 23:57 02.04.2020
125 Clouds 31 1007 62 8047 5.1 90 23:39 02.04.2020
126 Clouds 31 1007 62 8047 5.1 90 23:21 02.04.2020
127 Clouds 31 1008 58 8047 4.1 100 22:43 02.04.2020
128 Clouds 31 1008 58 8047 4.1 100 22:25 02.04.2020
129 Clouds 33 1010 49 8047 3.1 160 21:59 02.04.2020
130 Clouds 33 1010 49 8047 3.1 160 21:38 02.04.2020
131 Clouds 33 1010 49 8047 3.1 160 21:38 02.04.2020
132 Clouds 32 1010 49 8047 3.1 160 21:19 02.04.2020
133 Clouds 32 1011 52 8047 5.1 200 20:55 02.04.2020
134 Clouds 32 1011 52 8047 5.1 200 20:37 02.04.2020
135 Clouds 32 1011 52 8047 5.1 200 20:19 02.04.2020
136 Clouds 31 1012 55 8047 4.6 160 19:42 02.04.2020
137 Clouds 31 1012 55 8047 4.6 160 19:20 02.04.2020
138 Clouds 29 1013 69 8047 3.1 180 18:57 02.04.2020
139 Clouds 29 1013 69 8047 3.1 180 18:39 02.04.2020
140 Clouds 28 1013 69 8047 3.1 180 18:19 02.04.2020
141 Clouds 28 1013 78 8047 2.6 90 17:44 02.04.2020
142 Clouds 28 1013 78 8047 2.6 90 17:26 02.04.2020
143 Clouds 26 1013 94 8047 2.55 167 16:59 02.04.2020
144 Clouds 26 1013 94 8047 2.55 167 16:41 02.04.2020
145 Clouds 25 1013 94 8047 2.55 167 16:22 02.04.2020
146 Mist 24 1012 100 8047 2.55 167 15:59 02.04.2020
147 Mist 23 1012 100 8047 2.55 167 15:40 02.04.2020
148 Mist 23 1012 100 8047 0.83 217 15:20 02.04.2020
149 Mist 23 1012 100 8047 0.83 217 14:58 02.04.2020
150 Mist 22 1012 100 8047 0.83 217 14:38 02.04.2020
151 Mist 22 1012 100 8047 0.83 217 14:19 02.04.2020
152 Clear 23 1010 100 0 0.94 231 13:55 02.04.2020
153 Clear 23 1010 100 0 0.94 231 13:37 02.04.2020
154 Clear 23 1010 100 0 0.94 231 13:19 02.04.2020
155 Clear 23 1010 100 0 0.94 231 12:46 02.04.2020
156 Clear 24 1009 100 0 0.95 236 12:20 02.04.2020
157 Clear 24 1009 100 0 0.95 236 11:58 02.04.2020
158 Clear 24 1009 100 0 0.95 236 11:39 02.04.2020
159 Clear 24 1009 100 0 0.89 69 11:20 02.04.2020
160 Clear 24 1009 100 0 0.95 236 10:57 02.04.2020
161 Clear 23 1009 100 0 0.95 236 10:38 02.04.2020
162 Clear 23 1010 100 0 0.95 236 10:20 02.04.2020
163 Clear 23 1010 100 0 0.95 236 10:20 02.04.2020
164 Clear 24 1010 100 0 0.95 236 09:59 02.04.2020
165 Clear 24 1010 100 0 0.95 236 09:41 02.04.2020
166 Clear 23 1011 100 0 0.78 268 09:21 02.04.2020
167 Clear 24 1011 100 0 0.45 69 08:47 02.04.2020
168 Clear 24 1011 100 0 0.89 69 08:28 02.04.2020
169 Clouds 25 1013 88 9656 0.4 201 07:57 02.04.2020
170 Clouds 25 1013 88 9656 0.4 201 07:38 02.04.2020
171 Clouds 25 1013 88 9656 0.4 201 07:19 02.04.2020
172 Clouds 26 1013 88 9656 1 70 06:24 02.04.2020
173 Clouds 26 1012 83 9656 1 60 05:46 02.04.2020
174 Clouds 26 1012 83 9656 2.6 70 04:55 02.04.2020
175 Clouds 27 1010 78 11265 6.2 60 02:19 02.04.2020
176 Clear 29 1010 62 9656 4.6 80 00:59 02.04.2020
177 Clear 30 1010 62 9656 4.6 80 00:38 02.04.2020
178 Clear 30 1010 62 9656 4.6 80 00:19 02.04.2020
179 Clear 29 1011 66 9656 4.1 80 23:39 01.04.2020
180 Clear 30 1011 66 9656 4.1 80 23:19 01.04.2020
181 Clear 30 1011 62 9656 5.1 80 22:56 01.04.2020
182 Clear 30 1011 62 9656 5.1 80 22:37 01.04.2020
183 Clear 30 1011 62 9656 5.1 80 22:19 01.04.2020
184 Clouds 30 1012 62 9656 4.1 50 21:39 01.04.2020
185 Clouds 30 1012 62 9656 4.1 50 21:19 01.04.2020
186 Clouds 30 1013 58 9656 1 140 20:56 01.04.2020
187 Clouds 30 1013 58 9656 1 140 20:38 01.04.2020
188 Clouds 30 1013 58 9656 1 140 20:19 01.04.2020
189 Clouds 30 1014 62 8047 3.6 80 19:57 01.04.2020
190 Clouds 30 1014 62 8047 3.6 80 19:37 01.04.2020
191 Clouds 30 1014 62 8047 3.6 80 19:19 01.04.2020
192 Clouds 29 1015 70 8047 2.6 100 18:41 01.04.2020
193 Clouds 29 1015 70 8047 2.6 100 18:21 01.04.2020
194 Clouds 28 1015 74 8047 1 70 17:56 01.04.2020
195 Clouds 28 1015 74 8047 1 70 17:37 01.04.2020
196 Clouds 28 1015 74 8047 1 70 17:37 01.04.2020
197 Clouds 28 1015 74 8047 1 70 17:18 01.04.2020
198 Mist 27 1014 94 6437 1.8 27 16:56 01.04.2020
199 Mist 26 1014 94 6437 1.8 27 16:38 01.04.2020
200 Mist 26 1014 94 6437 1.8 27 16:20 01.04.2020
201 Mist 24 1014 100 6437 1.8 27 15:42 01.04.2020
202 Mist 24 1014 100 6437 1.8 27 15:22 01.04.2020
203 Mist 23 1013 100 4828 2.13 355 14:59 01.04.2020
204 Mist 23 1013 100 4828 2.13 355 14:39 01.04.2020
205 Mist 23 1013 100 4828 2.13 355 14:21 01.04.2020
206 Rain 23 1011 100 0 0.45 34 13:59 01.04.2020
207 Rain 23 1011 100 0 0.89 34 13:38 01.04.2020
208 Rain 24 1011 100 0 1.69 356 13:20 01.04.2020
209 Rain 24 1011 100 0 1.69 356 12:57 01.04.2020
210 Rain 23 1010 100 0 0.45 34 12:37 01.04.2020
211 Rain 24 1010 100 0 2.74 9 12:18 01.04.2020
212 Rain 24 1010 100 0 2.74 9 12:18 01.04.2020
213 Rain 24 1010 100 0 2.74 9 11:56 01.04.2020
214 Rain 24 1010 100 0 2.74 9 11:37 01.04.2020
215 Rain 24 1010 100 0 2.74 9 11:37 01.04.2020
216 Rain 24 1010 100 0 2.74 9 11:37 01.04.2020
217 Rain 24 1010 100 0 2.74 9 11:18 01.04.2020
218 Rain 24 1011 100 0 2.74 9 10:38 01.04.2020
219 Rain 24 1011 100 0 2.74 9 10:20 01.04.2020
220 Rain 24 1011 100 0 2.74 9 09:58 01.04.2020
221 Rain 24 1011 100 0 2.74 9 09:39 01.04.2020
222 Clouds 25 1011 100 0 3.45 12 09:19 01.04.2020
223 Clouds 26 1012 100 0 3.24 12 08:44 01.04.2020
224 Clouds 26 1012 100 0 0.89 32 08:18 01.04.2020
225 Clouds 26 1015 83 9656 5.1 10 07:48 01.04.2020
226 Clouds 26 1015 83 9656 5.1 10 07:23 01.04.2020
227 Clouds 27 1015 83 9656 6.7 30 06:59 01.04.2020
228 Clouds 27 1015 83 9656 6.7 30 06:38 01.04.2020
229 Clouds 27 1015 83 9656 6.7 30 06:20 01.04.2020
230 Clouds 27 1012 88 9656 4.1 360 04:38 01.04.2020
231 Clouds 28 1012 69 8047 4.6 10 03:36 01.04.2020
232 Clouds 29 1011 66 8047 5.7 20 02:59 01.04.2020
233 Clouds 29 1011 66 8047 5.7 20 02:23 01.04.2020
234 Clouds 29 1011 58 8047 5.7 30 01:43 01.04.2020
235 Clouds 30 1011 58 8047 5.7 30 01:23 01.04.2020
236 Clear 30 1010 55 8047 6.7 70 00:47 01.04.2020
237 Clear 31 1010 55 8047 6.7 70 00:21 01.04.2020
238 Clear 31 1011 55 8047 5.7 60 23:49 31.03.2020
239 Clear 31 1011 55 8047 5.7 60 23:29 31.03.2020
240 Clear 32 1011 59 8047 5.7 60 22:59 31.03.2020
241 Clear 32 1011 59 8047 5.7 60 22:38 31.03.2020
242 Clear 32 1011 59 8047 5.7 60 22:20 31.03.2020
243 Clouds 32 1011 59 8047 5.1 90 21:57 31.03.2020
244 Clouds 32 1011 59 8047 5.1 90 21:39 31.03.2020
245 Clouds 32 1011 59 8047 5.1 90 21:20 31.03.2020
246 Clouds 31 1012 62 8047 4.1 50 20:56 31.03.2020
247 Clouds 31 1012 62 8047 4.1 50 20:37 31.03.2020
248 Clouds 31 1012 62 8047 4.1 50 20:18 31.03.2020
249 Clouds 31 1012 62 8047 4.1 50 20:18 31.03.2020
250 Clouds 31 1012 66 8047 2.45 91 19:54 31.03.2020
251 Clouds 31 1012 66 8047 2.45 91 19:36 31.03.2020
252 Clouds 31 1012 66 8047 2.45 91 19:18 31.03.2020
253 Clouds 30 1013 66 8047 3.6 90 18:41 31.03.2020
254 Clouds 30 1013 66 8047 3.6 90 18:19 31.03.2020
255 Clouds 28 1013 78 8047 0.9 174 17:56 31.03.2020
256 Clouds 28 1013 78 8047 0.9 174 17:37 31.03.2020
257 Clouds 28 1013 78 8047 0.9 174 17:19 31.03.2020
258 Mist 26 1012 94 6437 1.5 350 16:41 31.03.2020
259 Mist 25 1012 94 6437 1.5 350 16:20 31.03.2020
260 Mist 24 1012 100 4828 0.9 174 15:59 31.03.2020
261 Mist 24 1012 100 4828 0.9 174 15:41 31.03.2020
262 Mist 23 1012 100 4828 0.9 174 15:23 31.03.2020
263 Mist 22 1012 100 4828 1.44 171 14:59 31.03.2020
264 Mist 22 1012 100 4828 1.44 171 14:40 31.03.2020
265 Clouds 23 1010 100 0 1.34 24 14:21 31.03.2020
266 Clear 22 1009 100 0 0.89 291 13:54 31.03.2020
267 Clear 22 1009 100 0 0.89 261 13:36 31.03.2020
268 Clear 22 1009 100 0 1.79 254 13:18 31.03.2020
269 Clear 22 1009 100 0 0.45 148 12:42 31.03.2020
270 Clear 21 1009 100 0 0.75 212 12:20 31.03.2020
271 Clear 22 1009 100 0 0.75 212 11:55 31.03.2020
272 Clear 23 1008 100 0 0.75 212 11:36 31.03.2020
273 Clear 23 1009 100 0 0.89 148 11:18 31.03.2020
274 Clear 22 1009 100 0 0.75 212 10:54 31.03.2020
275 Clear 22 1009 100 0 0.75 212 10:36 31.03.2020
276 Clear 23 1009 100 0 0.75 212 10:18 31.03.2020
277 Clear 23 1010 100 0 0.45 148 09:42 31.03.2020
278 Clear 23 1010 100 0 0.45 148 09:24 31.03.2020
279 Clear 23 1010 100 0 0.89 110 08:57 31.03.2020
280 Clear 24 1010 100 0 1.15 262 08:39 31.03.2020
281 Clear 23 1010 100 0 1.15 262 08:19 31.03.2020
282 Clear 23 1010 100 0 1.15 262 08:19 31.03.2020
283 Clear 23 1010 100 0 1.15 262 08:19 31.03.2020
284 Clear 24 1012 88 9656 1.15 262 07:56 31.03.2020
285 Clear 24 1012 88 9656 1.15 262 07:37 31.03.2020
286 Clear 25 1012 88 9656 1.15 262 07:18 31.03.2020
287 Clouds 26 1012 83 8047 1 80 06:45 31.03.2020
288 Clouds 26 1012 83 8047 1 80 06:18 31.03.2020
289 Clouds 26 1012 88 8047 1 70 05:39 31.03.2020
290 Clear 26 1010 83 8047 2.6 80 03:34 31.03.2020
291 Clear 29 1009 58 11265 5.1 80 01:59 31.03.2020
292 Clear 29 1009 58 11265 5.1 80 01:40 31.03.2020
293 Clear 31 1010 43 11265 4.6 90 00:47 31.03.2020
294 Clear 32 1010 43 11265 4.6 90 00:25 31.03.2020
295 Clear 32 1011 46 11265 4.1 80 23:42 30.03.2020
296 Clear 32 1011 46 11265 4.1 80 23:20 30.03.2020
297 Clear 32 1012 49 9656 3.6 70 22:59 30.03.2020
298 Clear 32 1012 49 9656 3.6 70 22:41 30.03.2020
299 Clear 32 1012 49 9656 3.6 70 22:22 30.03.2020
300 Clear 31 1013 52 8047 2.6 90 21:58 30.03.2020
301 Clear 31 1013 52 8047 2.6 90 21:39 30.03.2020
302 Clear 31 1013 52 8047 2.6 90 21:39 30.03.2020
303 Clear 31 1013 52 8047 2.6 90 21:21 30.03.2020
304 Clouds 32 1014 49 9656 4.1 80 20:59 30.03.2020
305 Clouds 32 1014 49 9656 4.1 80 20:39 30.03.2020
306 Clouds 32 1014 49 9656 4.1 80 20:21 30.03.2020
307 Clouds 31 1015 58 8047 2.3 80 19:58 30.03.2020
308 Clouds 31 1015 58 8047 2.3 80 19:39 30.03.2020
309 Clouds 30 1015 58 8047 2.3 80 19:21 30.03.2020
310 Clouds 30 1016 66 8047 2.3 80 18:56 30.03.2020
311 Clouds 30 1016 66 8047 2.3 80 18:36 30.03.2020
312 Clouds 29 1016 66 8047 1.82 105 18:18 30.03.2020
313 Clouds 29 1016 74 8047 1.5 130 17:55 30.03.2020
314 Clouds 28 1016 74 8047 1.5 130 17:36 30.03.2020
315 Clouds 28 1016 74 8047 1.5 130 17:18 30.03.2020
316 Clouds 27 1015 83 8047 1.5 110 16:41 30.03.2020
317 Clouds 27 1015 83 8047 1.5 110 16:21 30.03.2020
318 Haze 25 1015 94 6437 1.82 105 15:56 30.03.2020
319 Haze 25 1015 94 6437 1.82 105 15:56 30.03.2020
320 Haze 25 1015 94 6437 1.82 105 15:38 30.03.2020
321 Haze 25 1015 94 6437 2.98 81 15:20 30.03.2020
322 Clouds 24 1015 94 8047 2.98 81 14:58 30.03.2020
323 Clouds 24 1015 94 8047 2.98 81 14:37 30.03.2020
324 Clouds 25 1015 94 8047 2.85 76 14:18 30.03.2020
325 Clouds 25 1015 94 8047 2.98 81 14:18 30.03.2020
326 Clouds 25 1013 100 0 0.45 102 13:56 30.03.2020
327 Clouds 26 1013 100 0 0.89 103 13:37 30.03.2020
328 Clouds 25 1012 100 0 1.34 81 13:19 30.03.2020
329 Clouds 24 1012 100 0 2.85 76 12:44 30.03.2020
330 Clouds 24 1012 100 0 2.85 76 12:21 30.03.2020
331 -273 0 0 0 0 0 12:21 30.03.2020
332 Clear 26 1012 100 0 1.94 55 11:57 30.03.2020
333 Clear 26 1012 100 0 1.94 55 11:57 30.03.2020
334 Clear 27 1012 100 0 0.45 65 11:39 30.03.2020
335 Clear 27 1012 100 0 0.45 65 11:39 30.03.2020
336 Clear 27 1012 100 0 0.45 55 11:21 30.03.2020
337 Clear 27 1012 100 0 1.79 76 10:41 30.03.2020
338 Clear 27 1012 100 0 0.89 77 10:23 30.03.2020
339 Clear 27 1012 100 0 0.89 79 09:59 30.03.2020
340 Clear 27 1012 100 0 1.34 78 09:40 30.03.2020
341 Clear 27 1013 100 0 1.79 61 09:19 30.03.2020
342 Clear 27 1013 100 0 1.79 55 08:44 30.03.2020
343 Clear 27 1013 100 0 1.79 56 08:23 30.03.2020
344 Clouds 27 1015 94 8047 2.6 360 07:55 30.03.2020
345 Clouds 27 1015 94 8047 2.6 360 07:37 30.03.2020
346 Clouds 27 1015 88 8047 2.45 18 06:59 30.03.2020
347 Clouds 26 1015 88 8047 2.45 18 06:34 30.03.2020
348 Clear 26 1014 88 8047 2.6 350 05:59 30.03.2020
349 Clear 26 1014 88 8047 2.6 350 05:38 30.03.2020
350 Clear 27 1013 83 8047 3.1 40 04:27 30.03.2020
351 Clear 27 1012 83 8047 3.6 60 03:50 30.03.2020
352 Clear 28 1012 78 8047 5.1 60 02:43 30.03.2020
353 Clear 29 1012 74 8047 5.7 50 01:52 30.03.2020
354 Clear 30 1012 70 8047 5.7 60 00:56 30.03.2020
355 Clear 30 1012 70 8047 5.7 60 00:25 30.03.2020
356 Clear 31 1012 66 8047 5.1 60 23:43 29.03.2020
357 Clear 31 1012 66 8047 5.1 60 23:24 29.03.2020
358 Clear 31 1013 62 8047 5.7 50 22:59 29.03.2020
359 Clear 31 1013 62 8047 5.7 50 22:39 29.03.2020
360 Clear 31 1013 62 8047 5.7 50 22:19 29.03.2020
361 Clear 31 1013 70 8047 6.2 60 21:58 29.03.2020
362 Clear 31 1013 70 8047 6.2 60 21:37 29.03.2020
363 Clear 31 1013 70 8047 6.2 60 21:18 29.03.2020
364 Clouds 31 1014 66 8047 6.7 50 20:55 29.03.2020
365 Clouds 31 1014 66 8047 6.7 50 20:37 29.03.2020
366 Clouds 31 1014 66 8047 6.7 50 20:37 29.03.2020
367 Clouds 31 1014 66 8047 6.7 50 20:18 29.03.2020
368 Clear 31 1014 66 8047 6.2 40 19:54 29.03.2020
369 Clear 31 1014 66 8047 6.2 40 19:36 29.03.2020
370 Clear 31 1014 66 8047 6.2 40 19:18 29.03.2020
371 Clouds 31 1014 66 8047 6.7 50 18:54 29.03.2020
372 Clouds 31 1014 66 8047 6.7 50 18:36 29.03.2020
373 Clouds 31 1014 66 8047 6.7 50 18:18 29.03.2020
374 Clear 30 1014 79 8047 6.2 40 17:42 29.03.2020
375 Clear 30 1014 79 8047 6.2 40 17:22 29.03.2020
376 Clear 29 1013 88 8047 3.6 350 16:58 29.03.2020
377 Clear 28 1013 88 8047 3.6 350 16:40 29.03.2020
378 Clear 28 1013 88 8047 3.6 350 16:21 29.03.2020
379 Clear 26 1012 94 8047 2.1 350 15:58 29.03.2020
380 Clear 25 1012 94 8047 2.1 350 15:39 29.03.2020
381 Clear 25 1012 94 8047 2.1 350 15:19 29.03.2020
382 Clear 24 1010 94 8047 1.05 344 14:56 29.03.2020
383 Clear 23 1010 94 8047 1.05 344 14:37 29.03.2020
384 Clear 23 1010 94 8047 1.9 357 14:18 29.03.2020
385 Clear 23 1008 100 0 0.89 281 13:55 29.03.2020
386 Clear 24 1008 100 0 1.34 282 13:36 29.03.2020
387 Clear 24 1008 100 0 0.45 331 13:18 29.03.2020
388 Clear 24 1008 100 0 0.89 331 12:54 29.03.2020
389 Clear 24 1008 100 0 1.9 357 12:36 29.03.2020
390 Clear 24 1007 100 0 2.1 328 12:18 29.03.2020
391 Clear 24 1007 100 0 2.1 328 11:38 29.03.2020
392 Clear 24 1007 100 0 2.1 328 11:19 29.03.2020
393 Clear 24 1007 100 0 2.1 328 10:40 29.03.2020
394 Clear 25 1007 100 0 2.1 328 10:21 29.03.2020
395 Clear 25 1007 100 0 2.1 328 09:57 29.03.2020
396 Clear 26 1007 100 0 0.45 333 09:38 29.03.2020
397 Clear 25 1007 100 0 1.44 3 09:18 29.03.2020
398 Clear 26 1008 100 0 1.44 3 08:45 29.03.2020
399 Clear 26 1008 100 0 1.44 3 08:27 29.03.2020
400 Clear 26 1009 83 9656 1.44 3 07:48 29.03.2020
401 Clear 26 1009 83 9656 1.44 3 07:24 29.03.2020
402 Clear 27 1008 83 9656 1 320 06:55 29.03.2020
403 Clear 27 1006 83 8047 1 50 04:57 29.03.2020
404 Clear 28 1005 78 8047 2.6 110 03:41 29.03.2020
405 Clear 28 1005 78 8047 2.6 110 03:22 29.03.2020
406 Clear 29 1004 70 9656 2.6 100 01:44 29.03.2020
407 Clear 29 1004 70 9656 2.6 100 01:23 29.03.2020
408 Clear 30 1004 66 9656 5.1 80 00:46 29.03.2020
409 Clear 31 1004 66 9656 5.1 80 00:28 29.03.2020
410 Clear 31 1004 62 8047 4.1 100 23:41 28.03.2020
411 Clear 31 1004 62 8047 4.1 100 23:23 28.03.2020
412 Clear 32 1004 62 8047 4.6 90 22:54 28.03.2020
413 Clear 32 1004 62 8047 4.6 90 22:36 28.03.2020
414 Clear 32 1004 62 8047 4.6 90 22:18 28.03.2020
415 Clear 32 1005 59 8047 6.2 80 21:40 28.03.2020
416 Clear 32 1005 59 8047 6.2 80 21:40 28.03.2020
417 Clear 32 1005 59 8047 6.2 80 21:21 28.03.2020
418 Clear 34 1006 47 8047 6.2 160 20:57 28.03.2020
419 Clear 34 1006 47 8047 6.2 160 20:38 28.03.2020
420 Clear 36 1006 47 8047 6.2 160 20:20 28.03.2020
421 Clear 34 1007 52 8047 2.6 170 19:55 28.03.2020
422 Clear 34 1007 52 8047 2.6 170 19:36 28.03.2020
423 Clear 34 1007 52 8047 2.6 170 19:36 28.03.2020
424 Clear 34 1007 52 8047 2.6 170 19:18 28.03.2020
425 Clear 32 1008 59 8047 3.6 180 18:42 28.03.2020
426 Clear 32 1008 59 8047 3.6 180 18:21 28.03.2020
427 Clear 31 1008 62 8047 2.1 140 17:43 28.03.2020
428 Clear 31 1008 62 8047 2.1 140 17:24 28.03.2020
429 Clear 29 1009 74 8047 3.6 170 17:00 28.03.2020
430 Clear 29 1009 74 8047 3.6 170 16:59 28.03.2020
431 Clear 29 1009 74 8047 3.6 170 16:40 28.03.2020
432 Clear 28 1009 74 8047 3.6 170 16:20 28.03.2020
433 Clear 27 1008 74 8047 2.1 170 15:55 28.03.2020
434 Clear 27 1008 74 8047 2.1 170 15:37 28.03.2020
435 Clear 27 1008 74 8047 2.1 170 15:18 28.03.2020
436 Clear 25 1008 78 8047 4.51 159 14:41 28.03.2020
437 Clear 24 1008 78 8047 4.51 159 14:21 28.03.2020
438 Clear 24 1008 78 8047 2.1 190 13:44 28.03.2020
439 Clear 24 1008 78 8047 2.1 190 13:25 28.03.2020
440 Clear 24 1006 100 0 0.45 244 12:57 28.03.2020
441 Clear 24 1005 100 0 0.89 244 12:37 28.03.2020
442 Clear 24 1005 100 0 0.89 244 12:18 28.03.2020
443 Clear 24 1005 100 0 0.89 244 11:41 28.03.2020
444 Clear 24 1005 100 0 0.45 244 11:21 28.03.2020
445 Clear 24 1005 100 0 0.89 244 10:40 28.03.2020
446 Clear 24 1005 100 0 0.89 244 10:22 28.03.2020
447 Clear 24 1005 100 0 2.99 203 09:56 28.03.2020
448 Clear 24 1005 100 0 0.45 244 09:37 28.03.2020
449 Clear 26 1005 100 0 1.34 237 09:19 28.03.2020
450 Clear 26 1005 100 0 0.89 182 08:42 28.03.2020
451 Clear 26 1006 100 0 0.45 277 08:22 28.03.2020
452 Clear 25 1006 100 0 0.89 296 07:46 28.03.2020
453 Clear 26 1006 100 0 2.25 189 07:28 28.03.2020
454 Clear 27 1008 88 9656 2.25 189 06:37 28.03.2020
455 Clear 27 1008 88 9656 2.25 189 06:18 28.03.2020
456 Clear 27 1007 94 9656 2.25 189 05:21 28.03.2020
457 Clear 28 1006 83 9656 1.5 90 04:42 28.03.2020
458 Clear 27 1005 88 8047 2.44 118 03:55 28.03.2020
459 Clear 28 1004 83 8047 1.5 120 02:26 28.03.2020
460 Clear 29 1003 74 9656 3.1 110 01:43 28.03.2020
461 Clear 29 1003 74 9656 3.1 110 01:18 28.03.2020
462 Clear 30 1003 70 9656 1.5 110 00:45 28.03.2020
463 Clear 30 1003 70 9656 1.5 110 00:20 28.03.2020
464 Clear 31 1004 62 9656 5.1 100 23:42 27.03.2020
465 Clear 31 1004 62 9656 5.1 100 23:22 27.03.2020
466 Clear 32 1005 59 9656 4.6 100 22:56 27.03.2020
467 Clear 32 1005 59 9656 4.6 100 22:38 27.03.2020
468 Clear 32 1005 59 9656 4.6 100 22:20 27.03.2020
469 Clear 32 1006 55 9656 3.6 70 21:45 27.03.2020
470 Clear 32 1006 55 9656 3.6 70 21:25 27.03.2020
471 Clear 33 1006 52 8047 2.6 110 20:59 27.03.2020
472 Clear 33 1006 52 8047 2.6 110 20:41 27.03.2020
473 Clear 32 1007 59 8047 4.1 80 20:21 27.03.2020
474 Clear 34 1008 39 8047 1.5 140 19:58 27.03.2020
475 Clear 34 1008 39 8047 1.5 140 19:40 27.03.2020
476 Clear 34 1008 39 8047 1.5 140 19:21 27.03.2020
477 Clear 34 1009 43 8047 3.6 140 18:45 27.03.2020
478 Clear 33 1009 43 8047 3.6 140 18:25 27.03.2020
479 Clear 32 1009 52 8047 4.1 180 17:59 27.03.2020
480 Clear 32 1009 52 8047 4.1 180 17:40 27.03.2020
481 Clear 31 1009 52 8047 4.1 180 17:20 27.03.2020
482 Clear 29 1009 62 8047 3.6 210 16:44 27.03.2020
483 Clear 30 1009 62 8047 3.6 210 16:26 27.03.2020
484 Clear 27 1009 83 8047 3.78 167 15:56 27.03.2020
485 Clear 26 1009 83 8047 3.78 167 15:38 27.03.2020
486 Clear 25 1009 83 8047 3.78 167 15:20 27.03.2020
487 Mist 22 1008 94 8047 3.78 167 14:45 27.03.2020
488 Mist 23 1008 94 8047 3.78 167 14:24 27.03.2020
489 Mist 21 1008 100 8047 3.81 157 13:55 27.03.2020
490 Rain 21 1008 100 8047 3.81 157 13:37 27.03.2020
491 Rain 21 1008 100 8047 3.99 159 13:18 27.03.2020
492 Clear 22 1006 100 0 3.99 159 12:43 27.03.2020
493 Clear 22 1006 100 0 0.45 184 12:19 27.03.2020
494 Clear 22 1006 100 0 0.45 184 11:57 27.03.2020
495 Clear 22 1006 100 0 0.45 184 11:39 27.03.2020
496 Clear 22 1006 100 0 0.89 184 11:21 27.03.2020
497 Clear 22 1006 100 0 0.89 145 10:42 27.03.2020
498 Clear 22 1006 100 0 0.45 145 10:22 27.03.2020
499 Clear 22 1006 100 0 0.45 145 10:22 27.03.2020
500 Clear 23 1007 100 0 3.37 210 09:59 27.03.2020
501 Clear 23 1007 100 0 3.37 210 09:41 27.03.2020
502 Clear 23 1007 100 0 3.37 210 09:22 27.03.2020
503 Clear 23 1007 100 0 3.37 210 08:59 27.03.2020
504 Clear 22 1007 100 0 3.37 210 08:40 27.03.2020
505 Clear 22 1007 100 0 3.37 210 08:22 27.03.2020
506 Clear 23 1008 100 0 1.61 215 07:59 27.03.2020
507 Clear 24 1008 100 0 1.61 215 07:41 27.03.2020
508 Clear 24 1008 100 0 0.45 115 07:21 27.03.2020
509 Clear 25 1010 94 9656 1.61 215 06:40 27.03.2020
510 Clear 26 1010 88 9656 1.61 215 05:51 27.03.2020
511 Clear 27 1008 83 9656 2.1 110 03:34 27.03.2020
512 Clear 29 1008 58 11265 1.5 110 01:55 27.03.2020
513 Clear 30 1008 58 11265 1.5 110 01:18 27.03.2020
514 Clear 31 1008 58 11265 3.6 100 00:41 27.03.2020
515 Clear 31 1008 58 11265 3.6 100 00:41 27.03.2020
516 Clear 31 1008 58 11265 3.6 100 00:19 27.03.2020
517 Clear 32 1009 55 11265 3.1 110 23:37 26.03.2020
518 Clear 32 1009 55 11265 3.1 110 23:18 26.03.2020
519 Clear 33 1009 52 9656 3.6 100 22:56 26.03.2020
520 Clear 33 1009 52 9656 3.6 100 22:36 26.03.2020
521 Clear 33 1009 52 9656 3.6 100 22:18 26.03.2020
522 Clear 32 1011 55 9656 3.1 110 21:40 26.03.2020
523 Clear 32 1011 55 9656 3.1 110 21:21 26.03.2020
524 Clouds 33 1012 52 8047 4.6 80 20:59 26.03.2020
525 Clouds 33 1012 52 8047 4.6 80 20:39 26.03.2020
526 Clouds 33 1012 52 8047 4.6 80 20:21 26.03.2020
527 Clouds 33 1012 52 8047 4.6 80 20:21 26.03.2020
528 Clouds 32 1012 55 8047 1.5 130 19:58 26.03.2020
529 Clouds 32 1012 55 8047 1.5 130 19:58 26.03.2020
530 Clouds 32 1012 55 8047 1.5 130 19:39 26.03.2020
531 Clouds 32 1012 55 8047 1.5 130 19:20 26.03.2020
532 Clear 31 1013 62 6437 1 140 18:58 26.03.2020
533 Clear 31 1013 62 6437 1 140 18:39 26.03.2020
534 Clear 31 1013 62 6437 1 140 18:21 26.03.2020
535 Clouds 29 1013 78 6437 1 130 17:44 26.03.2020
536 Clouds 29 1013 78 6437 1 130 17:19 26.03.2020
537 Haze 28 1013 69 4828 2.58 165 16:55 26.03.2020
538 Haze 28 1013 69 4828 2.58 165 16:55 26.03.2020
539 Haze 28 1013 69 4828 2.58 165 16:37 26.03.2020
540 Haze 28 1013 69 4828 2.58 165 16:18 26.03.2020
541 Rain 25 1012 100 3219 2.58 165 15:41 26.03.2020
542 Rain 24 1012 100 3219 2.58 165 15:22 26.03.2020
543 Rain 23 1012 94 3219 2.58 165 14:59 26.03.2020
544 Mist 22 1012 94 3219 2.58 165 14:41 26.03.2020
545 Mist 22 1012 94 3219 2.58 165 14:23 26.03.2020
546 Mist 21 1011 100 3219 0.57 191 13:45 26.03.2020
547 Mist 21 1011 100 3219 0.57 191 13:24 26.03.2020
548 Mist 21 1011 100 3219 0.57 191 13:24 26.03.2020
549 Clear 22 1010 100 0 0.89 132 12:59 26.03.2020
550 Clear 22 1009 100 0 0.89 129 12:38 26.03.2020
551 Clear 22 1009 100 0 1.09 177 12:20 26.03.2020
552 Clear 23 1009 100 0 1.09 177 11:46 26.03.2020
553 Clear 23 1009 100 0 1.09 177 11:22 26.03.2020
554 Clear 24 1009 100 0 0.78 299 10:56 26.03.2020
555 Clear 24 1009 100 0 0.78 299 10:56 26.03.2020
556 Clear 24 1009 100 0 0.78 299 10:56 26.03.2020
557 Clear 24 1009 100 0 0.78 299 10:38 26.03.2020
558 Clear 23 1009 100 0 0.78 299 10:19 26.03.2020
559 Clear 23 1009 100 0 0.78 299 09:44 26.03.2020
560 Clear 23 1009 100 0 0.78 299 09:20 26.03.2020
561 Clear 24 1010 100 0 0.78 299 08:55 26.03.2020
562 Clear 24 1010 100 0 0.45 67 08:37 26.03.2020
563 Clear 24 1010 100 0 1.38 294 08:18 26.03.2020
564 Clear 24 1010 100 0 0.45 44 07:44 26.03.2020
565 Clear 25 1010 100 0 1.53 300 07:21 26.03.2020
566 Clear 25 1012 94 9656 1.53 300 06:48 26.03.2020
567 Clear 25 1012 88 9656 2.1 10 05:57 26.03.2020
568 Clear 26 1012 88 9656 1.45 67 04:33 26.03.2020
569 Clear 27 1010 88 9656 2.1 40 03:44 26.03.2020
570 Clear 27 1010 83 8047 1.45 67 02:55 26.03.2020
571 Clear 29 1009 70 9656 2.1 90 01:50 26.03.2020
572 Clear 30 1009 58 9656 4.1 60 00:52 26.03.2020
573 Clear 32 1009 59 9656 4.6 80 23:59 25.03.2020
574 Clear 32 1009 59 9656 4.6 80 23:40 25.03.2020
575 Clear 32 1009 59 9656 4.6 80 23:20 25.03.2020
576 Clear 33 1010 55 8047 2.1 120 22:40 25.03.2020
577 Clear 33 1010 55 8047 2.1 120 22:21 25.03.2020
578 Clear 32 1011 59 8047 4.1 90 21:56 25.03.2020
579 Clear 32 1011 59 8047 4.1 90 21:37 25.03.2020
580 Clear 32 1011 59 8047 4.1 90 21:19 25.03.2020
581 Clear 32 1012 59 8047 3.6 110 20:55 25.03.2020
582 Clear 32 1012 59 8047 3.6 110 20:37 25.03.2020
583 Clear 32 1012 59 8047 3.6 110 20:18 25.03.2020
584 Clear 32 1013 66 8047 5.1 80 19:42 25.03.2020
585 Clear 31 1013 66 8047 5.1 80 19:22 25.03.2020
586 Clear 31 1013 66 8047 3.6 60 18:57 25.03.2020
587 Clear 31 1013 66 8047 3.6 60 18:38 25.03.2020
588 Clear 31 1013 66 8047 3.6 60 18:20 25.03.2020
589 Clear 31 1013 66 8047 2.95 89 17:55 25.03.2020
590 Clear 30 1013 66 8047 2.7 84 17:36 25.03.2020
591 Clear 30 1013 66 8047 1.87 127 17:18 25.03.2020
592 Clear 29 1013 74 8047 1.87 127 16:43 25.03.2020
593 Clear 29 1013 74 8047 1.72 113 16:22 25.03.2020
594 Haze 27 1013 88 6437 1.5 40 15:57 25.03.2020
595 Haze 26 1013 88 6437 1.5 40 15:38 25.03.2020
596 Haze 26 1013 88 6437 1.5 40 15:19 25.03.2020
597 Mist 24 1012 94 6437 1.72 113 14:42 25.03.2020
598 Mist 23 1012 94 6437 1.72 113 14:21 25.03.2020
599 Mist 23 1012 94 6437 2.1 330 13:46 25.03.2020
600 Mist 23 1012 94 6437 2.1 330 13:26 25.03.2020
601 Clear 23 1010 100 0 1.35 221 12:57 25.03.2020
602 Clear 23 1010 100 0 1.35 221 12:37 25.03.2020
603 Clear 23 1010 100 0 1.35 221 12:18 25.03.2020
604 Clear 23 1009 100 0 1.35 221 11:43 25.03.2020
605 Clear 23 1009 100 0 1.35 221 11:21 25.03.2020
606 Clear 23 1010 100 0 0.45 302 10:59 25.03.2020
607 Clear 23 1010 100 0 0.45 302 10:40 25.03.2020
608 Clear 23 1010 100 0 0.45 302 10:19 25.03.2020
609 Clear 23 1010 100 0 0.45 302 09:59 25.03.2020
610 Clear 23 1010 100 0 1.34 287 09:40 25.03.2020
611 Clear 23 1010 100 0 0.94 241 09:22 25.03.2020
612 Clear 24 1010 100 0 0.94 241 08:43 25.03.2020
613 Clear 24 1011 100 0 0.94 241 08:25 25.03.2020
614 Clear 25 1011 100 0 0.45 121 07:59 25.03.2020
615 Clear 24 1011 100 0 0.76 314 07:39 25.03.2020
616 Clear 24 1011 100 0 0.76 314 07:39 25.03.2020
617 Clear 23 1011 100 0 0.76 314 07:19 25.03.2020
618 Clear 24 1013 100 9656 0.76 314 06:45 25.03.2020
619 Clear 24 1013 100 9656 0.76 314 06:25 25.03.2020
620 Clear 25 1012 94 9656 0.76 314 05:48 25.03.2020
621 Clear 26 1012 94 9656 1.44 97 04:46 25.03.2020
622 Clear 26 1011 88 9656 1.44 97 03:58 25.03.2020
623 Clear 26 1011 88 9656 1.44 97 03:34 25.03.2020
624 Clear 27 1009 78 11265 4.1 100 01:41 25.03.2020
625 Clear 29 1009 58 11265 3.1 110 00:58 25.03.2020
626 Clear 29 1009 58 11265 3.1 110 00:40 25.03.2020
627 Clear 30 1009 58 11265 3.1 110 00:18 25.03.2020
628 Clear 31 1010 52 11265 5.7 90 23:40 24.03.2020
629 Clear 31 1010 52 11265 5.7 90 23:21 24.03.2020
630 Clear 32 1010 43 11265 6.2 80 22:55 24.03.2020
631 Clear 32 1010 43 11265 6.2 80 22:36 24.03.2020
632 Clear 33 1010 43 11265 6.2 80 22:18 24.03.2020
633 Clear 33 1011 46 9656 5.1 100 21:43 24.03.2020
634 Clear 33 1011 46 9656 5.1 100 21:19 24.03.2020
635 Clear 33 1012 52 9656 2.6 110 20:59 24.03.2020
636 Clear 33 1012 52 9656 2.6 110 20:41 24.03.2020
637 Clear 33 1012 52 9656 2.6 110 20:23 24.03.2020
638 Clear 32 1014 52 9656 2.1 170 19:48 24.03.2020
639 Clear 32 1014 52 9656 2.1 170 19:48 24.03.2020
640 Clear 32 1014 52 9656 2.1 170 19:24 24.03.2020
641 Clear 32 1014 58 9656 3.76 119 18:59 24.03.2020
642 Clear 32 1014 58 9656 3.76 119 18:40 24.03.2020
643 -273 0 0 0 0 0 18:20 24.03.2020
644 Clear 31 1014 58 9656 3.76 119 18:20 24.03.2020
645 Clear 30 1015 70 9656 3.76 119 17:59 24.03.2020
646 Clear 30 1015 70 9656 3.76 119 17:40 24.03.2020
647 Clear 29 1015 70 9656 3.76 119 17:22 24.03.2020
648 Clouds 28 1015 78 8047 1.5 150 16:57 24.03.2020
649 Clouds 28 1015 78 8047 1.5 150 16:38 24.03.2020
650 Clouds 28 1015 78 8047 1.5 150 16:20 24.03.2020
651 Clear 26 1015 88 9656 3.39 144 15:44 24.03.2020
652 Clear 26 1015 88 9656 3.39 144 15:44 24.03.2020
653 Clear 26 1015 88 9656 3.39 144 15:25 24.03.2020
654 Clear 24 1014 100 8047 3.39 144 14:57 24.03.2020
655 Clear 23 1014 100 8047 3.39 144 14:37 24.03.2020
656 Clear 22 1014 100 8047 1.56 150 14:18 24.03.2020
657 Clear 22 1014 100 8047 1.56 150 13:41 24.03.2020
658 Clear 22 1014 100 8047 1.7 154 13:22 24.03.2020
659 Clear 22 1012 100 0 0.89 96 12:45 24.03.2020
660 Clear 22 1012 100 0 1.7 154 12:27 24.03.2020
661 Clear 22 1012 100 0 1.7 154 11:58 24.03.2020
662 Clear 23 1012 100 0 0.45 119 11:38 24.03.2020
663 Clear 23 1012 100 0 0.45 111 11:18 24.03.2020
664 Clear 23 1012 100 0 0.45 111 10:42 24.03.2020
665 Clear 23 1012 100 0 0.64 267 10:19 24.03.2020
666 Clear 23 1012 100 0 0.64 267 10:19 24.03.2020
667 Clear 23 1012 100 0 0.64 267 09:49 24.03.2020
668 Clear 24 1013 100 0 0.45 111 09:27 24.03.2020
669 Clear 24 1013 100 0 0.45 111 08:58 24.03.2020
670 Clear 23 1014 100 0 0.45 111 08:38 24.03.2020
671 Clear 24 1014 100 0 0.45 111 08:20 24.03.2020
672 Clear 24 1014 100 0 0.45 111 07:45 24.03.2020
673 Clear 24 1014 100 0 0.45 111 07:23 24.03.2020
674 Clouds 25 1016 94 9656 0.83 248 06:42 24.03.2020
675 Clouds 25 1016 94 9656 0.83 248 06:23 24.03.2020
676 Clear 26 1015 88 9656 3.17 79 04:53 24.03.2020
677 Clear 26 1015 88 9656 3.17 79 03:43 24.03.2020
678 Clear 26 1014 83 9656 4.1 80 02:45 24.03.2020
679 Clear 28 1014 74 11265 3.1 90 01:22 24.03.2020
680 Clear 30 1014 52 11265 4.1 90 00:41 24.03.2020
681 Clear 30 1014 52 11265 4.1 90 00:22 24.03.2020
682 Clear 30 1014 62 11265 3.6 100 23:39 23.03.2020
683 Clear 31 1014 62 11265 3.6 100 23:20 23.03.2020
684 Clear 31 1014 58 11265 2.6 110 22:45 23.03.2020
685 Clear 31 1014 58 11265 2.6 110 22:24 23.03.2020
686 Clouds 32 1015 55 11265 3.1 110 21:57 23.03.2020
687 Clouds 32 1015 55 11265 3.1 110 21:38 23.03.2020
688 Clouds 32 1015 55 11265 3.1 110 21:20 23.03.2020
689 Clouds 32 1016 59 11265 2.6 100 20:56 23.03.2020
690 Clouds 32 1016 59 11265 2.6 100 20:56 23.03.2020
691 Clouds 32 1016 59 11265 2.6 100 20:38 23.03.2020
692 Clouds 32 1016 59 11265 2.6 100 20:19 23.03.2020
693 Clouds 31 1017 55 11265 2.1 160 19:44 23.03.2020
694 Clouds 31 1017 55 11265 2.1 160 19:24 23.03.2020
695 Clouds 29 1018 62 9656 1.5 80 18:56 23.03.2020
696 Clouds 30 1018 62 9656 1.5 80 18:38 23.03.2020
697 Clouds 29 1018 62 9656 1.5 80 18:20 23.03.2020
698 Clouds 29 1019 69 9656 3 87 17:42 23.03.2020
699 Clouds 29 1019 69 9656 3 87 17:21 23.03.2020
700 Clouds 27 1019 78 8047 2.48 111 16:56 23.03.2020
701 Clouds 27 1019 78 8047 2.48 111 16:38 23.03.2020
702 Clouds 27 1019 78 8047 2.48 111 16:19 23.03.2020
703 Clouds 25 1019 94 8047 2.48 111 15:41 23.03.2020
704 Clouds 24 1019 94 8047 2.48 111 15:19 23.03.2020
705 Clouds 23 1018 100 8047 2.48 111 14:38 23.03.2020
706 Clouds 22 1018 100 8047 3.11 86 14:20 23.03.2020
707 Clouds 23 1018 94 8047 3.11 86 13:57 23.03.2020
708 Clouds 23 1018 94 8047 3.11 86 13:39 23.03.2020
709 Clouds 23 1018 94 8047 3.11 86 13:20 23.03.2020
710 Clear 22 1017 94 9656 2.76 84 12:44 23.03.2020
711 Clear 22 1016 100 0 2.76 84 12:25 23.03.2020
712 Clear 22 1015 100 0 2.76 84 11:58 23.03.2020
713 Clear 22 1015 100 0 2.76 84 11:38 23.03.2020
714 Clear 22 1015 100 0 1.82 352 11:19 23.03.2020
715 Clear 23 1015 100 0 1.82 352 10:56 23.03.2020
716 Clear 23 1015 100 0 1.82 352 10:37 23.03.2020
717 Clear 23 1015 100 0 1.82 352 10:19 23.03.2020
718 Clear 23 1015 100 0 1.82 352 09:44 23.03.2020
719 Clear 23 1016 100 0 1.82 352 09:21 23.03.2020
720 Clear 23 1016 100 0 1.82 352 08:40 23.03.2020
721 Clear 24 1016 100 0 2.43 4 08:21 23.03.2020
722 Clear 24 1016 100 0 1.88 287 07:59 23.03.2020
723 Clear 24 1016 100 0 1.88 287 07:59 23.03.2020
724 Clear 24 1017 100 0 1.88 287 07:40 23.03.2020
725 Clear 24 1017 100 0 1.88 287 07:19 23.03.2020
726 Clouds 25 1018 88 9656 1.88 287 06:48 23.03.2020
727 Clouds 25 1018 88 9656 1.88 287 05:51 23.03.2020
728 Clouds 25 1018 88 9656 2.24 46 04:58 23.03.2020
729 Clear 26 1017 83 9656 3.1 80 03:26 23.03.2020
730 Clear 27 1015 69 11265 3.6 80 01:50 23.03.2020
731 Clear 28 1015 69 11265 4.1 100 00:58 23.03.2020
732 Clear 28 1015 69 11265 4.1 100 00:36 23.03.2020
733 Clear 29 1015 62 11265 6.7 70 23:47 22.03.2020
734 Clear 29 1015 62 11265 6.7 70 23:25 22.03.2020
735 Clear 30 1015 58 11265 4.1 90 22:45 22.03.2020
736 Clear 30 1015 58 11265 4.1 90 22:24 22.03.2020
737 Clear 31 1016 46 11265 1.5 110 21:56 22.03.2020
738 Clear 31 1016 46 11265 1.5 110 21:37 22.03.2020
739 Clear 31 1016 46 11265 1.5 110 21:19 22.03.2020
740 Clouds 32 1016 43 11265 4.1 60 20:46 22.03.2020
741 Clouds 32 1016 43 11265 4.1 60 20:25 22.03.2020
742 Clouds 31 1018 45 11265 1.5 100 19:58 22.03.2020
743 Clouds 31 1018 45 11265 1.5 100 19:40 22.03.2020
744 Clouds 31 1018 45 11265 1.5 100 19:20 22.03.2020
745 Clouds 31 1019 51 9656 2.47 69 18:59 22.03.2020
746 Clouds 31 1019 51 9656 2.47 69 18:41 22.03.2020
747 Clouds 30 1019 51 9656 2.47 69 18:22 22.03.2020
748 Clouds 30 1019 58 9656 2.47 69 17:59 22.03.2020
749 Clouds 30 1019 58 9656 2.47 69 17:39 22.03.2020
750 Clouds 29 1019 58 9656 1.17 80 17:20 22.03.2020
751 Clouds 28 1019 69 8047 1.17 80 16:58 22.03.2020
752 Clouds 28 1019 69 8047 1.17 80 16:58 22.03.2020
753 Clouds 28 1019 69 8047 1.17 80 16:39 22.03.2020
754 Clouds 27 1019 69 8047 1.17 80 16:21 22.03.2020
755 Clouds 25 1019 94 8047 1.17 80 15:56 22.03.2020
756 Clouds 25 1019 94 8047 1.17 80 15:38 22.03.2020
757 Mist 23 1018 100 8047 1.17 80 14:46 22.03.2020
758 Mist 22 1018 100 8047 1.26 40 14:19 22.03.2020
759 Clear 22 1018 94 8047 1.26 40 13:55 22.03.2020
760 Clear 21 1018 94 8047 1.26 40 13:37 22.03.2020
761 Clear 22 1018 94 8047 1.57 32 13:18 22.03.2020
762 Rain 22 1016 100 0 0.45 147 12:43 22.03.2020
763 Rain 22 1016 100 0 0.45 147 12:20 22.03.2020
764 Rain 22 1016 100 0 0.89 147 11:55 22.03.2020
765 Rain 23 1016 100 0 0.45 147 11:36 22.03.2020
766 Clouds 23 1016 100 0 0.89 70 11:18 22.03.2020
767 Clouds 22 1015 100 0 0.89 342 10:42 22.03.2020
768 Clouds 23 1016 100 0 0.45 342 10:23 22.03.2020
769 Clouds 23 1016 100 0 2.42 0 09:47 22.03.2020
770 Clouds 23 1016 100 0 2.42 0 09:28 22.03.2020
771 Clouds 24 1016 100 0 0.45 342 08:53 22.03.2020
772 Clouds 24 1016 100 0 0.45 342 08:53 22.03.2020
773 Clouds 24 1016 100 0 0.89 342 08:33 22.03.2020
774 Clouds 24 1017 100 0 1.34 342 07:59 22.03.2020
775 Clouds 24 1017 100 0 1.79 348 07:41 22.03.2020
776 Clouds 25 1020 94 9656 2.1 360 06:48 22.03.2020
777 Clouds 25 1019 88 9656 2.6 10 05:52 22.03.2020
778 Clouds 25 1019 88 9656 4.1 30 04:39 22.03.2020
779 Clouds 26 1018 83 8047 5.1 30 02:34 22.03.2020
780 Clouds 28 1017 74 11265 5.1 50 00:51 22.03.2020
781 Clouds 28 1017 74 11265 5.1 50 00:32 22.03.2020
782 Clouds 28 1017 74 11265 6.2 20 23:46 21.03.2020
783 Clouds 28 1017 74 11265 6.2 20 23:23 21.03.2020
784 Clouds 29 1018 66 11265 5.7 40 22:59 21.03.2020
785 Clouds 29 1018 66 11265 5.7 40 22:38 21.03.2020
786 Clouds 29 1018 66 11265 5.7 40 22:38 21.03.2020
787 Clouds 29 1018 66 11265 5.7 40 22:20 21.03.2020
788 Clouds 30 1018 62 9656 5.1 40 21:58 21.03.2020
789 Clouds 30 1018 62 9656 5.1 40 21:38 21.03.2020
790 Clouds 30 1018 62 9656 5.1 40 21:19 21.03.2020
791 Clouds 30 1019 62 9656 5.1 50 20:42 21.03.2020
792 Clouds 30 1019 62 9656 5.1 50 20:22 21.03.2020
793 Clouds 30 1020 62 9656 3.6 20 19:55 21.03.2020
794 Clouds 30 1020 62 9656 3.6 20 19:36 21.03.2020
795 Clouds 30 1020 62 9656 3.6 20 19:18 21.03.2020
796 Clouds 29 1021 66 9656 4.6 360 18:41 21.03.2020
797 Clouds 29 1021 66 9656 4.6 360 18:21 21.03.2020
798 Clouds 30 1021 62 9656 6.2 40 17:59 21.03.2020
799 Clouds 30 1021 62 9656 6.2 40 17:41 21.03.2020
800 Clouds 30 1021 62 9656 6.2 40 17:22 21.03.2020
801 Clouds 28 1020 69 9656 3.1 360 16:42 21.03.2020
802 Clouds 28 1020 69 9656 3.1 360 16:23 21.03.2020
803 Clouds 27 1020 83 8047 4.1 50 15:59 21.03.2020
804 Clouds 27 1020 83 8047 4.1 50 15:40 21.03.2020
805 Clouds 27 1020 83 8047 4.1 50 15:21 21.03.2020
806 Clouds 26 1019 88 8047 4.1 360 14:56 21.03.2020
807 Clouds 26 1019 88 8047 4.1 360 14:38 21.03.2020
808 Clouds 25 1019 88 8047 4.1 360 14:19 21.03.2020
809 Clouds 25 1019 88 9656 3.6 20 13:57 21.03.2020
810 Clouds 25 1019 88 9656 3.6 20 13:38 21.03.2020
811 Clouds 25 1019 88 9656 3.6 20 13:38 21.03.2020
812 Clouds 25 1019 88 9656 3.6 20 13:20 21.03.2020
813 Clouds 25 1019 88 9656 3.6 20 12:41 21.03.2020
814 Rain 26 1017 100 0 3.58 36 12:21 21.03.2020
815 Rain 26 1016 100 0 3.13 40 11:59 21.03.2020
816 Rain 26 1016 100 0 3.58 37 11:39 21.03.2020
817 Clouds 26 1016 100 0 3.58 16 11:20 21.03.2020
818 Clouds 26 1016 100 0 3.58 16 11:20 21.03.2020
819 Clouds 26 1016 100 0 2.68 22 10:58 21.03.2020
820 Clouds 26 1016 100 0 2.68 28 10:40 21.03.2020
821 Clouds 26 1016 100 0 2.24 21 10:22 21.03.2020
822 Clouds 26 1016 100 0 1.79 360 09:59 21.03.2020
823 Clouds 26 1016 100 0 1.79 360 09:39 21.03.2020
824 Clouds 26 1016 100 0 3.13 27 09:20 21.03.2020
825 Clouds 26 1016 100 0 2.24 5 08:55 21.03.2020
826 Clouds 26 1016 100 0 2.24 360 08:37 21.03.2020
827 Clouds 26 1016 100 0 2.24 360 08:19 21.03.2020
828 Clouds 26 1016 100 0 1.79 5 07:37 21.03.2020
829 Clouds 26 1018 94 9656 2.1 10 07:19 21.03.2020
830 Clouds 26 1018 94 9656 2.1 10 06:44 21.03.2020
831 Clouds 25 1018 94 9656 2.1 10 06:24 21.03.2020
832 Clouds 26 1017 94 9656 2.6 350 05:40 21.03.2020
833 Clouds 26 1016 88 9656 3.6 20 03:49 21.03.2020
834 Clouds 26 1015 88 9656 2.1 50 02:37 21.03.2020
835 Clouds 27 1014 78 9656 4.6 50 01:44 21.03.2020
836 Clouds 27 1014 78 9656 4.6 50 01:23 21.03.2020
837 Clouds 28 1014 78 9656 5.7 50 00:39 21.03.2020
838 Clouds 28 1014 78 9656 5.7 50 00:21 21.03.2020
839 Clouds 29 1013 74 9656 5.1 50 23:42 20.03.2020
840 Clouds 29 1013 74 9656 5.1 50 23:22 20.03.2020
841 Clouds 30 1014 74 8047 6.2 30 22:44 20.03.2020
842 Clouds 29 1014 74 8047 6.2 30 22:25 20.03.2020
843 Clouds 30 1014 70 8047 5.1 60 21:58 20.03.2020
844 Clouds 30 1014 70 8047 5.1 60 21:40 20.03.2020
845 Clouds 30 1014 70 8047 5.1 60 21:20 20.03.2020
846 Clouds 30 1015 62 8047 4.1 70 20:58 20.03.2020
847 Clouds 31 1015 62 8047 4.1 70 20:40 20.03.2020
848 Clouds 31 1015 62 8047 4.1 70 20:19 20.03.2020
849 Clouds 31 1016 66 8047 3.1 70 19:47 20.03.2020
850 Clouds 30 1016 66 8047 3.1 70 19:20 20.03.2020
851 Clouds 30 1016 66 8047 2.6 90 18:57 20.03.2020
852 Clouds 30 1016 66 8047 2.6 90 18:38 20.03.2020
853 Clouds 30 1016 66 8047 2.6 90 18:19 20.03.2020
854 Clouds 30 1016 70 8047 1 100 17:56 20.03.2020
855 Clouds 30 1016 70 8047 1 100 17:37 20.03.2020
856 Clouds 29 1016 70 8047 1 100 17:18 20.03.2020
857 Clear 28 1016 74 6437 1.05 25 16:41 20.03.2020
858 Clear 28 1016 74 6437 1.05 25 16:41 20.03.2020
859 -273 0 0 0 0 0 16:21 20.03.2020
860 Mist 27 1015 88 4828 1 50 15:44 20.03.2020
861 Mist 27 1015 88 4828 1 50 15:23 20.03.2020
862 Mist 25 1015 94 4828 1 50 14:58 20.03.2020
863 Mist 25 1015 94 4828 1 50 14:40 20.03.2020
864 Mist 24 1015 94 4828 1 50 14:20 20.03.2020
865 Mist 24 1014 88 8047 0.58 160 13:48 20.03.2020
866 Mist 23 1014 88 8047 0.33 133 13:22 20.03.2020
867 Mist 23 1014 88 8047 0.33 133 12:58 20.03.2020
868 Mist 23 1014 88 8047 0.33 133 12:38 20.03.2020
869 Clear 24 1012 100 0 0.33 133 12:19 20.03.2020
870 Clear 23 1011 100 0 0.45 180 11:39 20.03.2020
871 Clear 24 1011 100 0 1.11 268 11:20 20.03.2020
872 Clear 24 1011 100 0 1.11 268 10:54 20.03.2020
873 Clear 24 1011 100 0 1.11 268 10:36 20.03.2020
874 Clear 24 1012 100 0 1.34 147 10:18 20.03.2020
875 Clear 24 1012 100 0 0.89 274 09:44 20.03.2020
876 Clear 24 1012 100 0 0.89 253 09:20 20.03.2020
877 Clear 24 1013 100 0 0.89 250 08:43 20.03.2020
878 Clear 24 1013 100 0 0.89 250 08:23 20.03.2020
879 Clear 24 1013 100 0 2.73 283 07:57 20.03.2020
880 Clear 24 1014 100 0 2.73 283 07:38 20.03.2020
881 Clear 25 1014 100 0 1.34 250 07:19 20.03.2020
882 Clear 25 1014 100 0 1.34 250 07:19 20.03.2020
883 Clear 25 1014 100 0 1.34 176 06:42 20.03.2020
884 Clear 25 1013 100 0 2.73 283 06:18 20.03.2020
885 Clouds 26 1014 88 9656 0.63 73 04:36 20.03.2020
886 Clouds 26 1012 88 9656 2.1 110 02:50 20.03.2020
887 Clouds 27 1011 83 9656 3.6 100 01:50 20.03.2020
888 Clouds 28 1011 74 9656 3.6 110 00:38 20.03.2020
889 Clear 29 1011 66 9656 2.6 110 23:58 19.03.2020
890 Clear 30 1011 66 9656 2.6 110 23:40 19.03.2020
891 Clear 30 1011 66 9656 2.6 110 23:19 19.03.2020
892 Clear 30 1011 66 9656 2.6 110 23:19 19.03.2020
893 Clear 30 1011 66 9656 3.1 100 22:38 19.03.2020
894 Clear 30 1011 66 9656 3.1 100 22:20 19.03.2020
895 Clouds 31 1012 66 9656 6.7 70 21:57 19.03.2020
896 Clouds 31 1012 66 9656 6.7 70 21:38 19.03.2020
897 Clouds 31 1012 66 9656 6.7 70 21:18 19.03.2020
898 Clouds 32 1013 49 9656 2.6 110 20:42 19.03.2020
899 Clouds 32 1013 49 9656 2.6 110 20:42 19.03.2020
900 Clouds 32 1013 49 9656 2.6 110 20:24 19.03.2020
901 Clouds 32 1015 52 9656 4.2 85 19:57 19.03.2020
902 Clouds 32 1015 52 9656 4.2 85 19:38 19.03.2020
903 Clouds 32 1015 52 9656 4.2 85 19:20 19.03.2020
904 Clear 31 1016 62 8047 2.6 170 18:57 19.03.2020
905 Clear 31 1016 62 8047 2.6 170 18:38 19.03.2020
906 Clear 31 1016 62 8047 2.6 170 18:19 19.03.2020
907 Haze 29 1016 74 6437 2.6 160 17:42 19.03.2020
908 Haze 28 1016 74 6437 2.6 160 17:20 19.03.2020
909 Mist 27 1016 88 4828 3.6 180 16:56 19.03.2020
910 Mist 26 1016 88 4828 3.6 180 16:37 19.03.2020
911 Mist 26 1016 88 4828 3.6 180 16:19 19.03.2020
912 Mist 24 1016 94 3219 2.6 210 15:40 19.03.2020
913 Fog 23 1016 100 805 1.91 171 15:18 19.03.2020
914 Fog 23 1016 100 805 1.91 171 14:43 19.03.2020
915 Mist 23 1015 100 4828 1.91 171 14:21 19.03.2020
916 Mist 22 1015 100 8047 2.35 150 13:42 19.03.2020
917 Mist 22 1015 100 8047 2.86 143 13:21 19.03.2020
918 Clear 22 1013 100 0 0.45 92 12:58 19.03.2020
919 Clear 22 1013 100 0 2.86 143 12:40 19.03.2020
920 Clear 22 1013 100 0 2.86 143 12:21 19.03.2020
921 Clear 22 1013 100 0 2.86 143 11:43 19.03.2020
922 Clear 22 1013 100 0 2.86 143 11:24 19.03.2020
923 Clear 22 1013 100 0 1.42 284 10:58 19.03.2020
924 Clear 22 1013 100 0 1.42 284 10:38 19.03.2020
925 Clear 22 1013 100 0 1.42 284 10:19 19.03.2020
926 Clear 22 1013 100 0 1.42 284 09:55 19.03.2020
927 Clear 22 1013 100 0 1.42 284 09:37 19.03.2020
928 Clear 22 1013 100 0 1.42 284 09:18 19.03.2020
929 Clear 23 1013 100 0 1.42 284 08:41 19.03.2020
930 Clear 23 1014 100 0 1.19 301 08:20 19.03.2020
931 Clear 23 1014 100 0 0.45 92 07:44 19.03.2020
932 Clear 23 1014 100 0 0.45 92 07:44 19.03.2020
933 Clear 23 1014 100 0 1.39 300 07:23 19.03.2020
934 Clouds 23 1016 94 9656 1.39 300 06:35 19.03.2020
935 Clouds 24 1016 94 9656 1.39 300 05:48 19.03.2020
936 Clouds 24 1016 88 9656 1.68 38 04:54 19.03.2020
937 Clouds 24 1016 88 9656 1.68 38 04:34 19.03.2020
938 Clouds 26 1014 83 8047 1.5 100 02:37 19.03.2020
939 Clouds 28 1013 62 9656 3.6 100 00:58 19.03.2020
940 Clouds 29 1013 62 9656 3.6 100 00:22 19.03.2020
941 Clear 30 1013 55 9656 4.1 100 23:48 18.03.2020
942 Clear 31 1013 55 9656 4.1 100 23:27 18.03.2020
943 Clouds 30 1014 66 9656 4.1 90 22:44 18.03.2020
944 Clouds 30 1014 66 9656 4.1 90 22:24 18.03.2020
945 Clouds 32 1014 59 9656 3.6 100 21:59 18.03.2020
946 Clouds 32 1014 59 9656 3.6 100 21:41 18.03.2020
947 Clouds 32 1014 59 9656 3.6 100 21:21 18.03.2020
948 Clouds 31 1015 62 9656 3.6 80 20:57 18.03.2020
949 Clouds 31 1015 62 9656 3.6 80 20:39 18.03.2020
950 Clouds 31 1015 62 9656 3.6 80 20:20 18.03.2020
951 Clouds 30 1016 58 9656 1.5 100 19:55 18.03.2020
952 Clouds 31 1016 58 9656 1.5 100 19:36 18.03.2020
953 Clouds 31 1016 58 9656 1.5 100 19:18 18.03.2020
954 Clouds 30 1017 62 9656 2.1 100 18:41 18.03.2020
955 Clouds 30 1017 62 9656 2.1 100 18:20 18.03.2020
956 Clouds 29 1017 69 8047 2.88 99 17:57 18.03.2020
957 Clouds 29 1017 69 8047 2.88 99 17:39 18.03.2020
958 Clouds 28 1017 69 8047 2.41 185 17:20 18.03.2020
959 Clouds 27 1017 88 8047 3.6 170 16:54 18.03.2020
960 Clouds 26 1017 88 8047 3.6 170 16:36 18.03.2020
961 Clouds 26 1017 88 8047 3.6 170 16:18 18.03.2020
962 Clouds 25 1016 94 8047 1.5 150 15:44 18.03.2020
963 Clouds 24 1016 94 8047 1.5 150 15:20 18.03.2020
964 Clouds 25 1016 94 8047 2.41 185 14:45 18.03.2020
965 Clouds 24 1016 94 8047 2.41 185 14:21 18.03.2020
966 Clouds 24 1015 94 8047 1.5 50 13:42 18.03.2020
967 Clouds 24 1015 94 8047 1.5 50 13:20 18.03.2020
968 Clouds 23 1015 94 8047 1.5 50 12:59 18.03.2020
969 Clouds 23 1015 94 8047 1.5 50 12:59 18.03.2020
970 Rain 24 1013 100 0 0.89 73 12:41 18.03.2020
971 Rain 23 1013 100 0 1.32 134 12:19 18.03.2020
972 Rain 22 1013 100 0 1.32 134 11:39 18.03.2020
973 Rain 23 1013 100 0 1.32 134 11:21 18.03.2020
974 Clear 23 1013 100 0 1.59 336 10:58 18.03.2020
975 Clear 23 1013 100 0 1.59 336 10:38 18.03.2020
976 Clear 23 1013 100 0 1.34 73 10:20 18.03.2020
977 Clear 23 1013 100 0 1.59 336 09:43 18.03.2020
978 Clear 23 1013 100 0 1.59 336 09:25 18.03.2020
979 Clear 23 1013 100 0 0.45 322 08:57 18.03.2020
980 Clear 23 1013 100 0 0.45 322 08:39 18.03.2020
981 Clear 23 1013 100 0 0.45 322 08:39 18.03.2020
982 Clear 23 1013 100 0 0.89 322 08:20 18.03.2020
983 Clear 24 1014 100 0 0.89 322 07:46 18.03.2020
984 Clear 24 1014 100 0 0.89 322 07:28 18.03.2020
985 Clouds 24 1016 94 11265 1.65 298 06:44 18.03.2020
986 Clouds 24 1016 94 11265 1.65 298 06:22 18.03.2020
987 Clouds 25 1016 88 11265 1.5 20 05:35 18.03.2020
988 Clouds 25 1016 88 11265 1.5 40 04:25 18.03.2020
989 Clear 26 1015 83 11265 2.1 80 02:44 18.03.2020
990 Clear 27 1014 69 11265 3.1 100 01:48 18.03.2020
991 Clear 27 1014 69 11265 3.1 100 01:27 18.03.2020
992 Clear 29 1013 54 11265 5.1 80 00:24 18.03.2020
993 Clear 29 1014 58 11265 3.6 100 23:48 17.03.2020
994 Clear 30 1014 58 11265 3.6 100 23:27 17.03.2020
995 Clear 30 1014 58 11265 3.6 130 22:57 17.03.2020
996 Clear 30 1014 58 11265 3.6 130 22:37 17.03.2020
997 Clear 30 1014 58 11265 3.6 130 22:19 17.03.2020
998 Clouds 30 1014 58 9656 2.6 110 21:39 17.03.2020
999 Clouds 30 1014 58 9656 2.6 110 21:21 17.03.2020
1000 Clouds 30 1014 58 9656 2.6 110 21:21 17.03.2020
1001 Clouds 30 1014 58 9656 2.6 110 21:21 17.03.2020
1002 Clouds 29 1016 66 9656 4.6 80 20:40 17.03.2020
1003 Clouds 29 1016 66 9656 4.6 80 20:40 17.03.2020
1004 Clouds 30 1016 66 9656 4.6 80 20:21 17.03.2020
1005 Clouds 29 1017 62 11265 3.31 84 19:58 17.03.2020
1006 Clouds 29 1017 62 11265 3.31 84 19:39 17.03.2020
1007 Clouds 29 1017 62 11265 3.31 84 19:18 17.03.2020
1008 Clouds 30 1018 62 9656 2.1 150 18:56 17.03.2020
1009 Clouds 29 1018 62 9656 2.1 150 18:37 17.03.2020
1010 Clouds 29 1018 62 9656 2.1 150 18:19 17.03.2020
1011 Clouds 28 1019 69 8047 2.1 180 17:40 17.03.2020
1012 -273 0 0 0 0 0 17:21 17.03.2020
1013 Haze 26 1019 88 6437 0.6 64 16:54 17.03.2020
1014 Haze 25 1019 88 6437 0.6 64 16:36 17.03.2020
1015 Haze 25 1019 88 6437 0.6 64 16:18 17.03.2020
1016 Mist 22 1019 100 4828 0.6 64 15:41 17.03.2020
1017 Mist 21 1019 100 4828 0.6 64 15:19 17.03.2020
1018 Clear 21 1017 94 8047 0.6 64 14:42 17.03.2020
1019 Clear 20 1017 94 8047 0.6 64 14:21 17.03.2020
1020 Clear 20 1017 100 9656 1.93 80 13:44 17.03.2020
1021 Clear 20 1017 100 9656 1.93 80 13:26 17.03.2020
1022 Clear 20 1017 100 9656 1.85 63 12:58 17.03.2020
1023 Clouds 20 1015 100 0 1.85 63 12:39 17.03.2020
1024 Clouds 20 1015 100 0 1.85 63 12:21 17.03.2020
1025 Clouds 21 1015 100 0 1.85 63 11:45 17.03.2020
1026 Clouds 21 1015 100 0 1.85 63 11:27 17.03.2020
1027 Clouds 21 1015 100 0 1.4 62 11:27 17.03.2020
1028 Clouds 21 1015 100 0 0.45 96 10:58 17.03.2020
1029 Clouds 21 1015 100 0 0.45 96 10:37 17.03.2020
1030 Clouds 21 1015 100 0 1.79 96 10:19 17.03.2020
1031 Clouds 21 1015 100 0 0.78 311 09:55 17.03.2020
1032 Clouds 22 1015 100 0 0.34 260 09:36 17.03.2020
1033 Clouds 21 1015 100 0 0.89 5 09:18 17.03.2020
1034 Clouds 23 1016 100 0 0.45 5 08:42 17.03.2020
1035 Clouds 22 1016 100 0 0.89 5 08:21 17.03.2020
1036 Clear 22 1016 100 0 0.45 5 07:49 17.03.2020
1037 Clear 23 1017 100 0 2.33 292 07:24 17.03.2020
1038 Clouds 23 1019 94 9656 1.5 320 06:53 17.03.2020
1039 Clouds 23 1019 94 9656 1.5 320 06:27 17.03.2020
1040 Clouds 24 1018 88 9656 2.1 360 05:38 17.03.2020
1041 Clouds 25 1017 83 9656 4.1 30 03:36 17.03.2020
1042 Clouds 25 1017 83 9656 5.1 50 02:38 17.03.2020
1043 Clouds 26 1016 78 11265 5.7 30 01:41 17.03.2020
1044 Clouds 26 1016 78 11265 5.7 30 01:18 17.03.2020
1045 Clear 27 1015 69 9656 5.7 40 00:19 17.03.2020
1046 Clear 28 1016 65 9656 4.6 50 23:43 16.03.2020
1047 Clear 28 1016 65 9656 4.6 50 23:22 16.03.2020
1048 Clear 29 1016 58 9656 3.6 90 22:38 16.03.2020
1049 Clear 29 1016 58 9656 3.6 90 22:20 16.03.2020
1050 Clear 30 1017 58 9656 2.6 90 21:45 16.03.2020
1051 Clear 30 1017 58 9656 2.6 90 21:27 16.03.2020
1052 Clear 30 1018 55 9656 2.6 70 20:59 16.03.2020
1053 Clear 30 1018 55 9656 2.6 70 20:40 16.03.2020
1054 Clear 30 1018 55 9656 2.6 70 20:21 16.03.2020
1055 Clouds 30 1019 54 9656 2.6 90 19:46 16.03.2020
1056 Clouds 29 1019 54 9656 2.6 90 19:25 16.03.2020
1057 Clouds 29 1019 54 9656 2.6 90 19:25 16.03.2020
1058 Clouds 29 1019 62 8047 1.5 120 18:59 16.03.2020
1059 Clouds 29 1019 62 8047 1.5 120 18:39 16.03.2020
1060 Clouds 29 1019 62 8047 1.5 120 18:20 16.03.2020
1061 Clouds 29 1019 65 8047 2.78 41 17:46 16.03.2020
1062 Clouds 28 1019 65 8047 2.78 41 17:25 16.03.2020
1063 Clouds 26 1020 83 9656 0.88 32 16:58 16.03.2020
1064 Clouds 26 1020 83 9656 0.88 32 16:40 16.03.2020
1065 Clouds 26 1020 83 9656 0.88 32 16:21 16.03.2020
1066 Clouds 24 1019 94 8047 0.88 32 15:43 16.03.2020
1067 Clouds 24 1019 94 8047 0.88 32 15:24 16.03.2020
1068 Clouds 23 1019 94 8047 1.5 50 14:48 16.03.2020
1069 Clouds 23 1019 94 8047 1.5 50 14:23 16.03.2020
1070 Clouds 23 1018 94 8047 2.1 80 13:51 16.03.2020
1071 Clouds 23 1018 94 8047 2.1 80 13:29 16.03.2020
1072 Clouds 24 1016 100 0 1.79 76 12:58 16.03.2020
1073 Clouds 24 1016 100 0 1.79 83 12:39 16.03.2020
1074 Clouds 23 1016 100 0 1.34 92 12:20 16.03.2020
1075 Clouds 23 1016 100 0 0.89 90 11:43 16.03.2020
1076 Clouds 23 1016 100 0 2.17 53 11:25 16.03.2020
1077 Clear 23 1016 100 0 0.45 90 10:45 16.03.2020
1078 Clear 23 1016 100 0 1.79 90 10:24 16.03.2020
1079 Clear 23 1016 100 0 0.89 17 09:56 16.03.2020
1080 Clear 22 1016 100 0 2.38 23 09:37 16.03.2020
1081 Clear 23 1016 100 0 2.38 23 09:19 16.03.2020
1082 Clear 23 1016 100 0 2.38 23 08:40 16.03.2020
1083 Clear 23 1016 100 0 2.88 28 08:21 16.03.2020
1084 Clear 23 1016 100 0 3.03 327 07:42 16.03.2020
1085 Clear 23 1017 100 0 0.89 17 07:19 16.03.2020
1086 Clouds 24 1019 94 9656 1 360 06:29 16.03.2020
1087 Clouds 24 1019 94 9656 2.1 360 05:59 16.03.2020
1088 Clouds 25 1018 88 9656 2.1 350 04:21 16.03.2020
1089 Clouds 26 1017 83 11265 5.7 60 01:46 16.03.2020
1090 Clear 27 1016 78 11265 6.7 70 00:45 16.03.2020
1091 Clear 27 1016 78 11265 6.7 70 00:25 16.03.2020
1092 Clear 28 1016 74 11265 6.2 60 23:39 15.03.2020
1093 Clear 28 1016 74 11265 6.2 60 23:18 15.03.2020
1094 Clouds 29 1017 70 11265 3.6 90 22:42 15.03.2020
1095 Clouds 29 1017 70 11265 3.6 90 22:20 15.03.2020
1096 Clouds 29 1018 66 11265 5.7 70 21:39 15.03.2020
1097 Clouds 29 1018 66 11265 5.7 70 21:21 15.03.2020
1098 Clouds 30 1018 62 11265 5.1 70 20:55 15.03.2020
1099 Clouds 30 1018 62 11265 5.1 70 20:36 15.03.2020
1100 Clouds 30 1018 62 11265 5.1 70 20:18 15.03.2020
1101 Clouds 30 1019 66 11265 2.6 100 19:43 15.03.2020
1102 Clouds 29 1019 66 11265 2.6 100 19:25 15.03.2020
1103 Clouds 30 1020 62 9656 1.5 30 18:59 15.03.2020
1104 Clouds 30 1020 62 9656 1.5 30 18:40 15.03.2020
1105 Clouds 29 1020 62 9656 1.5 30 18:22 15.03.2020
1106 Clouds 28 1020 78 8047 2.1 20 17:57 15.03.2020
1107 Clouds 28 1020 78 8047 2.1 20 17:38 15.03.2020
1108 Clouds 28 1020 78 8047 2.1 20 17:18 15.03.2020
1109 Clouds 27 1020 78 8047 2.6 20 16:43 15.03.2020
1110 Clouds 27 1020 78 8047 2.6 20 16:25 15.03.2020
1111 Clouds 26 1019 88 8047 3.1 350 15:58 15.03.2020
1112 Clouds 26 1019 88 8047 3.1 350 15:40 15.03.2020
1113 Clouds 26 1019 88 8047 3.1 350 15:19 15.03.2020
1114 Clouds 25 1019 94 8047 2.1 10 14:46 15.03.2020
1115 Clouds 24 1019 94 8047 2.1 10 14:24 15.03.2020
1116 Clouds 25 1018 88 9656 3.1 20 13:58 15.03.2020
1117 Clouds 25 1018 88 9656 3.1 20 13:38 15.03.2020
1118 Clouds 25 1018 88 9656 3.1 20 13:38 15.03.2020
1119 Clouds 25 1018 88 9656 3.1 20 13:38 15.03.2020
1120 Clouds 24 1018 88 9656 3.1 20 13:20 15.03.2020
1121 Clouds 24 1016 100 0 1.79 40 12:44 15.03.2020
1122 Clouds 24 1016 100 0 1.79 42 12:25 15.03.2020
1123 Clouds 25 1016 100 0 2.68 32 11:56 15.03.2020
1124 Clouds 25 1016 100 0 2.24 18 11:38 15.03.2020
1125 Clear 25 1016 100 0 2.68 30 11:20 15.03.2020
1126 Clear 25 1016 100 0 2.24 29 10:55 15.03.2020
1127 Clear 25 1016 100 0 3.58 29 10:36 15.03.2020
1128 Clear 25 1016 100 0 2.24 10 10:18 15.03.2020
1129 Clear 25 1015 100 0 1.79 5 09:39 15.03.2020
1130 Clear 25 1016 100 0 2.24 11 09:20 15.03.2020
1131 Clear 25 1016 100 0 1.79 18 08:42 15.03.2020
1132 Clear 25 1016 100 0 1.79 25 08:20 15.03.2020
1133 Clear 25 1016 100 0 1.79 15 07:50 15.03.2020
1134 Clear 25 1016 100 0 1.79 11 07:23 15.03.2020
1135 Clouds 25 1017 83 9656 1 360 06:44 15.03.2020
1136 Clouds 25 1017 88 9656 1 50 05:50 15.03.2020
1137 Clouds 25 1017 88 9656 1.5 60 04:58 15.03.2020
1138 Clouds 25 1017 88 9656 1.5 60 04:40 15.03.2020
1139 Clouds 25 1017 88 9656 1.5 60 04:21 15.03.2020
1140 Clouds 25 1016 88 9656 2.96 52 03:25 15.03.2020
1141 Clouds 25 1015 88 8047 2.1 100 02:36 15.03.2020
1142 Clear 26 1014 83 8047 2.6 100 01:19 15.03.2020
1143 Clear 27 1014 78 8047 5.7 70 00:42 15.03.2020
1144 Clear 27 1014 78 8047 5.7 70 00:19 15.03.2020
1145 Clear 28 1014 74 11265 5.1 80 23:41 14.03.2020
1146 Clear 28 1014 74 11265 5.1 80 23:20 14.03.2020
1147 Clear 29 1014 70 11265 4.1 60 22:56 14.03.2020
1148 Clear 29 1014 70 11265 4.1 60 22:38 14.03.2020
1149 Clear 29 1014 70 11265 4.1 60 22:20 14.03.2020
1150 Clear 29 1015 70 9656 3.6 90 21:56 14.03.2020
1151 Clear 29 1015 70 9656 3.6 90 21:36 14.03.2020
1152 Clear 29 1015 70 9656 3.6 90 21:18 14.03.2020
1153 Clear 29 1015 70 9656 3.6 90 21:18 14.03.2020
1154 Clouds 29 1016 70 9656 3.1 70 20:58 14.03.2020
1155 Clouds 29 1016 70 9656 3.1 70 20:39 14.03.2020
1156 Clouds 29 1016 70 9656 3.1 70 20:18 14.03.2020
1157 Clouds 29 1017 66 9656 2.1 70 19:42 14.03.2020
1158 Clouds 29 1017 66 9656 2.1 70 19:24 14.03.2020
1159 Clouds 29 1018 69 9656 2.6 80 18:41 14.03.2020
1160 Clouds 28 1018 69 9656 2.6 80 18:21 14.03.2020
1161 Clouds 28 1018 74 8047 3.1 70 17:44 14.03.2020
1162 Clouds 28 1018 74 8047 3.1 70 17:24 14.03.2020
1163 Mist 27 1018 83 4828 1 350 17:00 14.03.2020
1164 Mist 27 1018 83 4828 1 350 16:40 14.03.2020
1165 Mist 26 1018 83 4828 1 350 16:21 14.03.2020
1166 Mist 25 1017 88 4828 3.6 10 15:51 14.03.2020
1167 Mist 24 1017 94 3219 2.6 10 15:25 14.03.2020
1168 Mist 24 1017 94 3219 1 320 14:45 14.03.2020
1169 Mist 24 1016 94 4828 2.1 330 14:23 14.03.2020
1170 Clouds 24 1016 94 8047 1 350 13:57 14.03.2020
1171 Clouds 24 1016 94 8047 1 350 13:39 14.03.2020
1172 Clouds 24 1016 94 8047 1 350 13:20 14.03.2020
1173 Clouds 24 1016 94 8047 1 350 12:44 14.03.2020
1174 Clear 24 1014 100 0 1.34 355 12:26 14.03.2020
1175 Clear 24 1014 100 0 1.34 355 12:26 14.03.2020
1176 Clear 24 1013 100 0 1.34 339 11:47 14.03.2020
1177 Clear 24 1013 100 0 1.79 5 11:27 14.03.2020
1178 Clear 23 1013 100 0 0.89 71 10:59 14.03.2020
1179 Clear 23 1013 100 0 0.89 71 10:40 14.03.2020
1180 Clear 23 1013 100 0 0.45 71 10:22 14.03.2020
1181 Clear 23 1013 100 0 2.12 312 09:43 14.03.2020
1182 Clear 23 1013 100 0 2.12 312 09:24 14.03.2020
1183 Clear 23 1013 100 0 0.45 71 08:47 14.03.2020
1184 Clear 23 1013 100 0 0.45 71 08:29 14.03.2020
1185 Clear 24 1013 100 0 0.45 71 07:55 14.03.2020
1186 Clear 24 1013 100 0 0.45 71 07:37 14.03.2020
1187 Clear 23 1014 100 0 0.45 71 07:18 14.03.2020
1188 Clouds 23 1015 94 9656 1.9 298 06:40 14.03.2020
1189 Clouds 24 1015 88 9656 2.65 67 05:19 14.03.2020
1190 Clouds 25 1013 94 9656 1.5 60 03:43 14.03.2020
1191 Clouds 24 1013 94 9656 1.5 60 03:23 14.03.2020
1192 Clear 25 1012 88 8047 2.6 80 02:22 14.03.2020
1193 Clear 27 1011 74 9656 2.6 110 00:44 14.03.2020
1194 Clear 28 1011 69 9656 5.1 70 23:45 13.03.2020
1195 Clear 28 1011 69 9656 5.1 70 23:27 13.03.2020
1196 Clear 29 1012 62 9656 3.6 70 22:49 13.03.2020
1197 Clear 30 1012 62 9656 3.6 70 22:26 13.03.2020
1198 Clouds 30 1012 58 8047 4.1 90 21:44 13.03.2020
1199 Clouds 30 1012 58 8047 4.1 90 21:21 13.03.2020
1200 Clouds 31 1013 58 8047 2.1 90 20:58 13.03.2020
1201 Clouds 31 1013 58 8047 2.1 90 20:39 13.03.2020
1202 Clouds 31 1013 58 8047 2.1 90 20:39 13.03.2020
1203 Clouds 31 1013 58 8047 2.1 90 20:20 13.03.2020
1204 Clouds 30 1014 55 6437 3.1 150 19:47 13.03.2020
1205 Clouds 30 1014 55 6437 3.1 150 19:28 13.03.2020
1206 Clouds 29 1015 62 6437 1.5 160 18:47 13.03.2020
1207 Clouds 29 1015 62 6437 1.5 160 18:29 13.03.2020
1208 Haze 28 1015 74 4828 1 210 17:57 13.03.2020
1209 Haze 28 1015 74 4828 1 210 17:38 13.03.2020
1210 Haze 27 1015 74 4828 1 210 17:19 13.03.2020
1211 Mist 25 1015 94 3219 1.86 176 16:42 13.03.2020
1212 Mist 24 1015 94 3219 1.86 176 16:24 13.03.2020
1213 Mist 23 1015 94 3219 1.86 176 15:56 13.03.2020
1214 Mist 23 1015 94 3219 1.86 176 15:37 13.03.2020
1215 Mist 23 1014 88 4828 1.86 176 15:19 13.03.2020
1216 Mist 21 1014 94 4828 1.86 176 14:41 13.03.2020
1217 Mist 21 1014 94 4828 1.86 176 14:41 13.03.2020
1218 Mist 21 1014 94 4828 1.86 176 14:22 13.03.2020
1219 Mist 21 1014 94 4828 1.86 176 14:22 13.03.2020
1220 Mist 20 1013 94 4828 1.65 178 13:56 13.03.2020
1221 Mist 20 1013 94 4828 1.65 178 13:38 13.03.2020
1222 Mist 19 1012 100 9656 1.8 184 13:19 13.03.2020
1223 Clear 19 1011 100 0 1.8 184 12:40 13.03.2020
1224 Clear 21 1010 100 0 1.8 184 12:22 13.03.2020
1225 Clear 20 1010 100 0 1.8 184 11:57 13.03.2020
1226 Clear 21 1010 100 0 1.8 184 11:39 13.03.2020
1227 Clear 21 1010 100 0 0.45 95 11:21 13.03.2020
1228 Clear 21 1010 100 0 0.89 243 10:47 13.03.2020
1229 Clear 21 1010 100 0 0.89 243 10:27 13.03.2020
1230 Clear 21 1010 100 0 0.89 243 09:57 13.03.2020
1231 Clear 21 1010 100 0 0.89 243 09:38 13.03.2020
1232 Clear 22 1011 100 0 0.89 243 09:20 13.03.2020
1233 Clear 22 1011 100 0 0.89 243 08:44 13.03.2020
1234 Clear 22 1011 100 0 0.69 249 08:22 13.03.2020
1235 Clear 22 1012 100 0 0.45 95 07:47 13.03.2020
1236 Clear 22 1012 100 0 0.89 95 07:28 13.03.2020
1237 Clear 22 1014 94 8047 1.08 210 06:47 13.03.2020
1238 Clear 22 1014 94 8047 1.08 210 06:26 13.03.2020
1239 Clear 23 1014 94 8047 1.08 210 05:49 13.03.2020
1240 Clear 23 1014 94 8047 3.09 88 05:20 13.03.2020
1241 Clear 23 1013 88 9656 3.09 88 04:37 13.03.2020
1242 Clouds 24 1012 88 9656 2.6 90 02:58 13.03.2020
1243 Clear 25 1011 78 11265 3.6 90 01:43 13.03.2020
1244 Clear 25 1011 78 11265 3.6 90 01:18 13.03.2020
1245 Clear 27 1011 65 11265 4.1 120 00:46 13.03.2020
1246 Clear 27 1011 65 11265 4.1 120 00:20 13.03.2020
1247 Clear 28 1010 54 11265 3.6 110 23:46 12.03.2020
1248 Clear 28 1010 54 11265 3.6 110 23:26 12.03.2020
1249 Clear 28 1011 48 11265 6.7 80 22:55 12.03.2020
1250 Clear 28 1011 48 11265 6.7 80 22:37 12.03.2020
1251 Clear 28 1011 48 11265 6.7 80 22:37 12.03.2020
1252 Clear 28 1011 48 11265 6.7 80 22:18 12.03.2020
1253 Clouds 28 1012 51 9656 3.1 100 21:42 12.03.2020
1254 Clouds 28 1012 51 9656 3.1 100 21:24 12.03.2020
1255 Clouds 27 1013 61 9656 4.6 110 20:55 12.03.2020
1256 Clouds 28 1013 61 9656 4.6 110 20:36 12.03.2020
1257 Clouds 28 1013 61 9656 4.6 110 20:18 12.03.2020
1258 Clouds 28 1014 65 9656 1.5 150 19:39 12.03.2020
1259 Clouds 28 1014 65 9656 1.5 150 19:19 12.03.2020
1260 Clouds 28 1014 65 9656 1.5 150 19:19 12.03.2020
1261 Clouds 27 1015 65 9656 2.6 100 18:42 12.03.2020
1262 Clouds 27 1015 65 9656 2.6 100 18:23 12.03.2020
1263 Clouds 26 1015 65 9656 4.47 102 17:56 12.03.2020
1264 Clouds 26 1015 65 9656 4.47 102 17:37 12.03.2020
1265 Clouds 26 1015 65 9656 1.56 127 17:18 12.03.2020
1266 Clear 25 1015 73 8047 1.5 160 16:43 12.03.2020
1267 Clear 25 1015 73 8047 1.5 160 16:23 12.03.2020
1268 Clear 22 1015 100 8047 1.56 127 15:59 12.03.2020
1269 Clear 22 1015 100 8047 1.56 127 15:39 12.03.2020
1270 Clear 20 1015 100 8047 1.56 127 15:21 12.03.2020
1271 Mist 19 1015 100 8047 1.56 127 14:38 12.03.2020
1272 Mist 18 1015 100 8047 0.54 221 14:19 12.03.2020
1273 Clear 18 1014 93 9656 0.54 221 13:40 12.03.2020
1274 Clear 18 1014 93 9656 0.46 208 13:21 12.03.2020
1275 Clear 18 1014 93 9656 0.54 221 13:21 12.03.2020
1276 Clear 18 1013 100 0 0.46 208 12:55 12.03.2020
1277 Clear 18 1013 100 0 0.46 208 12:37 12.03.2020
1278 Clear 18 1012 100 0 0.46 208 12:18 12.03.2020
1279 Clear 18 1012 100 0 0.46 208 11:56 12.03.2020
1280 Clear 19 1012 100 0 0.46 208 11:37 12.03.2020
1281 Clear 19 1012 100 0 1.55 266 11:18 12.03.2020
1282 Clear 19 1012 100 0 1.55 266 10:43 12.03.2020
1283 Clear 19 1012 100 0 1.55 266 10:43 12.03.2020
1284 Clear 20 1012 100 0 1.55 266 10:24 12.03.2020
1285 Clear 20 1012 100 0 0.45 48 09:59 12.03.2020
1286 Clear 20 1013 100 0 1.55 266 09:40 12.03.2020
1287 Clear 21 1013 100 0 1.55 266 09:22 12.03.2020
1288 Clear 21 1013 100 0 1.55 266 08:39 12.03.2020
1289 Clouds 21 1014 100 0 0.45 57 08:19 12.03.2020
1290 Clouds 21 1014 100 0 0.45 57 07:48 12.03.2020
1291 Clouds 21 1014 100 0 0.89 57 07:22 12.03.2020
1292 Clouds 22 1017 88 9656 0.61 18 06:33 12.03.2020
1293 Clouds 22 1017 88 9656 0.61 18 05:35 12.03.2020
1294 Clouds 23 1016 78 9656 2.1 50 03:45 12.03.2020
1295 Clouds 23 1016 83 9656 2.6 60 02:19 12.03.2020
1296 Clouds 24 1015 78 9656 3.1 60 01:24 12.03.2020
1297 Clouds 25 1016 78 9656 3.1 80 00:42 12.03.2020
1298 Clouds 26 1016 69 9656 5.1 80 23:59 11.03.2020
1299 Clouds 26 1016 69 9656 5.1 80 23:37 11.03.2020
1300 Clouds 26 1016 69 9656 5.1 80 23:18 11.03.2020
1301 Clouds 26 1017 74 8047 5.1 90 22:41 11.03.2020
1302 Clouds 26 1017 74 8047 5.1 90 22:23 11.03.2020
1303 Clouds 27 1017 69 8047 4.1 60 21:58 11.03.2020
1304 Clouds 27 1017 69 8047 4.1 60 21:39 11.03.2020
1305 Clouds 27 1017 69 8047 4.1 60 21:21 11.03.2020
1306 Clouds 27 1019 65 9656 5.7 90 20:57 11.03.2020
1307 Clouds 27 1019 65 9656 5.7 90 20:57 11.03.2020
1308 Clouds 27 1019 65 9656 5.7 90 20:37 11.03.2020
1309 Clouds 27 1019 65 9656 5.7 90 20:19 11.03.2020
1310 Clouds 27 1020 69 9656 4.1 70 19:42 11.03.2020
1311 Rain 27 1020 69 9656 4.1 70 19:24 11.03.2020
1312 Rain 27 1021 61 9656 3.43 65 18:57 11.03.2020
1313 Rain 27 1021 61 9656 3.43 65 18:38 11.03.2020
1314 Clouds 27 1021 61 9656 3.43 65 18:18 11.03.2020
1315 Clouds 27 1021 69 9656 3.43 65 17:55 11.03.2020
1316 Clouds 26 1021 69 9656 3.43 65 17:37 11.03.2020
1317 Clouds 26 1021 69 9656 1.9 328 17:18 11.03.2020
1318 Clouds 24 1021 83 8047 1.9 328 16:43 11.03.2020
1319 Clouds 24 1021 83 8047 1.9 328 16:19 11.03.2020
1320 Haze 23 1021 94 6437 1.9 328 15:43 11.03.2020
1321 Haze 22 1021 94 6437 1.9 328 15:23 11.03.2020
1322 Mist 21 1020 100 8047 1.9 328 14:54 11.03.2020
1323 Mist 20 1020 100 8047 1.9 328 14:36 11.03.2020
1324 Mist 20 1020 100 8047 2.16 301 14:18 11.03.2020
1325 Clouds 20 1020 94 8047 1.5 310 13:41 11.03.2020
1326 Clouds 20 1020 94 8047 1.5 310 13:22 11.03.2020
1327 Clear 20 1019 100 0 0.45 340 12:56 11.03.2020
1328 Clear 20 1018 100 0 0.45 340 12:38 11.03.2020
1329 Clear 20 1018 100 0 0.45 340 12:19 11.03.2020
1330 Clear 21 1018 100 0 0.89 340 11:41 11.03.2020
1331 Clear 21 1018 100 0 0.45 340 11:20 11.03.2020
1332 Clear 20 1018 100 0 2.62 327 10:47 11.03.2020
1333 Clear 20 1018 100 0 2.62 327 10:21 11.03.2020
1334 Clear 20 1018 100 0 2.62 327 09:59 11.03.2020
1335 Clear 20 1018 100 0 0.45 340 09:40 11.03.2020
1336 Clear 19 1018 100 0 2.62 327 09:21 11.03.2020
1337 Clear 20 1019 100 0 2.62 327 08:43 11.03.2020
1338 Clear 20 1019 100 0 2.31 328 08:24 11.03.2020
1339 Clear 21 1019 100 0 2.63 358 07:47 11.03.2020
1340 Clouds 21 1022 88 11265 1.5 350 07:20 11.03.2020
1341 Clouds 22 1022 88 11265 1.5 350 06:50 11.03.2020
1342 Clouds 22 1022 88 11265 1.5 350 06:30 11.03.2020
1343 Clouds 23 1022 83 11265 2.1 350 05:32 11.03.2020
1344 Clouds 24 1021 78 11265 2.6 30 02:45 11.03.2020
1345 Clouds 25 1020 69 11265 3.6 10 01:52 11.03.2020
1346 Clouds 25 1020 69 11265 3.6 10 01:23 11.03.2020
1347 Clouds 26 1020 61 11265 3.1 40 00:32 11.03.2020
1348 Clouds 26 1020 61 11265 6.2 70 23:49 10.03.2020
1349 Clouds 26 1020 61 11265 6.2 70 23:26 10.03.2020
1350 Clouds 27 1020 61 11265 4.1 70 22:55 10.03.2020
1351 Clouds 27 1020 61 11265 4.1 70 22:37 10.03.2020
1352 Clouds 27 1020 61 11265 4.1 70 22:18 10.03.2020
1353 Clouds 27 1021 54 11265 4.6 80 21:55 10.03.2020
1354 Clouds 27 1021 54 11265 4.6 80 21:37 10.03.2020
1355 Clouds 27 1021 54 11265 4.6 80 21:18 10.03.2020
1356 Clouds 27 1022 61 11265 4.1 70 20:42 10.03.2020
1357 Clouds 27 1022 61 11265 4.1 70 20:42 10.03.2020
1358 Clouds 27 1022 61 11265 4.1 70 20:19 10.03.2020
1359 Clouds 27 1023 61 11265 4.6 50 19:58 10.03.2020
1360 Clouds 27 1023 61 11265 4.6 50 19:40 10.03.2020
1361 Clouds 27 1023 61 11265 4.6 50 19:21 10.03.2020
1362 Clouds 27 1023 65 9656 2.1 70 18:55 10.03.2020
1363 Clouds 26 1023 65 9656 2.1 70 18:36 10.03.2020
1364 Clouds 26 1023 65 9656 2.1 70 18:18 10.03.2020
1365 Clouds 26 1023 69 9656 1 80 17:41 10.03.2020
1366 Clouds 25 1023 69 9656 1 80 17:22 10.03.2020
1367 Clouds 25 1023 78 8047 3.1 80 16:40 10.03.2020
1368 Clouds 25 1023 78 8047 3.1 80 16:40 10.03.2020
1369 Clouds 25 1023 78 8047 3.1 80 16:20 10.03.2020
1370 Clouds 25 1022 88 9656 1.5 80 15:58 10.03.2020
1371 Clouds 24 1022 88 9656 1.5 80 15:40 10.03.2020
1372 Clouds 24 1022 88 9656 1.5 80 15:19 10.03.2020
1373 Clouds 24 1022 94 8047 3.14 27 14:57 10.03.2020
1374 Clouds 23 1022 94 8047 3.14 27 14:39 10.03.2020
1375 Clouds 23 1022 94 8047 3.3 29 14:18 10.03.2020
1376 Clouds 23 1022 88 8047 2.6 10 13:42 10.03.2020
1377 Clouds 23 1022 88 8047 2.6 10 13:42 10.03.2020
1378 Clouds 23 1022 88 8047 2.6 10 13:24 10.03.2020
1379 Clouds 24 1020 11 0 2.24 5 12:42 10.03.2020
1380 Clouds 24 1020 15 0 1.79 26 12:21 10.03.2020
1381 Clouds 24 1020 15 0 1.79 26 12:21 10.03.2020
1382 Clouds 24 1020 15 0 1.34 29 11:59 10.03.2020
1383 Clouds 24 1020 16 0 1.34 27 11:41 10.03.2020
1384 Clouds 23 1019 17 0 0.45 340 11:23 10.03.2020
1385 Clouds 23 1019 19 0 2.42 346 10:54 10.03.2020
1386 Clouds 23 1019 21 0 0.89 340 10:36 10.03.2020
1387 Clouds 23 1019 22 0 0.89 339 10:18 10.03.2020
1388 Clouds 23 1019 25 0 0.45 340 09:43 10.03.2020
1389 Clouds 23 1020 28 0 0.45 340 09:19 10.03.2020
1390 Clouds 23 1020 28 0 1.34 340 08:53 10.03.2020
1391 Clouds 23 1020 28 0 1.34 339 08:33 10.03.2020
1392 Clear 23 1021 26 0 0.89 333 07:53 10.03.2020
1393 Clear 23 1021 27 0 0.89 333 07:34 10.03.2020
1394 Clouds 23 1023 88 9656 1.34 322 06:50 10.03.2020
1395 Clouds 23 1023 88 9656 1.34 322 06:31 10.03.2020
1396 Clouds 24 1022 83 9656 1.34 322 05:42 10.03.2020
1397 Clear 24 1021 88 11265 4.45 79 04:56 10.03.2020
1398 Clear 23 1021 88 11265 4.45 79 04:24 10.03.2020
1399 Clouds 24 1019 78 11265 2.1 100 02:44 10.03.2020
1400 Clouds 25 1018 73 11265 4.1 100 01:30 10.03.2020
1401 Clouds 26 1018 65 11265 6.2 70 00:47 10.03.2020
1402 Clouds 26 1018 65 11265 6.2 70 00:27 10.03.2020
1403 Clouds 27 1018 54 11265 4.1 90 23:41 09.03.2020
1404 Clouds 27 1018 54 11265 4.1 90 23:22 09.03.2020
1405 Clouds 28 1019 48 11265 4.6 80 22:55 09.03.2020
1406 Clouds 28 1019 48 11265 4.6 80 22:36 09.03.2020
1407 Clouds 28 1019 48 11265 4.6 80 22:18 09.03.2020
1408 Clouds 28 1019 58 11265 1.5 100 21:41 09.03.2020
1409 Clouds 28 1019 58 11265 1.5 100 21:21 09.03.2020
1410 Clouds 28 1020 61 9656 2.6 100 20:58 09.03.2020
1411 Clouds 28 1020 61 9656 2.6 100 20:58 09.03.2020
1412 Clouds 28 1020 61 9656 2.6 100 20:39 09.03.2020
1413 Clouds 28 1020 61 9656 2.6 100 20:20 09.03.2020
1414 Clouds 27 1022 65 8047 2.81 83 19:45 09.03.2020
1415 Clouds 27 1022 65 8047 2.81 83 19:25 09.03.2020
1416 Clouds 26 1022 61 8047 2.1 160 18:58 09.03.2020
1417 Clouds 26 1022 61 8047 2.1 160 18:58 09.03.2020
1418 Clouds 26 1022 61 8047 2.1 160 18:58 09.03.2020
1419 Clouds 26 1022 61 8047 2.1 160 18:38 09.03.2020
1420 Clouds 26 1022 61 8047 2.1 160 18:20 09.03.2020
1421 Clouds 25 1022 73 9656 2.81 83 17:58 09.03.2020
1422 Clouds 25 1022 73 9656 2.81 83 17:38 09.03.2020
1423 Clouds 24 1022 73 9656 0.39 247 17:20 09.03.2020
1424 Clouds 24 1022 83 8047 1.5 180 16:58 09.03.2020
1425 Clouds 23 1022 83 8047 1.5 180 16:39 09.03.2020
1426 Clear 24 1021 44 0 0.89 46 16:21 09.03.2020
1427 Clouds 21 1022 88 8047 0.39 247 15:58 09.03.2020
1428 Clouds 21 1022 88 8047 0.39 247 15:58 09.03.2020
1429 Clouds 21 1022 88 8047 0.39 247 15:38 09.03.2020
1430 Clouds 20 1022 88 8047 0.39 247 15:20 09.03.2020
1431 Clouds 20 1022 88 8047 0.39 247 14:55 09.03.2020
1432 Clouds 19 1022 88 8047 0.39 247 14:36 09.03.2020
1433 Clouds 19 1022 88 8047 0.74 309 14:18 09.03.2020
1434 Clouds 19 1021 82 8047 0.74 309 13:54 09.03.2020
1435 Clouds 19 1021 82 8047 0.74 309 13:36 09.03.2020
1436 Clouds 19 1021 82 8047 0.92 295 13:18 09.03.2020
1437 Clouds 19 1021 82 8047 0.92 295 13:18 09.03.2020
1438 Clouds 20 1021 82 8047 0.92 295 12:41 09.03.2020
1439 Clouds 19 1019 40 0 0.92 295 12:21 09.03.2020
1440 Clouds 19 1019 40 0 0.92 295 12:21 09.03.2020
1441 Clouds 19 1019 41 0 0.92 295 11:41 09.03.2020
1442 Clouds 19 1019 42 0 0.45 46 11:21 09.03.2020
1443 Clear 19 1019 43 0 1.49 298 10:58 09.03.2020
1444 Clear 19 1019 43 0 1.49 298 10:40 09.03.2020
1445 Clear 19 1019 44 0 1.49 298 10:20 09.03.2020
1446 Clear 19 1019 44 0 0.89 46 09:44 09.03.2020
1447 Clear 19 1019 45 0 0.45 46 09:24 09.03.2020
1448 Clear 20 1020 45 0 1.49 298 08:59 09.03.2020
1449 Clear 20 1020 45 0 0.45 46 08:41 09.03.2020
1450 Clear 21 1020 46 0 0.45 46 08:23 09.03.2020
1451 Rain 22 1021 48 0 0.89 46 07:40 09.03.2020
1452 Rain 22 1021 47 0 0.89 46 07:21 09.03.2020
1453 Clouds 21 1023 88 11265 0.44 61 06:43 09.03.2020
1454 Clouds 21 1023 88 11265 0.44 61 06:23 09.03.2020
1455 Clouds 22 1023 88 11265 0.44 61 05:47 09.03.2020
1456 Clouds 21 1023 88 11265 2.41 27 05:18 09.03.2020
1457 Clouds 22 1022 83 11265 2.1 350 04:40 09.03.2020
1458 Clouds 22 1022 83 11265 2.1 350 04:21 09.03.2020
1459 Clouds 22 1021 83 9656 1.5 10 02:58 09.03.2020
1460 Clouds 24 1020 69 9656 2.6 70 00:46 09.03.2020
1461 Clouds 24 1020 69 9656 2.6 70 00:28 09.03.2020
1462 Clouds 24 1020 64 9656 2.1 50 23:59 08.03.2020
1463 Clouds 24 1020 64 9656 2.1 50 23:41 08.03.2020
1464 Clouds 24 1020 64 9656 2.1 50 23:21 08.03.2020
1465 Clouds 25 1020 61 11265 3.1 70 22:42 08.03.2020
1466 Clouds 25 1020 61 11265 3.1 70 22:22 08.03.2020
1467 Clouds 25 1021 69 11265 1.5 20 21:59 08.03.2020
1468 Clouds 25 1021 69 11265 1.5 20 21:59 08.03.2020
1469 Clouds 25 1021 69 11265 1.5 20 21:41 08.03.2020
1470 Clouds 24 1021 69 11265 1.5 20 21:23 08.03.2020
1471 Clouds 25 1022 73 11265 1.5 340 20:58 08.03.2020
1472 Clouds 25 1022 73 11265 1.5 340 20:38 08.03.2020
1473 Clouds 24 1022 73 11265 1.5 340 20:20 08.03.2020
1474 Clouds 23 1023 78 9656 2.1 290 19:40 08.03.2020
1475 Clouds 23 1023 78 9656 2.1 290 19:20 08.03.2020
1476 Rain 23 1023 78 9656 2.1 290 18:57 08.03.2020
1477 Rain 22 1024 94 8047 1.96 287 18:38 08.03.2020
1478 Clouds 22 1024 94 8047 1.96 287 18:20 08.03.2020
1479 Rain 21 1022 47 0 2.68 248 17:41 08.03.2020
1480 Rain 20 1023 100 3219 1.96 287 17:22 08.03.2020
1481 Rain 20 1023 100 3219 1.35 305 16:59 08.03.2020
1482 Rain 20 1023 100 3219 1.35 305 16:40 08.03.2020
1483 Rain 19 1023 100 3219 1.35 305 16:22 08.03.2020
1484 Rain 20 1023 100 1609 1.35 305 15:41 08.03.2020
1485 Rain 19 1023 100 1609 1.35 305 15:22 08.03.2020
1486 Rain 20 1022 100 4828 1.35 305 14:59 08.03.2020
1487 Rain 20 1022 100 4828 1.35 305 14:38 08.03.2020
1488 Rain 19 1022 100 4828 2 322 14:19 08.03.2020
1489 Rain 20 1022 94 4828 2.6 20 13:42 08.03.2020
1490 Rain 20 1022 94 4828 2.6 20 13:21 08.03.2020
1491 Rain 20 1022 94 4828 2.6 20 12:57 08.03.2020
1492 Rain 21 1020 56 0 2.24 49 12:37 08.03.2020
1493 Rain 20 1019 59 0 0.45 21 12:18 08.03.2020
1494 Rain 21 1020 61 0 1.82 8 11:41 08.03.2020
1495 Rain 21 1020 62 0 0.45 21 11:23 08.03.2020
1496 Rain 21 1020 60 0 1.89 335 10:57 08.03.2020
1497 Rain 20 1020 58 0 1.89 335 10:39 08.03.2020
1498 Rain 21 1020 57 0 1.89 335 10:21 08.03.2020
1499 Rain 21 1021 58 0 0.45 21 09:38 08.03.2020
1500 Rain 21 1021 58 0 0.89 21 09:20 08.03.2020
1501 Rain 20 1022 56 0 0.89 21 08:46 08.03.2020
1502 Rain 20 1022 56 0 0.89 21 08:21 08.03.2020
1503 Rain 21 1022 60 0 1.34 68 07:49 08.03.2020
1504 Rain 21 1023 61 0 2.24 65 07:28 08.03.2020
1505 Rain 21 1024 83 9656 3.6 360 06:43 08.03.2020
1506 Rain 21 1024 83 9656 3.6 360 06:25 08.03.2020
1507 Clouds 22 1024 78 11265 4.6 360 05:43 08.03.2020
1508 Clouds 22 1023 73 11265 3.6 10 03:52 08.03.2020
1509 Clouds 22 1023 73 11265 6.2 20 02:58 08.03.2020
1510 Clouds 23 1022 69 11265 6.2 360 01:38 08.03.2020
1511 Clouds 23 1022 69 11265 6.2 360 01:18 08.03.2020
1512 Clouds 24 1022 60 11265 5.7 360 00:30 08.03.2020
1513 Clouds 24 1022 64 11265 6.2 40 23:57 07.03.2020
1514 Clouds 24 1022 64 11265 6.2 40 23:36 07.03.2020
1515 Clouds 24 1022 64 11265 6.2 40 23:36 07.03.2020
1516 Clouds 24 1022 64 11265 6.2 40 23:18 07.03.2020
1517 Clouds 25 1023 57 11265 6.2 30 22:38 07.03.2020
1518 Clouds 25 1023 57 11265 6.2 30 22:19 07.03.2020
1519 Clouds 24 1024 64 11265 9.3 20 21:44 07.03.2020
1520 Clouds 24 1024 64 11265 9.3 20 21:22 07.03.2020
1521 Clouds 25 1025 61 11265 8.2 20 20:41 07.03.2020
1522 Clouds 25 1025 61 11265 8.2 20 20:21 07.03.2020
1523 Clouds 25 1025 50 9656 8.2 30 19:42 07.03.2020
1524 Clouds 25 1025 50 9656 8.2 30 19:23 07.03.2020
1525 Clouds 25 1026 53 9656 4.6 40 19:00 07.03.2020
1526 Clouds 24 1026 53 9656 4.6 40 18:39 07.03.2020
1527 Clouds 24 1026 53 9656 4.6 40 18:21 07.03.2020
1528 Clouds 23 1026 60 9656 5.89 358 17:42 07.03.2020
1529 Clouds 23 1026 60 9656 5.33 337 17:20 07.03.2020
1530 Clouds 23 1026 60 9656 1.5 10 16:57 07.03.2020
1531 Clouds 23 1026 60 9656 1.5 10 16:39 07.03.2020
1532 Clouds 23 1026 60 9656 1.5 10 16:21 07.03.2020
1533 Clouds 22 1025 68 9656 5.33 337 15:55 07.03.2020
1534 Clouds 21 1025 68 9656 5.33 337 15:37 07.03.2020
1535 Clouds 21 1025 68 9656 5.33 337 15:19 07.03.2020
1536 Clouds 20 1025 72 9656 5.33 337 14:42 07.03.2020
1537 Clouds 19 1025 72 9656 5.33 337 14:23 07.03.2020
1538 Clouds 20 1024 72 9656 5.61 337 13:44 07.03.2020
1539 Clouds 19 1024 72 9656 5.61 337 13:22 07.03.2020
1540 Rain 20 1023 60 0 0.45 326 12:59 07.03.2020
1541 Rain 21 1023 60 0 1.34 326 12:39 07.03.2020
1542 Rain 21 1023 60 0 1.34 326 12:39 07.03.2020
1543 Rain 22 1022 59 0 5.36 355 12:19 07.03.2020
1544 Rain 22 1022 59 0 5.36 355 11:55 07.03.2020
1545 Rain 22 1023 61 0 4.02 338 11:36 07.03.2020
1546 Rain 22 1023 61 0 4.02 338 11:36 07.03.2020
1547 Rain 22 1023 61 0 4.02 338 11:18 07.03.2020
1548 Rain 22 1023 61 0 4.92 348 10:39 07.03.2020
1549 Rain 22 1023 60 0 5.81 360 10:19 07.03.2020
1550 Rain 22 1023 60 0 5.81 360 09:41 07.03.2020
1551 Rain 22 1023 60 0 4.92 346 09:20 07.03.2020
1552 Rain 22 1024 59 0 4.47 355 08:59 07.03.2020
1553 Rain 22 1024 59 0 4.47 355 08:41 07.03.2020
1554 Clouds 22 1024 61 0 5.36 360 08:20 07.03.2020
1555 Clouds 21 1025 62 0 5.81 5 07:47 07.03.2020
1556 Clouds 21 1025 62 0 5.81 5 07:22 07.03.2020
1557 Clouds 22 1025 61 0 7.15 355 06:52 07.03.2020
1558 Clouds 22 1025 61 0 5.36 340 06:28 07.03.2020
1559 Clouds 22 1025 61 0 6.26 360 05:45 07.03.2020
1560 Clouds 22 1027 68 11265 6.2 360 04:25 07.03.2020
1561 Clouds 22 1024 56 0 5.81 355 02:46 07.03.2020
1562 Clouds 22 1024 57 0 7.15 355 02:18 07.03.2020
1563 Clouds 22 1024 64 9656 7.7 360 01:19 07.03.2020
1564 Clouds 22 1024 68 9656 7.7 360 00:37 07.03.2020
1565 Clouds 22 1024 68 9656 7.7 360 00:18 07.03.2020
1566 Clouds 23 1024 47 11265 7.7 10 23:41 06.03.2020
1567 Clouds 24 1024 47 11265 7.7 10 23:23 06.03.2020
1568 Clouds 25 1024 44 11265 13.4 360 22:46 06.03.2020
1569 Clouds 25 1024 44 11265 13.4 360 22:21 06.03.2020
1570 Clouds 26 1025 47 11265 7.7 10 21:50 06.03.2020
1571 Clouds 25 1025 47 11265 7.7 10 21:21 06.03.2020
1572 Clouds 26 1026 41 11265 8.7 10 20:56 06.03.2020
1573 Clouds 26 1026 41 11265 8.7 10 20:36 06.03.2020
1574 Clouds 26 1026 41 11265 8.7 10 20:36 06.03.2020
1575 Clouds 26 1026 41 11265 8.7 10 20:18 06.03.2020
1576 Clouds 27 1027 39 11265 8.7 30 19:42 06.03.2020
1577 Clouds 27 1027 39 11265 8.7 30 19:23 06.03.2020
1578 Clouds 26 1028 47 11265 5.1 330 18:42 06.03.2020
1579 Clouds 25 1028 47 11265 5.1 330 18:21 06.03.2020
1580 Clouds 25 1028 47 11265 5.1 330 18:21 06.03.2020
1581 Clouds 24 1028 53 11265 6.2 360 17:57 06.03.2020
1582 Clouds 24 1028 53 11265 6.2 360 17:39 06.03.2020
1583 Clouds 24 1028 53 11265 6.2 360 17:39 06.03.2020
1584 Clouds 22 1029 62 0 7.6 352 17:20 06.03.2020
1585 Clouds 23 1027 53 11265 4.1 10 16:56 06.03.2020
1586 Clouds 23 1027 53 11265 4.1 10 16:37 06.03.2020
1587 Clouds 23 1027 53 11265 4.1 10 16:18 06.03.2020
1588 Clouds 22 1027 60 11265 8.7 360 15:42 06.03.2020
1589 Clouds 22 1027 60 11265 8.7 360 15:23 06.03.2020
1590 Clouds 22 1026 64 11265 6.2 20 14:41 06.03.2020
1591 Clouds 22 1026 64 11265 6.2 20 14:23 06.03.2020
1592 Clouds 22 1026 64 11265 6.2 20 14:23 06.03.2020
1593 Clouds 22 1025 64 9656 6.2 10 13:57 06.03.2020
1594 Clouds 22 1025 64 9656 6.2 10 13:39 06.03.2020
1595 Clouds 22 1025 64 9656 6.2 10 13:19 06.03.2020
1596 Clouds 20 1027 72 0 7.34 346 12:54 06.03.2020
1597 Clouds 20 1027 72 0 7.34 346 12:36 06.03.2020
1598 Clouds 20 1027 72 0 7.34 346 12:18 06.03.2020
1599 Clouds 20 1027 72 0 7.34 346 11:42 06.03.2020
1600 Clouds 21 1026 69 0 8.5 346 11:20 06.03.2020
1601 Clouds 21 1026 69 0 8.5 346 10:56 06.03.2020
1602 Clouds 21 1026 69 0 8.5 346 10:36 06.03.2020
1603 Clouds 21 1026 69 0 8.5 346 10:18 06.03.2020
1604 Clouds 21 1026 69 0 8.5 346 09:41 06.03.2020
1605 Clouds 21 1026 69 0 8.5 346 09:23 06.03.2020
1606 Clouds 21 1026 69 0 8.5 346 08:55 06.03.2020
1607 Clouds 21 1026 69 0 8.5 346 08:36 06.03.2020
1608 Clouds 21 1027 74 0 8.15 354 08:18 06.03.2020
1609 Clouds 21 1027 74 0 8.15 354 07:40 06.03.2020
1610 Clouds 21 1027 74 0 8.15 354 07:20 06.03.2020
1611 Clouds 22 1026 68 11265 6.2 20 06:42 06.03.2020
1612 Clouds 22 1026 68 11265 7.7 10 05:59 06.03.2020
1613 Clouds 22 1026 68 11265 7.7 10 05:36 06.03.2020
1614 Clouds 22 1025 64 11265 6.2 360 04:59 06.03.2020
1615 Clouds 22 1024 64 11265 6.2 360 03:58 06.03.2020
1616 Clouds 23 1022 64 11265 6.2 10 01:43 06.03.2020
1617 Clouds 23 1022 64 11265 6.2 10 01:25 06.03.2020
1618 Clouds 24 1021 60 11265 7.2 10 00:48 06.03.2020
1619 Clouds 24 1021 60 11265 7.2 10 00:20 06.03.2020
1620 Clouds 24 1021 64 11265 8.2 360 23:43 05.03.2020
1621 Clouds 24 1021 64 11265 8.2 360 23:24 05.03.2020
1622 Clouds 25 1021 50 11265 7.7 10 22:55 05.03.2020
1623 Clouds 25 1021 50 11265 7.7 10 22:36 05.03.2020
1624 Clouds 25 1021 50 11265 7.7 10 22:18 05.03.2020
1625 Clouds 25 1021 50 11265 10.3 10 21:54 05.03.2020
1626 Clouds 26 1021 50 11265 10.3 10 21:36 05.03.2020
1627 Clouds 26 1021 50 11265 10.3 10 21:18 05.03.2020
1628 Clouds 27 1021 42 11265 10.3 360 20:42 05.03.2020
1629 Clouds 27 1021 42 11265 10.3 360 20:20 05.03.2020
1630 Clouds 27 1021 42 11265 8.2 360 19:59 05.03.2020
1631 Clouds 27 1021 42 11265 8.2 360 19:39 05.03.2020
1632 Clouds 27 1021 42 11265 8.2 360 19:20 05.03.2020
1633 Clouds 27 1021 42 11265 10.3 350 18:58 05.03.2020
1634 Clouds 27 1021 42 11265 10.3 350 18:37 05.03.2020
1635 Clouds 27 1021 42 11265 10.3 350 18:18 05.03.2020
1636 Clouds 27 1021 39 11265 5.1 360 17:55 05.03.2020
1637 Clouds 27 1021 39 11265 5.1 360 17:37 05.03.2020
1638 Clouds 27 1021 39 11265 5.1 360 17:18 05.03.2020
1639 Clouds 27 1020 39 9656 10.3 360 16:41 05.03.2020
1640 Clouds 27 1020 39 9656 10.3 360 16:22 05.03.2020
1641 Clouds 26 1019 50 9656 7.7 360 15:54 05.03.2020
1642 Clouds 26 1019 50 9656 7.7 360 15:36 05.03.2020
1643 Clouds 26 1019 50 9656 7.7 360 15:18 05.03.2020
1644 Clouds 25 1017 60 9656 7.7 360 14:41 05.03.2020
1645 Clouds 24 1017 60 9656 7.7 360 14:22 05.03.2020
1646 Clear 24 1016 64 9656 10.3 330 13:57 05.03.2020
1647 Clear 24 1016 64 9656 10.3 330 13:39 05.03.2020
1648 Clear 24 1016 64 9656 10.3 330 13:20 05.03.2020
1649 Clouds 24 1014 58 0 8.05 343 12:43 05.03.2020
1650 Clouds 24 1013 61 0 8.94 5 12:21 05.03.2020
1651 Clouds 24 1012 61 0 8.49 333 11:58 05.03.2020
1652 Clouds 24 1012 61 0 8.49 333 11:38 05.03.2020
1653 Clouds 24 1011 61 0 8.49 355 11:20 05.03.2020
1654 Clouds 24 1011 59 0 8.94 355 10:58 05.03.2020
1655 Clouds 24 1011 59 0 8.94 355 10:58 05.03.2020
1656 Clouds 24 1011 59 0 8.94 355 10:40 05.03.2020
1657 Clouds 24 1014 85 0 11.76 353 10:21 05.03.2020
1658 Clouds 24 1010 55 0 11.18 26 09:59 05.03.2020
1659 Clouds 24 1010 55 0 11.18 26 09:40 05.03.2020
1660 Clouds 24 1010 53 0 6.26 10 09:19 05.03.2020
1661 Clouds 24 1010 54 0 2.68 38 08:42 05.03.2020
1662 Clear 24 1009 55 0 4.02 30 08:22 05.03.2020
1663 Clear 25 1010 56 0 4.92 51 07:44 05.03.2020
1664 Clear 25 1010 58 0 5.36 57 07:21 05.03.2020
1665 Clouds 25 1012 88 9656 8.2 40 06:45 05.03.2020
1666 Clouds 25 1012 88 9656 8.2 40 06:20 05.03.2020
1667 Clouds 24 1011 94 9656 8.2 20 05:36 05.03.2020
1668 Clear 26 1009 83 11265 2.6 10 04:24 05.03.2020
1669 Clear 26 1008 88 11265 3.1 10 03:58 05.03.2020
1670 Clear 27 1006 74 11265 4.1 30 02:41 05.03.2020
1671 Clear 31 1005 52 11265 6.2 20 01:28 05.03.2020
1672 Clear 38 1004 29 11265 2.6 100 00:50 05.03.2020
1673 Clear 39 1004 16 11265 2.6 60 23:57 04.03.2020
1674 Clear 39 1004 16 11265 2.6 60 23:39 04.03.2020
1675 Clear 39 1004 16 11265 2.6 60 23:21 04.03.2020
1676 Clear 39 1004 26 11265 2.6 90 22:56 04.03.2020
1677 Clear 39 1004 26 11265 2.6 90 22:37 04.03.2020
1678 Clear 39 1004 26 11265 2.6 90 22:18 04.03.2020
1679 Clear 38 1004 31 11265 3.1 110 21:42 04.03.2020
1680 Clear 38 1004 31 11265 3.1 110 21:23 04.03.2020
1681 Clear 38 1005 37 11265 3.1 120 21:00 04.03.2020
1682 Clear 37 1005 37 11265 3.1 120 20:40 04.03.2020
1683 Clear 37 1005 37 11265 3.1 120 20:21 04.03.2020
1684 Clear 37 1005 37 11265 3.1 120 20:21 04.03.2020
1685 Clear 36 1006 41 11265 6.7 180 19:56 04.03.2020
1686 Clear 35 1006 41 11265 6.7 180 19:38 04.03.2020
1687 Clear 35 1006 41 11265 6.7 180 19:20 04.03.2020
1688 Clear 33 1006 52 11265 4.6 180 18:42 04.03.2020
1689 Clear 32 1006 52 11265 4.6 180 18:23 04.03.2020
1690 Clear 30 1007 62 11265 2.6 200 17:59 04.03.2020
1691 Clear 30 1007 62 11265 2.6 200 17:39 04.03.2020
1692 Clear 30 1007 62 11265 2.6 200 17:20 04.03.2020
1693 Clear 27 1007 78 9656 3.6 190 16:55 04.03.2020
1694 Clear 27 1007 78 9656 3.6 190 16:55 04.03.2020
1695 Clear 27 1007 78 9656 3.6 190 16:36 04.03.2020
1696 Clear 27 1007 78 9656 3.6 190 16:18 04.03.2020
1697 Clear 25 1006 88 9656 3.1 190 15:42 04.03.2020
1698 Clear 24 1006 88 9656 3.1 190 15:23 04.03.2020
1699 Clear 23 1005 94 9656 5.03 178 14:57 04.03.2020
1700 Clear 23 1005 94 9656 5.03 178 14:38 04.03.2020
1701 Clear 22 1005 94 9656 5.32 176 14:19 04.03.2020
1702 Clear 22 1004 94 11265 5.32 176 13:57 04.03.2020
1703 Clear 22 1004 94 11265 5.32 176 13:39 04.03.2020
1704 Clear 22 1004 94 11265 5.32 176 13:39 04.03.2020
1705 Clear 22 1004 94 11265 5.7 174 13:20 04.03.2020
1706 Clear 22 1003 60 0 1.34 205 12:45 04.03.2020
1707 Clear 22 1002 61 0 0.89 205 12:27 04.03.2020
1708 Clear 22 1002 62 0 0.45 205 11:59 04.03.2020
1709 Clear 22 1002 62 0 0.45 205 11:41 04.03.2020
1710 Clear 22 1002 62 0 0.89 205 11:23 04.03.2020
1711 Clear 22 1002 63 0 0.89 205 10:57 04.03.2020
1712 Clear 22 1002 63 0 0.89 205 10:39 04.03.2020
1713 Clear 23 1002 64 0 0.89 205 10:18 04.03.2020
1714 Clear 23 1002 66 0 1.79 207 09:42 04.03.2020
1715 Clear 23 1003 66 0 1.34 206 09:21 04.03.2020
1716 Clear 23 1003 67 0 1.34 206 08:47 04.03.2020
1717 Clear 23 1003 67 0 1.34 206 08:27 04.03.2020
1718 Clear 24 1003 67 0 1.34 205 07:56 04.03.2020
1719 Clear 24 1004 66 0 1.79 204 07:37 04.03.2020
1720 Clear 25 1004 65 0 2.68 205 07:18 04.03.2020
1721 Clear 26 1005 74 11265 2.1 200 06:43 04.03.2020
1722 Clear 26 1005 74 11265 2.1 200 06:23 04.03.2020
1723 Clear 26 1005 74 11265 2.6 180 05:48 04.03.2020
1724 Clear 25 1005 88 11265 5.53 147 04:23 04.03.2020
1725 Clear 26 1004 78 11265 5.53 147 03:40 04.03.2020
1726 Clear 26 1004 78 11265 5.53 147 03:21 04.03.2020
1727 Clear 26 1004 74 11265 5.53 147 02:53 04.03.2020
1728 Clear 27 1004 74 11265 2.98 75 02:19 04.03.2020
1729 Clear 28 1003 69 11265 1 100 01:52 04.03.2020
1730 Clear 29 1003 70 11265 3.6 100 00:49 04.03.2020
1731 Clear 29 1003 70 11265 3.6 100 00:25 04.03.2020
1732 Clear 31 1003 62 11265 5.1 80 23:46 03.03.2020
1733 Clear 31 1003 62 11265 5.1 80 23:27 03.03.2020
1734 Clear 33 1003 53 11265 3.1 100 22:58 03.03.2020
1735 Clear 33 1003 53 11265 3.1 100 22:58 03.03.2020
1736 Clear 34 1003 53 11265 3.1 100 22:40 03.03.2020
1737 Clear 34 1003 53 11265 3.1 100 22:19 03.03.2020
1738 Clear 34 1005 49 11265 2.6 190 21:57 03.03.2020
1739 Clear 34 1005 49 11265 2.6 190 21:38 03.03.2020
1740 Clear 34 1005 49 11265 2.6 190 21:19 03.03.2020
1741 Clear 33 1006 55 11265 3.1 160 20:41 03.03.2020
1742 Clear 33 1006 55 11265 3.1 160 20:21 03.03.2020
1743 Clear 33 1006 55 11265 3.1 160 20:21 03.03.2020
1744 Clear 33 1007 62 11265 2.6 200 19:59 03.03.2020
1745 Clear 32 1007 62 11265 2.6 200 19:37 03.03.2020
1746 Clear 32 1007 62 11265 2.6 200 19:19 03.03.2020
1747 Clear 31 1008 66 8047 3.6 190 18:58 03.03.2020
1748 Clear 31 1008 66 8047 3.6 190 18:40 03.03.2020
1749 Clear 30 1008 66 8047 3.6 190 18:21 03.03.2020
1750 Clouds 29 1008 74 8047 5.7 170 17:56 03.03.2020
1751 Clouds 28 1008 74 8047 5.7 170 17:37 03.03.2020
1752 Clouds 28 1008 74 8047 5.7 170 17:19 03.03.2020
1753 Haze 26 1008 88 6437 3.6 170 16:57 03.03.2020
1754 Haze 26 1008 88 6437 3.6 170 16:37 03.03.2020
1755 Haze 26 1008 88 6437 3.6 170 16:18 03.03.2020
1756 Rain 24 1007 94 4828 4.23 171 15:43 03.03.2020
1757 Rain 23 1007 94 4828 4.23 171 15:21 03.03.2020
1758 Mist 22 1007 94 4828 4.33 169 14:56 03.03.2020
1759 Mist 22 1007 94 4828 4.23 171 14:37 03.03.2020
1760 Mist 22 1007 94 4828 4.59 178 14:19 03.03.2020
1761 Clear 21 1006 100 9656 4.59 178 13:43 03.03.2020
1762 Clear 21 1006 100 9656 4.59 178 13:24 03.03.2020
1763 Clear 22 1004 66 0 0.89 103 12:55 03.03.2020
1764 Clear 22 1004 66 0 0.89 103 12:37 03.03.2020
1765 Clear 22 1004 67 0 0.89 103 12:19 03.03.2020
1766 Clear 22 1004 68 0 0.45 103 11:55 03.03.2020
1767 Clear 22 1004 69 0 0.89 103 11:36 03.03.2020
1768 Clear 22 1004 71 0 4.14 181 11:18 03.03.2020
1769 Clear 22 1004 71 0 4.14 181 10:54 03.03.2020
1770 Clear 21 1005 71 0 0.45 103 10:36 03.03.2020
1771 Clear 21 1005 71 0 0.45 103 10:36 03.03.2020
1772 Clear 21 1005 72 0 0.45 103 10:18 03.03.2020
1773 Clear 21 1005 72 0 0.45 103 10:18 03.03.2020
1774 Clear 21 1005 73 0 4.14 181 09:41 03.03.2020
1775 Clear 22 1006 75 0 0.45 103 09:20 03.03.2020
1776 Clear 22 1006 75 0 4.14 181 08:42 03.03.2020
1777 Clear 22 1006 75 0 4.11 181 08:22 03.03.2020
1778 Clear 22 1006 76 0 0.45 103 07:56 03.03.2020
1779 Clear 22 1006 77 0 4.7 161 07:37 03.03.2020
1780 Clear 22 1006 77 0 4.7 161 07:18 03.03.2020
1781 Mist 22 1008 100 4828 4.7 161 06:40 03.03.2020
1782 Mist 22 1008 100 4828 4.7 161 06:20 03.03.2020
1783 Mist 22 1008 100 8047 4.7 161 05:42 03.03.2020
1784 Mist 23 1008 100 6437 2.58 106 04:51 03.03.2020
1785 Clear 24 1006 88 8047 2.1 80 02:38 03.03.2020
1786 Clear 25 1006 83 6437 2.1 110 01:27 03.03.2020
1787 Clear 26 1006 78 8047 3.6 90 00:41 03.03.2020
1788 Clear 26 1006 78 8047 3.6 90 00:22 03.03.2020
1789 Clear 27 1006 74 9656 2.6 120 23:46 02.03.2020
1790 Clear 27 1006 74 9656 2.6 120 23:23 02.03.2020
1791 Clear 27 1007 74 9656 3.1 90 22:57 02.03.2020
1792 Clear 27 1007 74 9656 3.1 90 22:38 02.03.2020
1793 Clear 27 1007 74 9656 3.1 90 22:38 02.03.2020
1794 Clear 27 1007 74 9656 3.1 90 22:19 02.03.2020
1795 Clear 28 1008 65 9656 2.6 100 21:56 02.03.2020
1796 Clear 28 1008 65 9656 2.6 100 21:37 02.03.2020
1797 Clear 28 1008 65 9656 2.6 100 21:19 02.03.2020
1798 Clear 29 1009 62 9656 3.86 94 20:43 02.03.2020
1799 Clear 28 1009 62 9656 3.55 87 20:24 02.03.2020
1800 Clouds 29 1011 62 8047 3.31 96 19:59 02.03.2020
1801 Clouds 29 1011 62 8047 3.31 96 19:39 02.03.2020
1802 Clouds 29 1011 62 8047 3.31 96 19:21 02.03.2020
1803 Clouds 28 1012 69 9656 3.31 96 18:56 02.03.2020
1804 Clouds 28 1012 69 9656 3.31 96 18:38 02.03.2020
1805 Clouds 27 1012 69 9656 3.31 96 18:18 02.03.2020
1806 Clouds 27 1012 69 8047 1.5 140 17:56 02.03.2020
1807 Clouds 26 1012 69 8047 1.5 140 17:38 02.03.2020
1808 Clouds 26 1012 69 8047 1.5 140 17:20 02.03.2020
1809 Rain 25 1012 73 8047 1.57 155 16:42 02.03.2020
1810 Rain 25 1012 73 8047 1.57 155 16:23 02.03.2020
1811 Clouds 23 1012 83 8047 1.57 155 15:56 02.03.2020
1812 Clouds 23 1012 83 8047 1.57 155 15:56 02.03.2020
1813 Clouds 22 1012 83 8047 1.57 155 15:38 02.03.2020
1814 Clouds 21 1012 83 8047 1.57 155 15:18 02.03.2020
1815 Mist 19 1011 93 6437 1.57 155 14:39 02.03.2020
1816 Mist 17 1011 93 6437 2.4 219 14:19 02.03.2020
1817 Mist 17 1011 93 6437 2.4 219 14:19 02.03.2020
1818 Clear 17 1011 93 11265 2.4 219 13:45 02.03.2020
1819 Clear 18 1011 93 11265 2.47 225 13:20 02.03.2020
1820 Clear 17 1009 79 0 2.47 225 12:59 02.03.2020
1821 Clear 18 1009 79 0 2.47 225 12:41 02.03.2020
1822 Clear 17 1009 79 0 2.47 225 12:19 02.03.2020
1823 Clear 18 1009 80 0 0.45 122 11:39 02.03.2020
1824 Clear 18 1009 80 0 2.42 216 11:20 02.03.2020
1825 Clear 18 1009 80 0 0.45 122 10:57 02.03.2020
1826 Clear 18 1009 80 0 0.89 122 10:37 02.03.2020
1827 Clear 18 1009 80 0 0.45 122 10:19 02.03.2020
1828 Clear 18 1010 80 0 0.45 122 09:49 02.03.2020
1829 Clear 18 1010 80 0 0.45 122 09:31 02.03.2020
1830 Clear 19 1010 80 0 0.89 122 08:49 02.03.2020
1831 Clear 18 1011 80 0 0.45 122 08:23 02.03.2020
1832 Clear 19 1011 80 0 0.45 122 07:52 02.03.2020
1833 Clear 19 1012 80 0 0.45 122 07:32 02.03.2020
1834 Clear 19 1013 88 9656 1.88 197 06:51 02.03.2020
1835 Clear 19 1013 88 9656 1.88 197 06:26 02.03.2020
1836 Clear 20 1014 88 11265 1.88 197 05:25 02.03.2020
1837 Clouds 21 1013 83 11265 3.33 109 03:28 02.03.2020
1838 Clouds 22 1012 83 11265 1 120 02:55 02.03.2020
1839 Clouds 22 1012 83 11265 1 120 02:30 02.03.2020
1840 Clear 23 1012 69 11265 2.1 130 01:36 02.03.2020
1841 Clear 24 1012 69 11265 2.1 130 01:18 02.03.2020
1842 Clear 24 1012 69 11265 3.1 100 00:22 02.03.2020
1843 Clear 25 1012 57 11265 3.6 100 23:42 01.03.2020
1844 Clear 25 1012 57 11265 3.6 100 23:22 01.03.2020
1845 Clouds 25 1013 57 11265 4.1 110 22:45 01.03.2020
1846 Clouds 25 1013 57 11265 4.1 110 22:21 01.03.2020
1847 Clouds 26 1014 54 11265 3.6 110 21:58 01.03.2020
1848 Clouds 26 1014 54 11265 3.6 110 21:39 01.03.2020
1849 Clouds 26 1014 54 11265 3.6 110 21:20 01.03.2020
1850 Clouds 26 1015 57 11265 4.1 100 20:45 01.03.2020
1851 Clouds 26 1015 57 11265 4.1 100 20:26 01.03.2020
1852 Clouds 27 1017 51 11265 2.6 150 19:59 01.03.2020
1853 Clouds 27 1017 51 11265 2.6 150 19:41 01.03.2020
1854 Clouds 27 1017 51 11265 2.6 150 19:21 01.03.2020
1855 Clouds 27 1017 51 11265 2.6 150 19:21 01.03.2020
1856 Clear 26 1019 61 9656 2.1 130 18:56 01.03.2020
1857 Clear 26 1019 61 9656 2.1 130 18:38 01.03.2020
1858 Clear 25 1019 61 9656 2.1 130 18:18 01.03.2020
1859 Clear 24 1019 69 9656 2.6 170 17:55 01.03.2020
1860 Clear 24 1019 69 9656 2.6 170 17:36 01.03.2020
1861 Clear 23 1019 69 9656 2.6 170 17:18 01.03.2020
1862 Clear 21 1019 82 9656 2.1 190 16:40 01.03.2020
1863 Clear 21 1019 82 9656 2.1 190 16:20 01.03.2020
1864 Clear 20 1019 93 8047 3.75 166 15:59 01.03.2020
1865 Clear 19 1019 93 8047 3.75 166 15:40 01.03.2020
1866 Clear 19 1019 93 8047 3.75 166 15:40 01.03.2020
1867 Clear 18 1019 93 8047 3.75 166 15:22 01.03.2020
1868 Clear 18 1018 93 9656 1.5 200 14:58 01.03.2020
1869 Clear 18 1018 93 9656 1.5 200 14:39 01.03.2020
1870 Clear 17 1018 93 9656 1.5 200 14:21 01.03.2020
1871 Clear 17 1018 93 9656 1.5 200 14:21 01.03.2020
1872 Clear 17 1018 93 8047 2.6 190 13:59 01.03.2020
1873 Clear 17 1018 93 8047 2.6 190 13:41 01.03.2020
1874 Clear 17 1018 93 8047 2.6 190 13:20 01.03.2020
1875 Clear 17 1016 81 0 1.34 128 12:56 01.03.2020
1876 Clear 17 1016 81 0 1.34 128 12:38 01.03.2020
1877 Clear 18 1016 81 0 1.34 128 12:19 01.03.2020
1878 Clear 17 1016 81 0 1.34 128 11:40 01.03.2020
1879 Clear 17 1016 81 0 0.89 128 11:19 01.03.2020
1880 Clear 18 1016 80 0 0.89 128 10:56 01.03.2020
1881 Clear 18 1017 80 0 0.89 128 10:37 01.03.2020
1882 Clear 18 1017 80 0 1.34 128 10:18 01.03.2020
1883 Clear 18 1017 80 0 1.34 128 10:18 01.03.2020
1884 Clear 19 1017 79 0 0.45 128 09:44 01.03.2020
1885 Clear 19 1017 79 0 0.45 128 09:26 01.03.2020
1886 Clear 18 1018 79 0 0.45 128 08:47 01.03.2020
1887 Clear 18 1018 78 0 0.89 128 08:28 01.03.2020
1888 Clear 18 1018 78 0 1.34 128 07:57 01.03.2020
1889 Clear 19 1018 77 0 0.45 128 07:39 01.03.2020
1890 Clear 21 1019 74 0 0.45 128 07:21 01.03.2020
1891 Clouds 21 1022 77 11265 4.57 128 06:42 01.03.2020
1892 Clouds 22 1022 78 11265 4.57 128 05:58 01.03.2020
1893 Clouds 22 1022 73 11265 4.85 102 03:38 01.03.2020
1894 Clouds 22 1022 78 11265 4.85 102 02:23 01.03.2020
1895 Clouds 22 1022 78 11265 4.6 70 01:45 01.03.2020
1896 Clouds 23 1021 73 11265 2.6 120 00:51 01.03.2020
1897 Clouds 23 1021 73 11265 2.6 120 00:25 01.03.2020
1898 Clouds 24 1021 69 11265 3.1 100 23:58 29.02.2020
1899 Clouds 24 1021 69 11265 3.1 100 23:40 29.02.2020
1900 Clouds 24 1021 69 11265 3.1 100 23:22 29.02.2020
1901 Clouds 24 1022 64 11265 5.1 100 22:38 29.02.2020
1902 Clouds 24 1022 64 11265 5.1 100 22:20 29.02.2020
1903 Clouds 24 1023 73 11265 1 110 21:39 29.02.2020
1904 Clouds 23 1023 73 11265 1 110 21:20 29.02.2020
1905 Clouds 23 1024 83 11265 5.91 90 20:42 29.02.2020
1906 Rain 22 1024 83 11265 5.25 91 20:21 29.02.2020
1907 Drizzle 20 1025 93 4828 1.5 200 19:56 29.02.2020
1908 Drizzle 20 1025 93 4828 1.5 200 19:37 29.02.2020
1909 Drizzle 19 1025 93 4828 1.5 200 19:18 29.02.2020
1910 Drizzle 19 1026 93 4023 2.6 190 18:42 29.02.2020
1911 Clouds 20 1027 88 8047 2.77 90 18:23 29.02.2020
1912 Clouds 20 1027 93 8047 1.5 240 17:56 29.02.2020
1913 Clouds 20 1027 93 8047 1.5 240 17:37 29.02.2020
1914 Clouds 19 1027 93 8047 1.5 240 17:19 29.02.2020
1915 Clouds 19 1027 93 8047 0.93 24 16:45 29.02.2020
1916 Clouds 19 1027 93 8047 0.93 24 16:20 29.02.2020
1917 Drizzle 18 1027 100 8047 0.93 24 15:57 29.02.2020
1918 Drizzle 18 1027 100 8047 0.93 24 15:37 29.02.2020
1919 Drizzle 18 1027 100 8047 0.93 24 15:19 29.02.2020
1920 Drizzle 18 1027 100 6437 0.93 24 14:40 29.02.2020
1921 Drizzle 18 1027 100 6437 0.93 24 14:22 29.02.2020
1922 Rain 18 1026 100 8047 2.52 43 13:46 29.02.2020
1923 Clouds 18 1026 100 8047 2.52 43 13:27 29.02.2020
1924 Rain 19 1025 82 0 0.45 21 12:57 29.02.2020
1925 Rain 19 1025 82 0 0.89 21 12:38 29.02.2020
1926 Rain 19 1024 82 0 2.15 22 12:20 29.02.2020
1927 Rain 19 1025 82 0 1.34 360 11:45 29.02.2020
1928 Rain 18 1024 81 0 0.45 360 11:26 29.02.2020
1929 Rain 18 1025 81 0 3.25 33 10:51 29.02.2020
1930 Rain 18 1025 81 0 3.25 33 10:31 29.02.2020
1931 Rain 18 1025 80 0 0.45 360 09:56 29.02.2020
1932 Rain 18 1025 80 0 1.34 360 09:38 29.02.2020
1933 Rain 18 1025 80 0 1.34 355 09:18 29.02.2020
1934 Rain 19 1026 79 0 3.13 355 08:40 29.02.2020
1935 Rain 19 1026 77 0 1.79 27 08:21 29.02.2020
1936 Rain 19 1026 76 0 2.24 40 07:52 29.02.2020
1937 Rain 20 1027 72 0 1.79 49 07:25 29.02.2020
1938 Rain 20 1029 82 9656 2.6 360 06:55 29.02.2020
1939 Rain 20 1029 82 9656 2.6 360 06:29 29.02.2020
1940 Clouds 20 1029 77 9656 3.1 10 05:52 29.02.2020
1941 Clouds 20 1029 77 9656 3.1 10 05:32 29.02.2020
1942 Clouds 20 1028 77 9656 5.1 360 03:59 29.02.2020
1943 Clouds 20 1028 77 9656 5.1 360 03:24 29.02.2020
1944 Clouds 20 1027 77 9656 5.7 20 02:57 29.02.2020
1945 Clouds 20 1026 77 9656 5.1 10 01:59 29.02.2020
1946 Clouds 21 1026 73 9656 7.7 360 00:52 29.02.2020
1947 Clouds 21 1026 73 9656 7.7 360 00:28 29.02.2020
1948 Clouds 22 1026 64 9656 7.7 360 23:41 28.02.2020
1949 Clouds 22 1026 64 9656 7.7 360 23:23 28.02.2020
1950 Clouds 22 1026 64 9656 7.7 360 23:23 28.02.2020
1951 Clouds 22 1026 64 9656 7.2 20 22:43 28.02.2020
1952 Clouds 22 1026 64 9656 7.2 20 22:23 28.02.2020
1953 Clouds 23 1027 60 11265 6.2 20 21:42 28.02.2020
1954 Clouds 23 1027 60 11265 6.2 20 21:22 28.02.2020
1955 Clouds 22 1027 60 11265 5.1 20 20:59 28.02.2020
1956 Clouds 23 1027 60 11265 5.1 20 20:39 28.02.2020
1957 Clouds 23 1027 60 11265 5.1 20 20:20 28.02.2020
1958 Clouds 22 1028 60 11265 4.6 360 19:57 28.02.2020
1959 Clouds 22 1028 60 11265 4.6 360 19:57 28.02.2020
1960 Clouds 22 1028 60 11265 4.6 360 19:38 28.02.2020
1961 Clouds 22 1028 60 11265 4.6 360 19:20 28.02.2020
1962 Clouds 22 1028 56 11265 4.6 40 18:46 28.02.2020
1963 Clouds 22 1028 56 11265 4.6 40 18:25 28.02.2020
1964 Clouds 22 1028 60 11265 2.1 340 17:57 28.02.2020
1965 Clouds 21 1028 60 11265 2.1 340 17:38 28.02.2020
1966 Clouds 21 1028 60 11265 2.1 340 17:20 28.02.2020
1967 Clouds 21 1028 60 11265 2.1 330 16:38 28.02.2020
1968 Clouds 21 1028 60 11265 2.1 330 16:19 28.02.2020
1969 Clouds 20 1027 63 9656 2.6 340 15:56 28.02.2020
1970 Clouds 20 1027 63 9656 2.6 340 15:38 28.02.2020
1971 Clouds 19 1027 63 9656 2.6 340 15:18 28.02.2020
1972 Clouds 18 1026 68 9656 5.31 336 14:45 28.02.2020
1973 Clouds 18 1026 68 9656 5.44 328 14:20 28.02.2020
1974 Clouds 17 1026 67 9656 5.44 328 13:59 28.02.2020
1975 Clouds 17 1026 67 9656 5.44 328 13:40 28.02.2020
1976 Clouds 17 1026 67 9656 5.35 328 13:20 28.02.2020
1977 Clouds 18 1024 59 0 0.89 318 12:45 28.02.2020
1978 Clouds 18 1024 58 0 0.89 318 12:27 28.02.2020
1979 Clouds 18 1024 58 0 0.89 318 12:27 28.02.2020
1980 Clouds 18 1024 57 0 0.89 318 11:56 28.02.2020
1981 Clouds 18 1024 56 0 1.34 318 11:37 28.02.2020
1982 Clouds 18 1024 56 0 1.34 318 11:19 28.02.2020
1983 Clouds 18 1024 54 0 0.89 318 10:43 28.02.2020
1984 Clouds 18 1024 54 0 1.34 318 10:24 28.02.2020
1985 Clouds 18 1026 72 0 4.87 323 09:49 28.02.2020
1986 Clouds 18 1026 72 0 4.87 323 09:49 28.02.2020
1987 Clouds 18 1026 72 0 4.87 323 09:49 28.02.2020
1988 Clouds 18 1026 72 0 4.87 323 09:49 28.02.2020
1989 Clouds 18 1026 72 0 4.87 323 09:49 28.02.2020
1990 Clouds 18 1024 54 0 0.89 318 09:22 28.02.2020
1991 Clouds 18 1025 54 0 1.34 318 08:59 28.02.2020
1992 Clouds 18 1025 54 0 1.79 318 08:41 28.02.2020
1993 Clouds 18 1025 54 0 1.79 318 08:41 28.02.2020
1994 Clouds 18 1025 54 0 1.34 318 08:20 28.02.2020
1995 Clouds 18 1025 55 0 1.34 318 07:45 28.02.2020
1996 Clouds 18 1025 54 0 0.89 318 07:25 28.02.2020
1997 Clouds 18 1028 63 11265 4.05 327 06:48 28.02.2020
1998 Clouds 18 1028 63 11265 4.05 327 06:28 28.02.2020
1999 Clouds 19 1027 63 11265 4.1 10 04:50 28.02.2020
2000 Clouds 19 1027 63 11265 4.1 10 04:20 28.02.2020
2001 Clouds 19 1026 59 11265 5.1 360 02:47 28.02.2020
2002 Clouds 19 1026 59 11265 5.1 360 02:28 28.02.2020
2003 Clouds 20 1025 56 11265 4.6 350 01:33 28.02.2020
2004 Clouds 21 1025 52 11265 6.7 20 00:30 28.02.2020
2005 Clouds 22 1025 46 11265 5.7 360 23:42 27.02.2020
2006 Clouds 22 1025 46 11265 5.7 360 23:22 27.02.2020
2007 Clouds 22 1025 43 11265 5.1 20 22:55 27.02.2020
2008 Clouds 22 1025 43 11265 5.1 20 22:37 27.02.2020
2009 Clouds 22 1025 43 11265 5.1 20 22:19 27.02.2020
2010 Clouds 23 1026 40 11265 5.1 30 21:41 27.02.2020
2011 Clouds 23 1026 40 11265 5.1 30 21:19 27.02.2020
2012 Clouds 22 1027 40 11265 3.1 50 20:58 27.02.2020
2013 Clouds 22 1027 40 11265 3.1 50 20:39 27.02.2020
2014 Clouds 22 1027 40 11265 3.1 50 20:21 27.02.2020
2015 Clouds 22 1029 43 11265 2.1 340 19:56 27.02.2020
2016 Clouds 21 1029 43 11265 2.1 340 19:37 27.02.2020
2017 Clouds 21 1029 43 11265 2.1 340 19:37 27.02.2020
2018 Clouds 21 1029 43 11265 2.1 340 19:19 27.02.2020
2019 Clouds 21 1030 45 11265 3.6 360 18:42 27.02.2020
2020 Clouds 21 1030 45 11265 3.6 360 18:24 27.02.2020
2021 Clouds 21 1030 49 9656 6.15 349 17:58 27.02.2020
2022 Clouds 20 1030 49 9656 6.15 349 17:40 27.02.2020
2023 Clouds 20 1030 49 9656 4.27 323 17:19 27.02.2020
2024 Clouds 20 1029 48 8047 2.1 340 16:56 27.02.2020
2025 Clouds 19 1029 48 8047 2.1 340 16:38 27.02.2020
2026 Clouds 19 1029 48 8047 2.1 340 16:18 27.02.2020
2027 Clouds 18 1029 52 8047 2.6 360 15:56 27.02.2020
2028 Clouds 18 1029 52 8047 2.6 360 15:36 27.02.2020
2029 Clouds 18 1029 52 8047 2.6 360 15:18 27.02.2020
2030 Clouds 18 1029 52 8047 2.6 360 15:18 27.02.2020
2031 Clouds 18 1028 52 8047 2.1 330 14:41 27.02.2020
2032 Clouds 18 1028 52 8047 2.1 330 14:41 27.02.2020
2033 Clouds 18 1028 52 8047 2.1 330 14:23 27.02.2020
2034 Clouds 18 1028 52 9656 3.67 298 13:57 27.02.2020
2035 Clouds 18 1028 52 9656 3.67 298 13:39 27.02.2020
2036 Clouds 18 1028 52 9656 3.77 307 13:20 27.02.2020
2037 Clouds 18 1026 48 0 4.02 344 12:45 27.02.2020
2038 Clouds 18 1026 48 0 4.02 344 12:22 27.02.2020
2039 Clouds 18 1026 48 0 5.81 346 11:56 27.02.2020
2040 Clouds 18 1026 49 0 3.58 348 11:37 27.02.2020
2041 Clouds 18 1026 50 0 4.47 336 11:18 27.02.2020
2042 Clouds 18 1026 49 0 4.47 336 10:41 27.02.2020
2043 Clouds 18 1026 49 0 4.47 350 10:20 27.02.2020
2044 Clouds 18 1026 49 0 3.13 333 09:45 27.02.2020
2045 Clouds 18 1026 49 0 3.13 333 09:26 27.02.2020
2046 Clouds 18 1027 48 0 3.58 302 08:56 27.02.2020
2047 Clouds 18 1027 49 0 4.47 338 08:37 27.02.2020
2048 Clouds 18 1027 49 0 6.71 345 08:18 27.02.2020
2049 Clouds 18 1027 49 0 6.26 351 07:42 27.02.2020
2050 Clouds 18 1027 49 0 6.26 351 07:24 27.02.2020
2051 Sand 18 1028 55 9656 7.7 350 06:30 27.02.2020
2052 Sand 18 1028 59 9656 8.7 360 05:23 27.02.2020
2053 Sand 18 1025 59 8047 10.8 360 03:20 27.02.2020
2054 Sand 18 1023 59 4828 13.9 360 01:34 27.02.2020
2055 Sand 19 1022 55 4828 14.4 360 00:42 27.02.2020
2056 Sand 19 1020 52 4828 12.9 350 23:56 26.02.2020
2057 Sand 20 1020 52 4828 12.9 350 23:37 26.02.2020
2058 Sand 20 1020 52 4828 12.9 350 23:18 26.02.2020
2059 Sand 20 1020 52 4828 12.9 350 23:18 26.02.2020
2060 Sand 21 1019 49 4828 12.9 350 22:55 26.02.2020
2061 Sand 22 1019 49 4828 12.9 350 22:37 26.02.2020
2062 Sand 21 1019 49 4828 12.9 350 22:18 26.02.2020
2063 Sand 23 1019 46 4828 12.9 350 21:39 26.02.2020
2064 Sand 23 1019 46 4828 12.9 350 21:20 26.02.2020
2065 Sand 24 1019 47 4828 12.9 350 20:56 26.02.2020
2066 Sand 24 1019 47 4828 12.9 350 20:56 26.02.2020
2067 Sand 24 1019 47 4828 12.9 350 20:38 26.02.2020
2068 Sand 25 1019 47 4828 12.9 350 20:19 26.02.2020
2069 Sand 25 1019 50 4828 12.9 350 19:56 26.02.2020
2070 Sand 25 1019 50 4828 12.9 350 19:37 26.02.2020
2071 Sand 24 1019 50 4828 12.9 350 19:19 26.02.2020
2072 Sand 24 1019 73 4828 18 350 18:56 26.02.2020
2073 Sand 23 1019 73 4828 18 350 18:37 26.02.2020
2074 Sand 23 1019 73 4828 18 350 18:18 26.02.2020
2075 -273 0 0 0 0 0 17:40 26.02.2020
2076 Sand 24 1018 78 4828 12.9 10 17:19 26.02.2020
2077 Clouds 25 1016 69 8047 10.3 360 16:56 26.02.2020
2078 Clouds 27 1016 69 8047 10.3 360 16:38 26.02.2020
2079 Clouds 26 1016 69 8047 10.3 360 16:19 26.02.2020
2080 Clouds 25 1015 78 8047 7.7 360 15:44 26.02.2020
2081 Clouds 25 1015 78 8047 7.7 360 15:25 26.02.2020
2082 Clouds 24 1014 83 8047 10.3 10 14:43 26.02.2020
2083 Clouds 24 1014 83 8047 10.3 10 14:23 26.02.2020
2084 Clouds 24 1013 83 8047 3.1 360 13:56 26.02.2020
2085 Clouds 24 1013 83 8047 3.1 360 13:38 26.02.2020
2086 Clouds 24 1013 83 8047 3.1 360 13:18 26.02.2020
2087 Clouds 24 1011 77 0 6.26 342 12:38 26.02.2020
2088 Clouds 24 1014 87 0 7.25 349 12:19 26.02.2020
2089 Clouds 23 1010 79 0 4.02 349 11:43 26.02.2020
2090 Clouds 23 1010 79 0 4.02 349 11:23 26.02.2020
2091 Clouds 23 1010 79 0 4.02 349 10:59 26.02.2020
2092 Clouds 23 1010 79 0 4.02 349 10:39 26.02.2020
2093 Clouds 23 1010 79 0 4.02 9 10:21 26.02.2020
2094 Clouds 23 1010 79 0 4.02 9 10:21 26.02.2020
2095 Clouds 23 1010 79 0 4.02 360 09:44 26.02.2020
2096 Clouds 23 1010 79 0 3.13 351 09:24 26.02.2020
2097 Clouds 23 1009 79 0 3.13 350 08:58 26.02.2020
2098 Clouds 23 1009 79 0 1.79 346 08:37 26.02.2020
2099 Rain 23 1009 79 0 2.24 360 08:18 26.02.2020
2100 Rain 24 1010 79 0 1.34 12 07:42 26.02.2020
2101 Rain 24 1010 79 0 1.34 350 07:24 26.02.2020
2102 Clouds 24 1011 88 9656 3.4 352 06:50 26.02.2020
2103 Clouds 24 1011 88 9656 3.4 352 06:32 26.02.2020
2104 Clouds 24 1011 88 9656 3.4 352 05:51 26.02.2020
2105 Clouds 24 1011 88 9656 3.4 352 05:24 26.02.2020
2106 Clouds 24 1011 88 9656 2.29 20 04:23 26.02.2020
2107 Clouds 24 1009 83 8047 3.6 20 02:23 26.02.2020
2108 Clouds 25 1008 78 8047 3.6 20 01:45 26.02.2020
2109 Clouds 26 1008 78 8047 4.1 40 00:48 26.02.2020
2110 Clouds 26 1008 78 8047 4.1 40 00:22 26.02.2020
2111 Clouds 26 1008 78 8047 4.1 40 00:22 26.02.2020
2112 Clear 27 1007 69 8047 5.1 80 23:45 25.02.2020
2113 Clear 27 1007 69 8047 5.1 80 23:26 25.02.2020
2114 Clear 27 1008 61 8047 5.1 50 22:59 25.02.2020
2115 Clear 28 1008 61 8047 5.1 50 22:41 25.02.2020
2116 Clear 28 1008 61 8047 5.1 50 22:19 25.02.2020
2117 Clear 28 1009 61 8047 2.6 90 21:39 25.02.2020
2118 Clear 28 1009 61 8047 2.6 90 21:21 25.02.2020
2119 -273 0 0 0 0 0 21:21 25.02.2020
2120 Clouds 28 1009 61 8047 3.1 80 20:58 25.02.2020
2121 Clouds 28 1009 61 8047 3.1 80 20:39 25.02.2020
2122 Clouds 28 1009 61 8047 3.1 80 20:20 25.02.2020
2123 Clouds 28 1011 65 8047 3.1 80 19:59 25.02.2020
2124 Clouds 28 1011 65 8047 3.1 80 19:40 25.02.2020
2125 Clouds 28 1011 65 8047 3.1 80 19:19 25.02.2020
2126 Haze 27 1012 69 6437 2.1 40 18:42 25.02.2020
2127 Haze 27 1012 69 6437 2.1 40 18:21 25.02.2020
2128 Clouds 26 1012 74 8047 3.6 10 17:58 25.02.2020
2129 Clouds 26 1012 74 8047 3.6 10 17:38 25.02.2020
2130 Clouds 26 1012 74 8047 3.6 10 17:19 25.02.2020
2131 Clouds 25 1011 83 8047 5.1 20 16:58 25.02.2020
2132 Clouds 25 1011 83 8047 5.1 20 16:39 25.02.2020
2133 Clouds 24 1011 83 8047 5.1 20 16:21 25.02.2020
2134 Clouds 24 1011 100 8047 1.5 360 15:56 25.02.2020
2135 Clouds 24 1011 100 8047 1.5 360 15:56 25.02.2020
2136 Clouds 23 1011 100 8047 1.5 360 15:37 25.02.2020
2137 Clouds 23 1011 100 8047 1.5 360 15:18 25.02.2020
2138 Haze 23 1010 94 6437 2.1 360 14:54 25.02.2020
2139 Haze 23 1010 94 6437 2.1 360 14:36 25.02.2020
2140 Haze 23 1010 94 6437 2.1 360 14:18 25.02.2020
2141 Clouds 23 1009 94 8047 2.1 350 13:54 25.02.2020
2142 Clouds 23 1009 94 8047 2.1 350 13:54 25.02.2020
2143 Clouds 23 1009 94 8047 2.1 350 13:36 25.02.2020
2144 Clouds 23 1009 94 8047 2.1 350 13:18 25.02.2020
2145 Clouds 22 1008 80 0 1.34 344 12:40 25.02.2020
2146 Clouds 22 1007 81 0 1.79 339 12:20 25.02.2020
2147 Clouds 22 1007 81 0 1.34 350 11:56 25.02.2020
2148 Clouds 22 1007 81 0 1.79 355 11:38 25.02.2020
2149 Clouds 23 1007 81 0 2.24 344 11:19 25.02.2020
2150 Clouds 23 1007 81 0 2.24 344 11:19 25.02.2020
2151 Clouds 23 1007 81 0 2.24 344 11:19 25.02.2020
2152 -273 0 0 0 0 0 10:56 25.02.2020
2153 Clouds 22 1007 81 0 1.79 348 10:38 25.02.2020
2154 Clouds 22 1007 81 0 1.79 350 10:19 25.02.2020
2155 Clouds 22 1008 81 0 1.34 350 09:40 25.02.2020
2156 Clouds 22 1008 80 0 1.79 338 09:19 25.02.2020
2157 Clouds 22 1008 80 0 2.68 322 08:44 25.02.2020
2158 Clouds 22 1008 79 0 3.74 2 08:25 25.02.2020
2159 Clear 23 1008 79 0 0.89 33 07:51 25.02.2020
2160 Clear 23 1008 79 0 1.34 35 07:25 25.02.2020
2161 Clear 23 1010 94 9656 2.1 10 06:59 25.02.2020
2162 Clear 23 1010 94 9656 2.1 10 06:26 25.02.2020
2163 Clear 23 1009 94 9656 2.68 335 05:23 25.02.2020
2164 Clear 24 1007 83 9656 2.97 78 02:44 25.02.2020
2165 Clear 26 1006 74 11265 2.1 80 01:19 25.02.2020
2166 Clear 26 1006 69 11265 3.1 90 00:34 25.02.2020
2167 Clear 27 1006 65 11265 2.6 110 23:57 24.02.2020
2168 Clear 27 1006 65 11265 2.6 110 23:38 24.02.2020
2169 Clear 27 1006 65 11265 2.6 110 23:18 24.02.2020
2170 Clear 27 1006 65 11265 4.1 80 22:37 24.02.2020
2171 Clear 27 1006 65 11265 4.1 80 22:19 24.02.2020
2172 Clear 28 1007 58 11265 5.7 80 21:55 24.02.2020
2173 Clear 28 1007 58 11265 5.7 80 21:37 24.02.2020
2174 Clear 28 1007 58 11265 5.7 80 21:18 24.02.2020
2175 Clear 29 1008 54 8047 4.6 180 20:55 24.02.2020
2176 Clear 29 1008 54 8047 4.6 180 20:37 24.02.2020
2177 Clear 29 1008 54 8047 4.6 180 20:18 24.02.2020
2178 Clear 30 1010 54 8047 6.7 180 19:55 24.02.2020
2179 Clear 29 1010 54 8047 6.7 180 19:37 24.02.2020
2180 Clear 29 1010 54 8047 6.7 180 19:19 24.02.2020
2181 Mist 28 1011 61 9656 3.6 170 18:41 24.02.2020
2182 Mist 27 1011 61 9656 3.6 170 18:23 24.02.2020
2183 Clear 27 1009 57 0 3.13 153 17:57 24.02.2020
2184 Clear 27 1010 58 0 3.13 194 17:38 24.02.2020
2185 Clear 26 1010 61 0 2.68 174 17:19 24.02.2020
2186 Haze 24 1012 88 6437 4.6 180 16:55 24.02.2020
2187 Haze 23 1012 88 6437 4.6 180 16:37 24.02.2020
2188 Haze 22 1012 88 6437 4.6 180 16:18 24.02.2020
2189 Mist 21 1012 100 6437 3.1 180 15:55 24.02.2020
2190 Mist 20 1012 100 6437 3.1 180 15:37 24.02.2020
2191 Mist 19 1012 100 6437 3.1 180 15:19 24.02.2020
2192 Mist 19 1012 93 3219 3.72 186 14:41 24.02.2020
2193 Mist 18 1012 100 1609 3.72 186 14:22 24.02.2020
2194 Mist 19 1012 93 6437 4.01 166 13:58 24.02.2020
2195 Mist 19 1012 93 6437 4.01 166 13:40 24.02.2020
2196 Mist 18 1012 93 6437 3.95 170 13:22 24.02.2020
2197 Mist 18 1012 93 6437 3.95 170 12:58 24.02.2020
2198 Clear 18 1010 83 0 3.95 170 12:39 24.02.2020
2199 Clear 19 1010 83 0 3.95 170 12:21 24.02.2020
2200 Clear 19 1010 82 0 0.45 185 11:47 24.02.2020
2201 Clear 19 1010 83 0 1.34 185 11:29 24.02.2020
2202 -273 0 0 0 0 0 10:51 24.02.2020
2203 Clear 21 1010 82 0 0.89 186 10:31 24.02.2020
2204 Clear 21 1011 82 0 0.89 172 09:55 24.02.2020
2205 Clear 21 1011 82 0 0.45 171 09:37 24.02.2020
2206 Clear 21 1012 82 0 0.45 171 09:18 24.02.2020
2207 Clear 21 1012 82 0 1.34 171 08:48 24.02.2020
2208 Clouds 21 1012 82 0 0.89 171 08:28 24.02.2020
2209 Clear 21 1013 82 0 3.25 145 07:48 24.02.2020
2210 Clear 20 1013 82 0 3.25 145 07:30 24.02.2020
2211 Clear 21 1016 94 8047 3.25 145 06:45 24.02.2020
2212 Clear 21 1016 94 8047 3.25 145 06:21 24.02.2020
2213 Clear 22 1016 94 8047 3.25 145 05:31 24.02.2020
2214 Clear 23 1015 88 8047 1 100 04:48 24.02.2020
2215 Clear 23 1014 83 9656 1.5 120 02:56 24.02.2020
2216 Clear 24 1013 78 11265 3.6 110 01:50 24.02.2020
2217 Clear 24 1013 78 11265 3.6 110 01:18 24.02.2020
2218 Clouds 25 1013 73 11265 3.1 120 00:36 24.02.2020
2219 Clouds 25 1013 73 11265 3.1 120 00:18 24.02.2020
2220 Clouds 26 1013 69 11265 2.1 120 23:41 23.02.2020
2221 Clouds 26 1013 69 11265 2.1 120 23:20 23.02.2020
2222 Clouds 26 1014 69 11265 2.6 90 22:57 23.02.2020
2223 Clouds 26 1014 69 11265 2.6 90 22:39 23.02.2020
2224 Clouds 27 1014 69 11265 2.6 90 22:19 23.02.2020
2225 Clouds 28 1015 58 11265 5.1 100 21:45 23.02.2020
2226 Clouds 28 1015 58 11265 5.1 100 21:20 23.02.2020
2227 Clouds 28 1017 58 11265 3.1 110 20:57 23.02.2020
2228 Clouds 28 1017 58 11265 3.1 110 20:57 23.02.2020
2229 Clouds 28 1017 58 11265 3.1 110 20:57 23.02.2020
2230 Clouds 28 1017 58 11265 3.1 110 20:39 23.02.2020
2231 Clouds 28 1017 58 11265 3.1 110 20:20 23.02.2020
2232 Clouds 28 1018 54 11265 2.1 120 19:57 23.02.2020
2233 Clouds 28 1018 54 11265 2.1 120 19:38 23.02.2020
2234 Clouds 28 1018 54 11265 2.1 120 19:19 23.02.2020
2235 Clouds 27 1020 61 11265 1 130 18:57 23.02.2020
2236 Clouds 27 1020 61 11265 1 130 18:37 23.02.2020
2237 Clouds 26 1020 61 11265 1 130 18:18 23.02.2020
2238 Clear 26 1021 69 11265 4.1 170 17:56 23.02.2020
2239 Clear 25 1021 69 11265 4.1 170 17:37 23.02.2020
2240 Clear 24 1021 69 11265 4.1 170 17:19 23.02.2020
2241 Clouds 23 1021 73 11265 2.1 210 16:46 23.02.2020
2242 Clouds 23 1021 73 11265 2.1 210 16:27 23.02.2020
2243 Clouds 21 1021 88 11265 1.91 250 15:58 23.02.2020
2244 Clouds 21 1021 88 11265 1.91 250 15:38 23.02.2020
2245 Clouds 19 1021 88 11265 1.91 250 15:20 23.02.2020
2246 Clouds 19 1020 88 9656 1.91 250 14:57 23.02.2020
2247 Clouds 18 1020 88 9656 1.91 250 14:38 23.02.2020
2248 Clouds 18 1020 88 9656 2.07 262 14:20 23.02.2020
2249 Clouds 18 1020 88 11265 2.07 262 13:57 23.02.2020
2250 Clouds 17 1020 88 11265 2.07 262 13:38 23.02.2020
2251 Clouds 17 1020 88 11265 2.07 262 13:20 23.02.2020
2252 Clouds 17 1020 88 11265 2.03 259 12:42 23.02.2020
2253 Clouds 18 1018 76 0 2.03 259 12:21 23.02.2020
2254 Clouds 18 1018 75 0 2.03 259 11:54 23.02.2020
2255 Clouds 18 1018 74 0 0.45 292 11:36 23.02.2020
2256 Clouds 18 1018 74 0 0.45 292 11:36 23.02.2020
2257 Clouds 19 1018 73 0 0.89 292 11:18 23.02.2020
2258 Clouds 19 1019 73 0 0.89 292 10:41 23.02.2020
2259 Clouds 19 1019 73 0 0.89 292 10:23 23.02.2020
2260 Clouds 19 1019 73 0 0.89 292 09:56 23.02.2020
2261 Clouds 19 1019 73 0 0.89 292 09:56 23.02.2020
2262 Clouds 19 1019 73 0 0.89 292 09:38 23.02.2020
2263 Clouds 19 1020 73 0 0.45 292 09:20 23.02.2020
2264 Clouds 19 1020 74 0 0.89 292 08:50 23.02.2020
2265 Rain 19 1020 73 0 0.45 292 08:29 23.02.2020
2266 Clouds 19 1021 73 0 0.45 292 07:48 23.02.2020
2267 Clouds 19 1021 72 0 0.89 292 07:30 23.02.2020
2268 Clouds 19 1024 82 11265 2.91 329 06:39 23.02.2020
2269 Clouds 20 1024 82 11265 1.5 350 05:43 23.02.2020
2270 Clouds 19 1024 88 11265 1.5 350 04:26 23.02.2020
2271 Clouds 20 1023 77 11265 3.6 10 02:58 23.02.2020
2272 Clouds 20 1023 77 11265 3.6 10 02:25 23.02.2020
2273 Clouds 21 1023 73 11265 5.7 20 01:23 23.02.2020
2274 Clouds 22 1023 73 11265 5.7 20 00:45 23.02.2020
2275 Clouds 22 1023 73 11265 5.7 20 00:24 23.02.2020
2276 Clouds 23 1023 69 11265 6.2 40 23:44 22.02.2020
2277 Clouds 23 1023 69 11265 6.2 40 23:25 22.02.2020
2278 Clouds 24 1023 64 11265 7.2 30 22:46 22.02.2020
2279 Clouds 24 1023 64 11265 7.2 30 22:22 22.02.2020
2280 Clouds 23 1024 64 11265 7.2 40 21:59 22.02.2020
2281 Clouds 23 1024 64 11265 7.2 40 21:59 22.02.2020
2282 Clouds 23 1024 64 11265 7.2 40 21:40 22.02.2020
2283 Clouds 23 1024 64 11265 7.2 40 21:21 22.02.2020
2284 Clouds 24 1025 64 11265 5.1 20 20:41 22.02.2020
2285 Clouds 24 1025 64 11265 5.1 20 20:23 22.02.2020
2286 Clouds 23 1026 64 11265 8.2 10 19:43 22.02.2020
2287 Clouds 23 1026 64 11265 8.2 10 19:25 22.02.2020
2288 Clouds 24 1027 60 9656 6.7 20 18:59 22.02.2020
2289 Clouds 24 1027 60 9656 6.7 20 18:39 22.02.2020
2290 Clouds 24 1027 60 9656 6.7 20 18:20 22.02.2020
2291 Clouds 24 1027 64 9656 6.7 360 17:55 22.02.2020
2292 Clouds 23 1027 64 9656 6.7 360 17:37 22.02.2020
2293 Clouds 23 1027 64 9656 6.7 360 17:37 22.02.2020
2294 Clouds 23 1027 64 9656 6.7 360 17:37 22.02.2020
2295 Clouds 23 1027 64 9656 6.7 360 17:19 22.02.2020
2296 Clouds 23 1027 68 9656 6.7 360 16:54 22.02.2020
2297 Clouds 22 1027 68 9656 6.7 360 16:36 22.02.2020
2298 Clouds 22 1027 68 9656 6.7 360 16:18 22.02.2020
2299 Clouds 21 1026 82 9656 6.48 350 15:42 22.02.2020
2300 Clouds 20 1026 82 9656 6.48 350 15:22 22.02.2020
2301 Clouds 19 1026 82 9656 6.48 350 14:43 22.02.2020
2302 Clouds 19 1026 82 9656 6.48 350 14:22 22.02.2020
2303 Clouds 19 1025 77 9656 5.85 346 13:55 22.02.2020
2304 Clouds 19 1025 77 9656 5.85 346 13:55 22.02.2020
2305 Clouds 19 1025 77 9656 5.85 346 13:36 22.02.2020
2306 Clouds 19 1025 77 9656 5.85 346 13:18 22.02.2020
2307 Clouds 20 1023 66 0 0.45 341 12:41 22.02.2020
2308 Clouds 20 1023 66 0 0.45 341 12:22 22.02.2020
2309 Clouds 21 1023 67 0 1.79 342 11:44 22.02.2020
2310 Clouds 21 1023 67 0 1.79 342 11:26 22.02.2020
2311 Clouds 21 1024 64 0 2.68 343 10:56 22.02.2020
2312 Clouds 21 1024 63 0 3.13 351 10:38 22.02.2020
2313 Clouds 21 1024 62 0 1.79 306 10:19 22.02.2020
2314 Clouds 21 1024 62 0 1.79 306 09:56 22.02.2020
2315 Clouds 21 1025 61 0 1.34 258 09:37 22.02.2020
2316 Clouds 21 1025 61 0 1.34 258 09:37 22.02.2020
2317 Clouds 21 1025 58 0 1.34 322 09:19 22.02.2020
2318 Clouds 22 1025 56 0 6.26 11 08:44 22.02.2020
2319 Clouds 22 1025 56 0 6.26 11 08:26 22.02.2020
2320 Clouds 22 1025 56 0 6.26 11 08:26 22.02.2020
2321 Clouds 22 1026 58 0 4.92 19 07:43 22.02.2020
2322 Clouds 21 1026 59 0 5.81 5 07:19 22.02.2020
2323 Clouds 21 1028 64 9656 6.2 340 06:46 22.02.2020
2324 Clouds 21 1028 72 9656 7.7 360 05:54 22.02.2020
2325 Clouds 20 1027 68 9656 6.2 360 04:29 22.02.2020
2326 Clouds 19 1025 77 9656 6.7 360 02:44 22.02.2020
2327 Clouds 20 1025 72 9656 8.2 360 01:57 22.02.2020
2328 Clouds 20 1025 72 9656 8.2 360 01:39 22.02.2020
2329 Clouds 20 1025 72 9656 8.2 360 01:21 22.02.2020
2330 Clouds 20 1024 72 9656 8.7 10 00:39 22.02.2020
2331 Clouds 20 1024 72 9656 8.7 10 00:19 22.02.2020
2332 Clouds 20 1023 72 9656 8.7 10 23:41 21.02.2020
2333 Clouds 20 1023 72 9656 8.7 10 23:20 21.02.2020
2334 Clouds 21 1024 72 9656 8.7 350 22:42 21.02.2020
2335 Clouds 21 1024 72 9656 8.7 350 22:24 21.02.2020
2336 Clouds 21 1025 68 11265 7.7 20 21:56 21.02.2020
2337 Clouds 21 1025 68 11265 7.7 20 21:37 21.02.2020
2338 Clouds 21 1025 68 11265 7.7 20 21:19 21.02.2020
2339 Clouds 21 1026 68 11265 9.3 10 20:46 21.02.2020
2340 Clouds 21 1026 68 11265 9.3 10 20:27 21.02.2020
2341 Clouds 21 1026 68 11265 9.3 10 20:27 21.02.2020
2342 Clouds 22 1026 64 11265 9.3 360 19:40 21.02.2020
2343 Clouds 22 1026 64 11265 9.3 360 19:22 21.02.2020
2344 Clouds 22 1027 64 11265 9.3 20 18:44 21.02.2020
2345 Clouds 22 1027 64 11265 9.3 20 18:24 21.02.2020
2346 Clear 22 1026 64 9656 7.7 360 17:58 21.02.2020
2347 Clear 22 1026 64 9656 7.7 360 17:38 21.02.2020
2348 Clear 22 1026 64 9656 7.7 360 17:38 21.02.2020
2349 Clear 22 1026 64 9656 7.7 360 17:20 21.02.2020
2350 Clouds 21 1026 64 11265 11.8 330 16:55 21.02.2020
2351 Clouds 21 1026 64 11265 11.8 330 16:37 21.02.2020
2352 Clouds 21 1026 64 11265 11.8 330 16:19 21.02.2020
2353 Clouds 21 1025 72 11265 13.9 350 15:40 21.02.2020
2354 Clouds 21 1025 72 11265 13.9 350 15:19 21.02.2020
2355 Clouds 21 1024 64 11265 9.3 360 14:44 21.02.2020
2356 Clouds 21 1024 64 11265 9.3 360 14:22 21.02.2020
2357 Clear 22 1022 64 9656 11.3 360 13:59 21.02.2020
2358 Clear 22 1022 64 9656 11.3 360 13:41 21.02.2020
2359 Clear 22 1022 64 9656 11.3 360 13:21 21.02.2020
2360 Clouds 22 1021 61 0 9.83 5 12:46 21.02.2020
2361 Clouds 22 1021 62 0 10.28 360 12:27 21.02.2020
2362 Clouds 22 1021 64 0 8.49 360 11:58 21.02.2020
2363 Clouds 22 1021 66 0 9.39 5 11:38 21.02.2020
2364 Rain 22 1021 66 0 9.39 5 11:20 21.02.2020
2365 Rain 22 1021 72 0 9.83 355 10:42 21.02.2020
2366 Rain 22 1021 72 0 9.83 355 10:22 21.02.2020
2367 Rain 22 1021 73 0 10.73 11 09:58 21.02.2020
2368 Rain 22 1021 76 0 9.83 360 09:39 21.02.2020
2369 Rain 21 1021 79 0 11.62 355 09:20 21.02.2020
2370 Rain 21 1021 79 0 8.94 5 08:55 21.02.2020
2371 Rain 22 1021 79 0 9.83 355 08:36 21.02.2020
2372 Rain 22 1021 79 0 9.83 355 08:18 21.02.2020
2373 Clear 23 1021 78 0 9.83 5 07:41 21.02.2020
2374 Clear 24 1021 78 0 7.6 343 07:20 21.02.2020
2375 Clouds 24 1022 88 9656 8.7 10 06:55 21.02.2020
2376 Clouds 25 1022 88 9656 8.7 10 06:32 21.02.2020
2377 Clouds 25 1022 88 9656 7.2 360 05:55 21.02.2020
2378 Clouds 25 1021 88 9656 7.7 360 04:50 21.02.2020
2379 Clouds 25 1021 88 9656 7.7 360 04:25 21.02.2020
2380 Clouds 25 1019 88 9656 8.7 20 03:46 21.02.2020
2381 Clouds 25 1018 88 9656 7.2 360 02:58 21.02.2020
2382 Clouds 26 1017 83 9656 6.2 10 01:29 21.02.2020
2383 Clouds 27 1016 74 9656 6.2 10 00:46 21.02.2020
2384 Clouds 27 1016 74 9656 6.2 10 00:24 21.02.2020
2385 Clouds 28 1016 69 9656 8.7 30 23:57 20.02.2020
2386 Clouds 28 1016 69 9656 8.7 30 23:39 20.02.2020
2387 Clouds 28 1016 69 9656 8.7 30 23:20 20.02.2020
2388 Clouds 29 1016 66 9656 7.2 20 22:39 20.02.2020
2389 Clouds 29 1016 66 9656 7.2 20 22:21 20.02.2020
2390 Clouds 29 1017 66 9656 6.2 50 21:57 20.02.2020
2391 Clouds 29 1017 66 9656 6.2 50 21:57 20.02.2020
2392 Clouds 29 1017 66 9656 6.2 50 21:37 20.02.2020
2393 Clouds 29 1017 66 9656 6.2 50 21:37 20.02.2020
2394 Clouds 29 1017 66 9656 6.2 50 21:19 20.02.2020
2395 Clouds 28 1017 69 8047 4.6 40 20:56 20.02.2020
2396 Clouds 28 1017 69 8047 4.6 40 20:38 20.02.2020
2397 Clouds 28 1017 69 8047 4.6 40 20:19 20.02.2020
2398 Clouds 28 1018 69 8047 4.1 50 19:58 20.02.2020
2399 Clouds 28 1018 69 8047 4.1 50 19:40 20.02.2020
2400 Clouds 28 1018 69 8047 4.1 50 19:22 20.02.2020
2401 Rain 28 1019 69 8047 2.6 30 18:40 20.02.2020
2402 Rain 28 1019 69 8047 2.6 30 18:20 20.02.2020
2403 Rain 27 1019 78 8047 2.1 360 17:56 20.02.2020
2404 Clouds 27 1019 78 8047 2.1 360 17:38 20.02.2020
2405 Mist 25 1018 94 4828 2.97 311 17:18 20.02.2020
2406 Mist 25 1018 94 4828 2.97 311 16:55 20.02.2020
2407 Mist 24 1018 94 4828 2.97 311 16:37 20.02.2020
2408 Mist 24 1018 94 4828 2.97 311 16:18 20.02.2020
2409 Mist 22 1018 100 4828 2.97 311 15:42 20.02.2020
2410 Mist 22 1018 100 3219 2.97 311 15:21 20.02.2020
2411 Mist 21 1017 94 1609 2.97 311 14:57 20.02.2020
2412 Mist 21 1017 94 1609 2.97 311 14:39 20.02.2020
2413 Mist 20 1017 94 1609 2.32 305 14:20 20.02.2020
2414 Clear 20 1016 100 8047 2.32 305 13:46 20.02.2020
2415 Clear 20 1016 100 8047 2.73 300 13:20 20.02.2020
2416 Rain 20 1014 83 0 2.73 300 12:59 20.02.2020
2417 Rain 20 1014 83 0 2.73 300 12:40 20.02.2020
2418 Rain 21 1014 83 0 2.73 300 12:19 20.02.2020
2419 Rain 20 1014 83 0 2.73 300 11:56 20.02.2020
2420 Rain 21 1014 83 0 2.73 300 11:37 20.02.2020
2421 Clear 20 1014 83 0 2.47 314 11:19 20.02.2020
2422 Clear 21 1014 83 0 2.47 314 10:42 20.02.2020
2423 Clear 21 1014 83 0 0.45 284 10:22 20.02.2020
2424 Clear 21 1015 83 0 0.45 284 09:55 20.02.2020
2425 Clear 21 1015 83 0 0.45 284 09:55 20.02.2020
2426 Clear 22 1015 83 0 2.47 314 09:37 20.02.2020
2427 Clear 22 1015 82 0 2.47 314 09:19 20.02.2020
2428 Clear 22 1015 82 0 0.45 284 08:40 20.02.2020
2429 Rain 22 1015 82 0 0.45 284 08:22 20.02.2020
2430 Clear 23 1016 82 0 0.45 284 07:47 20.02.2020
2431 Clear 23 1016 82 0 0.89 284 07:26 20.02.2020
2432 Clouds 23 1019 100 9656 2.4 310 06:56 20.02.2020
2433 Clouds 23 1019 100 9656 2.4 310 06:30 20.02.2020
2434 Clouds 24 1018 94 9656 2.4 310 05:47 20.02.2020
2435 Clouds 24 1018 94 9656 2.05 47 05:19 20.02.2020
2436 Clouds 24 1018 94 9656 2.05 47 04:29 20.02.2020
2437 Clouds 25 1017 88 9656 2.1 360 03:40 20.02.2020
2438 Clouds 25 1016 88 9656 2.6 360 02:45 20.02.2020
2439 Clouds 26 1016 83 9656 24.2 50 01:21 20.02.2020
2440 Clouds 27 1015 78 9656 5.1 40 00:35 20.02.2020
2441 Clouds 27 1015 74 9656 5.1 50 23:55 19.02.2020
2442 Clouds 27 1015 74 9656 5.1 50 23:24 19.02.2020
2443 Clouds 28 1016 69 9656 5.7 50 22:56 19.02.2020
2444 Clouds 28 1016 69 9656 5.7 50 22:38 19.02.2020
2445 Clouds 28 1016 69 9656 5.7 50 22:20 19.02.2020
2446 Clouds 28 1017 69 9656 8.2 40 21:56 19.02.2020
2447 Clouds 28 1017 69 9656 8.2 40 21:38 19.02.2020
2448 Clouds 28 1017 69 9656 8.2 40 21:18 19.02.2020
2449 Clouds 29 1018 62 9656 6.7 20 20:55 19.02.2020
2450 Clouds 29 1018 62 9656 6.7 20 20:36 19.02.2020
2451 Clouds 29 1018 62 9656 6.7 20 20:18 19.02.2020
2452 Clouds 28 1019 69 9656 6.7 30 19:55 19.02.2020
2453 Clouds 28 1019 69 9656 6.7 30 19:36 19.02.2020
2454 Clouds 29 1019 69 9656 6.7 30 19:18 19.02.2020
2455 Clouds 28 1019 69 8047 4.1 20 18:56 19.02.2020
2456 Clouds 28 1019 69 8047 4.1 20 18:37 19.02.2020
2457 Clouds 28 1019 69 8047 4.1 20 18:37 19.02.2020
2458 Clouds 28 1019 69 8047 4.1 20 18:19 19.02.2020
2459 Clouds 28 1019 69 8047 5.1 10 17:42 19.02.2020
2460 Clouds 28 1019 69 8047 5.1 10 17:19 19.02.2020
2461 Clouds 27 1018 74 8047 2.6 320 16:44 19.02.2020
2462 Clouds 27 1018 74 8047 2.6 320 16:19 19.02.2020
2463 Clouds 26 1017 88 8047 5.1 360 15:58 19.02.2020
2464 Clouds 25 1017 88 8047 5.1 360 15:39 19.02.2020
2465 Clouds 24 1017 88 8047 5.1 360 15:20 19.02.2020
2466 Clouds 23 1017 94 8047 3.6 10 14:42 19.02.2020
2467 Clouds 23 1017 94 8047 3.6 10 14:23 19.02.2020
2468 Clouds 23 1016 94 9656 2.6 360 13:59 19.02.2020
2469 Clouds 23 1016 94 9656 2.6 360 13:39 19.02.2020
2470 Clouds 23 1016 94 9656 2.6 360 13:19 19.02.2020
2471 Clouds 23 1014 79 0 3.13 19 12:40 19.02.2020
2472 Clouds 23 1013 77 0 1.34 355 12:19 19.02.2020
2473 Clouds 24 1013 76 0 1.79 360 11:55 19.02.2020
2474 Clouds 23 1013 76 0 2.68 314 11:37 19.02.2020
2475 Clear 23 1012 77 0 2.68 317 11:18 19.02.2020
2476 Clear 23 1012 78 0 1.79 297 10:56 19.02.2020
2477 Clear 23 1012 79 0 1.34 301 10:37 19.02.2020
2478 Clear 23 1012 79 0 1.79 302 10:18 19.02.2020
2479 Clear 22 1015 95 0 3.32 330 09:54 19.02.2020
2480 Clear 23 1012 81 0 0.89 307 09:36 19.02.2020
2481 Clear 23 1012 81 0 0.89 302 09:18 19.02.2020
2482 Clear 23 1012 81 0 0.89 300 08:42 19.02.2020
2483 Clear 23 1012 81 0 0.89 300 08:42 19.02.2020
2484 Clouds 23 1013 81 0 1.34 300 08:23 19.02.2020
2485 Clear 22 1013 80 0 0.45 329 07:41 19.02.2020
2486 Clear 23 1013 80 0 0.89 329 07:20 19.02.2020
2487 Clouds 23 1014 94 9656 2.1 340 06:47 19.02.2020
2488 Clear 23 1014 94 11265 2.44 308 05:40 19.02.2020
2489 Clouds 23 1013 94 11265 2.11 56 04:18 19.02.2020
2490 Clouds 24 1010 88 11265 1.5 70 02:51 19.02.2020
2491 Clouds 24 1010 88 11265 1.5 70 02:29 19.02.2020
2492 Clear 26 1010 78 11265 2.1 80 01:23 19.02.2020
2493 Clear 27 1009 74 11265 3.1 70 00:45 19.02.2020
2494 Clear 27 1009 74 11265 3.1 70 00:24 19.02.2020
2495 Clear 28 1009 69 11265 5.7 80 23:41 18.02.2020
2496 Clear 28 1009 69 11265 5.7 80 23:20 18.02.2020
2497 Clear 28 1009 69 11265 3.1 100 22:56 18.02.2020
2498 Clear 28 1009 69 11265 3.1 100 22:37 18.02.2020
2499 Clear 28 1009 69 11265 3.1 100 22:19 18.02.2020
2500 Clouds 29 1010 66 11265 6.2 60 21:55 18.02.2020
2501 Clouds 29 1010 66 11265 6.2 60 21:37 18.02.2020
2502 Clouds 29 1010 66 11265 6.2 60 21:18 18.02.2020
2503 Clouds 29 1012 66 11265 3.6 90 20:55 18.02.2020
2504 Clouds 29 1012 66 11265 3.6 90 20:37 18.02.2020
2505 Clouds 29 1012 66 11265 3.6 90 20:37 18.02.2020
2506 Clouds 29 1012 66 11265 3.6 90 20:37 18.02.2020
2507 Clouds 29 1012 66 11265 3.6 90 20:18 18.02.2020
2508 Clouds 29 1013 58 11265 3.1 80 19:42 18.02.2020
2509 Clouds 30 1013 58 11265 3.1 80 19:20 18.02.2020
2510 Clouds 30 1013 55 11265 1 70 18:58 18.02.2020
2511 Clouds 29 1013 55 11265 1 70 18:40 18.02.2020
2512 Clouds 30 1013 55 11265 1 70 18:19 18.02.2020
2513 Clear 28 1014 65 9656 2.98 73 17:42 18.02.2020
2514 Clear 28 1014 65 9656 1.51 176 17:20 18.02.2020
2515 Haze 27 1014 78 6437 1.5 90 16:41 18.02.2020
2516 Haze 27 1014 78 6437 1.5 90 16:22 18.02.2020
2517 Haze 25 1013 94 6437 1.51 176 15:58 18.02.2020
2518 Haze 25 1013 94 6437 1.51 176 15:39 18.02.2020
2519 Haze 24 1013 94 6437 1.51 176 15:19 18.02.2020
2520 Clear 23 1012 94 8047 1.51 176 14:56 18.02.2020
2521 Clear 23 1012 94 8047 1.51 176 14:56 18.02.2020
2522 Clear 22 1012 94 8047 1.51 176 14:37 18.02.2020
2523 Clear 22 1012 94 8047 2.25 109 14:19 18.02.2020
2524 Clear 22 1012 88 11265 2.25 109 13:41 18.02.2020
2525 Clear 22 1012 88 11265 1.97 106 13:21 18.02.2020
2526 Clear 21 1010 81 0 0.45 282 12:54 18.02.2020
2527 Clear 21 1010 81 0 0.45 282 12:54 18.02.2020
2528 Clear 21 1010 81 0 0.45 282 12:36 18.02.2020
2529 Clear 21 1010 81 0 0.45 282 12:36 18.02.2020
2530 Clear 21 1010 81 0 1.97 106 12:18 18.02.2020
2531 Clear 22 1010 81 0 0.45 282 11:42 18.02.2020
2532 Clear 22 1010 82 0 0.45 282 11:24 18.02.2020
2533 Clear 22 1010 82 0 0.45 282 10:55 18.02.2020
2534 Clear 22 1010 82 0 3.03 249 10:36 18.02.2020
2535 Clear 22 1010 82 0 3.03 249 10:18 18.02.2020
2536 Clear 22 1010 82 0 3.03 249 09:55 18.02.2020
2537 Clear 22 1010 82 0 3.03 249 09:36 18.02.2020
2538 Clear 22 1010 82 0 3.03 249 09:18 18.02.2020
2539 Clear 22 1010 82 0 3.03 249 08:41 18.02.2020
2540 Clear 22 1010 82 0 1.85 165 08:20 18.02.2020
2541 Clear 22 1010 82 0 1.85 165 07:56 18.02.2020
2542 Clear 22 1011 81 0 1.85 165 07:30 18.02.2020
2543 Clouds 23 1013 94 9656 1.85 165 06:56 18.02.2020
2544 Clouds 23 1013 94 9656 1.85 165 06:36 18.02.2020
2545 Clear 24 1012 94 9656 1.85 165 05:59 18.02.2020
2546 Clear 24 1012 94 9656 1.85 165 05:33 18.02.2020
2547 Clear 24 1010 94 9656 2.6 90 03:59 18.02.2020
2548 Clear 25 1010 83 11265 3.1 90 02:59 18.02.2020
2549 Clear 25 1010 78 11265 3.1 100 01:58 18.02.2020
2550 Clear 27 1009 65 11265 2.1 110 00:46 18.02.2020
2551 Clear 27 1009 65 11265 2.1 110 00:46 18.02.2020
2552 Clear 28 1009 65 11265 2.1 110 00:20 18.02.2020
2553 Clouds 29 1009 51 11265 4.1 90 23:44 17.02.2020
2554 Clouds 29 1009 51 11265 4.1 90 23:25 17.02.2020
2555 Clouds 30 1010 58 11265 3.1 100 22:59 17.02.2020
2556 Clouds 30 1010 58 11265 3.1 100 22:41 17.02.2020
2557 Clouds 30 1010 58 11265 3.1 100 22:20 17.02.2020
2558 Clouds 30 1011 58 11265 5.1 70 21:41 17.02.2020
2559 Clouds 29 1011 58 11265 5.1 70 21:20 17.02.2020
2560 Clear 30 1012 58 9656 3.1 130 20:59 17.02.2020
2561 Clear 30 1012 58 9656 3.1 130 20:39 17.02.2020
2562 Rain 30 1012 58 9656 3.1 130 20:20 17.02.2020
2563 Rain 29 1013 54 9656 2.1 150 19:56 17.02.2020
2564 Rain 29 1013 54 9656 2.1 150 19:37 17.02.2020
2565 Clear 29 1013 54 9656 2.1 150 19:19 17.02.2020
2566 Clouds 27 1014 74 9656 2.34 107 18:37 17.02.2020
2567 Clouds 27 1014 74 9656 2.34 107 18:19 17.02.2020
2568 Clouds 27 1015 74 9656 1 130 17:55 17.02.2020
2569 Clouds 26 1015 74 9656 1 130 17:36 17.02.2020
2570 Clouds 26 1015 74 9656 1 130 17:36 17.02.2020
2571 Clouds 26 1015 74 9656 1 130 17:18 17.02.2020
2572 Clear 24 1014 88 8047 0.25 320 16:43 17.02.2020
2573 Clear 24 1014 88 8047 0.25 320 16:23 17.02.2020
2574 Mist 21 1014 100 4828 0.25 320 15:59 17.02.2020
2575 Mist 20 1014 100 4828 0.25 320 15:41 17.02.2020
2576 Mist 18 1014 100 4828 0.25 320 15:22 17.02.2020
2577 Mist 18 1014 100 2414 0.25 320 14:46 17.02.2020
2578 Mist 17 1014 100 2414 0.25 320 14:27 17.02.2020
2579 Fog 18 1013 100 805 1.03 282 13:59 17.02.2020
2580 Fog 18 1013 100 805 1.03 282 13:40 17.02.2020
2581 Fog 18 1013 100 805 0.26 286 13:19 17.02.2020
2582 Fog 18 1013 100 805 0.26 286 12:54 17.02.2020
2583 Fog 18 1013 100 805 0.26 286 12:54 17.02.2020
2584 Clear 19 1011 83 0 0.45 13 12:36 17.02.2020
2585 Clear 19 1011 83 0 0.45 13 12:36 17.02.2020
2586 Clear 20 1011 83 0 0.45 13 12:18 17.02.2020
2587 Clear 19 1011 83 0 0.89 13 11:43 17.02.2020
2588 Clear 19 1011 83 0 0.26 286 11:22 17.02.2020
2589 Clear 20 1011 83 0 1.51 333 10:56 17.02.2020
2590 Clear 20 1011 83 0 1.51 333 10:38 17.02.2020
2591 Clear 20 1011 82 0 1.51 333 10:19 17.02.2020
2592 Clear 20 1011 82 0 1.51 333 09:55 17.02.2020
2593 Clear 20 1012 82 0 1.51 333 09:36 17.02.2020
2594 Clear 21 1012 82 0 1.51 333 09:18 17.02.2020
2595 Clear 21 1012 81 0 1.51 333 08:41 17.02.2020
2596 Clouds 21 1012 81 0 1.51 322 08:22 17.02.2020
2597 Clear 21 1013 81 0 1.94 295 07:55 17.02.2020
2598 Clear 23 1013 81 0 1.94 295 07:26 17.02.2020
2599 Clouds 23 1015 94 9656 1.94 295 06:56 17.02.2020
2600 Clouds 23 1015 94 9656 1.94 295 06:36 17.02.2020
2601 Clouds 24 1015 88 9656 1.94 295 05:59 17.02.2020
2602 Clouds 24 1015 88 9656 1.94 295 05:59 17.02.2020
2603 Clouds 24 1015 88 9656 1.94 295 05:38 17.02.2020
2604 Clouds 24 1014 88 9656 1 50 03:53 17.02.2020
2605 Clouds 24 1013 88 9656 1 70 02:19 17.02.2020
2606 Clouds 25 1013 78 11265 4.6 70 00:55 17.02.2020
2607 Clouds 26 1013 78 11265 4.6 70 00:23 17.02.2020
2608 Clouds 26 1013 78 11265 4.1 70 23:54 16.02.2020
2609 Clouds 26 1013 78 11265 4.1 70 23:54 16.02.2020
2610 Clouds 26 1013 78 11265 4.1 70 23:33 16.02.2020
2611 Clouds 27 1013 65 11265 3.6 90 22:58 16.02.2020
2612 Clouds 27 1013 65 11265 3.6 90 22:58 16.02.2020
2613 Clouds 28 1013 65 11265 3.6 90 22:39 16.02.2020
2614 Clouds 28 1013 65 11265 3.6 90 22:21 16.02.2020
2615 Clouds 28 1013 65 11265 3.6 90 22:21 16.02.2020
2616 Clouds 28 1014 61 11265 1.5 70 21:58 16.02.2020
2617 Clouds 28 1014 61 11265 1.5 70 21:40 16.02.2020
2618 Clouds 28 1014 61 11265 1.5 70 21:22 16.02.2020
2619 Clouds 29 1015 58 11265 1.5 150 20:58 16.02.2020
2620 Clouds 29 1015 58 11265 1.5 150 20:40 16.02.2020
2621 Clouds 29 1015 58 11265 1.5 150 20:21 16.02.2020
2622 Clouds 29 1015 58 11265 1.5 150 20:21 16.02.2020
2623 Clouds 28 1016 61 11265 3.6 190 19:58 16.02.2020
2624 Clouds 28 1016 61 11265 3.6 190 19:38 16.02.2020
2625 Clouds 28 1016 61 11265 3.6 190 19:19 16.02.2020
2626 Clouds 27 1018 69 9656 1.79 61 18:45 16.02.2020
2627 Clouds 27 1018 69 9656 1.79 61 18:26 16.02.2020
2628 Clouds 25 1018 83 8047 1.79 61 17:57 16.02.2020
2629 Clouds 24 1018 83 8047 1.79 61 17:39 16.02.2020
2630 Clouds 23 1018 83 8047 1.85 246 17:19 16.02.2020
2631 Clouds 22 1017 94 9656 1.85 246 16:55 16.02.2020
2632 Clouds 21 1017 94 9656 1.85 246 16:36 16.02.2020
2633 Clouds 21 1017 94 9656 1.85 246 16:18 16.02.2020
2634 Clear 19 1017 93 8047 1.85 246 15:41 16.02.2020
2635 Clear 19 1017 93 8047 1.85 246 15:41 16.02.2020
2636 Clear 18 1017 93 8047 1.85 246 15:22 16.02.2020
2637 Clear 17 1016 100 9656 1.85 246 14:44 16.02.2020
2638 Clear 16 1016 100 9656 1.85 246 14:24 16.02.2020
2639 Clear 17 1016 100 9656 1.06 124 13:59 16.02.2020
2640 Clear 17 1016 100 9656 1.06 124 13:41 16.02.2020
2641 Clear 17 1016 100 9656 0.92 53 13:22 16.02.2020
2642 Clouds 17 1014 82 0 0.92 53 12:39 16.02.2020
2643 Clouds 17 1014 82 0 0.92 53 12:19 16.02.2020
2644 Clouds 18 1014 82 0 0.92 53 11:41 16.02.2020
2645 Clouds 18 1014 82 0 1.68 316 11:20 16.02.2020
2646 Clouds 18 1014 82 0 1.68 316 10:58 16.02.2020
2647 Clouds 18 1015 82 0 0.45 161 10:40 16.02.2020
2648 Clouds 18 1015 82 0 0.45 161 10:22 16.02.2020
2649 Clouds 18 1015 82 0 0.45 161 09:59 16.02.2020
2650 Clouds 18 1015 82 0 1.68 316 09:38 16.02.2020
2651 Clouds 18 1015 82 0 1.68 316 09:38 16.02.2020
2652 Clouds 18 1015 82 0 1.68 316 09:38 16.02.2020
2653 Clouds 18 1015 82 0 0.45 161 09:20 16.02.2020
2654 Clouds 18 1015 82 0 0.89 161 08:56 16.02.2020
2655 Clouds 18 1015 81 0 0.45 161 08:38 16.02.2020
2656 Clouds 18 1016 81 0 0.45 161 08:18 16.02.2020
2657 Clouds 19 1016 80 0 0.89 110 07:41 16.02.2020
2658 Clear 20 1019 94 11265 2.12 317 06:58 16.02.2020
2659 Clear 20 1019 94 11265 2.12 317 06:29 16.02.2020
2660 Clear 22 1019 83 11265 1.5 360 04:37 16.02.2020
2661 Clouds 22 1018 83 11265 3.1 10 03:22 16.02.2020
2662 Clouds 24 1018 69 11265 4.6 30 01:58 16.02.2020
2663 Clouds 24 1018 69 11265 4.6 30 01:38 16.02.2020
2664 Clouds 24 1018 69 11265 4.6 30 01:19 16.02.2020
2665 Clouds 24 1018 69 11265 6.2 10 00:42 16.02.2020
2666 Clouds 24 1018 69 11265 6.2 10 00:22 16.02.2020
2667 Clouds 25 1017 65 11265 5.1 20 23:43 15.02.2020
2668 Clouds 25 1017 65 11265 5.1 20 23:25 15.02.2020
2669 Clouds 25 1018 61 11265 5.1 30 22:57 15.02.2020
2670 Clouds 25 1018 61 11265 5.1 30 22:57 15.02.2020
2671 Clouds 25 1018 61 11265 5.1 30 22:39 15.02.2020
2672 Clouds 26 1018 61 11265 5.1 30 22:19 15.02.2020
2673 Clouds 27 1019 57 11265 6.2 30 21:56 15.02.2020
2674 Clouds 27 1019 57 11265 6.2 30 21:37 15.02.2020
2675 Clouds 27 1019 57 11265 6.2 30 21:19 15.02.2020
2676 Clouds 27 1020 57 11265 4.6 40 20:38 15.02.2020
2677 Clouds 26 1020 57 11265 4.6 40 20:20 15.02.2020
2678 Clouds 26 1021 61 11265 6.2 10 19:43 15.02.2020
2679 Clouds 26 1021 61 11265 6.2 10 19:22 15.02.2020
2680 Clouds 25 1022 64 9656 2.1 360 18:43 15.02.2020
2681 Clouds 24 1022 64 9656 2.1 360 18:22 15.02.2020
2682 Clouds 24 1022 69 9656 2.8 29 17:57 15.02.2020
2683 Clouds 24 1022 69 9656 2.8 29 17:57 15.02.2020
2684 Clouds 24 1022 69 9656 2.8 29 17:37 15.02.2020
2685 Clouds 23 1022 69 9656 2.95 305 17:19 15.02.2020
2686 Clouds 22 1022 77 8047 2.95 305 16:42 15.02.2020
2687 Clouds 22 1022 77 8047 2.95 305 16:24 15.02.2020
2688 Clouds 21 1021 88 9656 1 190 15:57 15.02.2020
2689 Clouds 20 1021 88 9656 1 190 15:39 15.02.2020
2690 Clouds 19 1021 88 9656 1 190 15:20 15.02.2020
2691 Clouds 19 1021 82 9656 2.95 305 14:43 15.02.2020
2692 Clouds 18 1021 82 9656 1.05 286 14:19 15.02.2020
2693 Clouds 18 1020 88 9656 1.05 286 13:43 15.02.2020
2694 Clouds 18 1020 88 9656 1.05 286 13:25 15.02.2020
2695 Clouds 18 1020 88 9656 2.05 301 12:59 15.02.2020
2696 Clouds 18 1020 88 9656 2.05 301 12:41 15.02.2020
2697 Clouds 18 1020 88 9656 2.05 301 12:41 15.02.2020
2698 Clouds 19 1019 76 0 2.05 301 12:22 15.02.2020
2699 Clouds 19 1019 73 0 0.45 9 11:48 15.02.2020
2700 Clouds 20 1019 71 0 2.05 301 11:29 15.02.2020
2701 Rain 21 1019 69 0 0.45 9 10:51 15.02.2020
2702 Rain 21 1019 69 0 0.89 9 10:30 15.02.2020
2703 Rain 21 1019 68 0 2.29 316 09:59 15.02.2020
2704 Rain 21 1019 68 0 2.29 316 09:41 15.02.2020
2705 Rain 21 1019 64 0 2.29 316 09:23 15.02.2020
2706 Rain 21 1020 64 0 0.45 273 08:43 15.02.2020
2707 Rain 21 1020 64 0 0.45 273 08:25 15.02.2020
2708 Rain 21 1020 63 0 0.45 293 07:56 15.02.2020
2709 Rain 22 1020 63 0 0.89 275 07:34 15.02.2020
2710 Clouds 22 1023 68 9656 5.1 360 06:54 15.02.2020
2711 Clouds 22 1023 68 9656 5.1 360 06:36 15.02.2020
2712 Clouds 22 1023 64 9656 5.1 360 05:41 15.02.2020
2713 Clouds 22 1023 60 9656 5.1 360 04:46 15.02.2020
2714 Clouds 22 1022 60 9656 5.1 360 03:39 15.02.2020
2715 Clouds 22 1021 64 9656 5.1 360 02:51 15.02.2020
2716 Clouds 22 1021 64 9656 5.1 360 02:22 15.02.2020
2717 Clouds 22 1021 60 9656 7.7 360 01:40 15.02.2020
2718 Clouds 22 1020 64 9656 7.7 360 00:42 15.02.2020
2719 Clouds 22 1020 64 9656 7.7 360 00:21 15.02.2020
2720 Clouds 23 1020 64 9656 8.7 360 23:42 14.02.2020
2721 Clouds 23 1020 64 9656 8.7 360 23:20 14.02.2020
2722 Clouds 23 1020 60 11265 11.3 350 22:44 14.02.2020
2723 Clouds 23 1020 60 11265 11.3 350 22:24 14.02.2020
2724 Clouds 24 1021 60 11265 10.3 10 21:54 14.02.2020
2725 Clouds 24 1021 60 11265 10.3 10 21:36 14.02.2020
2726 Clouds 24 1021 60 11265 10.3 10 21:18 14.02.2020
2727 Clouds 24 1021 60 11265 7.7 10 20:42 14.02.2020
2728 Clouds 24 1021 60 11265 7.7 10 20:19 14.02.2020
2729 Clouds 25 1022 53 11265 8.2 360 19:55 14.02.2020
2730 Clouds 25 1022 53 11265 8.2 360 19:37 14.02.2020
2731 Clouds 25 1022 53 11265 8.2 360 19:18 14.02.2020
2732 Clouds 25 1022 53 11265 7.7 350 18:55 14.02.2020
2733 Clouds 25 1022 53 11265 7.7 350 18:36 14.02.2020
2734 Clouds 25 1022 53 11265 7.7 350 18:18 14.02.2020
2735 Clouds 24 1023 64 11265 6.2 360 17:40 14.02.2020
2736 Clouds 24 1023 64 11265 6.2 360 17:19 14.02.2020
2737 Smoke 23 1022 69 9656 7.2 350 16:43 14.02.2020
2738 Smoke 23 1022 69 9656 7.2 350 16:25 14.02.2020
2739 Smoke 23 1022 68 9656 1 360 15:59 14.02.2020
2740 Smoke 23 1022 68 9656 1 360 15:41 14.02.2020
2741 Smoke 22 1022 68 9656 1 360 15:22 14.02.2020
2742 Mist 22 1021 73 9656 8.27 342 14:59 14.02.2020
2743 Mist 22 1021 73 9656 8.27 342 14:41 14.02.2020
2744 Mist 21 1021 73 9656 8.27 342 14:22 14.02.2020
2745 Clouds 22 1020 68 9656 8.66 337 13:58 14.02.2020
2746 Clouds 22 1020 68 9656 8.66 337 13:39 14.02.2020
2747 Clouds 22 1020 68 9656 8.74 338 13:20 14.02.2020
2748 Clouds 22 1019 61 0 0.89 304 12:57 14.02.2020
2749 Clouds 22 1018 61 0 2.24 297 12:38 14.02.2020
2750 Clouds 22 1018 59 0 3.13 310 12:20 14.02.2020
2751 Clouds 22 1018 61 0 4.02 325 11:57 14.02.2020
2752 Clouds 22 1018 61 0 4.02 325 11:57 14.02.2020
2753 Clouds 23 1017 61 0 5.36 333 11:39 14.02.2020
2754 Clouds 23 1017 61 0 6.71 5 11:19 14.02.2020
2755 Clouds 22 1017 62 0 6.26 9 10:43 14.02.2020
2756 Clouds 22 1017 62 0 8.05 5 10:23 14.02.2020
2757 Clouds 22 1018 61 0 8.94 10 09:56 14.02.2020
2758 Clouds 22 1018 62 0 7.15 342 09:36 14.02.2020
2759 Clouds 22 1018 62 0 7.15 342 09:36 14.02.2020
2760 Clouds 22 1018 62 0 8.05 5 09:18 14.02.2020
2761 Clouds 22 1017 62 0 8.49 360 08:40 14.02.2020
2762 Clouds 22 1018 62 0 7.15 346 08:22 14.02.2020
2763 Clouds 22 1018 62 0 7.15 346 08:22 14.02.2020
2764 Clouds 22 1018 62 0 9.39 17 07:50 14.02.2020
2765 Clouds 22 1018 62 0 7.6 5 07:31 14.02.2020
2766 Sand 22 1019 68 9656 10.3 360 06:48 14.02.2020
2767 Sand 22 1019 68 9656 10.3 360 06:22 14.02.2020
2768 Sand 22 1019 68 9656 10.3 360 05:41 14.02.2020
2769 Sand 22 1019 68 9656 10.3 360 05:41 14.02.2020
2770 Clouds 22 1017 68 9656 7.7 360 03:51 14.02.2020
2771 Clouds 23 1016 69 9656 8.2 350 02:58 14.02.2020
2772 Clouds 23 1016 69 9656 8.2 350 02:18 14.02.2020
2773 Sand 24 1014 61 9656 11.3 350 00:59 14.02.2020
2774 Sand 24 1014 61 9656 11.3 350 00:32 14.02.2020
2775 Clouds 25 1014 65 9656 9.8 20 23:59 13.02.2020
2776 Clouds 25 1014 65 9656 9.8 20 23:41 13.02.2020
2777 Clouds 25 1014 65 9656 9.8 20 23:19 13.02.2020
2778 Clouds 25 1014 61 9656 9.8 10 22:40 13.02.2020
2779 Clouds 26 1014 61 9656 9.8 10 22:19 13.02.2020
2780 Clouds 27 1014 58 11265 8.2 360 21:58 13.02.2020
2781 Clouds 27 1014 58 11265 8.2 360 21:40 13.02.2020
2782 Clouds 27 1014 58 11265 8.2 360 21:20 13.02.2020
2783 Clouds 27 1015 57 11265 8.7 20 20:43 13.02.2020
2784 Clouds 27 1015 57 11265 8.7 20 20:23 13.02.2020
2785 Clouds 27 1015 58 11265 9.3 360 19:58 13.02.2020
2786 Clouds 28 1015 58 11265 9.3 360 19:39 13.02.2020
2787 Clouds 28 1015 58 11265 9.3 360 19:21 13.02.2020
2788 Clouds 28 1016 58 11265 8.7 360 18:58 13.02.2020
2789 Clouds 28 1016 58 11265 8.7 360 18:58 13.02.2020
2790 Clouds 28 1016 58 11265 8.7 360 18:39 13.02.2020
2791 Clouds 28 1016 58 11265 8.7 360 18:21 13.02.2020
2792 Clouds 27 1015 61 11265 9.3 350 17:57 13.02.2020
2793 Clouds 27 1015 61 11265 9.3 350 17:37 13.02.2020
2794 Clouds 27 1015 61 11265 9.3 350 17:37 13.02.2020
2795 Clouds 27 1015 61 11265 9.3 350 17:19 13.02.2020
2796 Clouds 26 1015 69 9656 10.3 360 16:42 13.02.2020
2797 Clouds 26 1015 69 9656 10.3 360 16:21 13.02.2020
2798 Clouds 25 1014 78 9656 10.3 360 15:58 13.02.2020
2799 Clouds 25 1014 78 9656 10.3 360 15:39 13.02.2020
2800 Clouds 24 1014 78 9656 10.3 360 15:20 13.02.2020
2801 Clouds 24 1013 78 9656 7.7 10 14:59 13.02.2020
2802 Clouds 24 1013 78 9656 7.7 10 14:40 13.02.2020
2803 Clouds 24 1013 78 9656 7.7 10 14:40 13.02.2020
2804 Clouds 24 1013 78 9656 7.7 10 14:22 13.02.2020
2805 Clouds 24 1012 83 9656 7.7 360 13:54 13.02.2020
2806 Clouds 24 1012 83 9656 7.7 360 13:36 13.02.2020
2807 Clouds 24 1012 83 9656 7.7 360 13:18 13.02.2020
2808 Clouds 24 1012 83 9656 7.7 360 12:48 13.02.2020
2809 Clear 24 1010 77 0 8.49 5 12:30 13.02.2020
2810 Clear 24 1009 77 0 8.94 355 11:57 13.02.2020
2811 Clear 24 1009 77 0 8.49 5 11:39 13.02.2020
2812 Clear 24 1009 79 0 6.71 360 11:18 13.02.2020
2813 Clear 24 1009 80 0 6.26 5 10:43 13.02.2020
2814 Clear 24 1009 80 0 5.81 348 10:23 13.02.2020
2815 Clear 24 1009 80 0 4.92 355 09:46 13.02.2020
2816 Clear 24 1009 80 0 4.92 355 09:24 13.02.2020
2817 Clear 24 1009 80 0 4.92 355 09:24 13.02.2020
2818 Clear 24 1009 81 0 4.02 360 08:47 13.02.2020
2819 Clear 25 1009 82 0 4.47 355 08:20 13.02.2020
2820 Clear 24 1009 82 0 3.13 360 07:44 13.02.2020
2821 Clear 24 1009 82 0 3.13 360 07:44 13.02.2020
2822 Clear 24 1009 82 0 1.79 360 07:24 13.02.2020
2823 Clear 24 1010 94 8047 1.5 10 06:56 13.02.2020
2824 Clear 24 1010 94 8047 1.5 10 06:38 13.02.2020
2825 Clear 24 1009 94 8047 1.5 30 05:56 13.02.2020
2826 Clear 25 1009 88 8047 1 80 04:50 13.02.2020
2827 Clear 24 1009 88 8047 1 80 04:24 13.02.2020
2828 Clear 25 1008 88 8047 2.6 10 03:41 13.02.2020
2829 Clear 25 1007 78 6437 1 70 02:59 13.02.2020
2830 Clear 26 1007 78 6437 1 70 02:37 13.02.2020
2831 Clear 26 1007 78 6437 1 70 02:18 13.02.2020
2832 Clear 27 1006 74 8047 1.5 70 01:25 13.02.2020
2833 Clear 28 1006 69 9656 3.1 70 00:32 13.02.2020
2834 Clear 28 1006 66 8047 2.1 90 23:57 12.02.2020
2835 Clear 29 1006 66 8047 2.1 90 23:37 12.02.2020
2836 Clear 29 1006 66 8047 2.1 90 23:18 12.02.2020
2837 Clouds 29 1007 66 8047 1.5 110 22:41 12.02.2020
2838 Clouds 29 1007 66 8047 1.5 110 22:23 12.02.2020
2839 Clouds 29 1008 66 8047 4.6 70 21:55 12.02.2020
2840 Clouds 29 1008 66 8047 4.6 70 21:37 12.02.2020
2841 Clouds 29 1008 66 8047 4.6 70 21:18 12.02.2020
2842 Clouds 29 1009 70 6437 3.6 60 20:43 12.02.2020
2843 Clouds 29 1009 70 6437 3.6 60 20:25 12.02.2020
2844 Clouds 28 1009 74 8047 5.1 70 20:00 12.02.2020
2845 Clouds 28 1009 74 8047 5.1 70 19:41 12.02.2020
2846 Clouds 28 1009 74 8047 5.1 70 19:22 12.02.2020
2847 Clouds 28 1011 78 8047 4.6 30 18:54 12.02.2020
2848 Clouds 28 1011 78 8047 4.6 30 18:36 12.02.2020
2849 Clouds 28 1011 78 8047 4.6 30 18:18 12.02.2020
2850 Clouds 27 1011 78 8047 4.1 50 17:40 12.02.2020
2851 Rain 27 1011 78 8047 4.1 50 17:19 12.02.2020
2852 Rain 26 1011 78 8047 2.6 40 16:57 12.02.2020
2853 Clouds 26 1011 78 8047 2.6 40 16:37 12.02.2020
2854 Clouds 26 1011 78 8047 2.6 40 16:18 12.02.2020
2855 Mist 25 1010 94 4828 2.1 10 15:39 12.02.2020
2856 Mist 25 1010 94 4828 2.1 10 15:20 12.02.2020
2857 Mist 23 1010 100 4828 2.6 360 14:43 12.02.2020
2858 Mist 23 1009 94 1609 2.6 20 14:21 12.02.2020
2859 Clear 22 1008 94 8047 1.43 269 13:59 12.02.2020
2860 Clear 22 1008 94 8047 1.43 269 13:40 12.02.2020
2861 Clear 22 1008 94 8047 1.43 269 13:22 12.02.2020
2862 Clear 22 1008 94 8047 1.43 269 12:58 12.02.2020
2863 Clear 22 1007 82 0 1.43 269 12:39 12.02.2020
2864 Clear 22 1006 82 0 1.43 269 12:19 12.02.2020
2865 Clear 22 1006 82 0 1.43 269 12:19 12.02.2020
2866 Clear 22 1006 82 0 1.43 269 11:59 12.02.2020
2867 Clear 22 1006 82 0 0.45 302 11:40 12.02.2020
2868 Clear 22 1006 83 0 1.72 288 11:21 12.02.2020
2869 Clear 22 1006 83 0 1.72 288 10:58 12.02.2020
2870 Clear 22 1006 83 0 1.72 288 10:40 12.02.2020
2871 Clear 22 1006 82 0 1.72 288 10:20 12.02.2020
2872 Clear 23 1007 83 0 1.72 288 09:42 12.02.2020
2873 Clear 23 1007 83 0 1.72 288 09:42 12.02.2020
2874 Clear 23 1007 83 0 1.72 288 09:24 12.02.2020
2875 Clear 23 1007 83 0 0.45 302 08:59 12.02.2020
2876 Clear 23 1007 83 0 0.89 302 08:39 12.02.2020
2877 Clear 23 1008 83 0 0.14 212 08:20 12.02.2020
2878 Clear 23 1008 83 0 0.14 212 08:20 12.02.2020
2879 Clear 23 1008 82 0 0.14 212 07:59 12.02.2020
2880 Clear 23 1008 83 0 0.14 212 07:41 12.02.2020
2881 Clear 23 1008 82 0 0.14 212 07:19 12.02.2020
2882 Clear 23 1008 82 0 0.14 212 07:19 12.02.2020
2883 Mist 24 1011 94 6437 1 340 06:41 12.02.2020
2884 Mist 24 1011 94 6437 1 340 06:18 12.02.2020
2885 Mist 23 1011 100 6437 0.14 212 05:30 12.02.2020
2886 Clouds 24 1010 94 8047 1.83 32 04:42 12.02.2020
2887 Clouds 24 1009 88 8047 1.83 32 03:57 12.02.2020
2888 Clouds 24 1009 88 8047 1.83 32 03:28 12.02.2020
2889 Clear 25 1009 88 6437 1.5 100 02:43 12.02.2020
2890 Clear 25 1009 88 6437 1.5 100 02:24 12.02.2020
2891 Clear 26 1008 83 8047 3.1 70 01:29 12.02.2020
2892 Clear 27 1008 74 8047 4.6 60 00:40 12.02.2020
2893 Clear 28 1008 74 8047 4.6 60 00:21 12.02.2020
2894 Clear 28 1008 70 8047 6.2 70 23:47 11.02.2020
2895 Clear 29 1008 70 8047 6.2 70 23:29 11.02.2020
2896 Clear 29 1008 66 8047 2.6 110 22:56 11.02.2020
2897 Clear 29 1008 66 8047 2.6 110 22:38 11.02.2020
2898 Clear 30 1008 66 8047 2.6 110 22:20 11.02.2020
2899 Clear 30 1009 66 8047 3.6 90 21:56 11.02.2020
2900 Clear 30 1009 66 8047 3.6 90 21:38 11.02.2020
2901 Clear 30 1009 66 8047 3.6 90 21:18 11.02.2020
2902 Clouds 30 1011 62 6437 1 120 20:57 11.02.2020
2903 Clouds 30 1011 62 6437 1 120 20:38 11.02.2020
2904 Clouds 30 1011 62 6437 1 120 20:19 11.02.2020
2905 Clouds 30 1011 62 6437 1 120 20:19 11.02.2020
2906 Clouds 30 1012 66 6437 2.83 75 19:54 11.02.2020
2907 Clouds 30 1012 66 6437 2.83 75 19:36 11.02.2020
2908 Clouds 30 1012 66 6437 2.83 75 19:18 11.02.2020
2909 Clear 29 1012 66 6437 1.5 110 18:43 11.02.2020
2910 Clear 29 1012 66 6437 1.5 110 18:25 11.02.2020
2911 Haze 29 1013 69 4828 2.83 75 17:55 11.02.2020
2912 Haze 28 1013 69 4828 2.83 75 17:37 11.02.2020
2913 Haze 28 1013 69 4828 0.9 210 17:18 11.02.2020
2914 Haze 27 1013 83 6437 0.9 210 16:57 11.02.2020
2915 Rain 26 1013 83 6437 0.9 210 16:38 11.02.2020
2916 Rain 26 1013 83 6437 0.9 210 16:20 11.02.2020
2917 Rain 23 1012 94 4828 0.9 210 15:47 11.02.2020
2918 Mist 23 1012 94 4828 0.9 210 15:29 11.02.2020
2919 Mist 22 1011 94 6437 0.9 210 14:58 11.02.2020
2920 Mist 22 1011 94 6437 0.9 210 14:39 11.02.2020
2921 Mist 22 1011 94 6437 1.52 232 14:19 11.02.2020
2922 Clouds 22 1011 94 8047 1.52 232 13:42 11.02.2020
2923 Clouds 22 1011 94 8047 1.54 216 13:22 11.02.2020
2924 Clouds 22 1011 94 8047 1.54 216 12:59 11.02.2020
2925 Clouds 22 1011 94 8047 1.54 216 12:40 11.02.2020
2926 Clear 22 1009 83 0 1.54 216 12:21 11.02.2020
2927 Clear 22 1009 83 0 1.54 216 11:55 11.02.2020
2928 Clear 22 1008 83 0 1.54 216 11:36 11.02.2020
2929 Clear 22 1008 83 0 1.54 216 11:36 11.02.2020
2930 Clear 22 1008 83 0 1.94 238 11:18 11.02.2020
2931 Clear 21 1009 83 0 1.94 238 10:39 11.02.2020
2932 Clear 21 1009 83 0 1.94 238 10:20 11.02.2020
2933 Clear 22 1009 84 0 1.94 238 09:57 11.02.2020
2934 Clear 22 1010 83 0 1.94 238 09:39 11.02.2020
2935 Clear 22 1010 83 0 1.94 238 09:20 11.02.2020
2936 Clear 22 1010 83 0 1.94 238 08:48 11.02.2020
2937 Clear 22 1010 83 0 2.06 235 08:24 11.02.2020
2938 Clear 23 1010 83 0 1.34 170 07:49 11.02.2020
2939 Clear 22 1010 83 0 1.26 241 07:28 11.02.2020
2940 Clouds 23 1013 94 6437 1.26 241 06:55 11.02.2020
2941 Clouds 23 1013 94 6437 1.26 241 06:37 11.02.2020
2942 Clouds 23 1013 94 6437 1.26 241 06:19 11.02.2020
2943 Clouds 23 1013 94 6437 1.26 241 05:26 11.02.2020
2944 Haze 23 1012 94 4828 0.66 315 04:53 11.02.2020
2945 Haze 24 1012 94 4023 1.5 90 03:26 11.02.2020
2946 Clouds 25 1011 88 8047 1.5 70 02:33 11.02.2020
2947 Clouds 25 1010 83 8047 2.87 73 01:39 11.02.2020
2948 Clouds 27 1009 69 9656 3.6 80 00:50 11.02.2020
2949 Clouds 27 1009 69 9656 3.6 80 00:22 11.02.2020
2950 Clouds 28 1009 74 9656 4.1 40 23:40 10.02.2020
2951 Clouds 28 1009 74 9656 4.1 40 23:20 10.02.2020
2952 Clear 29 1010 70 8047 4.1 80 22:43 10.02.2020
2953 Clear 29 1010 70 8047 4.1 80 22:21 10.02.2020
2954 Clouds 29 1011 74 8047 2.1 100 21:57 10.02.2020
2955 Clouds 28 1011 74 8047 2.1 100 21:39 10.02.2020
2956 Clouds 28 1011 74 8047 2.1 100 21:21 10.02.2020
2957 Clouds 29 1012 66 9656 3.13 56 20:54 10.02.2020
2958 Clouds 29 1012 66 9656 3.13 56 20:36 10.02.2020
2959 Clouds 29 1012 66 9656 3.29 78 20:18 10.02.2020
2960 Clouds 29 1013 66 8047 2.6 100 19:56 10.02.2020
2961 Clouds 29 1013 66 8047 2.6 100 19:36 10.02.2020
2962 Clouds 29 1013 66 8047 2.6 100 19:18 10.02.2020
2963 Clouds 28 1014 69 8047 3.29 78 18:41 10.02.2020
2964 Clouds 28 1014 69 8047 3.29 78 18:22 10.02.2020
2965 Clouds 27 1014 74 8047 1.5 80 17:59 10.02.2020
2966 Clouds 27 1014 74 8047 1.5 80 17:39 10.02.2020
2967 Clouds 27 1014 74 8047 1.5 80 17:21 10.02.2020
2968 Haze 26 1014 88 6437 2.89 72 16:59 10.02.2020
2969 Haze 26 1014 88 6437 2.89 72 16:40 10.02.2020
2970 Haze 25 1014 88 6437 2.89 72 16:20 10.02.2020
2971 Mist 24 1014 94 4828 2.89 72 15:58 10.02.2020
2972 Mist 23 1014 94 4828 2.89 72 15:39 10.02.2020
2973 Mist 22 1014 94 4828 2.89 72 15:21 10.02.2020
2974 Haze 21 1014 100 6437 2.89 72 14:57 10.02.2020
2975 Haze 21 1014 100 6437 2.89 72 14:39 10.02.2020
2976 Haze 21 1014 100 6437 1.4 47 14:19 10.02.2020
2977 Clouds 21 1013 100 8047 1.4 47 13:44 10.02.2020
2978 Clouds 21 1013 100 8047 1.45 40 13:25 10.02.2020
2979 Clouds 22 1013 100 8047 1.45 40 12:56 10.02.2020
2980 Clear 22 1011 84 0 0.45 111 12:38 10.02.2020
2981 Clear 21 1011 84 0 0.45 111 12:19 10.02.2020
2982 Clear 21 1011 84 0 0.89 111 11:45 10.02.2020
2983 Clear 21 1011 84 0 2.24 267 11:21 10.02.2020
2984 Clear 21 1011 84 0 0.45 181 10:48 10.02.2020
2985 Clear 21 1011 84 0 0.45 181 10:48 10.02.2020
2986 Clear 21 1011 84 0 0.89 181 10:30 10.02.2020
2987 Clear 22 1011 83 0 0.45 181 09:56 10.02.2020
2988 Clear 22 1012 83 0 2.24 267 09:36 10.02.2020
2989 Clear 22 1012 83 0 2.24 267 09:18 10.02.2020
2990 Clear 22 1012 83 0 2.24 267 08:40 10.02.2020
2991 Clear 22 1012 83 0 1.32 218 08:21 10.02.2020
2992 Clear 22 1012 83 0 0.86 233 07:55 10.02.2020
2993 Clear 23 1013 82 0 0.45 181 07:32 10.02.2020
2994 Clouds 23 1015 94 8047 0.86 233 06:49 10.02.2020
2995 Clear 24 1015 94 8047 1 110 04:59 10.02.2020
2996 Clear 24 1014 94 8047 3.99 95 03:54 10.02.2020
2997 Clear 25 1013 88 8047 1.5 110 02:58 10.02.2020
2998 Clear 25 1013 88 8047 1.5 110 02:36 10.02.2020
2999 Clear 26 1013 83 9656 3.6 100 01:21 10.02.2020
3000 Clear 27 1012 69 0 3.58 100 00:37 10.02.2020
3001 Clouds 28 1013 69 9656 4.1 80 23:59 09.02.2020
3002 Clouds 28 1013 69 9656 4.1 80 23:41 09.02.2020
3003 Clouds 28 1013 69 9656 4.1 80 23:23 09.02.2020
3004 Clouds 28 1013 69 9656 4.1 80 23:23 09.02.2020
3005 Clouds 29 1013 62 9656 2.6 90 22:43 09.02.2020
3006 Clouds 30 1013 62 9656 2.6 90 22:22 09.02.2020
3007 Clouds 29 1015 66 9656 2.1 100 21:54 09.02.2020
3008 Clouds 29 1015 66 9656 2.1 100 21:36 09.02.2020
3009 Clouds 29 1015 66 9656 2.1 100 21:18 09.02.2020
3010 Haze 29 1016 70 9656 3.1 70 20:43 09.02.2020
3011 Haze 29 1016 70 9656 3.1 70 20:20 09.02.2020
3012 Haze 28 1017 65 9656 1 200 19:54 09.02.2020
3013 Haze 28 1017 65 9656 1 200 19:36 09.02.2020
3014 Haze 28 1017 65 9656 1 200 19:18 09.02.2020
3015 Clouds 28 1018 69 6437 2.04 102 18:41 09.02.2020
3016 Clouds 28 1018 69 6437 2.04 102 18:23 09.02.2020
3017 Haze 26 1018 78 6437 2.1 200 17:43 09.02.2020
3018 Haze 26 1018 78 6437 2.1 200 17:23 09.02.2020
3019 Haze 25 1018 83 6437 1.37 286 16:57 09.02.2020
3020 Haze 25 1018 83 6437 1.37 286 16:39 09.02.2020
3021 Haze 24 1018 83 6437 1.37 286 16:20 09.02.2020
3022 Haze 23 1018 94 6437 1.37 286 15:57 09.02.2020
3023 Haze 23 1018 94 6437 1.37 286 15:39 09.02.2020
3024 Haze 22 1018 94 6437 1.37 286 15:20 09.02.2020
3025 Clouds 22 1017 94 8047 1.37 286 14:42 09.02.2020
3026 Clouds 22 1017 94 8047 1.37 286 14:42 09.02.2020
3027 Clouds 22 1017 94 8047 1.37 286 14:23 09.02.2020
3028 Clouds 22 1017 88 8047 0.75 326 13:55 09.02.2020
3029 Clouds 22 1017 88 8047 0.75 326 13:37 09.02.2020
3030 Clouds 22 1017 88 8047 0.4 339 13:18 09.02.2020
3031 Clouds 22 1015 82 0 0.4 339 12:42 09.02.2020
3032 Clouds 22 1015 82 0 0.4 339 12:42 09.02.2020
3033 Clouds 22 1015 82 0 0.4 339 12:20 09.02.2020
3034 Clouds 21 1015 83 0 0.4 339 11:58 09.02.2020
3035 Clouds 21 1015 83 0 0.4 339 11:39 09.02.2020
3036 Clouds 21 1015 83 0 1.01 348 11:19 09.02.2020
3037 Clouds 20 1015 83 0 1.01 348 10:43 09.02.2020
3038 Clouds 20 1015 83 0 1.01 348 10:23 09.02.2020
3039 Clouds 20 1015 82 0 1.01 348 09:57 09.02.2020
3040 Clouds 21 1015 82 0 1.01 348 09:38 09.02.2020
3041 Clouds 21 1015 82 0 1.01 348 09:19 09.02.2020
3042 Clouds 21 1016 81 0 0.45 5 08:40 09.02.2020
3043 Clouds 22 1016 80 0 1.01 348 08:22 09.02.2020
3044 Clouds 22 1016 79 0 0.89 5 07:51 09.02.2020
3045 Clouds 23 1016 78 0 0.89 5 07:26 09.02.2020
3046 Clouds 23 1019 88 9656 0.94 62 06:37 09.02.2020
3047 Clouds 23 1018 88 9656 2.1 350 05:55 09.02.2020
3048 Clouds 23 1018 88 9656 2.1 350 05:33 09.02.2020
3049 Clouds 23 1018 88 9656 2.6 360 04:48 09.02.2020
3050 Clouds 23 1016 88 9656 1.5 360 02:58 09.02.2020
3051 Clouds 23 1016 88 9656 1.5 360 02:36 09.02.2020
3052 Clouds 24 1016 83 11265 3.1 20 01:39 09.02.2020
3053 Clouds 24 1015 83 11265 4.1 40 00:56 09.02.2020
3054 Clouds 24 1015 83 11265 4.1 40 00:30 09.02.2020
3055 Clouds 25 1015 78 11265 6.2 360 23:50 08.02.2020
3056 Clouds 25 1015 78 11265 6.2 360 23:25 08.02.2020
3057 Clouds 25 1015 74 9656 6.2 30 22:58 08.02.2020
3058 Clouds 26 1015 74 9656 6.2 30 22:40 08.02.2020
3059 Clouds 26 1015 74 9656 6.2 30 22:20 08.02.2020
3060 Clouds 25 1016 78 9656 6.2 50 21:46 08.02.2020
3061 Clouds 26 1016 78 9656 6.2 50 21:27 08.02.2020
3062 Clouds 25 1017 78 9656 5.1 10 20:59 08.02.2020
3063 Clouds 25 1017 78 9656 5.1 10 20:40 08.02.2020
3064 Clouds 25 1017 78 9656 5.1 10 20:20 08.02.2020
3065 Clouds 25 1018 83 9656 3.6 50 19:58 08.02.2020
3066 Clouds 25 1018 83 9656 3.6 50 19:38 08.02.2020
3067 Clouds 25 1018 83 9656 3.6 50 19:38 08.02.2020
3068 Clouds 25 1018 83 9656 3.6 50 19:20 08.02.2020
3069 Haze 25 1019 83 4828 2.6 350 18:57 08.02.2020
3070 Haze 25 1019 83 4828 2.6 350 18:38 08.02.2020
3071 Haze 24 1019 83 4828 2.6 350 18:19 08.02.2020
3072 Mist 24 1019 88 4828 2.1 360 17:41 08.02.2020
3073 Mist 23 1019 88 4828 2.1 360 17:19 08.02.2020
3074 Mist 23 1018 88 4828 2.1 350 16:42 08.02.2020
3075 Mist 23 1018 88 4828 2.1 350 16:23 08.02.2020
3076 Mist 22 1018 88 4828 1.24 293 15:58 08.02.2020
3077 Clouds 22 1017 94 8047 1.24 293 15:39 08.02.2020
3078 Clouds 21 1017 94 8047 1.24 293 15:18 08.02.2020
3079 Clouds 21 1017 94 8047 1.24 293 14:45 08.02.2020
3080 Clouds 21 1017 94 8047 1.24 293 14:22 08.02.2020
3081 Clouds 22 1016 88 8047 1.13 184 13:58 08.02.2020
3082 Clouds 22 1016 88 8047 1.13 184 13:40 08.02.2020
3083 Clouds 22 1016 88 8047 1.13 184 13:21 08.02.2020
3084 Clouds 22 1016 88 8047 0.64 214 12:40 08.02.2020
3085 Rain 22 1014 81 0 0.64 214 12:22 08.02.2020
3086 Rain 22 1014 81 0 0.64 214 11:56 08.02.2020
3087 Rain 22 1014 81 0 0.64 214 11:38 08.02.2020
3088 Rain 22 1014 81 0 1.43 110 11:19 08.02.2020
3089 Rain 22 1014 81 0 0.45 200 10:42 08.02.2020
3090 Rain 21 1014 81 0 0.89 200 10:22 08.02.2020
3091 Rain 21 1014 81 0 0.89 200 09:51 08.02.2020
3092 Rain 21 1014 81 0 0.89 200 09:27 08.02.2020
3093 Rain 21 1015 82 0 0.89 173 08:54 08.02.2020
3094 Rain 21 1015 82 0 0.89 173 08:36 08.02.2020
3095 Rain 21 1015 82 0 1.85 92 08:18 08.02.2020
3096 Rain 21 1015 82 0 1.85 92 07:44 08.02.2020
3097 Rain 21 1015 82 0 1.85 92 07:19 08.02.2020
3098 Clouds 21 1017 94 9656 1.85 92 06:28 08.02.2020
3099 Clouds 21 1017 94 9656 1.85 92 05:48 08.02.2020
3100 Clouds 21 1017 94 9656 1.85 92 05:48 08.02.2020
3101 Clouds 21 1017 94 9656 1.85 92 05:29 08.02.2020
3102 Clouds 21 1017 94 9656 1.9 102 04:48 08.02.2020
3103 Clouds 21 1016 94 9656 1.9 102 03:48 08.02.2020
3104 Clouds 22 1015 83 9656 1.5 90 02:51 08.02.2020
3105 Clouds 22 1014 83 9656 1.74 60 01:41 08.02.2020
3106 Clouds 22 1014 83 9656 1.89 76 01:22 08.02.2020
3107 Clouds 23 1014 78 9656 3.1 70 00:39 08.02.2020
3108 Clouds 23 1014 78 9656 3.1 70 00:20 08.02.2020
3109 Clouds 23 1014 78 11265 1 50 23:43 07.02.2020
3110 Clouds 23 1014 78 11265 1 50 23:20 07.02.2020
3111 Clouds 22 1014 78 11265 1 60 22:56 07.02.2020
3112 Clouds 22 1014 78 11265 1 60 22:37 07.02.2020
3113 Clouds 22 1014 78 11265 1 60 22:19 07.02.2020
3114 Clouds 22 1015 78 11265 1.14 79 21:42 07.02.2020
3115 Clouds 22 1015 78 11265 1.14 79 21:22 07.02.2020
3116 Clouds 22 1016 83 11265 2.1 50 20:54 07.02.2020
3117 Clouds 22 1016 83 11265 2.1 50 20:36 07.02.2020
3118 Clouds 22 1016 83 11265 2.1 50 20:18 07.02.2020
3119 Clouds 21 1018 83 11265 2.1 350 19:40 07.02.2020
3120 Clouds 21 1018 83 11265 2.1 350 19:19 07.02.2020
3121 Clouds 20 1018 94 8047 1.5 320 18:46 07.02.2020
3122 Clouds 20 1018 94 8047 1.5 320 18:27 07.02.2020
3123 Rain 19 1018 93 4828 3.49 46 17:57 07.02.2020
3124 Rain 19 1018 93 4828 3.49 46 17:39 07.02.2020
3125 Rain 19 1018 93 4828 4.93 37 17:21 07.02.2020
3126 Rain 18 1018 100 4023 1 320 16:52 07.02.2020
3127 Rain 18 1018 100 4023 1 320 16:52 07.02.2020
3128 Mist 18 1018 100 4023 1 320 16:25 07.02.2020
3129 Mist 18 1018 93 3219 1 320 15:56 07.02.2020
3130 Mist 18 1017 93 4828 1 330 15:38 07.02.2020
3131 Mist 18 1017 93 4828 1 330 15:20 07.02.2020
3132 Mist 17 1016 100 3219 1.5 320 14:42 07.02.2020
3133 Mist 17 1016 100 3219 1.5 320 14:24 07.02.2020
3134 Drizzle 18 1016 93 4828 1.5 310 13:57 07.02.2020
3135 Drizzle 18 1016 93 4828 1.5 310 13:39 07.02.2020
3136 Drizzle 18 1016 93 4828 1.5 310 13:20 07.02.2020
3137 Rain 18 1014 82 0 3.58 321 12:44 07.02.2020
3138 Rain 18 1014 82 0 3.58 321 12:26 07.02.2020
3139 Rain 19 1013 82 0 1.79 328 11:58 07.02.2020
3140 Rain 18 1013 81 0 1.34 323 11:39 07.02.2020
3141 Rain 19 1013 81 0 2.24 336 11:18 07.02.2020
3142 Rain 19 1013 80 0 1.79 360 10:40 07.02.2020
3143 Rain 19 1013 78 0 2.68 11 10:20 07.02.2020
3144 Rain 19 1012 76 0 3.58 347 09:46 07.02.2020
3145 Rain 19 1012 76 0 3.58 347 09:26 07.02.2020
3146 Rain 20 1013 75 0 4.02 355 08:58 07.02.2020
3147 Rain 20 1013 74 0 3.13 355 08:37 07.02.2020
3148 Rain 20 1013 74 0 3.13 355 08:19 07.02.2020
3149 Rain 20 1013 73 0 4.92 355 07:40 07.02.2020
3150 Rain 20 1013 72 0 3.58 355 07:22 07.02.2020
3151 Clouds 20 1015 77 9656 4.1 10 06:43 07.02.2020
3152 Clouds 20 1015 77 9656 4.1 10 06:23 07.02.2020
3153 Clouds 20 1014 82 9656 4.1 10 05:43 07.02.2020
3154 Clouds 20 1013 77 9656 7.2 360 03:58 07.02.2020
3155 Sand 20 1012 77 8047 7.2 360 02:30 07.02.2020
3156 Clouds 19 1010 82 9656 9.8 20 01:34 07.02.2020
3157 Clouds 20 1010 77 9656 7.2 360 00:38 07.02.2020
3158 Clouds 20 1009 77 8047 10.8 20 23:56 06.02.2020
3159 Clouds 20 1009 77 8047 10.8 20 23:36 06.02.2020
3160 Clouds 20 1009 77 8047 10.8 20 23:36 06.02.2020
3161 Clouds 20 1009 77 8047 10.8 20 23:18 06.02.2020
3162 Clouds 21 1008 77 8047 10.3 360 22:42 06.02.2020
3163 Clouds 21 1008 77 8047 10.3 360 22:42 06.02.2020
3164 Clouds 21 1008 77 8047 10.3 360 22:23 06.02.2020
3165 Clouds 22 1008 78 8047 10.3 10 21:37 06.02.2020
3166 Clouds 22 1008 78 8047 10.3 10 21:19 06.02.2020
3167 Clouds 22 1009 78 8047 9.3 20 20:56 06.02.2020
3168 Clouds 22 1009 78 8047 9.3 20 20:37 06.02.2020
3169 Clouds 22 1009 78 8047 9.3 20 20:18 06.02.2020
3170 Clouds 22 1009 83 9656 9.3 20 19:58 06.02.2020
3171 Clouds 22 1009 83 9656 9.3 20 19:39 06.02.2020
3172 Clouds 22 1009 83 9656 9.3 20 19:20 06.02.2020
3173 Clouds 23 1010 78 8047 9.3 20 18:57 06.02.2020
3174 Clouds 23 1010 78 8047 9.3 20 18:38 06.02.2020
3175 Clouds 23 1010 78 8047 9.3 20 18:19 06.02.2020
3176 Clouds 23 1010 78 8047 10.3 360 17:42 06.02.2020
3177 Clouds 23 1010 78 8047 10.3 360 17:20 06.02.2020
3178 Clouds 23 1009 83 8047 10.3 10 16:54 06.02.2020
3179 Clouds 24 1009 83 8047 10.3 10 16:36 06.02.2020
3180 Clouds 24 1009 83 8047 10.3 10 16:18 06.02.2020
3181 Clouds 24 1009 88 8047 4.1 20 15:41 06.02.2020
3182 Clouds 24 1009 88 8047 4.1 20 15:21 06.02.2020
3183 Clouds 23 1006 88 8047 9.6 356 14:46 06.02.2020
3184 Clouds 23 1006 88 8047 9.6 356 14:26 06.02.2020
3185 Clouds 22 1005 94 8047 2.1 170 13:46 06.02.2020
3186 Clouds 23 1005 94 8047 2.1 170 13:27 06.02.2020
3187 Clouds 23 1003 76 0 1.34 184 12:57 06.02.2020
3188 Clouds 23 1003 76 0 1.34 184 12:37 06.02.2020
3189 Clouds 23 1003 76 0 1.34 184 12:37 06.02.2020
3190 Clouds 23 1004 76 0 0.45 204 12:18 06.02.2020
3191 Clouds 23 1004 76 0 1.34 205 11:55 06.02.2020
3192 Clouds 24 1004 73 0 2.19 234 11:37 06.02.2020
3193 Clouds 24 1004 73 0 2.19 234 11:37 06.02.2020
3194 Clouds 24 1003 73 0 0.45 205 11:18 06.02.2020
3195 Clouds 23 1003 74 0 1.79 296 10:41 06.02.2020
3196 Clouds 23 1003 73 0 0.45 213 10:22 06.02.2020
3197 Clouds 23 1003 72 0 0.89 213 09:59 06.02.2020
3198 Clouds 24 1003 70 0 1.34 213 09:40 06.02.2020
3199 Clouds 24 1003 71 0 0.89 223 09:20 06.02.2020
3200 Clouds 23 1004 72 0 0.45 307 08:45 06.02.2020
3201 Clouds 23 1004 72 0 0.45 307 08:45 06.02.2020
3202 Clouds 24 1004 70 0 0.89 307 08:24 06.02.2020
3203 Clouds 24 1004 73 0 4.17 169 07:55 06.02.2020
3204 Clouds 24 1005 72 0 4.17 169 07:32 06.02.2020
3205 Clouds 24 1007 78 11265 4.17 169 06:48 06.02.2020
3206 Clouds 24 1007 78 11265 4.17 169 06:19 06.02.2020
3207 Clouds 24 1007 78 11265 4.17 169 05:32 06.02.2020
3208 Clouds 24 1006 83 9656 1.5 350 03:47 06.02.2020
3209 Clouds 25 1005 73 9656 2.1 350 02:58 06.02.2020
3210 Clouds 26 1004 74 9656 4.1 10 01:55 06.02.2020
3211 Clouds 27 1004 74 9656 4.1 10 01:24 06.02.2020
3212 Clouds 29 1003 66 9656 1.5 80 00:29 06.02.2020
3213 Clouds 29 1003 62 9656 2.1 90 23:57 05.02.2020
3214 Clouds 29 1003 62 9656 2.1 90 23:39 05.02.2020
3215 Clouds 29 1003 62 9656 2.1 90 23:20 05.02.2020
3216 Clouds 32 1003 50 9656 5.7 80 22:41 05.02.2020
3217 Clouds 33 1003 50 9656 5.7 80 22:23 05.02.2020
3218 Clouds 34 1004 46 9656 2.6 160 21:57 05.02.2020
3219 Clouds 34 1004 46 9656 2.6 160 21:39 05.02.2020
3220 Clouds 34 1004 46 9656 2.6 160 21:39 05.02.2020
3221 Clouds 34 1004 46 9656 2.6 160 21:20 05.02.2020
3222 Clouds 32 1005 58 8047 1 150 20:39 05.02.2020
3223 Clouds 32 1005 58 8047 1 150 20:21 05.02.2020
3224 Clouds 31 1006 62 8047 5.7 160 19:59 05.02.2020
3225 Clouds 31 1006 62 8047 5.7 160 19:41 05.02.2020
3226 Clouds 30 1006 62 8047 5.7 160 19:19 05.02.2020
3227 Haze 28 1008 74 4828 4.1 190 18:57 05.02.2020
3228 Haze 28 1008 74 4828 4.1 190 18:39 05.02.2020
3229 Haze 28 1008 74 4828 4.1 190 18:19 05.02.2020
3230 Haze 28 1008 74 4828 4.1 190 18:19 05.02.2020
3231 Mist 26 1008 78 4828 3.6 210 17:39 05.02.2020
3232 Mist 26 1008 78 4828 3.6 210 17:20 05.02.2020
3233 Mist 24 1008 94 4828 1.5 220 16:58 05.02.2020
3234 Mist 24 1008 94 4828 1.5 220 16:40 05.02.2020
3235 Mist 22 1008 94 4828 1.5 220 16:22 05.02.2020
3236 Mist 20 1008 100 4828 4.07 193 15:47 05.02.2020
3237 Mist 19 1008 100 4828 4.07 193 15:20 05.02.2020
3238 Mist 19 1008 100 3219 4.07 193 14:59 05.02.2020
3239 Mist 18 1008 100 3219 4.07 193 14:41 05.02.2020
3240 Mist 18 1008 100 3219 4.07 193 14:41 05.02.2020
3241 Mist 18 1008 100 3219 4.77 180 14:21 05.02.2020
3242 Mist 18 1007 100 3219 1 240 13:43 05.02.2020
3243 Mist 18 1007 100 3219 1 240 13:43 05.02.2020
3244 Mist 18 1007 100 4828 1.5 190 13:23 05.02.2020
3245 Clear 18 1005 84 0 1.34 215 12:59 05.02.2020
3246 Clear 19 1005 84 0 1.34 219 12:37 05.02.2020
3247 Clear 19 1005 84 0 0.89 241 12:19 05.02.2020
3248 Clear 19 1005 84 0 0.89 241 11:41 05.02.2020
3249 Clear 18 1005 84 0 4.85 180 11:23 05.02.2020
3250 Clear 18 1005 83 0 3.38 190 10:58 05.02.2020
3251 Clear 18 1006 84 0 3.38 190 10:39 05.02.2020
3252 Clear 19 1006 83 0 3.38 190 10:18 05.02.2020
3253 Clear 20 1006 83 0 3.38 190 09:43 05.02.2020
3254 Clear 19 1006 83 0 3.38 190 09:22 05.02.2020
3255 Clear 21 1006 83 0 3.38 190 08:56 05.02.2020
3256 Clear 21 1007 83 0 3.38 190 08:37 05.02.2020
3257 Clouds 20 1008 83 0 1.66 168 08:19 05.02.2020
3258 Clouds 20 1008 83 0 1.68 194 07:42 05.02.2020
3259 Clouds 20 1008 82 0 1.68 194 07:19 05.02.2020
3260 Clear 21 1010 94 8047 1.68 194 06:39 05.02.2020
3261 Clear 21 1010 94 8047 1.68 194 06:20 05.02.2020
3262 Clouds 21 1010 100 9656 2.68 90 05:20 05.02.2020
3263 Clouds 22 1010 94 9656 2.68 90 04:58 05.02.2020
3264 Clouds 22 1010 94 9656 2.68 90 04:25 05.02.2020
3265 Clouds 23 1009 88 8047 2.68 90 02:52 05.02.2020
3266 Clouds 23 1009 88 8047 2.68 90 02:21 05.02.2020
3267 Clouds 24 1008 88 8047 1 120 01:29 05.02.2020
3268 Clouds 25 1008 83 8047 1 110 00:24 05.02.2020
3269 Clouds 25 1008 74 8047 1 100 23:40 04.02.2020
3270 Clouds 26 1008 74 8047 1 100 23:21 04.02.2020
3271 Clouds 27 1009 69 8047 2.1 90 22:57 04.02.2020
3272 Clouds 27 1009 69 8047 2.1 90 22:57 04.02.2020
3273 Clouds 27 1009 69 8047 2.1 90 22:39 04.02.2020
3274 Clouds 27 1009 69 8047 2.1 90 22:20 04.02.2020
3275 Clouds 27 1009 69 8047 2.1 90 22:20 04.02.2020
3276 Clouds 27 1010 69 8047 2.1 80 21:56 04.02.2020
3277 Clouds 27 1010 69 8047 2.1 80 21:37 04.02.2020
3278 Clouds 27 1010 69 8047 2.1 80 21:18 04.02.2020
3279 Clouds 27 1011 65 8047 2.1 170 20:54 04.02.2020
3280 Clouds 27 1011 65 8047 2.1 170 20:36 04.02.2020
3281 Clouds 27 1011 65 8047 2.1 170 20:18 04.02.2020
3282 Clouds 27 1012 57 8047 2.1 150 19:42 04.02.2020
3283 Clouds 27 1012 57 8047 2.1 150 19:24 04.02.2020
3284 Clouds 26 1014 69 8047 2.6 210 18:59 04.02.2020
3285 Clouds 26 1014 69 8047 2.6 210 18:39 04.02.2020
3286 Clouds 26 1014 69 8047 2.6 210 18:20 04.02.2020
3287 Clouds 24 1014 78 8047 1.5 190 17:54 04.02.2020
3288 Clouds 23 1014 78 8047 1.5 190 17:36 04.02.2020
3289 Clouds 23 1014 78 8047 1.5 190 17:18 04.02.2020
3290 Clouds 21 1014 88 8047 2.27 227 16:38 04.02.2020
3291 Clouds 20 1014 88 8047 2.27 227 16:20 04.02.2020
3292 Clouds 19 1013 93 8047 2.27 227 15:56 04.02.2020
3293 Clouds 19 1013 93 8047 2.27 227 15:56 04.02.2020
3294 Clouds 18 1013 93 8047 2.27 227 15:38 04.02.2020
3295 Clouds 18 1013 93 8047 2.27 227 15:20 04.02.2020
3296 Clouds 18 1013 93 8047 2.27 227 14:45 04.02.2020
3297 Clouds 18 1013 93 8047 2.27 227 14:26 04.02.2020
3298 Clear 18 1013 93 9656 2.36 239 13:59 04.02.2020
3299 Clear 18 1013 93 9656 2.36 239 13:59 04.02.2020
3300 Clear 18 1013 93 9656 2.36 239 13:40 04.02.2020
3301 -273 0 0 0 0 0 13:22 04.02.2020
3302 Clouds 18 1011 81 0 2.5 245 12:54 04.02.2020
3303 Clouds 18 1011 81 0 0.89 269 12:36 04.02.2020
3304 Clouds 18 1012 81 0 1.34 269 12:18 04.02.2020
3305 Clouds 18 1011 80 0 2.5 245 11:54 04.02.2020
3306 Clouds 19 1011 80 0 0.45 269 11:36 04.02.2020
3307 Clouds 19 1012 80 0 0.45 269 11:18 04.02.2020
3308 Clouds 19 1012 80 0 1.34 265 10:41 04.02.2020
3309 Clouds 19 1012 80 0 0.89 265 10:22 04.02.2020
3310 Clouds 18 1012 80 0 0.89 265 09:42 04.02.2020
3311 Clouds 19 1012 79 0 2.04 262 09:23 04.02.2020
3312 Clouds 19 1013 78 0 0.45 265 08:58 04.02.2020
3313 Clouds 19 1013 78 0 2.04 262 08:39 04.02.2020
3314 Clouds 19 1013 79 0 0.89 265 08:21 04.02.2020
3315 Clouds 19 1013 79 0 2.58 143 07:46 04.02.2020
3316 Clouds 19 1014 79 0 2.58 143 07:22 04.02.2020
3317 Mist 20 1016 88 8047 2.58 143 06:44 04.02.2020
3318 Mist 20 1016 88 8047 2.58 143 06:18 04.02.2020
3319 Clouds 20 1016 88 9656 2.58 143 05:28 04.02.2020
3320 Clear 22 1014 83 11265 1.5 70 03:52 04.02.2020
3321 Clear 22 1014 83 11265 1.5 70 03:32 04.02.2020
3322 Clouds 22 1013 78 11265 2.1 100 02:55 04.02.2020
3323 Clouds 22 1013 78 11265 2.1 100 02:31 04.02.2020
3324 Clouds 23 1012 69 11265 2.6 90 01:53 04.02.2020
3325 Clouds 23 1012 69 11265 2.6 90 01:35 04.02.2020
3326 Clouds 23 1012 69 11265 2.6 90 01:35 04.02.2020
3327 Clouds 24 1012 69 11265 3.1 90 00:45 04.02.2020
3328 Clouds 24 1012 69 11265 3.1 90 00:21 04.02.2020
3329 Clouds 25 1012 65 11265 2.6 90 23:40 03.02.2020
3330 Clouds 25 1012 65 11265 2.6 90 23:20 03.02.2020
3331 Clouds 25 1012 61 11265 2.1 90 22:39 03.02.2020
3332 Clouds 25 1012 61 11265 2.1 90 22:39 03.02.2020
3333 Clouds 26 1012 61 11265 2.1 90 22:20 03.02.2020
3334 Clouds 25 1014 54 11265 4.1 180 21:55 03.02.2020
3335 Clouds 25 1014 54 11265 4.1 180 21:55 03.02.2020
3336 Clouds 26 1014 54 11265 4.1 180 21:37 03.02.2020
3337 Clouds 26 1014 54 11265 4.1 180 21:18 03.02.2020
3338 Clouds 26 1014 54 11265 4.1 180 21:18 03.02.2020
3339 Clouds 25 1015 65 11265 3.1 170 20:42 03.02.2020
3340 Clouds 25 1015 65 11265 3.1 170 20:19 03.02.2020
3341 Clouds 25 1015 65 11265 3.1 170 20:19 03.02.2020
3342 Clouds 25 1015 65 11265 3.1 170 20:19 03.02.2020
3343 Clouds 24 1016 64 9656 4.1 150 19:57 03.02.2020
3344 Rain 24 1016 64 9656 4.1 150 19:39 03.02.2020
3345 Rain 24 1016 64 9656 4.1 150 19:19 03.02.2020
3346 Clouds 24 1017 69 8047 3.6 200 18:45 03.02.2020
3347 Clouds 24 1017 69 8047 3.6 200 18:25 03.02.2020
3348 Clouds 22 1018 83 8047 5.1 170 17:59 03.02.2020
3349 Clouds 22 1018 83 8047 5.1 170 17:40 03.02.2020
3350 Clouds 22 1018 83 8047 5.1 170 17:20 03.02.2020
3351 Clouds 22 1018 83 8047 5.1 170 17:20 03.02.2020
3352 Clouds 20 1018 100 8047 2.6 190 16:58 03.02.2020
3353 Clouds 20 1018 100 8047 2.6 190 16:58 03.02.2020
3354 Clouds 19 1018 100 8047 2.6 190 16:38 03.02.2020
3355 Clouds 18 1018 100 8047 2.6 190 16:20 03.02.2020
3356 Mist 18 1018 100 3219 3.26 184 15:54 03.02.2020
3357 Mist 17 1018 100 3219 3.26 184 15:36 03.02.2020
3358 Mist 17 1018 100 3219 3.26 184 15:18 03.02.2020
3359 Clouds 16 1017 93 8047 3.26 184 14:39 03.02.2020
3360 Clouds 15 1017 93 8047 3.26 184 14:21 03.02.2020
3361 Clear 15 1017 100 8047 2.1 180 13:55 03.02.2020
3362 Clear 15 1017 100 8047 2.1 180 13:37 03.02.2020
3363 Clear 15 1017 100 8047 2.1 180 13:18 03.02.2020
3364 Clear 15 1017 100 8047 2.1 180 12:41 03.02.2020
3365 Clouds 16 1015 83 0 0.89 117 12:22 03.02.2020
3366 Clouds 16 1015 83 0 0.89 117 11:58 03.02.2020
3367 Clouds 16 1015 82 0 0.89 117 11:38 03.02.2020
3368 Clouds 16 1015 82 0 0.89 117 11:18 03.02.2020
3369 Clouds 16 1015 82 0 1.79 117 10:41 03.02.2020
3370 Clouds 16 1015 81 0 1.34 117 10:23 03.02.2020
3371 Clouds 17 1016 81 0 0.89 117 09:49 03.02.2020
3372 Clouds 17 1016 80 0 0.45 117 09:28 03.02.2020
3373 Clouds 17 1016 80 0 0.45 117 08:59 03.02.2020
3374 Clouds 17 1016 80 0 0.45 117 08:40 03.02.2020
3375 Clouds 17 1016 80 0 0.45 117 08:40 03.02.2020
3376 Clouds 17 1017 80 0 1.34 117 08:21 03.02.2020
3377 Clouds 18 1017 80 0 0.45 117 07:41 03.02.2020
3378 Clouds 18 1018 80 0 0.89 117 07:22 03.02.2020
3379 Clouds 18 1018 80 0 0.89 117 07:22 03.02.2020
3380 Clouds 18 1020 88 11265 2.18 141 06:55 03.02.2020
3381 Clouds 18 1020 88 11265 2.18 141 06:30 03.02.2020
3382 Clouds 18 1020 88 11265 2.18 141 05:48 03.02.2020
3383 Clouds 19 1020 88 11265 2.18 141 05:30 03.02.2020
3384 Clouds 18 1020 88 11265 3.12 92 04:35 03.02.2020
3385 Clouds 20 1019 77 11265 3.12 92 02:38 03.02.2020
3386 Clouds 20 1019 77 11265 3.27 83 02:18 03.02.2020
3387 Clouds 21 1019 83 11265 2.1 100 00:48 03.02.2020
3388 Clouds 21 1019 83 11265 2.1 100 00:25 03.02.2020
3389 Clouds 22 1020 78 11265 2.6 90 23:40 02.02.2020
3390 Clouds 22 1020 78 11265 2.6 90 23:22 02.02.2020
3391 Clouds 22 1020 73 11265 1 110 22:58 02.02.2020
3392 Clouds 22 1020 73 11265 1 110 22:39 02.02.2020
3393 Clouds 22 1020 73 11265 1 110 22:39 02.02.2020
3394 Clouds 22 1020 73 11265 1 110 22:21 02.02.2020
3395 Clouds 22 1020 73 11265 1 110 22:21 02.02.2020
3396 Clouds 23 1021 69 11265 1 80 21:57 02.02.2020
3397 Clouds 23 1021 69 11265 1 80 21:38 02.02.2020
3398 Clouds 23 1021 69 11265 1 80 21:20 02.02.2020
3399 Clouds 23 1023 69 11265 3.41 56 20:56 02.02.2020
3400 Clouds 23 1023 69 11265 3.41 56 20:37 02.02.2020
3401 Clouds 23 1023 69 11265 2.82 11 20:19 02.02.2020
3402 Clouds 22 1024 78 9656 3.1 30 19:55 02.02.2020
3403 Rain 22 1024 78 9656 3.1 30 19:37 02.02.2020
3404 Rain 22 1024 78 9656 3.1 30 19:19 02.02.2020
3405 Clouds 21 1026 88 8047 2.82 11 18:39 02.02.2020
3406 Clouds 20 1026 88 8047 2.82 11 18:21 02.02.2020
3407 Mist 18 1026 100 6437 2.82 11 17:58 02.02.2020
3408 Mist 18 1026 100 6437 2.82 11 17:38 02.02.2020
3409 Mist 19 1026 100 6437 3.45 336 17:19 02.02.2020
3410 Rain 19 1026 93 4828 1 180 16:59 02.02.2020
3411 Rain 18 1026 93 4828 1 180 16:40 02.02.2020
3412 Rain 18 1026 93 4828 1 180 16:19 02.02.2020
3413 Rain 19 1026 82 4828 3.45 336 15:59 02.02.2020
3414 Rain 19 1026 82 4828 3.45 336 15:40 02.02.2020
3415 Rain 19 1026 82 4828 3.45 336 15:20 02.02.2020
3416 Clouds 19 1025 82 8047 3.45 336 14:58 02.02.2020
3417 Clouds 19 1025 82 8047 3.45 336 14:40 02.02.2020
3418 Clouds 19 1025 82 8047 4.26 355 14:18 02.02.2020
3419 Clouds 19 1025 82 8047 4.26 355 13:55 02.02.2020
3420 Clouds 19 1025 82 8047 4.26 355 13:37 02.02.2020
3421 Clouds 19 1025 82 8047 4.26 355 13:18 02.02.2020
3422 Rain 19 1023 72 0 0.45 251 12:44 02.02.2020
3423 Rain 19 1023 71 0 0.45 251 12:22 02.02.2020
3424 Rain 19 1023 71 0 0.89 251 11:58 02.02.2020
3425 Rain 19 1023 73 0 0.89 251 11:39 02.02.2020
3426 Rain 19 1023 74 0 0.45 251 11:18 02.02.2020
3427 Rain 19 1023 74 0 4.93 359 10:55 02.02.2020
3428 Rain 19 1024 72 0 0.89 309 10:36 02.02.2020
3429 Rain 19 1024 71 0 4.93 359 10:18 02.02.2020
3430 Rain 19 1024 71 0 4.93 359 10:18 02.02.2020
3431 Rain 19 1024 70 0 0.45 312 09:41 02.02.2020
3432 Rain 20 1024 68 0 1.34 319 09:21 02.02.2020
3433 Rain 20 1024 68 0 0.89 348 08:58 02.02.2020
3434 Rain 20 1024 68 0 1.79 355 08:40 02.02.2020
3435 Rain 19 1024 72 0 1.34 317 08:21 02.02.2020
3436 Rain 20 1025 70 0 2.24 263 07:45 02.02.2020
3437 Rain 21 1025 66 0 1.79 271 07:27 02.02.2020
3438 Clouds 20 1027 77 9656 4.1 10 06:41 02.02.2020
3439 Clouds 20 1027 77 9656 4.1 10 06:23 02.02.2020
3440 Clouds 20 1027 77 9656 6.2 360 05:47 02.02.2020
3441 Clouds 20 1027 72 9656 5.1 360 04:34 02.02.2020
3442 Clouds 20 1026 72 9656 5.1 360 03:25 02.02.2020
3443 Clouds 20 1025 72 9656 5.1 360 02:27 02.02.2020
3444 Clouds 21 1024 68 9656 7.7 360 01:52 02.02.2020
3445 Clouds 21 1024 68 9656 7.7 360 01:19 02.02.2020
3446 Clouds 22 1023 64 9656 7.7 360 00:41 02.02.2020
3447 Clouds 22 1023 64 9656 7.7 360 00:19 02.02.2020
3448 Clouds 22 1023 64 9656 8.7 10 23:45 01.02.2020
3449 Clouds 22 1023 64 9656 8.7 10 23:21 01.02.2020
3450 Clouds 23 1023 60 9656 9.8 360 22:48 01.02.2020
3451 Clouds 23 1023 60 9656 9.8 360 22:19 01.02.2020
3452 Clouds 23 1023 64 9656 8.2 340 21:44 01.02.2020
3453 Clouds 23 1023 64 9656 8.2 340 21:20 01.02.2020
3454 Clouds 23 1023 60 11265 9.3 10 20:58 01.02.2020
3455 Clouds 23 1023 60 11265 9.3 10 20:39 01.02.2020
3456 Clouds 23 1023 60 11265 9.3 10 20:20 01.02.2020
3457 Clouds 24 1024 57 11265 7.7 10 19:56 01.02.2020
3458 Clouds 24 1024 57 11265 7.7 10 19:38 01.02.2020
3459 Clouds 24 1024 57 11265 7.7 10 19:19 01.02.2020
3460 Clouds 24 1024 64 9656 7.7 360 18:57 01.02.2020
3461 Clouds 24 1024 64 9656 7.7 360 18:38 01.02.2020
3462 Clouds 24 1024 64 9656 7.7 360 18:19 01.02.2020
3463 Clouds 24 1024 64 9656 8.7 20 17:55 01.02.2020
3464 Clouds 24 1024 64 9656 8.7 20 17:37 01.02.2020
3465 Clouds 24 1024 64 9656 8.7 20 17:18 01.02.2020
3466 Clouds 23 1023 69 9656 5.1 360 16:42 01.02.2020
3467 Clouds 23 1023 69 9656 5.1 360 16:22 01.02.2020
3468 Clouds 23 1022 69 8047 5.1 350 15:55 01.02.2020
3469 Clouds 23 1022 69 8047 5.1 350 15:37 01.02.2020
3470 Clouds 23 1022 69 8047 5.1 350 15:18 01.02.2020
3471 Clouds 22 1021 73 9656 6.7 350 14:40 01.02.2020
3472 Clouds 22 1021 73 9656 6.7 350 14:21 01.02.2020
3473 Clouds 22 1021 73 9656 4.1 10 13:45 01.02.2020
3474 Clouds 22 1021 73 9656 4.1 10 13:24 01.02.2020
3475 Clouds 22 1021 73 9656 4.1 10 12:57 01.02.2020
3476 Rain 22 1018 69 0 4.47 360 12:38 01.02.2020
3477 Rain 22 1018 69 0 4.47 360 12:20 01.02.2020
3478 Rain 23 1018 65 0 3.58 355 11:40 01.02.2020
3479 Clouds 23 1018 65 0 4.47 9 11:21 01.02.2020
3480 Clouds 23 1018 64 0 5.81 349 10:58 01.02.2020
3481 Clouds 23 1018 64 0 5.81 349 10:39 01.02.2020
3482 Clouds 23 1017 60 0 5.81 329 10:21 01.02.2020
3483 Clouds 23 1017 61 0 5.81 360 09:58 01.02.2020
3484 Clouds 23 1017 61 0 5.81 360 09:40 01.02.2020
3485 Clouds 23 1017 64 0 4.92 5 09:20 01.02.2020
3486 Clouds 23 1017 62 0 4.02 340 08:48 01.02.2020
3487 Rain 23 1017 63 0 5.36 355 07:51 01.02.2020
3488 Rain 23 1017 63 0 5.81 330 07:28 01.02.2020
3489 Clouds 23 1019 73 9656 5.1 360 06:58 01.02.2020
3490 Clouds 23 1019 73 9656 5.1 360 06:38 01.02.2020
3491 Clouds 23 1018 73 9656 5.1 360 05:52 01.02.2020
3492 Clouds 23 1018 73 9656 5.1 360 05:52 01.02.2020
3493 Clouds 23 1017 73 9656 4.6 360 04:21 01.02.2020
3494 Clouds 23 1016 73 9656 5.1 360 03:23 01.02.2020
3495 Clouds 23 1016 73 9656 5.1 360 02:48 01.02.2020
3496 Clouds 23 1016 73 9656 5.1 360 02:30 01.02.2020
3497 Clouds 24 1015 69 9656 4.6 360 01:55 01.02.2020
3498 Clouds 24 1015 69 9656 4.6 360 01:37 01.02.2020
3499 Clouds 24 1014 69 9656 5.1 360 00:31 01.02.2020
3500 Clouds 24 1014 69 9656 6.2 10 23:59 31.01.2020
3501 Clouds 24 1014 69 9656 6.2 10 23:38 31.01.2020
3502 Clouds 24 1014 69 9656 6.2 10 23:18 31.01.2020
3503 Clouds 25 1013 65 8047 8.7 350 22:41 31.01.2020
3504 Clouds 26 1013 65 8047 8.7 350 22:23 31.01.2020
3505 Clouds 25 1014 69 8047 6.7 20 21:59 31.01.2020
3506 Clouds 25 1014 69 8047 6.7 20 21:39 31.01.2020
3507 Clouds 24 1014 69 8047 6.7 20 21:20 31.01.2020
3508 Clouds 25 1015 69 8047 7.7 360 20:57 31.01.2020
3509 Clouds 25 1015 69 8047 7.7 360 20:57 31.01.2020
3510 Clouds 25 1015 69 8047 7.7 360 20:57 31.01.2020
3511 Clouds 25 1015 69 8047 7.7 360 20:39 31.01.2020
3512 Clouds 25 1015 69 8047 7.7 360 20:20 31.01.2020
3513 Clouds 25 1015 69 9656 7.2 10 19:56 31.01.2020
3514 Clouds 25 1015 69 9656 7.2 10 19:38 31.01.2020
3515 Clouds 26 1015 69 9656 7.2 10 19:19 31.01.2020
3516 Clouds 26 1016 65 9656 6.2 350 18:43 31.01.2020
3517 Clouds 26 1016 65 9656 6.2 350 18:25 31.01.2020
3518 Clouds 25 1016 69 9656 4.6 360 17:56 31.01.2020
3519 Clouds 26 1016 69 9656 4.6 360 17:37 31.01.2020
3520 Clouds 26 1016 69 9656 4.6 360 17:19 31.01.2020
3521 Clouds 25 1015 69 9656 4.1 340 16:56 31.01.2020
3522 Clouds 25 1015 69 9656 4.1 340 16:37 31.01.2020
3523 Clouds 24 1015 69 9656 4.1 340 16:18 31.01.2020
3524 Mist 23 1014 78 9656 2.6 10 15:41 31.01.2020
3525 Mist 23 1014 78 9656 2.6 10 15:21 31.01.2020
3526 Mist 22 1013 83 9656 3.1 10 14:58 31.01.2020
3527 Mist 22 1013 83 9656 3.1 10 14:40 31.01.2020
3528 Mist 22 1013 83 9656 3.1 10 14:20 31.01.2020
3529 Clouds 22 1012 88 9656 3.6 360 13:44 31.01.2020
3530 Clouds 22 1012 88 9656 3.6 360 13:25 31.01.2020
3531 Rain 23 1010 75 0 4.47 355 12:46 31.01.2020
3532 Rain 22 1010 78 0 3.58 22 12:26 31.01.2020
3533 Rain 22 1010 79 0 3.58 5 11:59 31.01.2020
3534 Rain 22 1010 79 0 3.58 5 11:40 31.01.2020
3535 Rain 22 1010 80 0 3.58 5 11:22 31.01.2020
3536 Rain 22 1010 80 0 4.47 360 10:57 31.01.2020
3537 Rain 22 1009 81 0 1.79 355 10:37 31.01.2020
3538 Rain 22 1009 81 0 1.79 355 10:19 31.01.2020
3539 Rain 22 1009 80 0 1.34 308 09:42 31.01.2020
3540 Rain 23 1010 79 0 0.45 290 09:22 31.01.2020
3541 Rain 23 1010 80 0 0.89 287 08:57 31.01.2020
3542 Rain 23 1010 80 0 0.89 287 08:39 31.01.2020
3543 Rain 23 1009 79 0 0.45 264 08:20 31.01.2020
3544 Rain 23 1010 79 0 0.89 102 07:49 31.01.2020
3545 Rain 24 1010 79 0 2.96 96 07:19 31.01.2020
3546 Clouds 23 1012 94 11265 2.96 96 06:38 31.01.2020
3547 Clouds 23 1012 88 11265 2.96 96 05:56 31.01.2020
3548 Clouds 23 1012 88 11265 2.96 96 05:26 31.01.2020
3549 Clouds 23 1011 88 11265 3.68 85 04:36 31.01.2020
3550 Clouds 23 1010 83 11265 3.68 85 02:50 31.01.2020
3551 Clouds 24 1009 83 11265 3.47 88 01:31 31.01.2020
3552 Clouds 24 1009 78 11265 1 100 00:40 31.01.2020
3553 Clouds 24 1009 78 11265 1 100 00:22 31.01.2020
3554 Clouds 25 1009 73 9656 3.1 70 23:42 30.01.2020
3555 Clouds 25 1009 73 9656 3.1 70 23:21 30.01.2020
3556 Clouds 26 1009 69 9656 2.6 90 22:39 30.01.2020
3557 Clouds 26 1009 69 9656 2.6 90 22:21 30.01.2020
3558 Clouds 26 1011 65 9656 3.11 81 21:58 30.01.2020
3559 Clouds 25 1011 65 9656 3.11 81 21:40 30.01.2020
3560 Clouds 25 1011 65 9656 3.11 81 21:18 30.01.2020
3561 Clouds 25 1012 65 9656 3.1 170 20:57 30.01.2020
3562 Clouds 25 1012 65 9656 3.1 170 20:38 30.01.2020
3563 Clouds 25 1012 65 9656 3.1 170 20:20 30.01.2020
3564 Clouds 24 1014 69 9656 4.1 190 19:44 30.01.2020
3565 Clouds 24 1014 69 9656 4.1 190 19:44 30.01.2020
3566 Clouds 24 1014 69 9656 4.1 190 19:19 30.01.2020
3567 Clouds 24 1014 69 9656 4.1 190 19:19 30.01.2020
3568 Clouds 24 1015 69 9656 1 240 18:59 30.01.2020
3569 Clouds 24 1015 69 9656 1 240 18:37 30.01.2020
3570 Clouds 23 1015 69 9656 1 240 18:18 30.01.2020
3571 Clouds 23 1016 73 9656 2.22 137 17:41 30.01.2020
3572 Clouds 23 1016 73 9656 1.91 225 17:19 30.01.2020
3573 Clouds 22 1016 77 8047 1.91 225 16:58 30.01.2020
3574 Clouds 22 1016 77 8047 1.91 225 16:39 30.01.2020
3575 Clouds 22 1016 77 8047 1.91 225 16:21 30.01.2020
3576 Clouds 21 1015 88 8047 1.91 225 15:44 30.01.2020
3577 Clouds 20 1015 88 8047 1.91 225 15:21 30.01.2020
3578 Clouds 20 1015 88 8047 1.91 225 14:58 30.01.2020
3579 Clouds 20 1015 88 8047 1.91 225 14:39 30.01.2020
3580 Clouds 20 1015 88 8047 0.21 186 14:20 30.01.2020
3581 Clouds 20 1015 88 8047 0.21 186 13:41 30.01.2020
3582 Clouds 20 1015 88 8047 0.89 197 13:23 30.01.2020
3583 Clouds 21 1013 74 0 0.89 197 12:55 30.01.2020
3584 Clouds 21 1013 74 0 0.89 328 12:37 30.01.2020
3585 Clouds 21 1013 74 0 0.89 328 12:19 30.01.2020
3586 Clouds 21 1013 73 0 0.45 328 11:41 30.01.2020
3587 Clouds 21 1013 73 0 1.34 328 11:22 30.01.2020
3588 Clouds 21 1015 70 0 1.34 23 10:59 30.01.2020
3589 Clouds 21 1015 70 0 1.34 23 10:40 30.01.2020
3590 Clouds 21 1015 70 0 1.34 23 10:20 30.01.2020
3591 Clouds 21 1015 70 0 1.34 23 09:45 30.01.2020
3592 Clouds 21 1014 66 0 0.89 349 09:25 30.01.2020
3593 Clouds 21 1014 65 0 0.89 349 08:43 30.01.2020
3594 Clouds 21 1014 64 0 1.34 331 08:22 30.01.2020
3595 Clouds 22 1015 63 0 1.34 331 07:58 30.01.2020
3596 Clouds 21 1015 64 0 2.24 324 07:39 30.01.2020
3597 Clouds 21 1015 64 0 2.24 324 07:18 30.01.2020
3598 Clouds 21 1016 77 9656 2.35 0 06:43 30.01.2020
3599 Clouds 21 1016 77 9656 2.35 0 06:25 30.01.2020
3600 Clouds 22 1017 73 9656 3.6 350 05:29 30.01.2020
3601 Clouds 22 1017 78 9656 3.1 360 04:50 30.01.2020
3602 Clouds 22 1016 78 9656 4.1 360 03:47 30.01.2020
3603 Clouds 22 1015 78 9656 5.1 360 02:56 30.01.2020
3604 Clouds 23 1015 69 9656 5.1 20 01:23 30.01.2020
3605 Clouds 24 1015 69 9656 7.7 10 00:30 30.01.2020
3606 Clouds 24 1015 64 9656 7.7 10 23:56 29.01.2020
3607 Clouds 25 1015 64 9656 7.7 10 23:38 29.01.2020
3608 Clouds 24 1015 64 9656 7.7 10 23:20 29.01.2020
3609 Clouds 25 1015 61 9656 7.7 360 22:55 29.01.2020
3610 Clouds 26 1015 61 9656 7.7 360 22:37 29.01.2020
3611 Clouds 26 1015 61 9656 7.7 360 22:18 29.01.2020
3612 Clouds 26 1016 65 9656 7.7 350 21:54 29.01.2020
3613 Clouds 26 1016 65 9656 7.7 350 21:36 29.01.2020
3614 Clouds 26 1016 65 9656 7.7 350 21:36 29.01.2020
3615 Clouds 26 1016 65 9656 7.7 350 21:18 29.01.2020
3616 Clouds 26 1016 65 9656 7.7 350 21:18 29.01.2020
3617 Clouds 26 1017 65 9656 7.7 350 20:40 29.01.2020
3618 Clouds 26 1017 65 9656 7.7 350 20:21 29.01.2020
3619 Clouds 26 1017 69 8047 7.7 20 19:58 29.01.2020
3620 Clouds 26 1017 69 8047 7.7 20 19:38 29.01.2020
3621 Clouds 26 1017 69 8047 7.7 20 19:38 29.01.2020
3622 Clouds 26 1017 69 8047 7.7 20 19:20 29.01.2020
3623 Clouds 26 1017 69 8047 9.3 10 18:58 29.01.2020
3624 Clouds 26 1017 69 8047 9.3 10 18:37 29.01.2020
3625 Clouds 26 1017 69 8047 9.3 10 18:18 29.01.2020
3626 Clear 26 1016 69 8047 2.6 360 17:40 29.01.2020
3627 Clear 27 1016 69 8047 2.6 360 17:22 29.01.2020
3628 Clear 25 1016 78 8047 3.1 350 16:43 29.01.2020
3629 Clear 25 1016 78 8047 3.1 350 16:43 29.01.2020
3630 Clear 25 1016 78 8047 3.1 350 16:43 29.01.2020
3631 Clear 25 1016 78 8047 3.1 350 16:24 29.01.2020
3632 Haze 23 1015 94 6437 1.5 340 15:59 29.01.2020
3633 Haze 23 1015 94 6437 1.5 340 15:38 29.01.2020
3634 Haze 23 1015 94 6437 1.5 340 15:20 29.01.2020
3635 Haze 23 1015 94 6437 1.5 340 15:20 29.01.2020
3636 Clear 23 1015 78 8047 5.1 360 14:45 29.01.2020
3637 Clear 24 1015 78 8047 5.1 360 14:22 29.01.2020
3638 Clouds 24 1014 88 8047 5.1 30 13:57 29.01.2020
3639 Rain 24 1014 88 8047 5.1 30 13:39 29.01.2020
3640 Rain 24 1014 88 8047 5.1 30 13:20 29.01.2020
3641 Rain 23 1012 82 0 6.26 35 12:56 29.01.2020
3642 Rain 23 1012 83 0 3.58 33 12:37 29.01.2020
3643 Rain 23 1012 84 0 4.92 19 12:19 29.01.2020
3644 Rain 23 1012 84 0 0.89 31 11:45 29.01.2020
3645 Rain 23 1012 84 0 0.89 346 11:22 29.01.2020
3646 Rain 23 1012 84 0 0.45 348 10:47 29.01.2020
3647 Rain 23 1012 84 0 0.45 348 10:28 29.01.2020
3648 Rain 22 1011 84 0 4.42 354 09:59 29.01.2020
3649 Rain 22 1011 84 0 4.42 354 09:40 29.01.2020
3650 Rain 22 1011 84 0 4.42 354 09:21 29.01.2020
3651 Rain 22 1011 83 0 4.42 354 08:56 29.01.2020
3652 Rain 24 1013 85 0 4.42 354 08:38 29.01.2020
3653 Clouds 24 1013 87 0 3.62 35 08:18 29.01.2020
3654 Rain 24 1014 88 0 3.28 34 07:43 29.01.2020
3655 Rain 22 1011 82 0 3.28 34 07:24 29.01.2020
3656 Clouds 22 1013 100 8047 3.28 34 06:39 29.01.2020
3657 Clouds 22 1013 100 8047 3.28 34 06:21 29.01.2020
3658 Clear 23 1012 94 8047 3.28 34 05:55 29.01.2020
3659 Clear 23 1012 94 8047 3.28 34 05:36 29.01.2020
3660 Clear 23 1012 88 8047 3.11 58 04:49 29.01.2020
3661 Clear 23 1012 88 8047 3.11 58 04:49 29.01.2020
3662 Clear 23 1012 88 8047 3.11 58 04:25 29.01.2020
3663 Clear 24 1010 88 6437 3.11 58 02:41 29.01.2020
3664 Clear 25 1009 88 8047 2.6 100 01:44 29.01.2020
3665 Clouds 26 1008 83 6437 1.5 120 00:41 29.01.2020
3666 Clouds 26 1008 83 6437 1.5 120 00:23 29.01.2020
3667 Clouds 27 1008 74 8047 2.6 100 23:44 28.01.2020
3668 Clouds 27 1008 74 8047 2.6 100 23:21 28.01.2020
3669 Clouds 28 1008 62 8047 2.6 160 22:57 28.01.2020
3670 Clouds 28 1008 62 8047 2.6 160 22:39 28.01.2020
3671 Clouds 29 1008 62 8047 2.6 160 22:20 28.01.2020
3672 Clouds 29 1008 62 8047 2.6 160 22:20 28.01.2020
3673 Clouds 28 1008 69 8047 3.6 140 21:42 28.01.2020
3674 Clouds 28 1008 69 8047 3.6 140 21:20 28.01.2020
3675 Clouds 28 1008 69 8047 3.6 140 21:20 28.01.2020
3676 Clouds 28 1010 65 8047 4.6 170 20:46 28.01.2020
3677 Clouds 28 1010 65 8047 4.6 170 20:28 28.01.2020
3678 Clouds 27 1011 78 6437 3.1 100 19:59 28.01.2020
3679 Clouds 27 1011 78 6437 3.1 100 19:38 28.01.2020
3680 Clouds 27 1011 78 6437 3.1 100 19:19 28.01.2020
3681 Clouds 27 1013 83 6437 2.6 128 18:57 28.01.2020
3682 Clouds 27 1013 83 6437 2.6 128 18:38 28.01.2020
3683 Clouds 26 1013 83 6437 2.6 128 18:20 28.01.2020
3684 Mist 26 1013 83 4828 2.6 128 17:55 28.01.2020
3685 Mist 25 1013 83 4828 2.6 128 17:36 28.01.2020
3686 Mist 25 1013 83 4828 2.33 211 17:18 28.01.2020
3687 Mist 24 1013 94 4828 2.33 211 16:45 28.01.2020
3688 Mist 24 1013 94 4828 2.33 211 16:27 28.01.2020
3689 Mist 23 1012 94 4828 2.33 211 15:59 28.01.2020
3690 Mist 23 1012 94 4828 2.33 211 15:40 28.01.2020
3691 Mist 22 1012 94 4828 2.33 211 15:18 28.01.2020
3692 Mist 22 1012 94 6437 2.33 211 14:44 28.01.2020
3693 Mist 22 1012 94 6437 2.28 209 14:20 28.01.2020
3694 Mist 21 1012 100 6437 2.28 209 13:43 28.01.2020
3695 Mist 21 1012 100 6437 2.28 209 13:25 28.01.2020
3696 Clouds 22 1010 83 0 2.07 217 12:56 28.01.2020
3697 Clouds 21 1010 83 0 2.07 217 12:38 28.01.2020
3698 Clouds 21 1009 83 0 2.07 217 12:20 28.01.2020
3699 Clouds 21 1010 83 0 2.07 217 11:41 28.01.2020
3700 Clouds 21 1010 83 0 2.07 217 11:41 28.01.2020
3701 Clouds 21 1010 83 0 2.07 217 11:22 28.01.2020
3702 Clouds 21 1010 83 0 1.03 204 10:55 28.01.2020
3703 Clouds 21 1010 82 0 1.03 204 10:36 28.01.2020
3704 Clouds 21 1010 82 0 1.03 204 10:18 28.01.2020
3705 Clouds 22 1010 83 0 1.03 204 09:42 28.01.2020
3706 Clouds 22 1011 83 0 0.45 27 09:20 28.01.2020
3707 Clouds 22 1011 83 0 0.45 27 08:46 28.01.2020
3708 Clouds 22 1011 83 0 0.45 27 08:26 28.01.2020
3709 Clear 21 1011 82 0 0.34 258 07:56 28.01.2020
3710 Clear 21 1011 82 0 0.89 27 07:34 28.01.2020
3711 Clouds 22 1014 94 8047 0.34 258 06:48 28.01.2020
3712 Clouds 22 1014 94 8047 0.34 258 06:25 28.01.2020
3713 Clouds 22 1014 94 8047 0.34 258 05:40 28.01.2020
3714 Clouds 22 1014 94 8047 2.12 44 05:21 28.01.2020
3715 Clear 23 1013 88 8047 2.6 350 03:49 28.01.2020
3716 Smoke 24 1013 83 8047 2.1 50 02:46 28.01.2020
3717 Smoke 24 1013 83 8047 2.1 50 02:25 28.01.2020
3718 Clouds 25 1012 78 8047 3.1 60 01:55 28.01.2020
3719 Clouds 25 1012 78 8047 3.1 60 01:20 28.01.2020
3720 Clear 25 1012 69 9656 4.1 60 00:43 28.01.2020
3721 Clear 26 1012 69 9656 4.1 60 00:19 28.01.2020
3722 Clouds 27 1012 69 9656 3.6 50 23:43 27.01.2020
3723 Clouds 27 1012 69 9656 3.6 50 23:19 27.01.2020
3724 Clouds 26 1013 78 9656 5.1 60 22:45 27.01.2020
3725 Clouds 26 1013 78 9656 5.1 60 22:20 27.01.2020
3726 Clouds 26 1013 78 9656 5.1 60 22:20 27.01.2020
3727 Clouds 26 1013 78 9656 5.1 60 22:20 27.01.2020
3728 Clouds 27 1014 69 9656 2.1 80 21:57 27.01.2020
3729 Clouds 27 1014 69 9656 2.1 80 21:39 27.01.2020
3730 Clouds 27 1014 69 9656 2.1 80 21:19 27.01.2020
3731 Clouds 28 1014 61 9656 1 140 20:57 27.01.2020
3732 Clouds 28 1014 61 9656 1 140 20:37 27.01.2020
3733 Clouds 28 1014 61 9656 1 140 20:19 27.01.2020
3734 Clouds 28 1016 65 8047 1.5 140 19:55 27.01.2020
3735 Clouds 28 1016 65 8047 1.5 140 19:37 27.01.2020
3736 Clouds 28 1016 65 8047 1.5 140 19:19 27.01.2020
3737 Clouds 27 1017 74 6437 2.6 210 18:39 27.01.2020
3738 Clouds 27 1017 74 6437 2.6 210 18:39 27.01.2020
3739 Clouds 26 1017 74 6437 2.6 210 18:21 27.01.2020
3740 Mist 26 1017 83 6437 2.6 210 17:57 27.01.2020
3741 Clear 26 1015 69 0 1.34 184 17:37 27.01.2020
3742 Clouds 26 1015 71 0 2.68 159 17:18 27.01.2020
3743 Mist 24 1017 94 6437 2.37 235 16:42 27.01.2020
3744 Mist 24 1017 94 6437 2.37 235 16:24 27.01.2020
3745 Mist 22 1016 100 6437 2.37 235 15:59 27.01.2020
3746 Mist 21 1016 100 6437 2.37 235 15:40 27.01.2020
3747 Mist 21 1016 100 6437 2.37 235 15:19 27.01.2020
3748 Haze 21 1015 94 6437 2.37 235 14:55 27.01.2020
3749 Haze 21 1015 94 6437 2.37 235 14:37 27.01.2020
3750 Haze 21 1015 94 6437 1.27 278 14:18 27.01.2020
3751 Clouds 21 1015 94 8047 1.27 278 13:42 27.01.2020
3752 Clouds 22 1015 94 8047 1.27 278 13:21 27.01.2020
3753 Clouds 22 1015 94 8047 1.48 304 12:56 27.01.2020
3754 Rain 21 1013 83 0 1.48 304 12:37 27.01.2020
3755 Rain 21 1013 83 0 1.48 304 12:19 27.01.2020
3756 Rain 21 1013 83 0 1.48 304 12:19 27.01.2020
3757 Rain 21 1013 83 0 1.48 304 11:42 27.01.2020
3758 Clear 21 1013 83 0 0.89 360 11:21 27.01.2020
3759 Clear 21 1013 83 0 0.89 360 11:21 27.01.2020
3760 Clear 21 1013 83 0 0.89 360 11:21 27.01.2020
3761 Clear 21 1012 84 0 1.79 15 10:44 27.01.2020
3762 Clear 21 1012 83 0 1.6 315 10:25 27.01.2020
3763 Clear 21 1012 83 0 0.45 55 09:58 27.01.2020
3764 Clear 21 1012 83 0 0.45 55 09:39 27.01.2020
3765 Clear 21 1012 83 0 1.6 315 09:18 27.01.2020
3766 Clear 21 1013 83 0 1.6 315 08:46 27.01.2020
3767 Clear 21 1013 83 0 1.6 315 08:22 27.01.2020
3768 Clear 21 1013 83 0 2.51 324 07:55 27.01.2020
3769 Clear 21 1013 83 0 2.51 324 07:35 27.01.2020
3770 Mist 22 1015 94 8047 2.51 324 06:55 27.01.2020
3771 Mist 22 1015 94 8047 2.51 324 06:27 27.01.2020
3772 Mist 22 1015 94 8047 2.51 324 06:27 27.01.2020
3773 Clear 22 1015 94 8047 2.51 324 05:28 27.01.2020
3774 Clear 23 1015 94 8047 2.25 15 04:20 27.01.2020
3775 Clear 24 1014 88 9656 1.5 40 03:23 27.01.2020
3776 Clear 25 1013 78 9656 1.5 70 01:31 27.01.2020
3777 Clear 26 1013 65 8047 3.6 40 00:59 27.01.2020
3778 Clear 27 1013 65 8047 3.6 40 00:37 27.01.2020
3779 Clear 27 1013 65 8047 3.6 40 00:19 27.01.2020
3780 Haze 27 1013 69 6437 3.1 30 23:41 26.01.2020
3781 Haze 27 1013 69 6437 3.1 30 23:19 26.01.2020
3782 Haze 28 1013 69 6437 4.1 60 22:55 26.01.2020
3783 Haze 28 1013 69 6437 4.1 60 22:37 26.01.2020
3784 Haze 28 1013 69 6437 4.1 60 22:18 26.01.2020
3785 Haze 28 1013 65 6437 4.1 50 21:55 26.01.2020
3786 Haze 28 1013 65 6437 4.1 50 21:37 26.01.2020
3787 Haze 28 1013 65 6437 4.1 50 21:19 26.01.2020
3788 Haze 28 1014 61 6437 1 360 20:55 26.01.2020
3789 Haze 28 1014 61 6437 1 360 20:36 26.01.2020
3790 Haze 28 1014 61 6437 1 360 20:18 26.01.2020
3791 Clouds 28 1015 65 8047 1.73 108 19:56 26.01.2020
3792 Clouds 27 1015 65 8047 1.73 108 19:36 26.01.2020
3793 Clouds 27 1015 65 8047 1.73 108 19:18 26.01.2020
3794 Haze 27 1016 69 6437 1.5 80 18:41 26.01.2020
3795 Haze 27 1016 69 6437 1.5 80 18:22 26.01.2020
3796 Haze 26 1017 78 6437 1.73 108 17:58 26.01.2020
3797 Haze 26 1017 78 6437 1.73 108 17:39 26.01.2020
3798 Haze 26 1017 78 6437 1.44 245 17:19 26.01.2020
3799 Haze 25 1016 88 6437 1.44 245 16:58 26.01.2020
3800 Haze 25 1016 88 6437 1.44 245 16:39 26.01.2020
3801 Haze 25 1016 88 6437 1.44 245 16:39 26.01.2020
3802 Haze 24 1016 88 6437 1.44 245 16:20 26.01.2020
3803 Clouds 24 1015 78 0 0.45 109 15:57 26.01.2020
3804 Clouds 23 1015 80 0 0.89 109 15:39 26.01.2020
3805 Clouds 23 1014 82 0 0.89 109 15:18 26.01.2020
3806 Clouds 22 1014 82 0 1.44 245 14:40 26.01.2020
3807 Clouds 22 1014 82 0 1.96 231 14:20 26.01.2020
3808 Clouds 22 1013 82 0 0.45 109 13:43 26.01.2020
3809 Clouds 22 1013 82 0 1.96 231 13:21 26.01.2020
3810 Clear 22 1013 82 0 0.45 109 12:58 26.01.2020
3811 Clear 22 1013 82 0 2.16 241 12:40 26.01.2020
3812 Clear 22 1013 82 0 2.16 241 12:21 26.01.2020
3813 Clear 22 1013 82 0 2.16 241 11:57 26.01.2020
3814 Clear 22 1013 82 0 2.16 241 11:39 26.01.2020
3815 Rain 22 1013 82 0 1.7 226 11:18 26.01.2020
3816 Rain 22 1013 82 0 1.7 226 10:58 26.01.2020
3817 Rain 22 1013 82 0 1.7 226 10:38 26.01.2020
3818 Rain 22 1013 82 0 0.45 109 10:20 26.01.2020
3819 Rain 22 1013 82 0 1.7 226 09:57 26.01.2020
3820 Rain 22 1013 82 0 1.7 226 09:39 26.01.2020
3821 Rain 21 1015 95 0 1.7 226 09:20 26.01.2020
3822 Rain 21 1015 95 0 1.7 226 08:43 26.01.2020
3823 Clear 21 1015 95 0 1.32 251 08:22 26.01.2020
3824 Clear 22 1016 93 0 1.19 166 07:56 26.01.2020
3825 Clear 22 1016 93 0 1.19 166 07:38 26.01.2020
3826 Clear 21 1017 94 9656 1.19 166 07:19 26.01.2020
3827 Clear 21 1017 94 9656 1.19 166 06:29 26.01.2020
3828 Clear 22 1015 80 0 1.19 166 05:30 26.01.2020
3829 Clouds 22 1017 100 11265 2.99 85 04:44 26.01.2020
3830 Clear 24 1015 83 11265 1 120 02:38 26.01.2020
3831 Clouds 24 1015 83 11265 2.6 90 01:46 26.01.2020
3832 Clouds 24 1015 83 11265 2.6 90 01:23 26.01.2020
3833 Clear 25 1015 73 11265 2.6 80 00:44 26.01.2020
3834 Clear 25 1015 73 11265 2.6 80 00:26 26.01.2020
3835 Clear 26 1013 65 0 3.13 80 23:40 25.01.2020
3836 Clear 26 1013 65 0 3.13 85 23:21 25.01.2020
3837 Clear 26 1013 64 0 4.02 94 22:56 25.01.2020
3838 Clear 26 1013 64 0 4.02 94 22:56 25.01.2020
3839 Clear 26 1013 62 0 4.47 78 22:37 25.01.2020
3840 Clear 26 1013 62 0 4.47 78 22:37 25.01.2020
3841 Clear 26 1013 61 0 3.58 88 22:18 25.01.2020
3842 Clear 26 1013 58 0 4.47 107 21:55 25.01.2020
3843 Clear 27 1014 58 0 4.02 88 21:37 25.01.2020
3844 Clear 24 1014 75 0 3.92 88 21:19 25.01.2020
3845 Clear 27 1015 53 0 3.58 100 20:43 25.01.2020
3846 Clear 24 1014 75 0 3.92 88 20:24 25.01.2020
3847 Rain 27 1016 57 0 3.58 121 19:48 25.01.2020
3848 Rain 27 1017 59 0 3.13 86 19:20 25.01.2020
3849 Clouds 24 1018 72 0 2.66 98 19:20 25.01.2020
3850 Clouds 26 1018 65 0 2.24 114 18:59 25.01.2020
3851 Clear 26 1017 62 0 2.24 113 18:41 25.01.2020
3852 Clouds 26 1018 63 0 1.79 112 18:20 25.01.2020
3853 Clouds 26 1018 65 0 2.24 114 17:54 25.01.2020
3854 Clouds 26 1018 65 0 2.24 114 17:36 25.01.2020
3855 Clear 24 1018 68 0 0.45 132 17:18 25.01.2020
3856 Clear 24 1018 71 0 0.89 191 16:42 25.01.2020
3857 Clear 24 1018 73 0 0.89 230 16:22 25.01.2020
3858 Clear 23 1018 75 0 0.45 284 15:56 25.01.2020
3859 Clear 21 1017 82 0 0.46 301 15:37 25.01.2020
3860 Clear 19 1017 84 0 1.34 288 15:19 25.01.2020
3861 Clear 19 1017 83 0 0.46 301 14:41 25.01.2020
3862 Clouds 18 1016 83 0 0.45 288 14:19 25.01.2020
3863 Clouds 18 1016 82 0 0.45 288 13:44 25.01.2020
3864 Clear 18 1016 82 0 0.45 288 13:25 25.01.2020
3865 Clear 18 1016 82 0 0.9 287 12:50 25.01.2020
3866 Clear 19 1016 81 0 0.9 287 12:30 25.01.2020
3867 Clear 20 1016 81 0 0.9 287 11:55 25.01.2020
3868 Clear 20 1016 81 0 0.9 287 11:36 25.01.2020
3869 Clear 20 1016 81 0 1.85 302 11:18 25.01.2020
3870 Clear 20 1016 81 0 1.85 302 10:41 25.01.2020
3871 Clear 20 1016 81 0 1.85 302 10:21 25.01.2020
3872 Clear 20 1016 81 0 0.45 288 09:57 25.01.2020
3873 Clear 20 1016 82 0 0.89 288 09:37 25.01.2020
3874 Clear 20 1016 82 0 0.89 288 09:18 25.01.2020
3875 Clear 20 1017 82 0 0.89 288 08:42 25.01.2020
3876 Rain 20 1017 81 0 0.98 305 07:53 25.01.2020
3877 Rain 20 1017 81 0 0.98 305 07:53 25.01.2020
3878 Clouds 21 1019 94 11265 0.98 305 06:58 25.01.2020
3879 Clouds 21 1019 94 11265 0.98 305 06:31 25.01.2020
3880 Clouds 21 1020 94 11265 0.98 305 05:50 25.01.2020
3881 Clouds 21 1020 94 11265 0.98 305 05:30 25.01.2020
3882 Rain 22 1019 88 9656 2.1 340 03:55 25.01.2020
3883 Rain 23 1019 88 9656 2.1 340 03:34 25.01.2020
3884 Clouds 24 1018 83 11265 4.1 50 02:24 25.01.2020
3885 Clouds 24 1017 78 8047 2.6 60 01:53 25.01.2020
3886 Clouds 24 1017 78 9656 4.1 50 00:52 25.01.2020
3887 Clouds 24 1017 78 9656 4.1 50 00:26 25.01.2020
3888 Clouds 24 1017 78 9656 4.1 50 00:26 25.01.2020
3889 Clouds 25 1017 69 8047 4.1 60 23:59 24.01.2020
3890 Clouds 25 1017 69 8047 4.1 60 23:59 24.01.2020
3891 Clouds 25 1017 69 8047 4.1 60 23:41 24.01.2020
3892 Clouds 25 1017 69 8047 4.1 60 23:41 24.01.2020
3893 Clouds 25 1017 69 8047 4.1 60 23:23 24.01.2020
3894 Clouds 25 1017 73 8047 4.1 80 22:46 24.01.2020
3895 Clouds 25 1017 73 8047 4.1 80 22:46 24.01.2020
3896 Clouds 24 1017 73 8047 4.1 80 22:25 24.01.2020
3897 Clouds 25 1018 69 8047 3.6 10 21:56 24.01.2020
3898 Clouds 25 1018 69 8047 3.6 10 21:38 24.01.2020
3899 Clouds 25 1018 69 8047 3.6 10 21:18 24.01.2020
3900 Clouds 25 1019 78 8047 4.1 30 20:42 24.01.2020
3901 Clouds 24 1019 78 8047 4.1 30 20:21 24.01.2020
3902 Clouds 25 1019 73 8047 4.1 10 19:57 24.01.2020
3903 Clouds 25 1019 73 8047 4.1 10 19:39 24.01.2020
3904 Clouds 25 1019 73 8047 4.1 10 19:21 24.01.2020
3905 Clouds 25 1020 78 8047 4.6 340 18:43 24.01.2020
3906 Clouds 24 1020 78 8047 4.6 340 18:24 24.01.2020
3907 Mist 23 1020 88 6437 2.1 360 17:56 24.01.2020
3908 Mist 23 1020 88 6437 2.1 360 17:38 24.01.2020
3909 Mist 23 1020 88 6437 2.1 360 17:18 24.01.2020
3910 Mist 23 1019 88 6437 1 340 16:39 24.01.2020
3911 Mist 22 1019 88 6437 1 340 16:20 24.01.2020
3912 Mist 22 1017 88 8047 1.85 310 15:43 24.01.2020
3913 Mist 21 1017 88 8047 1.85 310 15:23 24.01.2020
3914 Mist 20 1016 94 9656 1.85 310 14:58 24.01.2020
3915 Mist 20 1016 94 9656 1.85 310 14:40 24.01.2020
3916 Mist 20 1016 94 9656 1.91 318 14:21 24.01.2020
3917 Clouds 20 1016 94 9656 1.91 318 13:43 24.01.2020
3918 Clouds 20 1016 94 9656 1.91 318 13:23 24.01.2020
3919 Rain 20 1014 80 0 0.45 329 12:44 24.01.2020
3920 Rain 20 1013 81 0 1.59 325 12:22 24.01.2020
3921 Rain 21 1013 81 0 0.89 329 11:57 24.01.2020
3922 Rain 21 1013 81 0 0.45 329 11:38 24.01.2020
3923 Rain 21 1013 81 0 0.45 329 11:18 24.01.2020
3924 Rain 21 1013 81 0 0.45 329 11:18 24.01.2020
3925 Rain 21 1013 81 0 0.45 329 10:41 24.01.2020
3926 Rain 21 1013 81 0 0.89 329 10:20 24.01.2020
3927 Rain 21 1013 81 0 2 296 09:42 24.01.2020
3928 Rain 21 1013 81 0 2 296 09:42 24.01.2020
3929 Rain 21 1014 81 0 1.34 329 09:24 24.01.2020
3930 Rain 21 1014 81 0 1.34 329 08:59 24.01.2020
3931 Rain 21 1014 81 0 2 296 08:38 24.01.2020
3932 Rain 21 1014 80 0 0.89 329 08:18 24.01.2020
3933 Rain 22 1014 80 0 1.19 51 07:43 24.01.2020
3934 Rain 22 1014 80 0 1.19 51 07:21 24.01.2020
3935 Clouds 22 1016 88 11265 1.19 51 06:43 24.01.2020
3936 Clouds 22 1016 88 11265 1.19 51 06:43 24.01.2020
3937 Clouds 22 1016 88 11265 1.19 51 06:23 24.01.2020
3938 Clouds 22 1017 88 11265 3.27 46 05:21 24.01.2020
3939 Clouds 23 1015 83 11265 3.27 46 03:29 24.01.2020
3940 Clouds 23 1014 83 11265 1.5 50 02:39 24.01.2020
3941 Clouds 23 1014 83 11265 1.5 50 02:19 24.01.2020
3942 Clouds 23 1013 83 11265 2.6 60 01:38 24.01.2020
3943 Clouds 24 1012 69 11265 2.1 80 00:42 24.01.2020
3944 Clouds 25 1012 69 11265 2.1 80 00:19 24.01.2020
3945 Clouds 25 1012 69 11265 3.1 100 23:41 23.01.2020
3946 Clouds 25 1012 69 11265 3.1 100 23:21 23.01.2020
3947 Clouds 25 1012 61 11265 2.6 80 22:58 23.01.2020
3948 Clouds 26 1012 61 11265 2.6 80 22:37 23.01.2020
3949 Clouds 26 1012 61 11265 2.6 80 22:18 23.01.2020
3950 Clouds 26 1012 61 11265 1 130 21:55 23.01.2020
3951 Clouds 26 1012 61 11265 1 130 21:37 23.01.2020
3952 Clouds 26 1012 61 11265 1 130 21:18 23.01.2020
3953 Clouds 25 1013 65 11265 1 100 20:41 23.01.2020
3954 Clouds 26 1013 65 11265 1 100 20:22 23.01.2020
3955 Clouds 26 1014 57 9656 1 160 19:57 23.01.2020
3956 Clouds 26 1014 57 9656 1 160 19:39 23.01.2020
3957 Clouds 26 1014 57 9656 1 160 19:39 23.01.2020
3958 Clouds 26 1014 57 9656 1 160 19:21 23.01.2020
3959 Clouds 25 1014 65 9656 2.07 137 18:56 23.01.2020
3960 Clouds 25 1014 65 9656 2.07 137 18:38 23.01.2020
3961 Clouds 25 1014 65 9656 2.07 137 18:19 23.01.2020
3962 Clouds 24 1015 78 9656 1 230 17:45 23.01.2020
3963 Clouds 23 1015 78 9656 1 230 17:21 23.01.2020
3964 Clouds 22 1015 94 9656 3.37 221 16:59 23.01.2020
3965 Clouds 21 1015 94 9656 3.37 221 16:39 23.01.2020
3966 Clouds 21 1015 94 9656 3.37 221 16:19 23.01.2020
3967 Clouds 20 1014 88 9656 3.37 221 15:58 23.01.2020
3968 Clouds 20 1014 88 9656 3.37 221 15:38 23.01.2020
3969 Clouds 20 1014 88 9656 3.37 221 15:19 23.01.2020
3970 Clouds 20 1014 93 8047 3.37 221 14:58 23.01.2020
3971 Clouds 19 1014 93 8047 3.37 221 14:40 23.01.2020
3972 Clouds 19 1014 93 8047 1.36 255 14:21 23.01.2020
3973 Clouds 19 1013 93 9656 1.36 255 13:46 23.01.2020
3974 Clouds 19 1013 93 9656 1.53 216 13:21 23.01.2020
3975 Clear 19 1011 82 0 1.47 229 12:57 23.01.2020
3976 Clear 19 1011 82 0 1.53 216 12:57 23.01.2020
3977 Clear 19 1011 82 0 1.47 229 12:39 23.01.2020
3978 Clear 19 1011 82 0 1.53 216 12:20 23.01.2020
3979 Clear 19 1011 82 0 1.53 216 11:45 23.01.2020
3980 Clear 19 1011 83 0 1.47 229 11:25 23.01.2020
3981 Clear 19 1011 82 0 1.51 185 10:59 23.01.2020
3982 Clear 19 1011 82 0 1.51 185 10:40 23.01.2020
3983 Clear 19 1011 83 0 0.82 230 10:19 23.01.2020
3984 Clear 18 1011 83 0 0.82 230 09:41 23.01.2020
3985 Clear 18 1011 83 0 1.51 185 09:22 23.01.2020
3986 Clear 17 1012 82 0 0.82 230 08:56 23.01.2020
3987 Clear 17 1012 82 0 0.82 230 08:38 23.01.2020
3988 Clear 18 1012 82 0 0.89 192 08:19 23.01.2020
3989 Clear 18 1013 82 0 3 166 07:39 23.01.2020
3990 Clear 18 1013 81 0 0.45 192 07:18 23.01.2020
3991 Clear 18 1015 88 11265 1.5 190 06:44 23.01.2020
3992 Clear 19 1015 88 11265 1.5 190 06:18 23.01.2020
3993 Clear 20 1015 82 11265 1 170 04:25 23.01.2020
3994 Clear 20 1015 82 11265 3.6 116 03:47 23.01.2020
3995 Clouds 22 1014 78 11265 5.07 94 01:55 23.01.2020
3996 Clouds 23 1013 73 11265 2.1 110 00:46 23.01.2020
3997 Clouds 23 1013 73 11265 2.1 110 00:24 23.01.2020
3998 Clouds 24 1013 64 11265 2.6 180 23:46 22.01.2020
3999 Clouds 24 1013 64 11265 2.6 180 23:28 22.01.2020
4000 Clouds 24 1014 64 11265 4.6 170 22:55 22.01.2020
4001 Clouds 24 1014 64 11265 4.6 170 22:36 22.01.2020
4002 Clouds 24 1014 64 11265 4.6 170 22:18 22.01.2020
4003 Clouds 25 1015 61 11265 3.6 160 21:38 22.01.2020
4004 Clouds 25 1015 61 11265 3.6 160 21:19 22.01.2020
4005 Clouds 24 1016 64 11265 5.7 170 20:55 22.01.2020
4006 Clouds 24 1016 64 11265 5.7 170 20:36 22.01.2020
4007 Clouds 24 1016 64 11265 5.7 170 20:18 22.01.2020
4008 Clouds 24 1018 64 11265 3.1 160 19:41 22.01.2020
4009 Clouds 24 1018 64 11265 3.1 160 19:21 22.01.2020
4010 Clouds 24 1018 64 11265 3.1 160 19:21 22.01.2020
4011 Clouds 23 1019 78 11265 4.6 180 18:59 22.01.2020
4012 Clouds 22 1019 78 11265 4.6 180 18:40 22.01.2020
4013 Clouds 22 1019 78 11265 4.6 180 18:21 22.01.2020
4014 Clouds 21 1020 94 11265 3.1 190 17:59 22.01.2020
4015 Clouds 21 1020 94 11265 3.1 190 17:39 22.01.2020
4016 Clouds 20 1020 94 11265 3.1 190 17:20 22.01.2020
4017 Clouds 20 1021 93 9656 2.6 190 16:56 22.01.2020
4018 Clouds 19 1021 93 9656 2.6 190 16:37 22.01.2020
4019 Clouds 19 1021 93 9656 2.6 190 16:18 22.01.2020
4020 Clouds 18 1020 100 9656 2.6 170 15:42 22.01.2020
4021 Clouds 18 1020 100 9656 2.6 170 15:24 22.01.2020
4022 Clouds 18 1020 100 8047 2.56 190 14:59 22.01.2020
4023 Clouds 17 1020 100 8047 2.56 190 14:38 22.01.2020
4024 Clouds 17 1020 100 8047 1.66 270 14:20 22.01.2020
4025 Clouds 17 1020 100 9656 1.66 270 13:56 22.01.2020
4026 Clouds 17 1020 100 9656 1.66 270 13:37 22.01.2020
4027 Clouds 17 1020 100 9656 0.8 225 13:19 22.01.2020
4028 Rain 18 1018 84 0 0.45 197 12:56 22.01.2020
4029 Rain 18 1018 84 0 0.45 197 12:56 22.01.2020
4030 Rain 18 1018 84 0 0.45 198 12:38 22.01.2020
4031 Rain 18 1019 84 0 0.45 197 12:19 22.01.2020
4032 Rain 18 1019 84 0 0.45 197 11:56 22.01.2020
4033 Rain 18 1019 84 0 1.34 197 11:38 22.01.2020
4034 Rain 18 1019 84 0 0.89 197 11:19 22.01.2020
4035 Rain 18 1020 83 0 0.45 197 10:44 22.01.2020
4036 Rain 18 1020 83 0 0.72 159 10:21 22.01.2020
4037 Rain 18 1020 83 0 0.72 159 09:45 22.01.2020
4038 Rain 18 1021 83 0 0.72 159 09:26 22.01.2020
4039 Rain 18 1021 83 0 0.89 197 08:59 22.01.2020
4040 Rain 19 1022 86 0 0.72 159 08:40 22.01.2020
4041 Rain 19 1024 87 0 1.52 34 08:21 22.01.2020
4042 Rain 19 1024 87 0 1.52 34 07:59 22.01.2020
4043 Rain 19 1024 87 0 1.52 34 07:40 22.01.2020
4044 Rain 19 1024 87 0 1.52 34 07:40 22.01.2020
4045 Rain 18 1023 82 0 0.45 188 07:21 22.01.2020
4046 Rain 18 1025 100 9656 1.52 34 06:31 22.01.2020
4047 Rain 18 1025 100 9656 1.52 34 05:42 22.01.2020
4048 Rain 19 1023 75 0 3.58 109 04:23 22.01.2020
4049 Clouds 20 1024 82 11265 1.5 20 03:26 22.01.2020
4050 Clouds 20 1024 82 11265 2.1 360 02:32 22.01.2020
4051 Clouds 22 1024 73 11265 4.6 40 00:46 22.01.2020
4052 Clouds 22 1024 73 11265 4.6 40 00:27 22.01.2020
4053 Clouds 22 1024 68 11265 5.1 30 23:55 21.01.2020
4054 Clouds 22 1024 68 11265 5.1 30 23:36 21.01.2020
4055 Clouds 22 1024 68 11265 5.1 30 23:18 21.01.2020
4056 Clouds 23 1024 64 11265 5.1 40 22:40 21.01.2020
4057 Clouds 23 1024 64 11265 5.1 40 22:20 21.01.2020
4058 Clouds 23 1024 64 11265 5.1 40 22:20 21.01.2020
4059 Clouds 22 1025 68 11265 4.6 40 21:57 21.01.2020
4060 Clouds 23 1025 68 11265 4.6 40 21:38 21.01.2020
4061 Clouds 22 1025 68 11265 4.6 40 21:20 21.01.2020
4062 Clouds 22 1027 68 11265 2.1 40 20:56 21.01.2020
4063 Clouds 22 1027 68 11265 2.1 40 20:37 21.01.2020
4064 Clouds 22 1027 68 11265 2.1 40 20:18 21.01.2020
4065 Clouds 22 1028 68 8047 2.6 360 19:56 21.01.2020
4066 Clouds 22 1028 68 8047 2.6 360 19:37 21.01.2020
4067 Clouds 22 1028 68 8047 2.6 360 19:19 21.01.2020
4068 Rain 22 1028 68 8047 4.1 10 18:55 21.01.2020
4069 Clouds 21 1028 68 9656 5.7 360 18:37 21.01.2020
4070 Clouds 22 1028 68 9656 5.7 360 18:18 21.01.2020
4071 Clouds 22 1029 73 9656 7.6 345 17:44 21.01.2020
4072 Clouds 21 1029 73 9656 8.19 345 17:20 21.01.2020
4073 Clouds 21 1028 77 8047 8.19 345 16:58 21.01.2020
4074 Clouds 20 1028 77 8047 8.19 345 16:37 21.01.2020
4075 Clouds 20 1028 77 8047 8.19 345 16:18 21.01.2020
4076 Clouds 18 1028 82 8047 8.19 345 15:41 21.01.2020
4077 Clouds 18 1028 82 8047 8.19 345 15:21 21.01.2020
4078 Clouds 18 1027 88 8047 8.19 345 14:58 21.01.2020
4079 Clouds 18 1027 88 8047 8.19 345 14:37 21.01.2020
4080 Clouds 18 1027 88 8047 4.43 327 14:19 21.01.2020
4081 Clouds 18 1026 82 8047 3.1 330 13:39 21.01.2020
4082 Clouds 18 1026 82 8047 3.1 330 13:19 21.01.2020
4083 Clouds 18 1026 82 8047 3.1 330 12:43 21.01.2020
4084 Clouds 18 1025 73 0 3.13 329 12:25 21.01.2020
4085 Clouds 18 1024 75 0 1.34 318 11:57 21.01.2020
4086 Clouds 18 1024 76 0 0.45 279 11:38 21.01.2020
4087 Clouds 18 1024 76 0 0.89 271 11:20 21.01.2020
4088 Clouds 18 1024 74 0 0.89 267 10:44 21.01.2020
4089 Clouds 18 1024 76 0 0.45 236 10:23 21.01.2020
4090 Clouds 18 1024 76 0 0.45 236 09:59 21.01.2020
4091 Clouds 18 1025 77 0 0.45 226 09:40 21.01.2020
4092 Clouds 18 1025 76 0 0.89 226 09:21 21.01.2020
4093 Clouds 18 1025 75 0 0.89 226 08:47 21.01.2020
4094 Clouds 18 1025 74 0 1.34 246 08:27 21.01.2020
4095 Clouds 18 1025 71 0 1.79 306 07:56 21.01.2020
4096 Clouds 19 1026 69 0 2.24 297 07:37 21.01.2020
4097 Clouds 19 1026 69 0 2.24 297 07:19 21.01.2020
4098 Clouds 20 1028 72 11265 7.7 360 06:44 21.01.2020
4099 Clouds 20 1028 72 11265 7.7 360 06:23 21.01.2020
4100 Clouds 20 1028 72 11265 5.1 360 05:41 21.01.2020
4101 Clouds 20 1027 72 11265 5.1 360 04:39 21.01.2020
4102 Clouds 20 1027 72 11265 5.1 360 04:39 21.01.2020
4103 Clouds 20 1026 72 11265 9.3 350 02:54 21.01.2020
4104 Clouds 20 1025 68 11265 10.3 340 01:47 21.01.2020
4105 Clouds 21 1024 68 11265 10.3 360 00:52 21.01.2020
4106 Clouds 21 1024 68 11265 10.3 360 00:29 21.01.2020
4107 Clouds 22 1024 64 11265 10.3 360 23:57 20.01.2020
4108 Clouds 22 1024 64 11265 10.3 360 23:36 20.01.2020
4109 Clouds 22 1024 64 11265 10.3 360 23:36 20.01.2020
4110 Clouds 22 1024 64 11265 10.3 360 23:18 20.01.2020
4111 Clouds 22 1024 60 11265 8.2 360 22:55 20.01.2020
4112 Clouds 23 1024 60 11265 8.2 360 22:36 20.01.2020
4113 Clouds 23 1024 60 11265 8.2 360 22:18 20.01.2020
4114 Clouds 23 1025 60 11265 7.2 360 21:55 20.01.2020
4115 Clouds 23 1025 60 11265 7.2 360 21:36 20.01.2020
4116 Clouds 23 1025 60 11265 7.2 360 21:18 20.01.2020
4117 Clouds 23 1025 60 8047 6.2 360 20:43 20.01.2020
4118 Clouds 23 1025 60 8047 6.2 360 20:20 20.01.2020
4119 Clouds 23 1026 68 8047 2.6 350 19:59 20.01.2020
4120 Clouds 23 1026 68 8047 2.6 350 19:59 20.01.2020
4121 Clouds 23 1026 68 8047 2.6 350 19:41 20.01.2020
4122 Clouds 22 1026 68 8047 2.6 350 19:19 20.01.2020
4123 Clouds 22 1026 77 8047 3.6 350 18:56 20.01.2020
4124 Clouds 22 1026 77 8047 3.6 350 18:38 20.01.2020
4125 Clouds 22 1026 77 8047 3.6 350 18:19 20.01.2020
4126 Clouds 22 1026 77 8047 3.6 350 18:19 20.01.2020
4127 Clouds 22 1026 78 8047 2.6 360 17:39 20.01.2020
4128 Clouds 22 1026 78 8047 2.6 360 17:19 20.01.2020
4129 Clouds 21 1025 73 8047 4.1 350 16:47 20.01.2020
4130 Clouds 21 1025 73 8047 4.1 350 16:47 20.01.2020
4131 Clouds 21 1025 73 8047 4.1 350 16:26 20.01.2020
4132 Clouds 22 1024 73 8047 6.2 350 15:59 20.01.2020
4133 Clouds 22 1024 73 8047 6.2 350 15:40 20.01.2020
4134 Clouds 22 1024 73 8047 6.2 350 15:22 20.01.2020
4135 Clouds 21 1024 83 8047 4.1 10 14:58 20.01.2020
4136 Clouds 21 1024 83 8047 4.1 10 14:39 20.01.2020
4137 Clouds 21 1024 83 8047 4.1 10 14:20 20.01.2020
4138 Clouds 21 1023 77 8047 4.1 350 13:44 20.01.2020
4139 Clouds 21 1023 77 8047 4.1 350 13:24 20.01.2020
4140 Clouds 21 1023 77 8047 4.1 350 12:58 20.01.2020
4141 Clouds 21 1021 72 0 5.36 355 12:40 20.01.2020
4142 Clouds 21 1021 73 0 4.92 355 12:21 20.01.2020
4143 Clouds 21 1021 73 0 5.36 350 11:55 20.01.2020
4144 Clouds 21 1021 74 0 4.92 14 11:36 20.01.2020
4145 Clouds 21 1021 74 0 4.02 360 11:18 20.01.2020
4146 Clouds 21 1021 74 0 5.36 360 10:41 20.01.2020
4147 Clouds 22 1021 73 0 4.92 348 10:20 20.01.2020
4148 Clouds 22 1021 71 0 3.58 351 09:41 20.01.2020
4149 Clouds 22 1021 71 0 4.47 355 09:23 20.01.2020
4150 Clouds 22 1021 70 0 4.02 9 08:55 20.01.2020
4151 Clouds 22 1021 70 0 4.92 355 08:31 20.01.2020
4152 Clouds 22 1021 69 0 4.47 9 07:55 20.01.2020
4153 Clouds 22 1021 67 0 4.02 5 07:37 20.01.2020
4154 Clouds 22 1021 68 0 4.92 355 07:19 20.01.2020
4155 Clouds 22 1023 78 11265 3.6 330 06:36 20.01.2020
4156 Clouds 22 1024 83 11265 5.1 350 05:56 20.01.2020
4157 Clouds 22 1024 83 11265 5.1 350 05:37 20.01.2020
4158 Clouds 22 1024 83 11265 5.1 350 05:18 20.01.2020
4159 Clouds 21 1022 94 11265 7.7 350 03:47 20.01.2020
4160 Clouds 24 1020 83 11265 6.2 360 01:58 20.01.2020
4161 Clouds 23 1020 83 11265 6.2 360 01:39 20.01.2020
4162 Clouds 24 1020 83 11265 7.2 350 00:55 20.01.2020
4163 Clouds 24 1020 83 11265 7.2 350 00:28 20.01.2020
4164 Clouds 25 1019 78 11265 6.7 350 23:56 19.01.2020
4165 Clouds 25 1019 78 11265 6.7 350 23:37 19.01.2020
4166 Clouds 25 1019 78 11265 6.7 350 23:18 19.01.2020
4167 Clouds 25 1019 83 11265 6.2 10 22:55 19.01.2020
4168 Clouds 26 1019 83 11265 6.2 10 22:36 19.01.2020
4169 Clouds 25 1019 83 11265 6.2 10 22:18 19.01.2020
4170 Clouds 26 1019 74 11265 7.2 10 21:55 19.01.2020
4171 Clouds 26 1019 74 11265 7.2 10 21:55 19.01.2020
4172 Clouds 27 1019 74 11265 7.2 10 21:37 19.01.2020
4173 Clouds 27 1019 74 11265 7.2 10 21:19 19.01.2020
4174 Clouds 27 1021 74 11265 3.1 360 20:55 19.01.2020
4175 Clouds 27 1021 74 11265 3.1 360 20:55 19.01.2020
4176 Clouds 27 1021 74 11265 3.1 360 20:37 19.01.2020
4177 Clouds 27 1021 74 11265 3.1 360 20:37 19.01.2020
4178 Clouds 27 1021 74 11265 3.1 360 20:18 19.01.2020
4179 Clouds 27 1021 78 11265 5.1 30 19:54 19.01.2020
4180 Clouds 26 1021 78 11265 5.1 30 19:36 19.01.2020
4181 Clouds 27 1021 78 11265 5.1 30 19:18 19.01.2020
4182 Clouds 26 1022 74 9656 6.2 10 18:54 19.01.2020
4183 Clouds 26 1022 74 9656 6.2 10 18:36 19.01.2020
4184 Clouds 26 1022 74 9656 6.2 10 18:18 19.01.2020
4185 Clouds 26 1022 78 9656 5.1 10 17:56 19.01.2020
4186 Clouds 26 1022 78 9656 5.1 10 17:38 19.01.2020
4187 Clouds 26 1022 78 9656 5.1 10 17:18 19.01.2020
4188 Clouds 25 1021 83 9656 4.6 20 16:54 19.01.2020
4189 Clouds 25 1021 83 9656 4.6 20 16:54 19.01.2020
4190 Clouds 25 1021 83 9656 4.6 20 16:36 19.01.2020
4191 Clouds 25 1021 83 9656 4.6 20 16:18 19.01.2020
4192 Clouds 24 1020 83 9656 3.6 350 15:41 19.01.2020
4193 Clouds 24 1020 83 9656 3.6 350 15:22 19.01.2020
4194 Clouds 23 1019 88 8047 4.1 350 14:59 19.01.2020
4195 Clouds 23 1019 88 8047 4.1 350 14:40 19.01.2020
4196 Clouds 23 1019 88 8047 4.1 350 14:19 19.01.2020
4197 Clouds 23 1019 88 9656 2.1 340 13:58 19.01.2020
4198 Clouds 23 1019 88 9656 2.1 340 13:39 19.01.2020
4199 Clouds 23 1019 88 9656 2.1 340 13:39 19.01.2020
4200 Clouds 23 1019 88 9656 2.1 340 13:20 19.01.2020
4201 Clouds 23 1019 88 9656 2.1 340 12:56 19.01.2020
4202 Rain 23 1017 80 0 3.13 5 12:37 19.01.2020
4203 Rain 23 1016 80 0 2.68 15 12:19 19.01.2020
4204 Rain 23 1016 81 0 3.13 355 11:56 19.01.2020
4205 Rain 23 1016 81 0 4.47 5 11:37 19.01.2020
4206 Rain 23 1016 82 0 4.47 355 11:18 19.01.2020
4207 Rain 23 1016 82 0 3.58 349 10:39 19.01.2020
4208 Rain 23 1017 82 0 2.24 350 10:19 19.01.2020
4209 Rain 23 1017 82 0 2.24 347 09:56 19.01.2020
4210 Rain 23 1017 82 0 2.68 337 09:37 19.01.2020
4211 Rain 23 1017 82 0 2.24 355 09:19 19.01.2020
4212 Rain 23 1017 82 0 2.24 355 08:54 19.01.2020
4213 Rain 23 1017 83 0 2.24 5 08:30 19.01.2020
4214 Rain 23 1017 83 0 1.79 355 07:46 19.01.2020
4215 Rain 23 1018 83 0 1.79 355 07:27 19.01.2020
4216 Clouds 22 1019 100 11265 2.6 360 06:54 19.01.2020
4217 Clouds 22 1019 100 11265 2.6 360 06:21 19.01.2020
4218 Clouds 22 1019 100 11265 2.6 340 03:51 19.01.2020
4219 Clouds 23 1018 94 11265 4.1 350 02:28 19.01.2020
4220 Clouds 24 1018 88 9656 3.6 360 01:38 19.01.2020
4221 Clouds 24 1018 88 9656 3.6 360 01:18 19.01.2020
4222 Clouds 25 1017 83 11265 2.6 360 00:41 19.01.2020
4223 Clouds 25 1017 83 11265 4.6 20 00:19 19.01.2020
4224 Clouds 25 1017 83 11265 4.6 20 23:41 18.01.2020
4225 Clouds 25 1017 83 11265 4.6 20 23:23 18.01.2020
4226 Clouds 25 1017 83 11265 4.6 20 23:23 18.01.2020
4227 Clouds 25 1017 88 11265 2.6 360 22:56 18.01.2020
4228 Clouds 25 1017 88 11265 2.6 360 22:38 18.01.2020
4229 Clouds 25 1017 88 11265 2.6 360 22:20 18.01.2020
4230 Clouds 25 1017 83 11265 4.1 350 21:57 18.01.2020
4231 Clouds 25 1017 83 11265 4.1 350 21:38 18.01.2020
4232 Clouds 25 1017 83 11265 4.1 350 21:20 18.01.2020
4233 Clouds 25 1018 83 9656 3.1 360 20:44 18.01.2020
4234 Clouds 25 1018 83 9656 3.1 360 20:21 18.01.2020
4235 Clouds 25 1019 88 9656 3.16 348 19:59 18.01.2020
4236 Clouds 25 1019 88 9656 3.16 348 19:59 18.01.2020
4237 Clouds 25 1019 88 9656 3.16 348 19:41 18.01.2020
4238 Clouds 24 1019 88 9656 3.16 348 19:22 18.01.2020
4239 Rain 23 1019 88 3219 2.1 330 18:42 18.01.2020
4240 Rain 23 1019 88 3219 2.1 330 18:22 18.01.2020
4241 Rain 23 1020 88 8047 3.16 348 17:56 18.01.2020
4242 Rain 23 1020 88 8047 3.16 348 17:37 18.01.2020
4243 Rain 23 1020 88 8047 3.71 314 17:19 18.01.2020
4244 Rain 23 1019 94 9656 3.71 314 16:55 18.01.2020
4245 Rain 23 1019 94 9656 3.71 314 16:36 18.01.2020
4246 Clouds 22 1019 94 9656 3.71 314 16:18 18.01.2020
4247 Rain 21 1019 94 8047 3.71 314 15:41 18.01.2020
4248 Rain 20 1019 94 6437 3.71 314 15:23 18.01.2020
4249 Rain 21 1018 88 8047 3.71 314 14:55 18.01.2020
4250 Rain 21 1018 88 8047 3.71 314 14:37 18.01.2020
4251 Rain 21 1018 88 8047 2.59 320 14:18 18.01.2020
4252 Clouds 21 1018 88 9656 2.59 320 13:43 18.01.2020
4253 Clouds 21 1018 88 9656 2.59 320 13:24 18.01.2020
4254 Clouds 21 1018 88 9656 2.78 308 12:57 18.01.2020
4255 Rain 21 1016 79 0 0.45 304 12:38 18.01.2020
4256 Rain 21 1016 79 0 0.45 304 12:38 18.01.2020
4257 Rain 21 1015 82 0 0.45 304 12:19 18.01.2020
4258 Rain 21 1015 81 0 0.45 304 11:44 18.01.2020
4259 Rain 22 1019 90 0 3.14 300 11:21 18.01.2020
4260 Rain 22 1019 90 0 3.14 300 10:56 18.01.2020
4261 Rain 21 1015 81 0 3.14 300 10:38 18.01.2020
4262 Rain 21 1015 81 0 3.14 300 10:38 18.01.2020
4263 Rain 21 1015 81 0 0.45 281 10:19 18.01.2020
4264 Rain 21 1016 81 0 0.45 281 09:42 18.01.2020
4265 Rain 21 1016 80 0 3.14 300 09:24 18.01.2020
4266 Rain 21 1016 80 0 3.14 300 08:55 18.01.2020
4267 Rain 21 1016 80 0 0.45 281 08:37 18.01.2020
4268 Clouds 22 1016 80 0 0.89 281 08:18 18.01.2020
4269 Clouds 22 1016 80 0 0.89 281 08:18 18.01.2020
4270 Clouds 22 1017 80 0 1.34 281 07:44 18.01.2020
4271 Clouds 22 1017 80 0 1.79 281 07:25 18.01.2020
4272 Clouds 23 1019 94 11265 2.39 341 06:46 18.01.2020
4273 Clouds 23 1019 88 11265 2.39 341 05:58 18.01.2020
4274 Clouds 23 1019 88 11265 1.5 20 04:35 18.01.2020
4275 Clouds 23 1018 88 11265 3.47 337 02:53 18.01.2020
4276 Clouds 24 1018 83 11265 3.74 352 01:51 18.01.2020
4277 Clouds 24 1018 83 11265 3.88 358 01:20 18.01.2020
4278 Clouds 25 1017 73 11265 3.1 360 00:36 18.01.2020
4279 Clouds 25 1017 73 11265 3.1 360 00:18 18.01.2020
4280 Clouds 25 1017 73 11265 3.6 350 23:40 17.01.2020
4281 Clouds 25 1017 73 11265 3.6 350 23:19 17.01.2020
4282 Clouds 25 1018 69 11265 3.6 30 22:44 17.01.2020
4283 Clouds 25 1018 69 11265 3.6 30 22:21 17.01.2020
4284 Clouds 25 1019 69 11265 2.6 10 21:58 17.01.2020
4285 Clouds 25 1019 69 11265 2.6 10 21:40 17.01.2020
4286 Clouds 25 1019 69 11265 2.6 10 21:22 17.01.2020
4287 Clouds 26 1020 69 11265 3.1 20 20:55 17.01.2020
4288 Clouds 26 1020 69 11265 3.1 20 20:37 17.01.2020
4289 Clouds 26 1020 69 11265 3.1 20 20:18 17.01.2020
4290 Clouds 26 1020 69 11265 3.6 350 19:54 17.01.2020
4291 Clouds 26 1020 69 11265 3.6 350 19:36 17.01.2020
4292 Clouds 26 1020 69 11265 3.6 350 19:18 17.01.2020
4293 Clouds 26 1021 65 11265 4.1 360 18:44 17.01.2020
4294 Clouds 26 1021 65 11265 4.1 360 18:26 17.01.2020
4295 Clouds 26 1021 69 11265 3.1 20 17:56 17.01.2020
4296 Clouds 26 1021 69 11265 3.1 20 17:38 17.01.2020
4297 Clouds 26 1021 69 11265 3.1 20 17:19 17.01.2020
4298 Clouds 24 1021 73 11265 1 320 16:42 17.01.2020
4299 Clouds 24 1021 73 11265 1 320 16:20 17.01.2020
4300 Mist 21 1020 82 11265 2.6 300 15:48 17.01.2020
4301 Mist 21 1020 82 11265 2.6 300 15:27 17.01.2020
4302 Mist 20 1020 82 11265 2.6 330 14:56 17.01.2020
4303 Mist 19 1020 82 11265 2.6 330 14:38 17.01.2020
4304 Mist 19 1020 82 11265 2.6 330 14:19 17.01.2020
4305 Clouds 19 1020 82 9656 1.5 330 13:39 17.01.2020
4306 Clouds 18 1020 82 9656 1.5 330 13:21 17.01.2020
4307 Clouds 18 1020 82 9656 1.5 330 13:21 17.01.2020
4308 Clouds 18 1018 81 0 2.48 354 12:45 17.01.2020
4309 Clouds 18 1018 81 0 2.48 354 12:23 17.01.2020
4310 Clouds 18 1018 82 0 2.48 354 11:41 17.01.2020
4311 Clouds 18 1017 82 0 0.45 58 11:19 17.01.2020
4312 Clouds 18 1017 82 0 2.38 359 10:54 17.01.2020
4313 Clouds 19 1017 82 0 2.38 359 10:36 17.01.2020
4314 Clouds 19 1017 82 0 2.38 359 10:18 17.01.2020
4315 Clouds 19 1018 82 0 2.38 359 09:41 17.01.2020
4316 Clouds 19 1018 82 0 2.38 359 09:20 17.01.2020
4317 Clouds 20 1018 82 0 2.38 359 08:55 17.01.2020
4318 Clouds 22 1020 88 0 2.38 359 08:36 17.01.2020
4319 Clear 22 1021 88 0 2.45 31 08:18 17.01.2020
4320 Clear 22 1021 88 0 2.45 31 07:42 17.01.2020
4321 Clear 22 1019 82 0 0.89 58 07:24 17.01.2020
4322 Clouds 22 1021 94 11265 2.45 31 06:43 17.01.2020
4323 Clouds 22 1021 94 11265 2.45 31 06:20 17.01.2020
4324 Rain 23 1019 79 0 0.89 58 04:25 17.01.2020
4325 Rain 23 1018 79 0 0.45 58 02:55 17.01.2020
4326 Rain 24 1017 78 0 0.45 58 02:30 17.01.2020
4327 Rain 24 1017 73 0 1.34 60 01:32 17.01.2020
4328 Rain 26 1017 68 0 1.34 60 00:58 17.01.2020
4329 Rain 26 1017 65 0 1.34 63 00:29 17.01.2020
4330 Clouds 27 1018 69 11265 1.5 120 23:54 16.01.2020
4331 Clouds 27 1018 69 11265 1.5 120 23:54 16.01.2020
4332 Clouds 27 1018 69 11265 1.5 120 23:36 16.01.2020
4333 Clouds 27 1018 69 11265 1.5 120 23:18 16.01.2020
4334 Clouds 27 1018 74 11265 1.5 110 22:40 16.01.2020
4335 Clouds 27 1018 74 11265 1.5 110 22:21 16.01.2020
4336 Clouds 27 1019 74 9656 2.1 140 21:56 16.01.2020
4337 Clouds 27 1019 74 9656 2.1 140 21:37 16.01.2020
4338 Clouds 27 1019 74 9656 2.1 140 21:18 16.01.2020
4339 Clouds 26 1019 83 9656 2.6 320 20:56 16.01.2020
4340 Clouds 26 1019 83 9656 2.6 320 20:37 16.01.2020
4341 Clouds 25 1019 83 9656 2.6 320 20:18 16.01.2020
4342 Clouds 25 1020 88 9656 3.67 32 19:54 16.01.2020
4343 Clouds 25 1020 88 9656 3.67 32 19:54 16.01.2020
4344 Clouds 25 1020 88 9656 3.67 32 19:36 16.01.2020
4345 Clouds 25 1020 88 9656 3.67 32 19:18 16.01.2020
4346 Clouds 25 1021 88 9656 2.1 320 18:54 16.01.2020
4347 Clouds 24 1021 88 9656 2.1 320 18:36 16.01.2020
4348 Clouds 24 1021 88 9656 2.1 320 18:18 16.01.2020
4349 Clouds 23 1021 100 8047 3.67 32 17:41 16.01.2020
4350 Clouds 23 1021 100 8047 2.84 325 17:21 16.01.2020
4351 Mist 23 1020 94 4828 2.84 325 16:56 16.01.2020
4352 Rain 22 1020 94 4828 2.84 325 16:37 16.01.2020
4353 Rain 22 1020 94 4828 2.84 325 16:18 16.01.2020
4354 Rain 21 1020 100 1609 1.5 50 15:44 16.01.2020
4355 Rain 21 1020 100 1609 1.5 50 15:21 16.01.2020
4356 Clouds 21 1019 94 9656 2.84 325 14:55 16.01.2020
4357 Clouds 21 1019 94 9656 2.84 325 14:37 16.01.2020
4358 Clouds 21 1019 94 9656 3.28 316 14:18 16.01.2020
4359 Rain 21 1017 82 0 0.89 323 13:43 16.01.2020
4360 Rain 21 1017 82 0 0.89 323 13:24 16.01.2020
4361 Rain 22 1017 81 0 2.74 311 12:46 16.01.2020
4362 Rain 22 1017 81 0 0.89 323 12:28 16.01.2020
4363 Rain 22 1017 81 0 1.34 327 11:56 16.01.2020
4364 Rain 22 1016 81 0 0.89 307 11:37 16.01.2020
4365 Rain 22 1016 81 0 1.34 307 11:19 16.01.2020
4366 Rain 22 1019 94 0 3.02 292 10:39 16.01.2020
4367 Rain 23 1016 82 0 2.24 309 10:20 16.01.2020
4368 Rain 23 1016 82 0 2.68 301 09:57 16.01.2020
4369 Rain 23 1017 82 0 1.34 311 09:38 16.01.2020
4370 Rain 23 1017 83 0 0.89 29 09:19 16.01.2020
4371 Rain 23 1017 83 0 0.89 29 08:51 16.01.2020
4372 Rain 23 1017 83 0 0.89 29 08:30 16.01.2020
4373 Rain 23 1017 83 0 0.89 29 07:58 16.01.2020
4374 Rain 22 1017 82 0 0.45 29 07:38 16.01.2020
4375 Rain 23 1017 82 0 0.89 29 07:19 16.01.2020
4376 Mist 23 1019 100 9656 1 320 06:42 16.01.2020
4377 Clouds 23 1019 94 11265 1 10 05:59 16.01.2020
4378 Clouds 23 1019 94 11265 1 10 05:40 16.01.2020
4379 Clear 24 1018 94 11265 1 30 04:37 16.01.2020
4380 Clear 24 1018 94 11265 1 30 04:37 16.01.2020
4381 Clear 24 1017 88 11265 1.5 90 03:28 16.01.2020
4382 Clear 24 1016 88 11265 1.5 80 02:42 16.01.2020
4383 Clouds 26 1015 78 11265 2.6 100 00:53 16.01.2020
4384 Clouds 26 1015 78 11265 2.6 100 00:24 16.01.2020
4385 Clouds 27 1015 69 11265 3.1 110 23:50 15.01.2020
4386 Clouds 28 1015 69 11265 3.1 110 23:23 15.01.2020
4387 Clouds 28 1015 61 11265 2.1 80 22:58 15.01.2020
4388 Clouds 28 1015 61 11265 2.1 80 22:40 15.01.2020
4389 Clouds 28 1015 61 11265 2.1 80 22:19 15.01.2020
4390 Clouds 28 1015 61 11265 2.1 80 22:19 15.01.2020
4391 Clouds 29 1016 66 9656 3.6 80 21:58 15.01.2020
4392 Clouds 29 1016 66 9656 3.6 80 21:38 15.01.2020
4393 Clouds 29 1016 66 9656 3.6 80 21:20 15.01.2020
4394 Clouds 28 1017 74 9656 2.6 50 20:58 15.01.2020
4395 Clouds 28 1017 74 9656 2.6 50 20:58 15.01.2020
4396 Clouds 28 1017 74 9656 2.6 50 20:40 15.01.2020
4397 Clouds 28 1017 74 9656 2.6 50 20:20 15.01.2020
4398 Clouds 27 1018 83 9656 2.05 3 19:55 15.01.2020
4399 Clouds 27 1018 83 9656 2.05 3 19:37 15.01.2020
4400 Clouds 27 1018 83 9656 2.05 3 19:19 15.01.2020
4401 Clouds 26 1019 83 9656 2.05 3 18:57 15.01.2020
4402 Clouds 26 1019 83 9656 2.05 3 18:38 15.01.2020
4403 Clouds 26 1019 83 9656 2.05 3 18:19 15.01.2020
4404 Clouds 26 1019 88 9656 1.5 180 17:58 15.01.2020
4405 Clouds 26 1019 88 9656 1.5 180 17:38 15.01.2020
4406 Clouds 25 1019 88 9656 1.5 180 17:20 15.01.2020
4407 Mist 24 1019 94 8047 2.1 298 16:41 15.01.2020
4408 Mist 24 1019 94 8047 2.1 298 16:41 15.01.2020
4409 Rain 24 1019 94 8047 2.1 298 16:22 15.01.2020
4410 Rain 23 1018 100 3219 2.1 298 15:59 15.01.2020
4411 Rain 22 1018 100 3219 2.1 298 15:41 15.01.2020
4412 Rain 22 1018 100 3219 2.1 298 15:20 15.01.2020
4413 Rain 22 1018 100 4828 2.6 200 14:44 15.01.2020
4414 Rain 22 1018 100 4828 2.6 200 14:21 15.01.2020
4415 Rain 22 1017 100 9656 2.46 303 13:55 15.01.2020
4416 Clouds 22 1017 100 9656 2.46 303 13:37 15.01.2020
4417 Rain 22 1017 100 9656 3.04 317 13:18 15.01.2020
4418 Rain 22 1017 100 9656 3.04 317 12:41 15.01.2020
4419 Rain 23 1015 83 0 0.45 180 12:20 15.01.2020
4420 Rain 23 1015 82 0 0.45 180 11:59 15.01.2020
4421 Rain 23 1015 82 0 1.79 195 11:38 15.01.2020
4422 Rain 23 1015 81 0 1.34 355 11:19 15.01.2020
4423 Rain 23 1015 81 0 0.45 355 10:46 15.01.2020
4424 Rain 23 1015 81 0 0.89 355 10:28 15.01.2020
4425 Rain 23 1015 80 0 0.45 355 09:54 15.01.2020
4426 Rain 23 1015 81 0 0.89 355 09:36 15.01.2020
4427 Rain 23 1016 81 0 0.89 355 09:18 15.01.2020
4428 Rain 23 1016 80 0 3.25 297 08:41 15.01.2020
4429 Rain 23 1016 80 0 3.25 297 08:41 15.01.2020
4430 Rain 23 1016 81 0 0.45 355 08:23 15.01.2020
4431 Rain 23 1016 81 0 1.19 308 07:53 15.01.2020
4432 Rain 23 1016 81 0 1.19 308 07:32 15.01.2020
4433 Clouds 24 1018 94 11265 1.19 308 06:47 15.01.2020
4434 Clouds 24 1018 94 11265 1.19 308 06:21 15.01.2020
4435 Clouds 24 1018 94 11265 1 50 04:45 15.01.2020
4436 Clear 25 1016 78 11265 1.5 90 02:39 15.01.2020
4437 Clear 25 1016 74 11265 2.6 90 01:28 15.01.2020
4438 Clouds 27 1015 61 11265 2.6 90 00:47 15.01.2020
4439 Clouds 27 1015 61 11265 2.6 90 00:27 15.01.2020
4440 Clouds 28 1016 58 11265 1 80 23:57 14.01.2020
4441 Clouds 28 1016 58 11265 1 80 23:38 14.01.2020
4442 Clouds 29 1016 58 11265 1 80 23:19 14.01.2020
4443 Clouds 29 1016 66 9656 3.1 50 22:41 14.01.2020
4444 Clouds 29 1016 66 9656 3.1 50 22:19 14.01.2020
4445 Clouds 29 1017 66 9656 2.1 50 21:59 14.01.2020
4446 Clouds 29 1017 66 9656 2.1 50 21:40 14.01.2020
4447 Clouds 29 1017 66 9656 2.1 50 21:21 14.01.2020
4448 Clouds 29 1017 66 9656 2.1 50 21:21 14.01.2020
4449 Clouds 29 1019 66 9656 2.1 60 20:59 14.01.2020
4450 Clouds 29 1019 66 9656 2.1 60 20:59 14.01.2020
4451 Clear 28 1016 60 0 3.58 104 20:40 14.01.2020
4452 Clouds 28 1016 61 0 1.79 59 20:20 14.01.2020
4453 Clouds 28 1020 69 9656 2.1 350 19:56 14.01.2020
4454 Clouds 28 1020 69 9656 2.1 350 19:38 14.01.2020
4455 Clouds 28 1020 69 9656 2.1 350 19:18 14.01.2020
4456 Clouds 27 1021 78 9656 1.82 29 18:55 14.01.2020
4457 Clouds 27 1018 66 0 0.89 267 18:37 14.01.2020
4458 Clouds 27 1019 69 0 2.24 281 18:18 14.01.2020
4459 Clouds 25 1021 83 9656 1.82 29 17:38 14.01.2020
4460 Clouds 25 1021 83 9656 2.04 281 17:19 14.01.2020
4461 Mist 24 1020 94 8047 2.04 281 16:55 14.01.2020
4462 Mist 24 1020 94 8047 2.04 281 16:37 14.01.2020
4463 Mist 24 1020 94 8047 2.04 281 16:19 14.01.2020
4464 Rain 23 1019 100 6437 2.04 281 15:42 14.01.2020
4465 Rain 22 1019 100 6437 2.04 281 15:19 14.01.2020
4466 Rain 22 1018 94 8047 2.04 281 14:47 14.01.2020
4467 Clouds 22 1018 94 8047 2.04 281 14:23 14.01.2020
4468 Rain 22 1018 100 6437 1.76 340 13:59 14.01.2020
4469 Rain 22 1018 100 6437 1.76 340 13:40 14.01.2020
4470 Rain 22 1018 100 6437 2.06 329 13:19 14.01.2020
4471 Rain 22 1018 100 6437 2.06 329 12:42 14.01.2020
4472 Rain 22 1016 82 0 1.34 241 12:23 14.01.2020
4473 Rain 22 1016 82 0 1.34 257 11:57 14.01.2020
4474 Rain 22 1016 81 0 0.89 261 11:39 14.01.2020
4475 Rain 23 1016 80 0 1.34 252 11:20 14.01.2020
4476 Rain 23 1016 79 0 1.79 244 10:56 14.01.2020
4477 Rain 23 1017 77 0 2.24 187 10:37 14.01.2020
4478 Rain 23 1016 77 0 1.79 315 10:19 14.01.2020
4479 Rain 23 1016 78 0 1.34 302 09:42 14.01.2020
4480 Rain 23 1017 78 0 1.79 291 09:23 14.01.2020
4481 Rain 23 1017 77 0 2.24 281 08:58 14.01.2020
4482 Rain 23 1017 77 0 0.89 286 08:39 14.01.2020
4483 Rain 23 1017 76 0 1.79 274 08:20 14.01.2020
4484 Rain 23 1018 76 0 1.34 295 07:40 14.01.2020
4485 Clouds 23 1020 88 9656 2.1 330 06:59 14.01.2020
4486 Clouds 23 1020 88 9656 2.1 330 06:59 14.01.2020
4487 Clouds 23 1020 88 9656 2.1 330 06:40 14.01.2020
4488 Clouds 23 1020 88 9656 2.1 340 05:35 14.01.2020
4489 Clouds 23 1020 94 11265 2.6 330 04:23 14.01.2020
4490 Clouds 23 1019 94 11265 1 340 03:43 14.01.2020
4491 Clouds 24 1018 83 11265 1.5 40 02:26 14.01.2020
4492 Clouds 24 1017 83 11265 2.6 60 01:18 14.01.2020
4493 Clouds 26 1017 74 11265 4.1 50 00:39 14.01.2020
4494 Clouds 26 1017 74 11265 4.1 50 00:21 14.01.2020
4495 Clouds 27 1017 69 11265 4.1 50 23:38 13.01.2020
4496 Clouds 27 1017 69 11265 4.1 50 23:18 13.01.2020
4497 Clouds 27 1017 65 11265 3.6 50 22:54 13.01.2020
4498 Clouds 27 1017 65 11265 3.6 50 22:36 13.01.2020
4499 Clouds 27 1017 65 11265 3.6 50 22:18 13.01.2020
4500 Clouds 27 1018 65 11265 3.6 10 21:54 13.01.2020
4501 Clouds 27 1018 65 11265 3.6 10 21:36 13.01.2020
4502 Clouds 27 1018 65 11265 3.6 10 21:18 13.01.2020
4503 Clouds 27 1019 61 9656 2.1 90 20:41 13.01.2020
4504 Clouds 28 1019 61 9656 2.1 90 20:22 13.01.2020
4505 Clouds 28 1019 61 9656 2.1 90 20:22 13.01.2020
4506 Clouds 27 1020 65 9656 1.5 40 19:59 13.01.2020
4507 Clouds 27 1020 65 9656 1.5 40 19:40 13.01.2020
4508 Clouds 27 1020 65 9656 1.5 40 19:20 13.01.2020
4509 Clouds 27 1021 69 8047 2.1 350 18:57 13.01.2020
4510 Clouds 26 1021 69 8047 2.1 350 18:37 13.01.2020
4511 Clouds 26 1021 69 8047 2.1 350 18:19 13.01.2020
4512 Clouds 25 1021 64 6437 2.1 360 17:55 13.01.2020
4513 Clouds 25 1021 64 6437 2.1 360 17:36 13.01.2020
4514 Clouds 25 1021 64 6437 2.1 360 17:18 13.01.2020
4515 Clear 24 1019 60 0 0.89 286 16:40 13.01.2020
4516 Clear 24 1019 60 0 0.89 286 16:40 13.01.2020
4517 Clear 23 1019 61 0 1.34 284 16:21 13.01.2020
4518 Clear 23 1019 61 0 1.34 284 16:21 13.01.2020
4519 Clear 23 1019 62 0 1.34 279 15:55 13.01.2020
4520 Clear 22 1018 68 0 2.43 322 15:36 13.01.2020
4521 Clear 21 1018 74 0 2.43 322 15:18 13.01.2020
4522 Clear 20 1018 75 0 2.43 322 14:40 13.01.2020
4523 Clear 19 1017 76 0 2.43 322 14:22 13.01.2020
4524 Clouds 19 1017 75 0 1.57 306 13:56 13.01.2020
4525 Clouds 19 1017 75 0 1.57 306 13:38 13.01.2020
4526 Clouds 19 1017 72 0 1.76 299 13:20 13.01.2020
4527 Clouds 19 1017 72 0 1.76 299 13:20 13.01.2020
4528 Clouds 20 1016 70 0 0.89 284 12:43 13.01.2020
4529 Clouds 20 1016 71 0 0.89 267 12:23 13.01.2020
4530 Clouds 19 1016 72 0 0.89 267 11:59 13.01.2020
4531 Clouds 19 1016 73 0 1.76 299 11:38 13.01.2020
4532 Clouds 19 1016 73 0 1.76 299 11:38 13.01.2020
4533 Clouds 19 1016 73 0 3.15 295 11:19 13.01.2020
4534 Clouds 19 1016 73 0 0.45 267 10:56 13.01.2020
4535 Clouds 19 1016 74 0 1.34 289 10:38 13.01.2020
4536 Clouds 19 1016 74 0 0.89 291 10:19 13.01.2020
4537 Clouds 19 1016 75 0 1.34 296 09:44 13.01.2020
4538 Clouds 19 1016 76 0 2.24 287 09:26 13.01.2020
4539 Clouds 19 1017 78 0 2.68 274 08:59 13.01.2020
4540 Clouds 19 1017 80 0 2.68 294 08:37 13.01.2020
4541 Clouds 19 1020 88 11265 2.61 343 08:18 13.01.2020
4542 Clouds 19 1020 88 11265 3.22 344 07:44 13.01.2020
4543 Clouds 19 1020 88 11265 3.22 344 07:26 13.01.2020
4544 Clear 19 1020 88 11265 3.22 344 06:39 13.01.2020
4545 Clear 20 1020 83 11265 3.22 344 05:42 13.01.2020
4546 Clear 20 1020 83 11265 4.39 354 05:19 13.01.2020
4547 Clouds 22 1018 78 11265 2.6 10 03:44 13.01.2020
4548 Clouds 23 1018 73 11265 5.7 360 02:51 13.01.2020
4549 Clouds 23 1018 73 11265 5.7 360 02:30 13.01.2020
4550 Clouds 23 1018 69 11265 3.6 360 01:33 13.01.2020
4551 Clouds 24 1017 64 11265 3.6 10 00:48 13.01.2020
4552 Clouds 24 1017 64 11265 3.6 10 00:26 13.01.2020
4553 Clouds 24 1017 64 11265 4.6 20 23:59 12.01.2020
4554 Clouds 24 1017 64 11265 4.6 20 23:40 12.01.2020
4555 Clouds 25 1017 64 11265 4.6 20 23:22 12.01.2020
4556 Clouds 25 1017 57 11265 3.1 10 22:56 12.01.2020
4557 Clouds 25 1017 57 11265 3.1 10 22:37 12.01.2020
4558 Clouds 25 1017 57 11265 3.1 10 22:19 12.01.2020
4559 Clouds 24 1018 60 11265 4.1 360 21:54 12.01.2020
4560 Clouds 24 1018 60 11265 4.1 360 21:36 12.01.2020
4561 Clouds 24 1018 60 11265 4.1 360 21:18 12.01.2020
4562 Clouds 23 1019 64 11265 5.1 10 20:54 12.01.2020
4563 Clouds 23 1019 64 11265 5.1 10 20:36 12.01.2020
4564 Clouds 23 1019 64 11265 5.1 10 20:18 12.01.2020
4565 Clouds 23 1020 64 9656 4.1 350 19:54 12.01.2020
4566 Clouds 23 1020 64 9656 4.1 350 19:36 12.01.2020
4567 Clouds 23 1020 64 9656 4.1 350 19:18 12.01.2020
4568 Clouds 24 1021 57 9656 6.2 360 18:54 12.01.2020
4569 Clouds 24 1021 57 9656 6.2 360 18:36 12.01.2020
4570 Clouds 24 1021 57 9656 6.2 360 18:18 12.01.2020
4571 Clouds 23 1020 60 9656 2.6 10 17:41 12.01.2020
4572 Clouds 23 1020 60 9656 2.6 10 17:19 12.01.2020
4573 Clouds 23 1020 60 9656 2.6 350 16:56 12.01.2020
4574 Clouds 23 1020 60 9656 2.6 350 16:37 12.01.2020
4575 Clouds 22 1020 60 9656 2.6 350 16:19 12.01.2020
4576 Clouds 22 1020 60 9656 4.6 350 15:43 12.01.2020
4577 Clouds 22 1020 60 9656 4.6 350 15:25 12.01.2020
4578 Clouds 22 1019 64 9656 4.6 340 14:57 12.01.2020
4579 Clouds 22 1019 64 9656 4.6 340 14:38 12.01.2020
4580 Clouds 22 1019 64 9656 4.6 340 14:20 12.01.2020
4581 Clouds 22 1018 64 9656 4.6 350 13:54 12.01.2020
4582 Clouds 22 1018 64 9656 4.6 350 13:36 12.01.2020
4583 Clouds 22 1018 64 9656 4.6 350 13:18 12.01.2020
4584 Clouds 22 1018 64 9656 4.6 350 13:18 12.01.2020
4585 Clouds 22 1018 64 9656 4.6 350 13:18 12.01.2020
4586 Clouds 22 1018 64 9656 4.6 350 12:43 12.01.2020
4587 Clouds 22 1017 57 0 5.81 360 12:21 12.01.2020
4588 Clouds 22 1016 57 0 5.81 360 11:59 12.01.2020
4589 Clouds 22 1017 57 0 5.36 348 11:39 12.01.2020
4590 Clouds 22 1016 58 0 4.92 348 11:21 12.01.2020
4591 Clouds 22 1016 58 0 5.36 339 10:42 12.01.2020
4592 Clouds 22 1019 70 0 9.22 339 10:22 12.01.2020
4593 Clouds 22 1016 58 0 6.26 5 09:59 12.01.2020
4594 Clouds 22 1017 59 0 6.71 355 09:41 12.01.2020
4595 Clouds 22 1017 57 0 6.71 9 09:20 12.01.2020
4596 Clouds 23 1017 57 0 6.71 347 08:45 12.01.2020
4597 Clouds 22 1018 58 0 5.36 336 08:21 12.01.2020
4598 Clouds 22 1018 57 0 7.15 333 07:44 12.01.2020
4599 Clouds 22 1018 56 0 7.6 346 07:25 12.01.2020
4600 Sand 22 1020 64 9656 7.7 360 06:49 12.01.2020
4601 Sand 22 1020 64 9656 7.7 360 06:30 12.01.2020
4602 Sand 22 1020 64 8047 10.3 360 05:37 12.01.2020
4603 Sand 22 1020 64 8047 10.3 360 04:51 12.01.2020
4604 Sand 22 1018 64 8047 10.3 10 03:27 12.01.2020
4605 Sand 23 1017 60 8047 10.3 360 02:34 12.01.2020
4606 Sand 23 1016 60 6437 10.3 360 01:55 12.01.2020
4607 Sand 23 1016 60 6437 10.3 360 01:29 12.01.2020
4608 Sand 24 1015 57 8047 10.3 360 00:42 12.01.2020
4609 Sand 24 1015 57 8047 10.3 360 00:20 12.01.2020
4610 Sand 25 1015 53 8047 12.9 360 23:55 11.01.2020
4611 Sand 25 1015 53 8047 12.9 360 23:37 11.01.2020
4612 Sand 25 1015 53 8047 12.9 360 23:18 11.01.2020
4613 Sand 26 1014 54 6437 11.3 360 22:42 11.01.2020
4614 Sand 26 1014 54 6437 11.3 360 22:21 11.01.2020
4615 Sand 26 1014 65 6437 7.7 350 21:59 11.01.2020
4616 Sand 27 1014 65 6437 7.7 350 21:41 11.01.2020
4617 Sand 27 1014 65 6437 7.7 350 21:18 11.01.2020
4618 Sand 28 1014 61 8047 8.2 20 20:42 11.01.2020
4619 Sand 28 1014 61 8047 8.2 20 20:22 11.01.2020
4620 Sand 28 1016 61 8047 13.9 20 19:59 11.01.2020
4621 Sand 28 1016 61 8047 13.9 20 19:40 11.01.2020
4622 Sand 28 1016 61 8047 13.9 20 19:40 11.01.2020
4623 Sand 28 1016 61 8047 13.9 20 19:22 11.01.2020
4624 Clouds 27 1016 74 8047 6.7 20 18:59 11.01.2020
4625 Clouds 27 1016 74 8047 6.7 20 18:39 11.01.2020
4626 Clouds 26 1016 74 8047 6.7 20 18:20 11.01.2020
4627 Clouds 25 1015 78 8047 2.6 70 17:58 11.01.2020
4628 Clouds 25 1015 78 8047 2.6 70 17:40 11.01.2020
4629 Clouds 26 1015 78 8047 2.6 70 17:19 11.01.2020
4630 Clouds 23 1014 83 8047 0.41 230 16:46 11.01.2020
4631 Clouds 22 1014 83 8047 0.41 230 16:27 11.01.2020
4632 Mist 19 1013 100 6437 0.41 230 15:59 11.01.2020
4633 Mist 19 1013 100 6437 0.41 230 15:41 11.01.2020
4634 Mist 19 1013 100 6437 0.41 230 15:22 11.01.2020
4635 Mist 18 1012 93 6437 1 170 14:57 11.01.2020
4636 Mist 18 1012 93 6437 1 170 14:38 11.01.2020
4637 Mist 18 1012 93 6437 1 170 14:20 11.01.2020
4638 Mist 19 1012 93 8047 1.97 215 13:40 11.01.2020
4639 Mist 18 1012 93 8047 2.06 216 13:20 11.01.2020
4640 Mist 19 1012 93 8047 2.06 216 12:58 11.01.2020
4641 Clear 18 1010 84 0 2.06 216 12:39 11.01.2020
4642 Rain 18 1010 84 0 2.06 216 12:21 11.01.2020
4643 Rain 19 1010 84 0 0.89 184 11:47 11.01.2020
4644 Clear 18 1010 83 0 2.06 216 11:26 11.01.2020
4645 Clear 19 1010 84 0 3.09 242 10:50 11.01.2020
4646 Clear 19 1010 84 0 3.09 242 10:30 11.01.2020
4647 Clear 19 1010 83 0 0.45 184 09:55 11.01.2020
4648 Clear 19 1010 83 0 0.89 184 09:37 11.01.2020
4649 Clear 19 1010 83 0 0.45 184 09:18 11.01.2020
4650 Clear 20 1011 83 0 3.09 242 08:41 11.01.2020
4651 Clear 19 1011 83 0 0.45 178 08:21 11.01.2020
4652 Clear 20 1011 82 0 1.28 239 07:44 11.01.2020
4653 Clear 20 1011 82 0 1.28 239 07:25 11.01.2020
4654 Mist 21 1013 94 4828 1.28 239 06:45 11.01.2020
4655 Clear 22 1013 100 6437 1.28 239 05:33 11.01.2020
4656 Clouds 22 1013 94 9656 1.55 100 04:45 11.01.2020
4657 Clouds 23 1013 94 9656 1.55 100 04:27 11.01.2020
4658 Clear 24 1011 83 11265 1.5 100 02:48 11.01.2020
4659 Clear 24 1010 78 11265 1.5 120 01:48 11.01.2020
4660 Clear 24 1010 78 11265 1.5 120 01:30 11.01.2020
4661 Clear 25 1010 69 11265 2.1 130 00:58 11.01.2020
4662 Clear 25 1010 69 11265 2.1 130 00:58 11.01.2020
4663 Clear 25 1010 69 11265 2.1 130 00:32 11.01.2020
4664 Clear 26 1010 65 11265 2.1 110 23:59 10.01.2020
4665 Clear 26 1010 65 11265 2.1 110 23:59 10.01.2020
4666 Clear 27 1010 65 11265 2.1 110 23:39 10.01.2020
4667 Clear 27 1010 65 11265 2.1 110 23:39 10.01.2020
4668 Clear 27 1010 65 11265 2.1 110 23:20 10.01.2020
4669 Clear 27 1011 61 11265 3.6 90 22:54 10.01.2020
4670 Clear 28 1011 61 11265 3.6 90 22:36 10.01.2020
4671 Clear 28 1011 61 11265 3.6 90 22:18 10.01.2020
4672 Clear 28 1012 58 11265 5.7 90 21:41 10.01.2020
4673 Clear 29 1012 58 11265 5.7 90 21:22 10.01.2020
4674 Clear 29 1013 51 11265 1 130 21:00 10.01.2020
4675 Clear 29 1013 51 11265 1 130 20:41 10.01.2020
4676 Clear 29 1013 51 11265 1 130 20:23 10.01.2020
4677 Clouds 28 1015 58 11265 2.34 85 19:42 10.01.2020
4678 Clouds 28 1015 58 11265 2.34 85 19:21 10.01.2020
4679 Clouds 28 1016 54 11265 1.5 60 18:58 10.01.2020
4680 Clouds 28 1016 54 11265 1.5 60 18:40 10.01.2020
4681 Clouds 28 1016 54 11265 1.5 60 18:18 10.01.2020
4682 Haze 27 1017 51 11265 2.34 85 17:56 10.01.2020
4683 Haze 27 1017 51 11265 2.34 85 17:38 10.01.2020
4684 Haze 27 1017 51 11265 1.37 263 17:19 10.01.2020
4685 Haze 24 1016 69 9656 1.37 263 16:43 10.01.2020
4686 Haze 24 1016 69 9656 1.37 263 16:22 10.01.2020
4687 Mist 21 1016 82 11265 1.37 263 15:58 10.01.2020
4688 Mist 21 1016 82 11265 1.37 263 15:39 10.01.2020
4689 Mist 20 1016 82 11265 1.37 263 15:21 10.01.2020
4690 Mist 19 1015 88 11265 1.37 263 14:59 10.01.2020
4691 Mist 18 1015 88 11265 1.37 263 14:41 10.01.2020
4692 Mist 18 1015 88 11265 1.4 281 14:20 10.01.2020
4693 Clear 17 1015 88 11265 1.4 281 13:58 10.01.2020
4694 Clear 17 1015 88 11265 1.4 281 13:39 10.01.2020
4695 Clear 17 1015 88 11265 1.55 289 13:21 10.01.2020
4696 Clouds 18 1013 77 0 1.55 289 12:57 10.01.2020
4697 Clouds 17 1012 78 0 1.55 289 12:38 10.01.2020
4698 Clouds 17 1013 79 0 1.55 289 12:18 10.01.2020
4699 Clouds 17 1012 79 0 1.55 289 11:54 10.01.2020
4700 Clouds 16 1013 79 0 1.55 289 11:36 10.01.2020
4701 Clouds 16 1013 79 0 1.88 259 11:18 10.01.2020
4702 Clouds 17 1013 78 0 1.88 259 10:39 10.01.2020
4703 Clouds 17 1013 77 0 1.88 259 10:21 10.01.2020
4704 Clouds 18 1013 75 0 1.88 259 09:56 10.01.2020
4705 Clouds 18 1013 76 0 1.88 259 09:37 10.01.2020
4706 Clouds 18 1013 76 0 1.34 249 09:19 10.01.2020
4707 Clouds 18 1013 76 0 1.34 249 09:19 10.01.2020
4708 Clouds 18 1014 74 0 0.89 240 08:40 10.01.2020
4709 Clear 18 1014 74 0 0.89 240 08:22 10.01.2020
4710 Clear 19 1017 82 11265 2.53 247 07:44 10.01.2020
4711 Clear 19 1017 82 11265 2.53 247 07:23 10.01.2020
4712 Clear 19 1017 77 11265 2.53 247 06:45 10.01.2020
4713 Clear 19 1017 77 11265 2.53 247 06:25 10.01.2020
4714 Clear 20 1017 82 11265 2.53 247 05:46 10.01.2020
4715 Clear 22 1016 73 11265 2.5 102 03:35 10.01.2020
4716 Clear 22 1016 73 11265 1.5 100 02:58 10.01.2020
4717 Clear 22 1016 73 11265 1.5 100 02:38 10.01.2020
4718 Clear 23 1015 57 11265 1.5 100 01:38 10.01.2020
4719 Clear 25 1015 47 11265 4.1 100 00:58 10.01.2020
4720 Clear 25 1015 47 11265 4.1 100 00:38 10.01.2020
4721 Clouds 26 1015 51 11265 3.6 100 23:57 09.01.2020
4722 Clouds 27 1015 51 11265 3.6 100 23:38 09.01.2020
4723 Clouds 27 1015 51 11265 3.6 100 23:38 09.01.2020
4724 Clouds 27 1015 51 11265 3.6 100 23:38 09.01.2020
4725 Clouds 27 1015 51 11265 3.6 100 23:19 09.01.2020
4726 Clear 27 1015 61 11265 2.1 130 22:57 09.01.2020
4727 Clear 27 1015 61 11265 2.1 130 22:37 09.01.2020
4728 Clear 27 1015 61 11265 2.1 130 22:18 09.01.2020
4729 Clear 28 1016 48 11265 1 150 21:56 09.01.2020
4730 Clear 28 1016 48 11265 1 150 21:37 09.01.2020
4731 Clear 28 1016 48 11265 1 150 21:37 09.01.2020
4732 Clear 28 1016 48 11265 1 150 21:37 09.01.2020
4733 Clear 28 1016 48 11265 1 150 21:37 09.01.2020
4734 Clear 28 1016 48 11265 1 150 21:37 09.01.2020
4735 Clear 28 1016 48 11265 1 150 21:18 09.01.2020
4736 Clear 27 1018 51 11265 2.6 160 20:56 09.01.2020
4737 Clear 27 1018 51 11265 2.6 160 20:38 09.01.2020
4738 Clear 27 1018 51 11265 2.6 160 20:19 09.01.2020
4739 Clear 27 1019 50 11265 1 140 19:54 09.01.2020
4740 Clear 26 1019 50 11265 1 140 19:36 09.01.2020
4741 Clear 26 1019 50 11265 1 140 19:18 09.01.2020
4742 Clear 25 1020 69 11265 2.6 160 18:41 09.01.2020
4743 Clear 24 1020 69 11265 2.6 160 18:22 09.01.2020
4744 Clear 23 1021 73 9656 1.5 160 17:58 09.01.2020
4745 Clear 23 1021 73 9656 1.5 160 17:40 09.01.2020
4746 Clear 23 1021 73 9656 1.5 160 17:18 09.01.2020
4747 Clear 23 1021 73 9656 1.5 160 17:18 09.01.2020
4748 Clear 23 1021 73 9656 1.5 160 17:18 09.01.2020
4749 Mist 21 1021 94 6437 1.36 211 16:46 09.01.2020
4750 Mist 21 1021 94 6437 1.36 211 16:22 09.01.2020
4751 Mist 19 1020 100 4828 1.36 211 15:44 09.01.2020
4752 Mist 18 1020 100 3219 1.36 211 15:25 09.01.2020
4753 Fog 17 1020 100 805 1.36 211 14:59 09.01.2020
4754 Fog 17 1020 100 805 1.36 211 14:41 09.01.2020
4755 Fog 16 1019 100 402 1.4 211 14:19 09.01.2020
4756 Fog 17 1019 100 402 1.4 211 13:56 09.01.2020
4757 Fog 17 1019 100 402 1.4 211 13:38 09.01.2020
4758 Fog 17 1019 100 402 1.17 179 13:19 09.01.2020
4759 Clear 16 1017 84 0 1.17 179 12:56 09.01.2020
4760 Clear 16 1017 84 0 1.17 179 12:38 09.01.2020
4761 Clear 16 1017 84 0 1.17 179 12:18 09.01.2020
4762 Clear 16 1017 83 0 1.17 179 11:42 09.01.2020
4763 Clear 16 1017 83 0 1.17 179 11:24 09.01.2020
4764 Clear 16 1017 83 0 1.17 179 11:24 09.01.2020
4765 Clear 16 1017 83 0 1.17 179 11:24 09.01.2020
4766 Clear 17 1018 83 0 1 157 10:58 09.01.2020
4767 Clear 17 1018 83 0 1 157 10:40 09.01.2020
4768 Clear 18 1018 83 0 1 157 10:21 09.01.2020
4769 Clear 17 1018 82 0 1 157 09:46 09.01.2020
4770 Clear 18 1018 82 0 1 157 09:25 09.01.2020
4771 Clear 18 1019 81 0 1 157 08:58 09.01.2020
4772 Clear 18 1019 81 0 1 157 08:39 09.01.2020
4773 Clouds 19 1019 80 0 1.34 117 08:21 09.01.2020
4774 Clouds 21 1019 79 0 1.34 117 07:48 09.01.2020
4775 Clouds 21 1020 79 0 0.45 348 07:30 09.01.2020
4776 Clouds 20 1022 94 11265 1.34 117 06:40 09.01.2020
4777 Clouds 20 1022 94 11265 1.34 117 06:22 09.01.2020
4778 Clouds 21 1022 94 11265 1.34 117 05:51 09.01.2020
4779 Clouds 21 1022 94 11265 3.25 108 05:20 09.01.2020
4780 Clouds 21 1022 88 11265 3.25 108 04:39 09.01.2020
4781 Clouds 22 1021 83 11265 3.25 108 03:27 09.01.2020
4782 Clouds 22 1021 83 11265 1.5 80 02:46 09.01.2020
4783 Clouds 22 1021 83 11265 2.1 80 01:42 09.01.2020
4784 Clouds 22 1021 78 9656 2.1 70 00:59 09.01.2020
4785 Clouds 23 1021 78 9656 2.1 70 00:37 09.01.2020
4786 Clouds 23 1021 78 9656 2.1 70 00:19 09.01.2020
4787 Clouds 23 1021 78 9656 2.1 80 23:39 08.01.2020
4788 Clouds 23 1021 78 9656 2.1 80 23:20 08.01.2020
4789 Clouds 23 1021 73 9656 2.6 80 22:40 08.01.2020
4790 Clouds 23 1021 73 9656 2.6 80 22:22 08.01.2020
4791 Clouds 23 1022 69 9656 3.1 70 21:59 08.01.2020
4792 Clouds 23 1022 69 9656 3.1 70 21:40 08.01.2020
4793 Clouds 23 1022 69 9656 3.1 70 21:40 08.01.2020
4794 Clouds 24 1022 69 9656 3.1 70 21:21 08.01.2020
4795 Clouds 25 1023 65 9656 4.1 60 20:59 08.01.2020
4796 Clouds 25 1023 65 9656 4.1 60 20:41 08.01.2020
4797 Clouds 25 1023 65 9656 4.1 60 20:21 08.01.2020
4798 Clouds 23 1024 78 8047 2.09 347 19:58 08.01.2020
4799 Clouds 23 1024 78 8047 2.09 347 19:38 08.01.2020
4800 Rain 23 1024 78 8047 2.09 347 19:19 08.01.2020
4801 Rain 22 1025 88 8047 2.09 347 18:57 08.01.2020
4802 Rain 22 1025 88 8047 2.09 347 18:38 08.01.2020
4803 Mist 21 1026 100 8047 1.5 340 18:19 08.01.2020
4804 Rain 20 1026 94 8047 2.09 347 17:56 08.01.2020
4805 Rain 20 1026 94 8047 2.09 347 17:37 08.01.2020
4806 Rain 20 1026 94 8047 3.92 327 17:18 08.01.2020
4807 Mist 19 1026 100 8047 3.92 327 16:55 08.01.2020
4808 Mist 20 1026 100 8047 3.92 327 16:37 08.01.2020
4809 Mist 20 1026 100 8047 3.92 327 16:18 08.01.2020
4810 Rain 19 1025 93 6437 3.92 327 15:44 08.01.2020
4811 Rain 19 1025 93 6437 3.92 327 15:21 08.01.2020
4812 Rain 19 1025 93 6437 3.92 327 14:58 08.01.2020
4813 Rain 19 1025 93 6437 3.92 327 14:39 08.01.2020
4814 Drizzle 19 1025 93 9656 1 10 14:20 08.01.2020
4815 Drizzle 19 1025 93 9656 1 10 14:20 08.01.2020
4816 Rain 20 1024 88 9656 4.1 40 13:41 08.01.2020
4817 Rain 20 1024 88 9656 4.1 40 13:20 08.01.2020
4818 Rain 21 1023 77 0 2.68 55 12:43 08.01.2020
4819 Rain 21 1023 75 0 3.58 36 12:20 08.01.2020
4820 Rain 21 1023 73 0 1.34 23 11:59 08.01.2020
4821 Rain 21 1023 73 0 1.34 23 11:41 08.01.2020
4822 Rain 21 1022 73 0 0.45 293 11:19 08.01.2020
4823 Rain 21 1022 72 0 0.89 293 10:56 08.01.2020
4824 Rain 21 1022 71 0 1.34 323 10:38 08.01.2020
4825 Rain 21 1022 71 0 1.34 323 10:19 08.01.2020
4826 Rain 21 1022 72 0 2.24 331 09:42 08.01.2020
4827 Rain 22 1023 71 0 4.02 344 09:20 08.01.2020
4828 Rain 22 1023 71 0 3.13 355 08:57 08.01.2020
4829 Rain 22 1023 72 0 4.47 338 08:37 08.01.2020
4830 Rain 22 1023 72 0 4.47 338 08:19 08.01.2020
4831 Rain 22 1024 71 0 4.92 355 07:49 08.01.2020
4832 Rain 22 1024 71 0 5.36 18 07:30 08.01.2020
4833 Clouds 22 1026 78 11265 6.7 360 06:49 08.01.2020
4834 Clouds 22 1026 78 11265 6.7 360 06:25 08.01.2020
4835 Clouds 22 1026 78 11265 5.1 360 05:53 08.01.2020
4836 Clouds 22 1026 78 11265 5.1 360 05:53 08.01.2020
4837 Clouds 22 1025 78 9656 7.2 360 04:59 08.01.2020
4838 Clouds 22 1025 78 9656 7.2 360 04:26 08.01.2020
4839 Sand 23 1024 78 9656 7.7 360 02:45 08.01.2020
4840 Sand 23 1024 78 9656 7.7 360 02:45 08.01.2020
4841 Sand 23 1024 78 9656 7.7 360 02:23 08.01.2020
4842 Sand 23 1024 73 9656 6.2 360 01:50 08.01.2020
4843 Sand 23 1024 73 9656 6.2 360 01:25 08.01.2020
4844 Clouds 24 1023 69 9656 6.2 360 00:40 08.01.2020
4845 Clouds 24 1023 69 9656 6.2 360 00:20 08.01.2020
4846 Clouds 24 1023 60 8047 5.1 30 23:44 07.01.2020
4847 Clouds 24 1023 60 8047 5.1 30 23:20 07.01.2020
4848 Clouds 25 1022 61 8047 7.7 30 22:40 07.01.2020
4849 Clouds 25 1022 61 8047 7.7 30 22:20 07.01.2020
4850 Clouds 25 1023 57 9656 7.2 20 21:57 07.01.2020
4851 Clouds 25 1023 57 9656 7.2 20 21:38 07.01.2020
4852 Clouds 25 1023 57 9656 7.2 20 21:38 07.01.2020
4853 Clouds 25 1023 57 9656 7.2 20 21:20 07.01.2020
4854 Clouds 26 1024 50 9656 4.6 20 20:56 07.01.2020
4855 Clouds 26 1024 50 9656 4.6 20 20:38 07.01.2020
4856 Clouds 26 1024 50 9656 4.6 20 20:19 07.01.2020
4857 Clouds 26 1025 50 9656 3.6 70 19:38 07.01.2020
4858 Clouds 26 1025 50 9656 3.6 70 19:20 07.01.2020
4859 Clouds 25 1026 60 9656 2.1 20 18:58 07.01.2020
4860 Clouds 25 1026 60 9656 2.1 20 18:40 07.01.2020
4861 Clouds 24 1026 60 9656 2.1 20 18:19 07.01.2020
4862 Clouds 24 1025 60 9656 2.6 360 18:00 07.01.2020
4863 Clouds 24 1025 60 9656 2.6 360 17:39 07.01.2020
4864 Clouds 24 1025 60 9656 2.6 360 17:21 07.01.2020
4865 Clouds 23 1025 78 8047 6.43 330 16:57 07.01.2020
4866 Clouds 23 1025 78 8047 6.43 330 16:38 07.01.2020
4867 Clouds 22 1025 78 8047 6.43 330 16:19 07.01.2020
4868 Clouds 21 1024 88 9656 6.43 330 15:58 07.01.2020
4869 Clouds 21 1024 88 9656 6.43 330 15:39 07.01.2020
4870 Clouds 20 1024 88 9656 6.43 330 15:21 07.01.2020
4871 Clouds 19 1023 88 9656 1 320 14:55 07.01.2020
4872 Clouds 19 1023 88 9656 1 320 14:36 07.01.2020
4873 Clouds 19 1023 88 9656 1 320 14:18 07.01.2020
4874 Clear 18 1022 88 9656 3.43 325 13:39 07.01.2020
4875 Clear 18 1022 88 9656 2.87 344 13:19 07.01.2020
4876 Clouds 18 1020 78 0 1.34 290 12:41 07.01.2020
4877 Clouds 18 1020 78 0 1.34 307 12:20 07.01.2020
4878 Clouds 18 1020 78 0 1.34 307 11:55 07.01.2020
4879 Clouds 18 1019 78 0 1.34 309 11:36 07.01.2020
4880 Clouds 18 1019 79 0 0.89 297 11:18 07.01.2020
4881 Clouds 18 1019 79 0 0.89 297 10:41 07.01.2020
4882 Clouds 18 1019 79 0 0.89 297 10:41 07.01.2020
4883 Clouds 18 1018 79 0 0.45 170 10:23 07.01.2020
4884 Clouds 18 1018 79 0 0.45 170 09:57 07.01.2020
4885 Clouds 18 1018 79 0 1.49 323 09:38 07.01.2020
4886 Clouds 18 1018 79 0 0.45 170 09:20 07.01.2020
4887 Clouds 18 1018 78 0 1.49 323 08:42 07.01.2020
4888 Clouds 18 1018 78 0 2.25 309 08:23 07.01.2020
4889 Clear 18 1018 78 0 0.53 41 07:54 07.01.2020
4890 Clear 18 1018 77 0 0.53 41 07:28 07.01.2020
4891 Clear 18 1018 77 0 0.53 41 07:28 07.01.2020
4892 Clear 19 1020 88 9656 0.53 41 06:53 07.01.2020
4893 Clear 19 1020 88 9656 0.53 41 06:34 07.01.2020
4894 Clear 20 1020 77 11265 0.53 41 05:54 07.01.2020
4895 Clear 22 1020 73 11265 3.57 91 04:39 07.01.2020
4896 Clear 22 1019 78 11265 1 110 03:26 07.01.2020
4897 Clear 22 1018 78 11265 4.3 86 02:22 07.01.2020
4898 Clouds 22 1018 73 11265 1 110 01:51 07.01.2020
4899 Clouds 22 1018 73 11265 1 110 01:28 07.01.2020
4900 Clouds 24 1017 64 11265 1.5 100 00:37 07.01.2020
4901 Clouds 24 1017 64 11265 1.5 100 00:18 07.01.2020
4902 Clouds 25 1017 61 11265 2.1 100 23:39 06.01.2020
4903 Clouds 25 1017 61 11265 2.1 100 23:39 06.01.2020
4904 Clouds 25 1017 61 11265 2.1 100 23:21 06.01.2020
4905 Clouds 25 1017 54 11265 2.1 120 22:58 06.01.2020
4906 Clouds 25 1017 54 11265 2.1 120 22:38 06.01.2020
4907 Clouds 25 1017 54 11265 2.1 120 22:20 06.01.2020
4908 Clouds 26 1018 54 11265 1.5 110 21:56 06.01.2020
4909 Clouds 26 1018 54 11265 1.5 110 21:56 06.01.2020
4910 Clouds 26 1018 54 11265 1.5 110 21:37 06.01.2020
4911 Clouds 26 1018 54 11265 1.5 110 21:19 06.01.2020
4912 Clouds 25 1020 57 11265 1.5 110 20:56 06.01.2020
4913 Clouds 25 1020 57 11265 1.5 110 20:37 06.01.2020
4914 Clouds 25 1020 57 11265 1.5 110 20:19 06.01.2020
4915 Clouds 25 1020 57 11265 1.5 110 20:19 06.01.2020
4916 Clouds 25 1021 57 11265 2.6 170 19:55 06.01.2020
4917 Clouds 25 1021 57 11265 2.6 170 19:37 06.01.2020
4918 Clouds 25 1021 57 11265 2.6 170 19:18 06.01.2020
4919 Clouds 25 1023 57 11265 2.1 150 18:44 06.01.2020
4920 Clouds 25 1023 57 11265 2.1 150 18:20 06.01.2020
4921 Clouds 24 1024 60 11265 1 190 17:40 06.01.2020
4922 Clouds 24 1024 60 11265 1 190 17:20 06.01.2020
4923 Clouds 24 1024 60 11265 1 190 17:20 06.01.2020
4924 Clouds 22 1024 77 9656 2.07 244 16:57 06.01.2020
4925 Clouds 22 1024 77 9656 2.07 244 16:39 06.01.2020
4926 Clouds 21 1024 77 9656 2.07 244 16:21 06.01.2020
4927 Clouds 20 1023 88 9656 2.07 244 15:59 06.01.2020
4928 Clouds 20 1023 88 9656 2.07 244 15:36 06.01.2020
4929 Clouds 19 1023 88 9656 2.07 244 15:18 06.01.2020
4930 Clouds 18 1023 93 11265 2.07 244 14:41 06.01.2020
4931 Clouds 18 1023 93 11265 0.84 262 14:22 06.01.2020
4932 Clouds 18 1023 88 9656 0.84 262 13:59 06.01.2020
4933 Clouds 18 1023 88 9656 0.84 262 13:38 06.01.2020
4934 Clouds 19 1023 88 9656 1.98 267 13:20 06.01.2020
4935 Clouds 19 1021 73 0 0.45 98 12:55 06.01.2020
4936 Clouds 18 1021 75 0 0.45 98 12:37 06.01.2020
4937 Clouds 18 1021 75 0 0.45 98 12:18 06.01.2020
4938 Clouds 19 1021 75 0 1.98 267 11:41 06.01.2020
4939 Clouds 19 1021 75 0 1.98 267 11:23 06.01.2020
4940 Clouds 19 1021 73 0 0.6 287 10:58 06.01.2020
4941 Clouds 19 1021 73 0 0.6 287 10:40 06.01.2020
4942 Clouds 19 1021 71 0 0.6 287 10:20 06.01.2020
4943 Clouds 20 1024 82 11265 0.6 287 09:39 06.01.2020
4944 Clouds 20 1024 82 11265 0.6 287 09:20 06.01.2020
4945 Clouds 20 1025 77 11265 0.6 287 08:51 06.01.2020
4946 Clouds 20 1025 77 11265 0.6 287 08:33 06.01.2020
4947 Clouds 20 1025 77 11265 1.83 39 07:56 06.01.2020
4948 Clouds 20 1025 77 11265 1.83 39 07:36 06.01.2020
4949 Clouds 20 1025 77 11265 1.83 39 06:46 06.01.2020
4950 Clouds 20 1025 77 11265 1.83 39 06:23 06.01.2020
4951 Clouds 20 1026 82 11265 1.83 39 05:45 06.01.2020
4952 Clouds 20 1026 77 11265 2.09 23 04:52 06.01.2020
4953 Clouds 20 1026 77 11265 2.09 23 04:19 06.01.2020
4954 Clouds 21 1025 73 11265 1 360 02:56 06.01.2020
4955 Clouds 21 1025 73 11265 1 360 02:24 06.01.2020
4956 Clouds 22 1025 68 11265 3.1 10 01:45 06.01.2020
4957 Clouds 22 1025 68 11265 3.1 10 01:26 06.01.2020
4958 Clouds 22 1025 68 11265 4.1 10 00:42 06.01.2020
4959 Clouds 22 1025 68 11265 4.1 10 00:23 06.01.2020
4960 Clouds 23 1025 64 11265 3.6 60 23:43 05.01.2020
4961 Clouds 23 1025 64 11265 3.6 60 23:23 05.01.2020
4962 Clouds 23 1025 69 11265 5.1 60 22:57 05.01.2020
4963 Clouds 23 1025 69 11265 5.1 60 22:38 05.01.2020
4964 Clouds 23 1025 69 11265 5.1 60 22:20 05.01.2020
4965 Clouds 22 1026 64 11265 5.1 40 21:55 05.01.2020
4966 Clouds 22 1026 64 11265 5.1 40 21:37 05.01.2020
4967 Clouds 22 1026 64 11265 5.1 40 21:19 05.01.2020
4968 Clouds 23 1027 60 11265 5.1 10 20:55 05.01.2020
4969 Clouds 23 1027 60 11265 5.1 10 20:36 05.01.2020
4970 Clouds 23 1027 60 11265 5.1 10 20:18 05.01.2020
4971 Clouds 23 1028 56 11265 6.2 40 19:56 05.01.2020
4972 Clouds 23 1028 56 11265 6.2 40 19:37 05.01.2020
4973 Clouds 23 1028 56 11265 6.2 40 19:18 05.01.2020
4974 Clouds 24 1029 50 11265 3.6 360 18:54 05.01.2020
4975 Clouds 24 1029 50 11265 3.6 360 18:36 05.01.2020
4976 Clouds 24 1029 50 11265 3.6 360 18:18 05.01.2020
4977 Clouds 23 1030 49 9656 1.5 300 17:40 05.01.2020
4978 Clouds 23 1030 49 9656 1.5 300 17:21 05.01.2020
4979 Clouds 21 1029 60 8047 1 310 16:58 05.01.2020
4980 Clouds 21 1029 60 8047 1 310 16:40 05.01.2020
4981 Clouds 21 1029 60 8047 1 310 16:21 05.01.2020
4982 Clouds 17 1029 77 9656 3.74 313 15:41 05.01.2020
4983 Clouds 17 1029 77 9656 3.74 313 15:23 05.01.2020
4984 Clouds 16 1028 82 9656 3.74 313 14:58 05.01.2020
4985 Clouds 15 1028 82 9656 3.74 313 14:40 05.01.2020
4986 Clouds 15 1028 82 9656 3.74 313 14:40 05.01.2020
4987 Clouds 14 1028 82 9656 4.42 311 14:22 05.01.2020
4988 Clear 15 1028 72 9656 4.42 311 13:59 05.01.2020
4989 Clear 15 1028 72 9656 4.42 311 13:39 05.01.2020
4990 Clear 15 1028 72 9656 4.01 303 13:20 05.01.2020
4991 Clouds 14 1027 73 0 0.45 286 12:57 05.01.2020
4992 Clouds 15 1027 69 0 4.01 303 12:38 05.01.2020
4993 Clouds 16 1026 67 0 4.01 303 12:20 05.01.2020
4994 Clouds 16 1026 67 0 0.45 286 11:55 05.01.2020
4995 Clouds 17 1026 66 0 1.34 289 11:37 05.01.2020
4996 Clouds 17 1026 66 0 1.34 289 11:37 05.01.2020
4997 Clouds 17 1026 69 0 0.89 330 11:19 05.01.2020
4998 Clouds 17 1026 69 0 0.89 330 11:18 05.01.2020
4999 Clouds 16 1026 69 0 0.89 330 10:41 05.01.2020
5000 Clouds 17 1027 65 0 4.42 325 10:20 05.01.2020
5001 Clouds 17 1027 66 0 0.89 330 09:57 05.01.2020
5002 Clouds 17 1027 66 0 1.34 330 09:38 05.01.2020
5003 Clouds 17 1027 66 0 1.34 330 09:38 05.01.2020
5004 Clouds 18 1027 66 0 0.89 330 09:20 05.01.2020
5005 Clouds 18 1028 65 0 0.89 330 08:45 05.01.2020
5006 Clouds 18 1028 63 0 0.89 350 08:21 05.01.2020
5007 Clouds 19 1028 61 0 0.45 350 07:47 05.01.2020
5008 Clouds 19 1028 62 0 0.89 301 07:29 05.01.2020
5009 Clouds 18 1031 77 11265 1.5 330 06:55 05.01.2020
5010 Clouds 19 1031 72 11265 5.44 344 05:52 05.01.2020
5011 Clouds 19 1031 72 11265 6.15 0 04:56 05.01.2020
5012 Clouds 19 1031 72 11265 6.15 0 04:19 05.01.2020
5013 Clouds 19 1030 72 11265 2.6 340 03:40 05.01.2020
5014 Clouds 20 1029 64 11265 2.1 330 02:36 05.01.2020
5015 Clouds 20 1029 64 11265 2.1 330 02:18 05.01.2020
5016 Clouds 21 1028 46 11265 4.1 340 01:20 05.01.2020
5017 Clouds 21 1028 46 11265 5.1 350 00:58 05.01.2020
5018 Clouds 21 1028 46 11265 5.1 350 00:39 05.01.2020
5019 Clouds 21 1028 46 11265 5.1 350 00:20 05.01.2020
5020 Clouds 21 1027 43 11265 6.2 360 23:57 04.01.2020
5021 Clouds 21 1027 43 11265 6.2 360 23:38 04.01.2020
5022 Clouds 21 1027 43 11265 6.2 360 23:18 04.01.2020
5023 Clouds 22 1027 43 11265 5.7 350 22:39 04.01.2020
5024 Clouds 22 1027 43 11265 5.7 350 22:20 04.01.2020
5025 Clouds 22 1027 49 11265 9.8 350 21:56 04.01.2020
5026 Clouds 22 1027 49 11265 9.8 350 21:37 04.01.2020
5027 Clouds 22 1027 49 11265 9.8 350 21:19 04.01.2020
5028 Clouds 22 1028 53 11265 6.7 30 20:55 04.01.2020
5029 Clouds 22 1028 53 11265 6.7 30 20:36 04.01.2020
5030 Clouds 22 1028 53 11265 6.7 30 20:36 04.01.2020
5031 Clouds 22 1028 53 11265 6.7 30 20:18 04.01.2020
5032 Clouds 22 1028 56 11265 12.9 360 19:41 04.01.2020
5033 Clouds 22 1028 56 11265 12.9 360 19:41 04.01.2020
5034 Clouds 22 1028 56 11265 12.9 360 19:23 04.01.2020
5035 Clouds 22 1029 60 9656 5.1 360 18:57 04.01.2020
5036 Clouds 22 1029 60 9656 5.1 360 18:38 04.01.2020
5037 Clouds 22 1029 60 9656 5.1 360 18:20 04.01.2020
5038 Clouds 22 1029 64 9656 5.1 360 17:55 04.01.2020
5039 Clouds 22 1029 64 9656 5.1 360 17:37 04.01.2020
5040 Clouds 21 1029 64 9656 5.1 360 17:18 04.01.2020
5041 Clouds 21 1028 64 9656 5.1 360 16:41 04.01.2020
5042 Clouds 21 1028 64 9656 5.1 360 16:23 04.01.2020
5043 Clouds 22 1026 60 9656 5.1 360 15:57 04.01.2020
5044 Clouds 22 1026 60 9656 5.1 360 15:38 04.01.2020
5045 Clouds 22 1026 60 9656 5.1 360 15:38 04.01.2020
5046 Clouds 22 1026 60 9656 5.1 360 15:19 04.01.2020
5047 Clouds 22 1025 60 9656 5.1 360 14:56 04.01.2020
5048 Clouds 22 1025 60 9656 5.1 360 14:37 04.01.2020
5049 Clouds 22 1025 60 9656 5.1 360 14:19 04.01.2020
5050 Clouds 22 1025 68 9656 7.7 360 13:54 04.01.2020
5051 Clouds 22 1025 68 9656 7.7 360 13:36 04.01.2020
5052 Clouds 22 1025 68 9656 7.7 360 13:18 04.01.2020
5053 Clouds 23 1023 58 0 8.49 10 12:41 04.01.2020
5054 Clouds 23 1022 58 0 7.6 355 12:19 04.01.2020
5055 Clouds 23 1022 58 0 7.6 355 11:57 04.01.2020
5056 Clouds 23 1022 60 0 8.49 360 11:38 04.01.2020
5057 Clouds 23 1021 59 0 7.6 360 11:19 04.01.2020
5058 Clouds 23 1020 59 0 8.05 9 10:42 04.01.2020
5059 Clouds 23 1020 59 0 8.05 9 10:23 04.01.2020
5060 Clouds 23 1020 58 0 8.05 344 09:57 04.01.2020
5061 Clouds 23 1020 58 0 8.05 344 09:39 04.01.2020
5062 Clouds 23 1020 58 0 8.05 360 09:20 04.01.2020
5063 Clouds 23 1020 59 0 8.49 355 08:40 04.01.2020
5064 Clear 23 1020 59 0 8.05 9 08:20 04.01.2020
5065 Sand 24 1021 64 9656 7.7 10 07:42 04.01.2020
5066 Sand 24 1021 64 9656 7.7 10 07:20 04.01.2020
5067 Sand 24 1021 64 9656 8.2 360 06:33 04.01.2020
5068 Sand 24 1020 69 9656 6.2 360 05:20 04.01.2020
5069 Sand 24 1019 64 9656 6.2 360 04:34 04.01.2020
5070 Sand 24 1018 69 9656 7.7 360 03:52 04.01.2020
5071 Sand 24 1018 69 9656 7.7 360 03:18 04.01.2020
5072 Clouds 24 1016 69 9656 7.7 10 02:21 04.01.2020
5073 Clouds 24 1015 73 9656 8.2 360 01:55 04.01.2020
5074 Clouds 24 1015 73 9656 8.2 360 01:31 04.01.2020
5075 Clouds 24 1013 69 9656 7.7 10 00:44 04.01.2020
5076 Clouds 25 1013 69 9656 7.7 10 00:23 04.01.2020
5077 Clouds 25 1012 65 9656 7.7 360 23:46 03.01.2020
5078 Clouds 25 1012 65 9656 7.7 360 23:25 03.01.2020
5079 Clouds 26 1012 74 9656 7.7 20 22:41 03.01.2020
5080 Clouds 26 1012 74 9656 7.7 20 22:20 03.01.2020
5081 Clouds 27 1011 65 9656 7.7 360 21:59 03.01.2020
5082 Clouds 28 1011 65 9656 7.7 360 21:39 03.01.2020
5083 Clouds 28 1011 65 9656 7.7 360 21:19 03.01.2020
5084 Clouds 28 1011 65 9656 7.7 360 21:19 03.01.2020
5085 Clouds 29 1011 62 9656 6.2 10 20:59 03.01.2020
5086 Clouds 29 1011 62 9656 6.2 10 20:41 03.01.2020
5087 Clouds 29 1011 62 9656 6.2 10 20:18 03.01.2020
5088 Clouds 29 1011 62 9656 4.6 10 19:57 03.01.2020
5089 Clouds 29 1011 62 9656 4.6 10 19:38 03.01.2020
5090 Clouds 29 1011 62 9656 4.6 10 19:19 03.01.2020
5091 Clouds 28 1012 69 9656 4.1 350 18:44 03.01.2020
5092 Clouds 28 1012 69 9656 4.1 350 18:25 03.01.2020
5093 Mist 27 1011 78 8047 5.7 340 17:56 03.01.2020
5094 Mist 27 1011 78 8047 5.7 340 17:37 03.01.2020
5095 Mist 26 1011 78 8047 5.7 340 17:18 03.01.2020
5096 Mist 25 1011 83 8047 2.1 10 16:42 03.01.2020
5097 Mist 25 1011 83 8047 2.1 10 16:23 03.01.2020
5098 Mist 23 1008 100 8047 1.58 308 15:57 03.01.2020
5099 Mist 22 1008 100 8047 1.58 308 15:38 03.01.2020
5100 Mist 22 1008 100 8047 1.58 308 15:18 03.01.2020
5101 Mist 21 1008 94 8047 2.1 330 14:38 03.01.2020
5102 Mist 21 1008 94 8047 2.1 330 14:38 03.01.2020
5103 Mist 21 1008 94 8047 2.1 330 14:19 03.01.2020
5104 Clear 22 1008 88 9656 2.57 212 13:44 03.01.2020
5105 Clear 22 1008 88 9656 2.57 212 13:44 03.01.2020
5106 Clear 22 1008 88 9656 2.57 212 13:44 03.01.2020
5107 Clear 22 1008 88 9656 2.57 205 13:24 03.01.2020
5108 Clouds 21 1005 80 0 1.34 296 12:59 03.01.2020
5109 Clouds 21 1005 80 0 1.34 296 12:39 03.01.2020
5110 Clouds 21 1004 79 0 2.57 205 12:21 03.01.2020
5111 Clouds 21 1004 78 0 0.89 296 11:45 03.01.2020
5112 Clouds 21 1004 78 0 2.38 197 11:21 03.01.2020
5113 Clouds 22 1004 78 0 0.89 296 10:46 03.01.2020
5114 Clouds 22 1004 78 0 2.38 197 10:27 03.01.2020
5115 Clouds 22 1004 79 0 2.38 197 09:58 03.01.2020
5116 Clouds 22 1004 79 0 0.89 296 09:39 03.01.2020
5117 Clouds 22 1004 76 0 2.38 197 09:21 03.01.2020
5118 Clear 22 1005 83 11265 2.38 197 08:57 03.01.2020
5119 Clear 23 1005 83 11265 2.38 197 08:38 03.01.2020
5120 Clear 22 1005 83 11265 2.34 227 08:19 03.01.2020
5121 Clear 23 1005 83 11265 2.34 227 07:40 03.01.2020
5122 Clear 23 1005 83 11265 2.34 227 07:18 03.01.2020
5123 Clear 24 1005 78 11265 3.6 180 06:49 03.01.2020
5124 Clear 24 1005 78 11265 3.6 180 06:49 03.01.2020
5125 Clear 24 1005 78 11265 3.6 180 06:30 03.01.2020
5126 Clear 25 1005 73 11265 3.1 200 05:45 03.01.2020
5127 Clear 26 1005 74 11265 2.6 180 04:22 03.01.2020
5128 Clouds 25 1004 83 9656 4.68 173 02:56 03.01.2020
5129 Clouds 25 1004 83 9656 4.68 173 02:56 03.01.2020
5130 Clouds 25 1004 83 9656 4.68 173 02:33 03.01.2020
5131 Clouds 25 1003 83 8047 1 50 01:42 03.01.2020
5132 Clouds 26 1002 78 8047 5.1 60 00:50 03.01.2020
5133 Clouds 26 1002 78 8047 5.1 60 00:30 03.01.2020
5134 Clouds 29 1002 55 8047 1 150 23:55 02.01.2020
5135 Clouds 30 1002 55 8047 1 150 23:37 02.01.2020
5136 Clouds 30 1002 55 8047 1 150 23:19 02.01.2020
5137 Clouds 31 1002 58 8047 4.1 170 22:45 02.01.2020
5138 Clouds 31 1002 58 8047 4.1 170 22:22 02.01.2020
5139 Clouds 30 1003 62 8047 3.1 140 22:00 02.01.2020
5140 Clouds 30 1003 62 8047 3.1 140 21:41 02.01.2020
5141 Clouds 29 1003 62 8047 3.1 140 21:23 02.01.2020
5142 Clouds 29 1004 69 6437 2.1 150 20:59 02.01.2020
5143 Clouds 28 1004 69 6437 2.1 150 20:39 02.01.2020
5144 Clouds 28 1004 69 6437 2.1 150 20:21 02.01.2020
5145 Clouds 28 1007 69 6437 3.1 160 19:55 02.01.2020
5146 Clouds 28 1007 69 6437 3.1 160 19:55 02.01.2020
5147 Clouds 28 1007 69 6437 3.1 160 19:55 02.01.2020
5148 Clouds 28 1007 69 6437 3.1 160 19:37 02.01.2020
5149 Clouds 28 1007 69 6437 3.1 160 19:19 02.01.2020
5150 Haze 27 1008 78 6437 3.1 170 18:56 02.01.2020
5151 Haze 27 1008 78 6437 3.1 170 18:38 02.01.2020
5152 Haze 26 1008 78 6437 3.1 170 18:20 02.01.2020
5153 Haze 25 1009 83 6437 2.6 150 17:56 02.01.2020
5154 Haze 25 1009 83 6437 2.6 150 17:36 02.01.2020
5155 Haze 25 1009 83 6437 2.6 150 17:18 02.01.2020
5156 Clouds 24 1009 88 8047 1.5 170 16:56 02.01.2020
5157 Clouds 24 1009 88 8047 1.5 170 16:38 02.01.2020
5158 Clouds 24 1009 88 8047 1.5 170 16:19 02.01.2020
5159 Mist 23 1009 94 8047 4.5 174 15:42 02.01.2020
5160 Mist 22 1009 94 8047 4.5 174 15:24 02.01.2020
5161 Mist 22 1008 100 8047 4.5 174 14:58 02.01.2020
5162 Mist 22 1008 100 8047 4.5 174 14:37 02.01.2020
5163 Mist 22 1008 100 8047 1.64 202 14:19 02.01.2020
5164 Clouds 22 1008 94 8047 1.64 202 13:58 02.01.2020
5165 Clouds 23 1008 94 8047 1.42 227 13:38 02.01.2020
5166 Clouds 23 1008 94 8047 1.42 227 12:59 02.01.2020
5167 Clouds 23 1008 94 8047 1.42 227 12:40 02.01.2020
5168 Clouds 23 1007 80 0 1.42 227 12:20 02.01.2020
5169 Clouds 23 1007 80 0 1.42 227 11:41 02.01.2020
5170 Clouds 23 1007 80 0 1.44 226 11:21 02.01.2020
5171 Clouds 23 1007 80 0 1.44 226 10:46 02.01.2020
5172 Clouds 23 1007 80 0 1.44 226 10:27 02.01.2020
5173 Clouds 23 1007 81 0 0.45 109 09:56 02.01.2020
5174 Clouds 23 1007 80 0 1.44 226 09:35 02.01.2020
5175 Clouds 23 1007 80 0 1.44 226 08:58 02.01.2020
5176 Clouds 23 1008 80 0 1.44 226 08:39 02.01.2020
5177 Clear 23 1008 80 0 2.31 164 08:19 02.01.2020
5178 Clear 23 1008 80 0 2.31 164 07:47 02.01.2020
5179 Clear 23 1009 79 0 2.31 164 07:26 02.01.2020
5180 Clouds 24 1011 88 11265 2.31 164 06:41 02.01.2020
5181 Clouds 24 1011 88 11265 2.31 164 05:38 02.01.2020
5182 Clouds 24 1012 88 11265 3.34 114 04:34 02.01.2020
5183 Clouds 24 1011 83 11265 3.34 114 03:23 02.01.2020
5184 Clouds 24 1010 83 11265 3.45 98 02:21 02.01.2020
5185 Clouds 24 1010 83 9656 3.45 98 01:49 02.01.2020
5186 Clouds 24 1010 83 9656 3.45 98 01:23 02.01.2020
5187 Clouds 25 1009 73 9656 1.5 120 00:38 02.01.2020
5188 Clouds 25 1009 73 9656 1.5 120 00:38 02.01.2020
5189 Clouds 25 1009 73 9656 1.5 120 00:19 02.01.2020
5190 Clouds 25 1009 73 11265 1 110 23:41 01.01.2020
5191 Clouds 25 1009 73 11265 1 110 23:21 01.01.2020
5192 Clouds 26 1010 69 11265 2.6 90 22:39 01.01.2020
5193 Clouds 25 1010 69 11265 2.6 90 22:20 01.01.2020
5194 Clouds 25 1011 73 11265 2.1 90 21:58 01.01.2020
5195 Clouds 25 1011 73 11265 2.1 90 21:39 01.01.2020
5196 Clouds 26 1011 73 11265 2.1 90 21:20 01.01.2020
5197 Clouds 26 1013 69 11265 2.1 170 20:56 01.01.2020
5198 Clouds 26 1013 69 11265 2.1 170 20:38 01.01.2020
5199 Clouds 26 1013 69 11265 2.1 170 20:19 01.01.2020
5200 Clouds 26 1013 69 11265 2.1 170 20:19 01.01.2020
5201 Clouds 26 1014 69 11265 2.1 180 19:55 01.01.2020
5202 Clouds 26 1014 69 11265 2.1 180 19:37 01.01.2020
5203 Clouds 26 1014 69 11265 2.1 180 19:19 01.01.2020
5204 Clouds 25 1016 83 11265 3.1 180 18:56 01.01.2020
5205 Clouds 25 1016 83 11265 3.1 180 18:36 01.01.2020
5206 Clouds 25 1016 83 11265 3.1 180 18:18 01.01.2020
5207 Clouds 24 1016 83 8047 1.5 200 17:56 01.01.2020
5208 Clouds 24 1016 83 8047 1.5 200 17:38 01.01.2020
5209 Clouds 24 1016 83 8047 1.5 200 17:19 01.01.2020
5210 Clouds 23 1016 94 8047 0.62 205 16:42 01.01.2020
5211 Clouds 22 1016 94 8047 0.62 205 16:24 01.01.2020
5212 Clouds 22 1016 94 9656 0.62 205 15:58 01.01.2020
5213 Clouds 22 1016 94 9656 0.62 205 15:40 01.01.2020
5214 Clouds 21 1016 94 9656 0.62 205 15:22 01.01.2020
5215 Clouds 21 1015 94 9656 1 140 14:59 01.01.2020
5216 Clouds 21 1015 94 9656 1 140 14:40 01.01.2020
5217 Clouds 21 1015 94 9656 1 140 14:22 01.01.2020
5218 Clouds 21 1015 94 9656 1.67 121 13:56 01.01.2020
5219 Clouds 21 1015 94 9656 1.67 121 13:37 01.01.2020
5220 Clouds 21 1015 94 9656 2.08 89 13:18 01.01.2020
5221 Clouds 21 1013 83 0 2.08 89 12:57 01.01.2020
5222 Clouds 21 1013 83 0 0.45 227 12:39 01.01.2020
5223 Clouds 21 1013 83 0 0.45 227 12:19 01.01.2020
5224 Clouds 21 1013 83 0 0.89 227 11:43 01.01.2020
5225 Clouds 21 1013 83 0 0.89 227 11:23 01.01.2020
5226 Clouds 21 1013 83 0 0.45 227 10:59 01.01.2020
5227 Clouds 21 1013 83 0 0.45 227 10:41 01.01.2020
5228 Clouds 21 1013 83 0 0.45 227 10:21 01.01.2020
5229 Clouds 21 1013 83 0 0.89 227 09:58 01.01.2020
5230 Clouds 20 1014 83 0 0.89 227 09:37 01.01.2020
5231 Clouds 20 1014 82 0 0.45 227 09:18 01.01.2020
5232 Clouds 20 1014 82 0 0.45 227 09:18 01.01.2020
5233 Clouds 20 1014 82 0 0.45 227 08:55 01.01.2020
5234 Clouds 21 1014 82 0 0.45 227 08:36 01.01.2020
5235 Clear 21 1015 82 0 0.89 227 08:18 01.01.2020
5236 Clear 21 1015 82 0 1.34 217 07:54 01.01.2020
5237 Clear 21 1015 82 0 1.34 217 07:35 01.01.2020
5238 Clouds 20 1018 94 9656 1.59 9 06:44 01.01.2020
5239 Clouds 20 1018 94 9656 1.59 9 06:20 01.01.2020
5240 Clear 21 1018 94 9656 4.01 7 05:21 01.01.2020
5241 Clear 22 1017 88 9656 2.6 10 03:43 01.01.2020
5242 Clear 22 1017 88 9656 2.6 10 03:23 01.01.2020
5243 Clear 22 1016 88 9656 1.5 20 02:57 01.01.2020
5244 Clear 22 1016 88 9656 1.5 20 02:34 01.01.2020
5245 Clear 24 1016 78 9656 2.1 360 01:55 01.01.2020
5246 Clear 24 1016 78 9656 2.1 360 01:36 01.01.2020
5247 Clear 24 1016 78 9656 2.1 360 01:18 01.01.2020
5248 Clear 25 1015 73 9656 2.6 60 00:44 01.01.2020
5249 Clear 25 1015 73 9656 2.6 60 00:24 01.01.2020
5250 Clouds 26 1015 65 9656 3.6 80 23:41 31.12.2019
5251 Clouds 26 1015 65 9656 3.6 80 23:21 31.12.2019
5252 Clouds 25 1016 73 9656 3.6 30 22:57 31.12.2019
5253 Clouds 25 1016 73 9656 3.6 30 22:38 31.12.2019
5254 Clouds 25 1016 73 9656 3.6 30 22:19 31.12.2019
5255 Clouds 26 1016 69 9656 1 60 21:57 31.12.2019
5256 Clouds 26 1016 69 9656 1 60 21:37 31.12.2019
5257 Clouds 26 1016 69 9656 1 60 21:19 31.12.2019
5258 Clouds 26 1016 69 9656 1 60 21:19 31.12.2019
5259 Clouds 25 1018 69 8047 4.12 30 20:54 31.12.2019
5260 Clouds 25 1018 69 8047 4.12 30 20:36 31.12.2019
5261 Clouds 25 1018 69 8047 2.14 101 20:18 31.12.2019
5262 Clouds 24 1019 78 8047 2.14 101 19:41 31.12.2019
5263 Clouds 24 1019 78 8047 2.14 101 19:22 31.12.2019
5264 Clouds 24 1020 73 8047 2.14 101 18:58 31.12.2019
5265 Clouds 24 1020 73 8047 2.14 101 18:40 31.12.2019
5266 Clouds 24 1020 73 8047 2.14 101 18:20 31.12.2019
5267 Clouds 24 1020 73 8047 2.14 101 17:56 31.12.2019
5268 Clouds 24 1020 73 8047 2.14 101 17:38 31.12.2019
5269 Clouds 24 1020 73 8047 2.14 101 17:38 31.12.2019
5270 Clouds 24 1020 73 8047 1.92 197 17:19 31.12.2019
5271 Clear 23 1019 78 8047 1.92 197 16:57 31.12.2019
5272 Clear 23 1019 78 8047 1.92 197 16:38 31.12.2019
5273 Clear 23 1019 78 8047 1.92 197 16:19 31.12.2019
5274 Clear 21 1019 88 8047 1.92 197 15:56 31.12.2019
5275 Clear 21 1019 88 8047 1.92 197 15:38 31.12.2019
5276 Clear 21 1019 88 8047 1.92 197 15:20 31.12.2019
5277 Clear 18 1018 93 8047 1 40 14:57 31.12.2019
5278 Clear 18 1018 93 8047 1 40 14:38 31.12.2019
5279 Clear 18 1018 93 8047 1 40 14:38 31.12.2019
5280 Clear 18 1018 93 8047 1 40 14:19 31.12.2019
5281 Clear 19 1017 93 9656 2.17 211 13:57 31.12.2019
5282 Clear 19 1017 93 9656 2.17 211 13:39 31.12.2019
5283 Clear 19 1017 93 9656 2.28 208 13:20 31.12.2019
5284 Clouds 18 1016 81 0 2.28 208 12:56 31.12.2019
5285 Clouds 18 1016 81 0 2.28 208 12:56 31.12.2019
5286 Clouds 18 1015 81 0 2.28 208 12:38 31.12.2019
5287 Clouds 18 1015 81 0 2.28 208 12:19 31.12.2019
5288 Clouds 19 1017 93 9656 2.28 208 11:56 31.12.2019
5289 Clouds 19 1017 93 9656 2.28 208 11:37 31.12.2019
5290 Clouds 19 1017 93 9656 3.17 233 11:19 31.12.2019
5291 Clouds 20 1017 88 9656 3.17 233 10:56 31.12.2019
5292 Clouds 20 1017 88 9656 3.17 233 10:37 31.12.2019
5293 Clouds 20 1017 88 9656 3.17 233 10:19 31.12.2019
5294 Clouds 20 1017 88 9656 3.17 233 09:58 31.12.2019
5295 Clouds 20 1017 88 9656 3.17 233 09:38 31.12.2019
5296 Clouds 20 1017 88 9656 3.17 233 09:19 31.12.2019
5297 Clouds 20 1017 88 9656 3.17 233 08:43 31.12.2019
5298 Clouds 20 1017 88 9656 3 241 08:24 31.12.2019
5299 Clouds 21 1017 83 9656 3.62 331 07:59 31.12.2019
5300 Clouds 21 1017 83 9656 3.62 331 07:41 31.12.2019
5301 Clouds 21 1017 83 9656 3.62 331 07:19 31.12.2019
5302 Clouds 23 1018 78 9656 3.62 331 06:42 31.12.2019
5303 Clouds 23 1017 73 11265 6.2 360 05:45 31.12.2019
5304 Clouds 23 1017 73 9656 6.7 20 04:27 31.12.2019
5305 Clouds 22 1016 78 9656 7.7 10 03:27 31.12.2019
5306 Clouds 22 1015 78 9656 5.1 360 02:39 31.12.2019
5307 Sand 23 1015 73 8047 6.2 360 01:53 31.12.2019
5308 Sand 23 1015 73 8047 6.2 360 01:34 31.12.2019
5309 Clouds 23 1014 78 9656 7.7 360 00:56 31.12.2019
5310 Clouds 23 1014 78 9656 7.7 360 00:37 31.12.2019
5311 Clouds 23 1014 78 9656 7.7 360 00:18 31.12.2019
5312 Clear 24 1014 73 9656 7.2 360 23:55 30.12.2019
5313 Clear 24 1014 73 9656 7.2 360 23:36 30.12.2019
5314 Clear 24 1014 73 9656 7.2 360 23:18 30.12.2019
5315 Clouds 25 1014 69 9656 10.3 10 22:55 30.12.2019
5316 Clouds 25 1014 69 9656 10.3 10 22:37 30.12.2019
5317 Clouds 25 1014 69 9656 10.3 10 22:18 30.12.2019
5318 Clouds 26 1014 69 9656 5.7 360 21:55 30.12.2019
5319 Clouds 26 1014 69 9656 5.7 360 21:55 30.12.2019
5320 Clouds 26 1014 69 9656 5.7 360 21:55 30.12.2019
5321 Clouds 26 1014 69 9656 5.7 360 21:37 30.12.2019
5322 Clouds 26 1014 69 9656 5.7 360 21:18 30.12.2019
5323 Clouds 26 1015 65 9656 9.3 20 20:54 30.12.2019
5324 Clouds 27 1015 65 9656 9.3 20 20:36 30.12.2019
5325 Clouds 26 1015 65 9656 9.3 20 20:18 30.12.2019
5326 Clear 27 1016 65 8047 5.7 360 19:55 30.12.2019
5327 Clear 27 1016 65 8047 5.7 360 19:36 30.12.2019
5328 Clear 27 1016 65 8047 5.7 360 19:18 30.12.2019
5329 Clear 26 1017 69 8047 5.1 360 18:41 30.12.2019
5330 Clear 26 1017 69 8047 5.1 360 18:21 30.12.2019
5331 Clear 26 1017 69 8047 5.1 360 18:21 30.12.2019
5332 Clear 26 1017 78 8047 5.1 360 17:59 30.12.2019
5333 Clear 26 1017 78 8047 5.1 360 17:41 30.12.2019
5334 Clear 25 1017 78 8047 5.1 360 17:19 30.12.2019
5335 Clear 25 1016 83 6437 4.1 360 16:59 30.12.2019
5336 Clear 24 1016 83 6437 4.1 360 16:40 30.12.2019
5337 Clear 25 1016 83 6437 4.1 360 16:20 30.12.2019
5338 Clear 24 1015 88 6437 5.1 350 15:56 30.12.2019
5339 Clear 23 1015 88 6437 5.1 350 15:38 30.12.2019
5340 Clear 23 1015 88 6437 5.1 350 15:19 30.12.2019
5341 Clear 23 1015 88 6437 5.1 350 15:19 30.12.2019
5342 Clear 23 1014 83 6437 7.7 360 14:54 30.12.2019
5343 Clear 23 1014 83 6437 7.7 360 14:36 30.12.2019
5344 Clear 23 1014 83 6437 7.7 360 14:18 30.12.2019
5345 Clouds 24 1013 83 8047 7.7 40 13:41 30.12.2019
5346 Clouds 24 1013 83 8047 7.7 40 13:23 30.12.2019
5347 Rain 23 1012 74 0 5.81 32 12:58 30.12.2019
5348 Rain 24 1012 78 0 6.26 32 12:39 30.12.2019
5349 Rain 23 1012 80 0 5.81 49 12:19 30.12.2019
5350 Clear 23 1011 83 0 6.26 44 11:56 30.12.2019
5351 Clear 23 1011 84 0 4.47 42 11:37 30.12.2019
5352 Clear 23 1011 84 0 2.24 11 11:18 30.12.2019
5353 Clear 23 1011 84 0 1.34 39 10:42 30.12.2019
5354 Clear 22 1011 83 0 0.45 102 10:20 30.12.2019
5355 Clear 23 1010 83 0 2.29 345 09:44 30.12.2019
5356 Clear 22 1010 83 0 2.29 345 09:21 30.12.2019
5357 Clear 22 1010 83 0 2.29 345 08:57 30.12.2019
5358 Clear 23 1010 83 0 2.29 345 08:39 30.12.2019
5359 Clouds 22 1011 83 0 0.31 346 08:20 30.12.2019
5360 Clouds 23 1011 83 0 0.45 102 07:48 30.12.2019
5361 Clouds 22 1011 83 0 0.44 88 07:23 30.12.2019
5362 Mist 22 1013 94 8047 0.44 88 06:32 30.12.2019
5363 Clouds 23 1012 94 9656 1.55 82 04:31 30.12.2019
5364 Clouds 23 1011 94 9656 1.55 82 03:50 30.12.2019
5365 Clouds 24 1010 94 9656 1 70 02:47 30.12.2019
5366 Clouds 24 1010 94 9656 1 70 02:26 30.12.2019
5367 Clouds 25 1009 83 8047 3.78 103 01:29 30.12.2019
5368 Clouds 26 1008 78 8047 2.1 60 00:59 30.12.2019
5369 Clouds 27 1008 78 8047 2.1 60 00:39 30.12.2019
5370 Clouds 27 1008 74 8047 1 80 23:55 29.12.2019
5371 Clouds 27 1008 74 8047 1 80 23:36 29.12.2019
5372 Clouds 27 1008 74 8047 1 80 23:18 29.12.2019
5373 Clouds 28 1008 69 8047 2.1 100 22:40 29.12.2019
5374 Clouds 28 1008 69 8047 2.1 100 22:21 29.12.2019
5375 Clouds 28 1008 66 8047 2.1 90 21:56 29.12.2019
5376 Clouds 29 1008 66 8047 2.1 90 21:38 29.12.2019
5377 Clouds 29 1008 66 8047 2.1 90 21:19 29.12.2019
5378 Clouds 29 1010 62 8047 1.5 140 20:55 29.12.2019
5379 Clouds 29 1010 62 8047 1.5 140 20:37 29.12.2019
5380 Clouds 29 1010 62 8047 1.5 140 20:18 29.12.2019
5381 Clouds 29 1011 65 8047 2.6 200 19:55 29.12.2019
5382 Clouds 28 1011 65 8047 2.6 200 19:37 29.12.2019
5383 Clouds 28 1011 65 8047 2.6 200 19:19 29.12.2019
5384 Clouds 27 1012 74 6437 4.1 170 18:54 29.12.2019
5385 Clouds 27 1012 74 6437 4.1 170 18:36 29.12.2019
5386 Clouds 26 1012 74 6437 4.1 170 18:18 29.12.2019
5387 Mist 25 1012 78 6437 2.1 200 17:55 29.12.2019
5388 Mist 25 1012 78 6437 2.1 200 17:36 29.12.2019
5389 Mist 25 1012 78 6437 2.1 200 17:18 29.12.2019
5390 Mist 23 1012 94 4828 3.65 198 16:55 29.12.2019
5391 Mist 22 1012 94 4828 3.65 198 16:36 29.12.2019
5392 Mist 22 1012 94 4828 3.65 198 16:18 29.12.2019
5393 Mist 20 1011 100 3219 3.65 198 15:55 29.12.2019
5394 Mist 19 1011 100 3219 3.65 198 15:37 29.12.2019
5395 Mist 19 1011 100 3219 3.65 198 15:18 29.12.2019
5396 Mist 18 1009 100 4828 3.65 198 14:47 29.12.2019
5397 Mist 18 1009 100 4828 2.63 208 14:19 29.12.2019
5398 Clear 18 1009 100 8047 2.63 208 14:00 29.12.2019
5399 Clear 18 1009 100 8047 2.63 208 13:40 29.12.2019
5400 Clear 18 1009 100 8047 2.63 208 13:22 29.12.2019
5401 Clouds 18 1008 83 0 0.89 254 12:58 29.12.2019
5402 Clouds 18 1008 83 0 0.89 254 12:40 29.12.2019
5403 Clouds 19 1008 83 0 2.79 209 12:22 29.12.2019
5404 Clouds 19 1008 83 0 2.79 209 12:22 29.12.2019
5405 Clouds 19 1008 82 0 2.79 209 11:43 29.12.2019
5406 Clouds 19 1008 82 0 2.79 209 11:23 29.12.2019
5407 Clouds 19 1008 82 0 2.06 220 11:00 29.12.2019
5408 Clouds 19 1008 82 0 2.06 220 10:41 29.12.2019
5409 Clouds 20 1008 82 0 2.06 220 10:19 29.12.2019
5410 Clouds 21 1008 82 0 0.45 255 09:47 29.12.2019
5411 Clouds 21 1008 81 0 0.89 255 09:28 29.12.2019
5412 Clouds 21 1008 81 0 0.89 255 09:28 29.12.2019
5413 Clouds 21 1008 80 0 2.06 220 08:59 29.12.2019
5414 Clouds 21 1008 80 0 2.06 220 08:40 29.12.2019
5415 Clouds 21 1008 80 0 2.06 220 08:40 29.12.2019
5416 Clouds 21 1009 80 0 1.14 168 08:21 29.12.2019
5417 Clouds 21 1009 81 0 0.89 192 07:45 29.12.2019
5418 Clouds 20 1009 81 0 1.14 168 07:26 29.12.2019
5419 Mist 20 1011 94 9656 1 300 06:42 29.12.2019
5420 Mist 20 1011 94 9656 1 300 06:19 29.12.2019
5421 Clouds 21 1011 94 9656 1.14 168 05:44 29.12.2019
5422 Clouds 21 1011 94 9656 3.52 88 04:33 29.12.2019
5423 Clouds 22 1010 83 9656 3.52 88 03:36 29.12.2019
5424 Clouds 23 1009 83 9656 1.5 130 02:30 29.12.2019
5425 Clouds 23 1009 83 9656 1.5 130 02:30 29.12.2019
5426 Clouds 23 1009 83 9656 2.6 100 01:52 29.12.2019
5427 Clouds 23 1009 83 9656 2.6 100 01:29 29.12.2019
5428 Clouds 24 1008 78 8047 4.1 90 00:45 29.12.2019
5429 Clouds 24 1008 78 8047 4.1 90 00:25 29.12.2019
5430 Clear 25 1008 69 9656 6.2 90 23:55 28.12.2019
5431 Clear 25 1008 69 9656 6.2 90 23:37 28.12.2019
5432 Clear 25 1008 69 9656 6.2 90 23:18 28.12.2019
5433 Clear 25 1008 69 9656 6.2 90 23:18 28.12.2019
5434 Clear 26 1008 65 9656 5.1 80 22:37 28.12.2019
5435 Clear 26 1008 65 9656 5.1 80 22:18 28.12.2019
5436 Clear 26 1009 69 9656 3.6 70 21:56 28.12.2019
5437 Clear 26 1009 69 9656 3.6 70 21:37 28.12.2019
5438 Rain 26 1009 69 9656 3.6 70 21:19 28.12.2019
5439 Rain 27 1010 57 8047 5.7 180 20:54 28.12.2019
5440 Clear 27 1010 57 8047 5.7 180 20:36 28.12.2019
5441 Clear 27 1010 57 8047 5.7 180 20:18 28.12.2019
5442 Clouds 26 1012 61 8047 4.1 160 19:41 28.12.2019
5443 Clouds 26 1012 61 8047 4.1 160 19:23 28.12.2019
5444 Clouds 25 1013 69 8047 4.1 170 18:59 28.12.2019
5445 Clouds 25 1013 69 8047 4.1 170 18:40 28.12.2019
5446 Clouds 25 1013 69 8047 4.1 170 18:20 28.12.2019
5447 Clouds 23 1014 83 6437 4.6 170 17:58 28.12.2019
5448 Clouds 23 1014 83 6437 4.6 170 17:39 28.12.2019
5449 Clouds 22 1014 83 6437 4.6 170 17:20 28.12.2019
5450 Mist 20 1014 93 4828 2.1 180 16:48 28.12.2019
5451 Mist 20 1014 93 4828 2.1 180 16:26 28.12.2019
5452 Mist 18 1014 100 4828 1 190 15:57 28.12.2019
5453 Mist 18 1014 100 4828 1 190 15:39 28.12.2019
5454 Mist 16 1013 100 1609 3.74 176 15:20 28.12.2019
5455 Mist 16 1013 100 3219 1 200 14:45 28.12.2019
5456 Mist 16 1013 100 3219 1 200 14:24 28.12.2019
5457 Mist 17 1013 93 3219 3.67 167 13:58 28.12.2019
5458 Mist 17 1013 93 3219 3.67 167 13:38 28.12.2019
5459 Mist 18 1012 93 6437 3.67 167 13:19 28.12.2019
5460 Clear 17 1011 83 0 0.89 174 12:44 28.12.2019
5461 Clear 17 1011 83 0 0.89 174 12:44 28.12.2019
5462 Clear 17 1011 83 0 0.89 174 12:25 28.12.2019
5463 Clear 18 1011 83 0 0.45 174 11:58 28.12.2019
5464 Clear 18 1011 83 0 0.45 174 11:39 28.12.2019
5465 Clear 18 1011 83 0 0.89 174 11:20 28.12.2019
5466 Clear 18 1011 83 0 0.89 174 10:46 28.12.2019
5467 Clear 18 1011 83 0 0.89 174 10:46 28.12.2019
5468 Clear 18 1011 83 0 0.89 174 10:22 28.12.2019
5469 Clear 18 1011 83 0 0.89 174 09:58 28.12.2019
5470 Clear 18 1011 82 0 3 193 09:40 28.12.2019
5471 Clear 19 1011 82 0 0.45 174 09:20 28.12.2019
5472 Clear 19 1011 82 0 0.45 174 09:20 28.12.2019
5473 Clear 19 1012 81 0 0.89 174 08:44 28.12.2019
5474 Clear 19 1012 81 0 0.89 174 08:26 28.12.2019
5475 Clouds 21 1012 80 0 0.89 143 07:55 28.12.2019
5476 Clouds 21 1012 80 0 0.89 116 07:32 28.12.2019
5477 Clouds 20 1015 94 9656 2.9 142 06:41 28.12.2019
5478 Clear 21 1015 88 9656 3.1 113 04:59 28.12.2019
5479 Clear 21 1014 94 9656 3.1 113 03:47 28.12.2019
5480 Clear 22 1014 88 8047 3.1 113 02:49 28.12.2019
5481 Clouds 23 1013 83 6437 2.1 90 01:59 28.12.2019
5482 Clouds 23 1013 83 6437 2.1 90 01:31 28.12.2019
5483 Clouds 23 1013 78 8047 1.5 110 00:58 28.12.2019
5484 Clouds 24 1013 78 8047 1.5 110 00:40 28.12.2019
5485 Clouds 24 1013 78 8047 1.5 110 00:20 28.12.2019
5486 Clouds 25 1013 69 9656 2.1 100 23:44 27.12.2019
5487 Clouds 25 1013 69 9656 2.1 100 23:44 27.12.2019
5488 Clouds 25 1013 69 9656 2.1 100 23:20 27.12.2019
5489 Clouds 26 1013 61 9656 2.1 70 22:58 27.12.2019
5490 Clouds 26 1013 61 9656 2.1 70 22:39 27.12.2019
5491 Clouds 26 1013 61 9656 2.1 70 22:20 27.12.2019
5492 Haze 26 1014 61 9656 3.42 86 21:56 27.12.2019
5493 Haze 26 1014 61 9656 3.42 86 21:37 27.12.2019
5494 Haze 26 1014 61 9656 3.42 86 21:19 27.12.2019
5495 Haze 26 1015 61 8047 2.1 50 20:42 27.12.2019
5496 Haze 26 1015 61 8047 2.1 50 20:23 27.12.2019
5497 Haze 26 1016 57 8047 2.44 91 19:43 27.12.2019
5498 Haze 26 1016 57 8047 2.44 91 19:21 27.12.2019
5499 Haze 26 1017 61 8047 2.1 180 18:59 27.12.2019
5500 Haze 26 1017 61 8047 2.1 180 18:40 27.12.2019
5501 Haze 26 1017 61 8047 2.1 180 18:21 27.12.2019
5502 Haze 24 1018 69 6437 1 300 17:58 27.12.2019
5503 Haze 24 1018 69 6437 1 300 17:40 27.12.2019
5504 Haze 24 1018 69 6437 1 300 17:19 27.12.2019
5505 Mist 23 1017 83 4828 0.93 198 16:58 27.12.2019
5506 Mist 23 1017 83 4828 0.93 198 16:38 27.12.2019
5507 Mist 23 1017 83 4828 0.93 198 16:19 27.12.2019
5508 Mist 20 1016 93 6437 0.93 198 15:45 27.12.2019
5509 Mist 19 1016 93 6437 0.93 198 15:22 27.12.2019
5510 Mist 18 1015 93 6437 0.93 198 14:58 27.12.2019
5511 Mist 18 1015 93 6437 0.93 198 14:39 27.12.2019
5512 Mist 18 1015 93 6437 0.47 236 14:20 27.12.2019
5513 Mist 18 1015 93 6437 0.47 236 14:20 27.12.2019
5514 Mist 18 1015 93 8047 0.47 236 13:55 27.12.2019
5515 Mist 18 1015 93 8047 0.47 236 13:37 27.12.2019
5516 Mist 18 1015 93 8047 0.62 205 13:18 27.12.2019
5517 Clouds 18 1013 82 0 0.62 205 12:40 27.12.2019
5518 Clouds 18 1013 81 0 0.45 281 12:22 27.12.2019
5519 Clouds 18 1013 80 0 0.62 205 11:46 27.12.2019
5520 Clouds 18 1013 79 0 0.62 205 11:26 27.12.2019
5521 Clouds 18 1013 79 0 0.62 205 11:26 27.12.2019
5522 Clouds 19 1013 79 0 0.45 281 10:58 27.12.2019
5523 Clouds 20 1013 78 0 1.07 141 10:39 27.12.2019
5524 Clouds 21 1013 75 0 1.07 141 10:21 27.12.2019
5525 Clouds 22 1013 74 0 0.45 281 09:44 27.12.2019
5526 Clouds 21 1013 75 0 1.07 141 09:22 27.12.2019
5527 Clouds 21 1013 75 0 1.07 141 09:22 27.12.2019
5528 Clouds 22 1013 74 0 1.07 141 08:59 27.12.2019
5529 Clouds 22 1014 73 0 1.07 141 08:36 27.12.2019
5530 Clear 22 1014 75 0 0.45 281 07:52 27.12.2019
5531 Clear 22 1014 75 0 0.45 281 07:33 27.12.2019
5532 Clouds 21 1017 88 9656 0.28 168 06:38 27.12.2019
5533 Clouds 21 1017 83 9656 0.28 168 05:38 27.12.2019
5534 Clouds 22 1016 78 8047 1.59 65 03:44 27.12.2019
5535 Clouds 22 1015 73 8047 4.32 70 02:21 27.12.2019
5536 Clouds 23 1014 73 8047 3.6 80 01:38 27.12.2019
5537 Clouds 23 1014 73 8047 3.6 80 01:19 27.12.2019
5538 Clouds 24 1013 69 8047 3.1 80 00:43 27.12.2019
5539 Clouds 24 1013 69 8047 3.1 80 00:24 27.12.2019
5540 Clouds 24 1013 69 8047 3.1 80 00:24 27.12.2019
5541 Haze 25 1013 65 8047 3.6 60 23:42 26.12.2019
5542 Haze 25 1013 65 8047 3.6 60 23:22 26.12.2019
5543 Clouds 26 1012 61 8047 3.1 100 22:48 26.12.2019
5544 Clouds 25 1012 61 8047 3.1 100 22:23 26.12.2019
5545 Clouds 26 1012 65 8047 1.5 110 21:59 26.12.2019
5546 Clouds 26 1012 65 8047 1.5 110 21:39 26.12.2019
5547 Clouds 26 1012 65 8047 1.5 110 21:20 26.12.2019
5548 Haze 26 1013 57 8047 1 130 20:46 26.12.2019
5549 Haze 25 1013 57 8047 1 130 20:23 26.12.2019
5550 Clouds 26 1014 61 6437 1.5 90 19:59 26.12.2019
5551 Clouds 25 1014 61 6437 1.5 90 19:40 26.12.2019
5552 Clouds 25 1014 61 6437 1.5 90 19:22 26.12.2019
5553 Clouds 25 1015 69 8047 2.73 109 18:58 26.12.2019
5554 Clouds 25 1015 69 8047 2.73 109 18:40 26.12.2019
5555 Clouds 25 1015 69 8047 2.73 109 18:19 26.12.2019
5556 Mist 22 1016 83 6437 2.73 109 17:57 26.12.2019
5557 Mist 22 1016 83 6437 2.73 109 17:38 26.12.2019
5558 Mist 22 1016 83 6437 2.73 109 17:38 26.12.2019
5559 Mist 22 1016 83 6437 2.73 109 17:38 26.12.2019
5560 Mist 22 1016 83 6437 1.99 190 17:18 26.12.2019
5561 Clouds 20 1016 94 6437 1.99 190 16:43 26.12.2019
5562 Clouds 20 1016 94 6437 1.99 190 16:23 26.12.2019
5563 Clouds 19 1015 93 6437 1.99 190 15:56 26.12.2019
5564 Clouds 19 1015 93 6437 1.99 190 15:56 26.12.2019
5565 Clouds 19 1015 93 6437 1.99 190 15:38 26.12.2019
5566 Clouds 19 1015 93 6437 1.99 190 15:18 26.12.2019
5567 Mist 19 1014 93 4828 1.99 190 14:40 26.12.2019
5568 Mist 19 1014 93 4828 1.83 231 14:22 26.12.2019
5569 Clouds 19 1014 93 8047 1.83 231 13:44 26.12.2019
5570 Clouds 19 1014 93 8047 2.03 227 13:22 26.12.2019
5571 Clear 18 1015 92 0 2.03 227 12:58 26.12.2019
5572 Clear 18 1015 92 0 2.03 227 12:39 26.12.2019
5573 Clear 18 1015 92 0 2.03 227 12:39 26.12.2019
5574 Clear 18 1015 92 0 2.03 227 12:20 26.12.2019
5575 Clear 18 1015 92 0 2.03 227 11:57 26.12.2019
5576 Clear 18 1015 92 0 2.03 227 11:39 26.12.2019
5577 Clear 18 1014 94 0 2.34 240 11:20 26.12.2019
5578 Clear 18 1014 94 0 2.34 240 10:49 26.12.2019
5579 Clear 18 1014 94 0 2.34 240 10:19 26.12.2019
5580 Clear 18 1014 94 0 2.34 240 10:19 26.12.2019
5581 Clear 18 1014 94 0 2.34 240 10:19 26.12.2019
5582 Clear 18 1014 94 0 2.34 240 09:50 26.12.2019
5583 Clear 18 1014 94 0 2.34 240 09:32 26.12.2019
5584 Clear 18 1014 94 0 2.34 240 08:55 26.12.2019
5585 Clear 18 1014 94 0 2.34 240 08:36 26.12.2019
5586 Clear 20 1014 88 0 1.91 164 08:18 26.12.2019
5587 Clear 20 1015 87 0 1.9 161 07:30 26.12.2019
5588 Clear 20 1015 87 0 1.9 161 07:30 26.12.2019
5589 Clouds 19 1014 93 11265 1.9 161 06:54 26.12.2019
5590 Clouds 19 1014 93 11265 1.9 161 06:32 26.12.2019
5591 Clouds 19 1014 93 11265 1.9 161 05:46 26.12.2019
5592 Clear 21 1013 88 11265 4.16 106 04:59 26.12.2019
5593 Clear 21 1013 88 11265 4.16 106 04:30 26.12.2019
5594 Clear 22 1013 83 11265 1.5 110 03:18 26.12.2019
5595 Clear 22 1012 78 11265 2.6 90 02:38 26.12.2019
5596 Clear 22 1012 78 11265 2.6 90 02:19 26.12.2019
5597 Clear 22 1011 83 9656 2.1 110 01:41 26.12.2019
5598 Clear 22 1011 83 9656 2.1 110 01:22 26.12.2019
5599 Clear 24 1011 69 11265 4.1 100 00:41 26.12.2019
5600 Clear 24 1011 69 11265 4.1 100 00:22 26.12.2019
5601 Clear 24 1010 69 11265 4.1 80 23:42 25.12.2019
5602 Clear 24 1010 69 11265 4.1 80 23:21 25.12.2019
5603 Clear 25 1010 61 9656 4.6 90 22:59 25.12.2019
5604 Clear 25 1010 61 9656 4.6 90 22:40 25.12.2019
5605 Clear 25 1010 61 9656 4.6 90 22:22 25.12.2019
5606 Clear 25 1011 65 9656 4.1 80 21:59 25.12.2019
5607 Clear 25 1011 65 9656 4.1 80 21:40 25.12.2019
5608 Clear 25 1011 65 9656 4.1 80 21:20 25.12.2019
5609 Clouds 26 1012 61 11265 1 140 20:56 25.12.2019
5610 Clouds 26 1012 61 11265 1 140 20:38 25.12.2019
5611 Clouds 26 1012 61 11265 1 140 20:18 25.12.2019
5612 Clouds 25 1013 61 11265 3.6 180 19:43 25.12.2019
5613 Clouds 25 1013 61 11265 3.6 180 19:25 25.12.2019
5614 Clouds 23 1014 73 9656 1.5 160 18:58 25.12.2019
5615 Clouds 23 1014 73 9656 1.5 160 18:37 25.12.2019
5616 Clouds 23 1014 73 9656 1.5 160 18:19 25.12.2019
5617 Clear 22 1015 73 9656 5.7 170 17:42 25.12.2019
5618 Clear 22 1015 73 9656 5.7 170 17:20 25.12.2019
5619 Clear 20 1015 88 8047 2.35 209 16:58 25.12.2019
5620 Clear 20 1015 88 8047 2.35 209 16:37 25.12.2019
5621 Clear 20 1015 88 8047 2.35 209 16:18 25.12.2019
5622 Clear 16 1014 100 8047 2.35 209 15:57 25.12.2019
5623 Clear 16 1014 100 8047 2.35 209 15:39 25.12.2019
5624 Clear 16 1014 100 8047 2.35 209 15:20 25.12.2019
5625 Clear 16 1014 93 8047 2.35 209 14:57 25.12.2019
5626 Clear 16 1014 93 8047 2.35 209 14:39 25.12.2019
5627 Clear 16 1014 93 8047 2.35 209 14:39 25.12.2019
5628 Clear 16 1014 93 8047 2.42 212 14:20 25.12.2019
5629 Clear 16 1014 93 9656 2.42 212 13:44 25.12.2019
5630 Clear 16 1014 93 9656 2.42 212 13:21 25.12.2019
5631 Clear 18 1014 88 0 2.5 206 12:57 25.12.2019
5632 Clear 18 1014 88 0 2.5 206 12:38 25.12.2019
5633 Clear 18 1014 88 0 2.5 206 12:38 25.12.2019
5634 Clear 18 1014 88 0 2.5 206 12:19 25.12.2019
5635 Clear 18 1014 88 0 2.5 206 11:43 25.12.2019
5636 Clear 18 1014 88 0 2.58 194 11:22 25.12.2019
5637 Clear 18 1014 88 0 2.58 194 10:59 25.12.2019
5638 Clear 18 1014 88 0 2.58 194 10:36 25.12.2019
5639 Clear 18 1014 88 0 2.58 194 10:18 25.12.2019
5640 Clear 18 1014 88 0 2.58 194 09:43 25.12.2019
5641 Clear 18 1014 88 0 2.58 194 09:25 25.12.2019
5642 Clear 18 1014 88 0 2.58 194 08:46 25.12.2019
5643 Clear 18 1014 88 0 2.46 192 08:25 25.12.2019
5644 Clear 20 1016 79 0 1.71 195 07:45 25.12.2019
5645 Clear 20 1016 79 0 1.71 195 07:23 25.12.2019
5646 Clear 18 1016 93 11265 1.71 195 06:47 25.12.2019
5647 Clear 18 1016 93 11265 1.71 195 06:22 25.12.2019
5648 Clear 19 1016 88 11265 2.38 126 04:49 25.12.2019
5649 Clear 19 1016 88 11265 2.38 126 04:25 25.12.2019
5650 Clear 20 1016 82 11265 2.38 126 03:58 25.12.2019
5651 Clear 20 1016 82 11265 2.38 126 03:39 25.12.2019
5652 Clear 22 1015 73 11265 1.5 100 02:39 25.12.2019
5653 Clouds 22 1015 73 11265 1.5 100 01:58 25.12.2019
5654 Clouds 22 1015 73 11265 1.5 100 01:25 25.12.2019
5655 Clear 23 1015 69 11265 3.1 90 00:48 25.12.2019
5656 Clear 23 1015 69 11265 3.1 90 00:28 25.12.2019
5657 Clear 24 1015 60 11265 1 120 23:55 24.12.2019
5658 Clear 24 1015 60 11265 1 120 23:37 24.12.2019
5659 Clear 24 1015 60 11265 1 120 23:19 24.12.2019
5660 Clear 24 1015 60 11265 3.1 90 22:39 24.12.2019
5661 Clear 24 1015 60 11265 3.1 90 22:20 24.12.2019
5662 Clouds 25 1015 61 11265 5.1 90 21:42 24.12.2019
5663 Clouds 25 1015 61 11265 5.1 90 21:22 24.12.2019
5664 Clouds 25 1015 61 11265 5.1 90 21:22 24.12.2019
5665 Clouds 24 1017 60 11265 3.67 73 20:45 24.12.2019
5666 Clouds 24 1017 60 11265 3.67 73 20:24 24.12.2019
5667 Clouds 25 1018 57 11265 1 140 19:57 24.12.2019
5668 Clouds 25 1018 57 11265 1 140 19:39 24.12.2019
5669 Clouds 25 1018 57 11265 1 140 19:18 24.12.2019
5670 Clouds 24 1019 60 9656 1.68 84 18:42 24.12.2019
5671 Clouds 24 1019 60 9656 1.68 84 18:20 24.12.2019
5672 Clear 23 1019 64 9656 1.68 84 17:50 24.12.2019
5673 Clear 23 1019 64 9656 1.68 84 17:24 24.12.2019
5674 Clear 19 1019 77 9656 2.19 275 16:59 24.12.2019
5675 Clear 19 1019 77 9656 2.19 275 16:41 24.12.2019
5676 Clear 19 1019 77 9656 2.19 275 16:23 24.12.2019
5677 Clear 19 1019 77 9656 2.19 275 16:22 24.12.2019
5678 Clear 16 1018 82 9656 2.19 275 15:58 24.12.2019
5679 Clear 16 1018 82 9656 2.19 275 15:39 24.12.2019
5680 Clear 16 1018 82 9656 2.19 275 15:20 24.12.2019
5681 Clear 14 1018 93 9656 2.19 275 14:59 24.12.2019
5682 Clear 14 1018 93 9656 2.19 275 14:59 24.12.2019
5683 Clear 14 1018 93 9656 2.19 275 14:41 24.12.2019
5684 Clear 14 1018 93 9656 2.87 286 14:22 24.12.2019
5685 Clear 15 1018 93 9656 2.87 286 13:57 24.12.2019
5686 Clear 15 1018 93 9656 2.87 286 13:39 24.12.2019
5687 Clear 15 1018 93 9656 2.87 286 13:20 24.12.2019
5688 Clouds 18 1018 81 0 2.76 287 12:58 24.12.2019
5689 Clouds 18 1018 81 0 2.76 287 12:58 24.12.2019
5690 Clouds 18 1018 81 0 2.76 287 12:38 24.12.2019
5691 Clouds 18 1018 81 0 2.76 287 12:19 24.12.2019
5692 Clouds 18 1018 81 0 2.76 287 11:58 24.12.2019
5693 Clouds 18 1018 81 0 2.76 287 11:38 24.12.2019
5694 Clear 18 1017 79 0 2.35 310 11:20 24.12.2019
5695 Clear 18 1017 79 0 2.35 310 10:57 24.12.2019
5696 Clear 18 1017 79 0 2.35 310 10:38 24.12.2019
5697 Clear 18 1017 79 0 2.35 310 10:20 24.12.2019
5698 Clear 18 1017 79 0 2.35 310 09:59 24.12.2019
5699 Clear 18 1017 79 0 2.35 310 09:41 24.12.2019
5700 Clear 18 1017 79 0 2.35 310 09:22 24.12.2019
5701 Clear 18 1017 79 0 2.35 310 08:56 24.12.2019
5702 Clear 18 1017 79 0 2.35 310 08:37 24.12.2019
5703 Clouds 19 1020 73 0 1.9 284 08:18 24.12.2019
5704 Clouds 19 1020 73 0 1.9 284 07:43 24.12.2019
5705 Clouds 18 1020 88 11265 1 300 07:21 24.12.2019
5706 Clouds 18 1020 88 11265 1 300 06:40 24.12.2019
5707 Clouds 18 1020 88 11265 1 300 06:22 24.12.2019
5708 Clouds 18 1020 88 11265 1.9 284 05:54 24.12.2019
5709 Clouds 18 1020 88 11265 2.15 15 05:19 24.12.2019
5710 Clouds 18 1020 88 11265 2.15 15 04:21 24.12.2019
5711 Clouds 20 1020 77 11265 2.15 15 03:48 24.12.2019
5712 Clouds 20 1019 77 11265 2.1 50 02:29 24.12.2019
5713 Clouds 21 1019 73 11265 2.6 50 01:55 24.12.2019
5714 Clouds 21 1019 73 11265 2.6 50 01:26 24.12.2019
5715 Clouds 22 1019 64 11265 3.1 40 00:58 24.12.2019
5716 Clouds 22 1019 64 11265 3.1 40 00:39 24.12.2019
5717 Clouds 22 1019 64 11265 3.1 40 00:20 24.12.2019
5718 Clouds 23 1019 56 11265 3.6 30 23:43 23.12.2019
5719 Clouds 23 1019 56 11265 3.6 30 23:24 23.12.2019
5720 Clouds 23 1019 56 11265 3.6 30 23:24 23.12.2019
5721 Clouds 24 1019 50 11265 5.1 50 22:57 23.12.2019
5722 Clouds 24 1019 50 11265 5.1 50 22:38 23.12.2019
5723 Clouds 24 1019 50 11265 5.1 50 22:20 23.12.2019
5724 Clouds 25 1020 38 11265 4.1 40 21:56 23.12.2019
5725 Clouds 25 1020 38 11265 4.1 40 21:37 23.12.2019
5726 Clouds 25 1020 38 11265 4.1 40 21:19 23.12.2019
5727 Clouds 25 1021 41 11265 4.6 10 20:58 23.12.2019
5728 Clouds 25 1021 41 11265 4.6 10 20:58 23.12.2019
5729 Clouds 25 1021 41 11265 4.6 10 20:40 23.12.2019
5730 Clouds 25 1021 41 11265 4.6 10 20:19 23.12.2019
5731 Clouds 25 1021 41 11265 4.6 10 20:19 23.12.2019
5732 Clouds 25 1021 41 11265 4.6 10 20:19 23.12.2019
5733 Clouds 24 1022 38 11265 3.69 11 19:58 23.12.2019
5734 Clouds 24 1022 38 11265 3.69 11 19:39 23.12.2019
5735 Clouds 24 1022 38 11265 3.69 11 19:20 23.12.2019
5736 Clouds 23 1023 49 11265 1 350 18:58 23.12.2019
5737 Clouds 23 1023 49 11265 1 350 18:58 23.12.2019
5738 Clouds 23 1023 49 11265 1 350 18:58 23.12.2019
5739 Clouds 23 1023 49 11265 1 350 18:39 23.12.2019
5740 Clouds 23 1023 49 11265 1 350 18:20 23.12.2019
5741 Clouds 22 1023 64 11265 3.69 11 17:58 23.12.2019
5742 Clouds 22 1023 64 11265 3.69 11 17:39 23.12.2019
5743 Clouds 22 1023 64 11265 4.07 348 17:19 23.12.2019
5744 Clouds 20 1023 77 11265 4.07 348 16:57 23.12.2019
5745 Clouds 20 1023 77 11265 4.07 348 16:39 23.12.2019
5746 Clouds 20 1023 77 11265 4.07 348 16:18 23.12.2019
5747 Clouds 18 1022 88 9656 4.07 348 15:56 23.12.2019
5748 Clouds 18 1022 88 9656 4.07 348 15:36 23.12.2019
5749 Clouds 18 1022 88 9656 4.07 348 15:18 23.12.2019
5750 Clouds 18 1022 88 9656 4.07 348 14:56 23.12.2019
5751 Clouds 18 1022 88 9656 4.07 348 14:37 23.12.2019
5752 Clouds 18 1022 88 9656 4.1 349 14:18 23.12.2019
5753 Clouds 18 1022 82 9656 4.1 349 13:55 23.12.2019
5754 Clouds 18 1022 82 9656 4.1 349 13:37 23.12.2019
5755 Clouds 18 1022 82 9656 4.74 351 13:19 23.12.2019
5756 Clouds 20 1022 66 0 4.74 351 12:41 23.12.2019
5757 Clouds 20 1022 66 0 4.74 351 12:21 23.12.2019
5758 Clouds 20 1022 66 0 4.74 351 11:59 23.12.2019
5759 Clouds 20 1022 66 0 4.74 351 11:41 23.12.2019
5760 Clouds 21 1021 66 0 5.88 348 11:22 23.12.2019
5761 Clouds 21 1021 66 0 5.88 348 10:55 23.12.2019
5762 Clouds 21 1021 66 0 5.88 348 10:37 23.12.2019
5763 Clouds 21 1021 66 0 5.88 348 10:37 23.12.2019
5764 Clouds 21 1021 66 0 5.88 348 10:18 23.12.2019
5765 Clouds 21 1021 66 0 5.88 348 09:54 23.12.2019
5766 Clouds 21 1021 66 0 5.88 348 09:36 23.12.2019
5767 Clouds 21 1021 66 0 5.88 348 09:18 23.12.2019
5768 Clouds 21 1021 66 0 5.88 348 08:41 23.12.2019
5769 Clouds 21 1023 70 0 7.91 350 08:22 23.12.2019
5770 Clouds 20 1022 68 11265 7.7 360 07:56 23.12.2019
5771 Clouds 20 1022 68 11265 7.7 360 07:37 23.12.2019
5772 Clouds 20 1022 68 11265 7.7 360 07:18 23.12.2019
5773 Clouds 20 1023 68 11265 7.7 360 06:39 23.12.2019
5774 Clouds 20 1023 68 11265 7.7 360 06:21 23.12.2019
5775 Clouds 20 1023 64 11265 8.2 10 05:44 23.12.2019
5776 Clouds 20 1022 64 11265 7.7 10 04:40 23.12.2019
5777 Clouds 20 1022 72 11265 7.7 340 03:58 23.12.2019
5778 Clouds 20 1021 72 11265 3.6 10 02:46 23.12.2019
5779 Clouds 20 1021 72 11265 3.6 10 02:19 23.12.2019
5780 Clouds 20 1021 72 11265 8.7 360 01:46 23.12.2019
5781 Clouds 20 1021 72 11265 8.7 360 01:27 23.12.2019
5782 Clouds 21 1020 73 11265 7.7 20 00:46 23.12.2019
5783 Clouds 21 1020 73 11265 7.7 20 00:25 23.12.2019
5784 Clouds 21 1020 68 11265 9.3 10 23:56 22.12.2019
5785 Clouds 21 1020 68 11265 9.3 10 23:37 22.12.2019
5786 Clouds 21 1020 68 11265 9.3 10 23:19 22.12.2019
5787 Clouds 21 1021 73 11265 7.7 10 22:41 22.12.2019
5788 Clouds 21 1021 73 11265 7.7 10 22:23 22.12.2019
5789 Clouds 22 1021 68 9656 6.7 340 21:59 22.12.2019
5790 Clouds 22 1021 68 9656 6.7 340 21:41 22.12.2019
5791 Clouds 22 1021 68 9656 6.7 340 21:22 22.12.2019
5792 Clouds 23 1022 64 11265 5.7 30 20:59 22.12.2019
5793 Clouds 23 1022 64 11265 5.7 30 20:40 22.12.2019
5794 Clouds 23 1022 64 11265 5.7 30 20:19 22.12.2019
5795 Clouds 23 1023 60 11265 3.6 360 19:57 22.12.2019
5796 Clouds 23 1023 60 11265 3.6 360 19:39 22.12.2019
5797 Clouds 23 1023 60 11265 3.6 360 19:20 22.12.2019
5798 Clouds 23 1024 60 11265 3.1 340 18:43 22.12.2019
5799 Clouds 23 1024 60 11265 3.1 340 18:25 22.12.2019
5800 Clouds 21 1024 64 9656 7.2 330 17:57 22.12.2019
5801 Clouds 21 1024 64 9656 7.2 330 17:57 22.12.2019
5802 Clouds 21 1024 64 9656 7.2 330 17:39 22.12.2019
5803 Clouds 21 1024 64 9656 7.2 330 17:19 22.12.2019
5804 Clouds 21 1024 64 9656 7.2 330 17:19 22.12.2019
5805 Clouds 20 1023 72 9656 4.6 10 16:58 22.12.2019
5806 Clouds 20 1023 72 9656 4.6 10 16:40 22.12.2019
5807 Clouds 20 1023 72 9656 4.6 10 16:40 22.12.2019
5808 Clouds 20 1023 72 9656 4.6 10 16:22 22.12.2019
5809 Clouds 19 1022 82 9656 5.7 20 15:57 22.12.2019
5810 Clouds 19 1022 82 9656 5.7 20 15:38 22.12.2019
5811 Clouds 19 1022 82 9656 5.7 20 15:20 22.12.2019
5812 Clouds 18 1021 93 8047 7.1 346 14:55 22.12.2019
5813 Clouds 18 1021 93 8047 7.1 346 14:37 22.12.2019
5814 Clouds 18 1021 93 8047 7.65 337 14:18 22.12.2019
5815 Clouds 18 1021 88 9656 7.65 337 13:55 22.12.2019
5816 Clouds 18 1021 88 9656 7.65 337 13:37 22.12.2019
5817 Clouds 18 1021 88 9656 8.31 342 13:19 22.12.2019
5818 Rain 21 1022 76 0 8.31 342 12:56 22.12.2019
5819 Rain 21 1022 76 0 8.31 342 12:37 22.12.2019
5820 Rain 21 1022 76 0 8.31 342 12:19 22.12.2019
5821 Rain 21 1022 76 0 8.31 342 11:56 22.12.2019
5822 Rain 21 1022 76 0 8.31 342 11:38 22.12.2019
5823 Rain 21 1020 77 0 6.38 331 11:18 22.12.2019
5824 Rain 21 1020 77 0 6.38 331 10:55 22.12.2019
5825 Rain 21 1020 77 0 6.38 331 10:36 22.12.2019
5826 Rain 21 1020 77 0 6.38 331 10:18 22.12.2019
5827 Clouds 20 1021 77 9656 1.5 10 09:57 22.12.2019
5828 Clouds 20 1021 77 9656 1.5 10 09:38 22.12.2019
5829 Clouds 20 1021 77 9656 1.5 10 09:20 22.12.2019
5830 Clouds 20 1021 82 9656 6.38 331 08:42 22.12.2019
5831 Clouds 20 1021 82 9656 10.23 328 08:21 22.12.2019
5832 Clouds 20 1021 72 9656 1.5 340 07:42 22.12.2019
5833 Clouds 20 1021 72 9656 1.5 340 07:21 22.12.2019
5834 Clouds 21 1021 73 9656 4.6 340 06:52 22.12.2019
5835 Clouds 21 1021 73 9656 4.6 340 06:22 22.12.2019
5836 Clouds 21 1021 68 9656 4.6 360 05:29 22.12.2019
5837 Clouds 21 1021 73 9656 7.2 350 04:46 22.12.2019
5838 Clouds 21 1021 73 9656 7.2 350 04:24 22.12.2019
5839 Clouds 21 1019 73 9656 7.2 360 02:43 22.12.2019
5840 Clouds 21 1019 73 9656 7.2 360 02:43 22.12.2019
5841 Clouds 21 1019 73 9656 7.2 360 02:43 22.12.2019
5842 Clouds 21 1019 77 9656 8.7 360 01:59 22.12.2019
5843 Clouds 21 1019 77 9656 8.7 360 01:31 22.12.2019
5844 Clouds 22 1019 78 9656 3.1 360 00:48 22.12.2019
5845 Clouds 22 1019 78 9656 3.1 360 00:29 22.12.2019
5846 Clouds 23 1018 69 9656 3.1 350 23:59 21.12.2019
5847 Clouds 23 1018 69 9656 3.1 350 23:40 21.12.2019
5848 Clouds 23 1018 69 9656 3.1 350 23:20 21.12.2019
5849 Clouds 24 1019 64 9656 2.1 350 22:46 21.12.2019
5850 Clouds 24 1019 64 9656 2.1 350 22:20 21.12.2019
5851 Clouds 24 1019 64 9656 3.6 20 21:58 21.12.2019
5852 Clouds 24 1019 64 9656 3.6 20 21:39 21.12.2019
5853 Clouds 24 1019 64 9656 3.6 20 21:20 21.12.2019
5854 Clouds 24 1020 64 9656 3.1 10 20:59 21.12.2019
5855 Clouds 24 1020 64 9656 3.1 10 20:41 21.12.2019
5856 Clouds 24 1020 64 9656 3.1 10 20:22 21.12.2019
5857 Clouds 24 1021 64 9656 3.6 50 19:58 21.12.2019
5858 Clouds 24 1021 64 9656 3.6 50 19:40 21.12.2019
5859 Clouds 24 1021 64 9656 3.6 50 19:20 21.12.2019
5860 Clouds 23 1022 69 9656 3.1 360 18:56 21.12.2019
5861 Clouds 23 1022 69 9656 3.1 360 18:37 21.12.2019
5862 Clouds 23 1022 69 9656 3.1 360 18:19 21.12.2019
5863 Clouds 22 1022 78 9656 1 360 17:55 21.12.2019
5864 Clouds 22 1022 78 9656 1 360 17:55 21.12.2019
5865 Clouds 22 1022 78 9656 1 360 17:55 21.12.2019
5866 Clouds 22 1022 78 9656 1 360 17:37 21.12.2019
5867 Clouds 22 1022 78 9656 1 360 17:18 21.12.2019
5868 Clouds 22 1022 78 9656 1 360 17:18 21.12.2019
5869 Clouds 21 1022 83 8047 1.5 350 16:41 21.12.2019
5870 Clouds 21 1022 83 8047 1.5 350 16:19 21.12.2019
5871 Clouds 19 1021 88 8047 2.47 319 15:57 21.12.2019
5872 Clouds 19 1021 88 8047 2.47 319 15:39 21.12.2019
5873 Clouds 19 1021 88 8047 2.47 319 15:20 21.12.2019
5874 Clouds 19 1020 88 8047 2.47 319 14:57 21.12.2019
5875 Clouds 19 1020 88 8047 2.47 319 14:38 21.12.2019
5876 Clouds 19 1020 88 8047 2.77 320 14:19 21.12.2019
5877 Clouds 19 1020 88 9656 2.77 320 13:56 21.12.2019
5878 Clouds 19 1020 88 9656 2.77 320 13:38 21.12.2019
5879 Clouds 19 1020 88 9656 2.93 316 13:18 21.12.2019
5880 Clouds 20 1021 81 0 2.93 316 12:55 21.12.2019
5881 Clouds 20 1021 81 0 2.93 316 12:37 21.12.2019
5882 Clouds 20 1021 81 0 2.93 316 12:18 21.12.2019
5883 Clouds 20 1021 81 0 2.93 316 11:43 21.12.2019
5884 Clouds 20 1021 81 0 2.93 316 11:25 21.12.2019
5885 Clouds 20 1020 86 0 2.47 311 10:56 21.12.2019
5886 Clouds 20 1020 86 0 2.47 311 10:38 21.12.2019
5887 Clouds 20 1020 86 0 2.47 311 10:19 21.12.2019
5888 Clouds 20 1020 86 0 2.47 311 09:44 21.12.2019
5889 Clouds 20 1020 86 0 2.47 311 09:22 21.12.2019
5890 Clouds 20 1020 86 0 2.47 311 08:59 21.12.2019
5891 Clouds 20 1020 86 0 2.47 311 08:39 21.12.2019
5892 Clouds 21 1021 87 0 3.6 313 08:21 21.12.2019
5893 Clouds 21 1021 87 0 3.6 313 07:44 21.12.2019
5894 Clouds 21 1021 87 0 3.6 313 07:22 21.12.2019
5895 Clouds 20 1022 82 11265 3.6 313 06:45 21.12.2019
5896 Clouds 20 1022 82 11265 3.6 313 06:26 21.12.2019
5897 Clouds 21 1022 77 9656 1.5 360 05:51 21.12.2019
5898 Clouds 21 1022 77 9656 2.1 360 04:58 21.12.2019
5899 Clouds 21 1021 83 9656 2.6 360 03:57 21.12.2019
5900 Clouds 21 1020 83 9656 3.6 10 02:53 21.12.2019
5901 Clouds 21 1020 83 9656 4.6 360 01:59 21.12.2019
5902 Clouds 21 1020 83 9656 4.6 360 01:28 21.12.2019
5903 Clouds 21 1019 83 9656 4.6 30 00:55 21.12.2019
5904 Clouds 21 1019 83 9656 4.6 30 00:37 21.12.2019
5905 Clouds 21 1019 83 9656 4.6 30 00:18 21.12.2019
5906 Clouds 22 1019 78 8047 4.1 360 23:38 20.12.2019
5907 Clouds 22 1019 78 8047 4.1 360 23:19 20.12.2019
5908 Clouds 23 1019 69 9656 4.6 20 22:41 20.12.2019
5909 Clouds 23 1019 69 9656 4.6 20 22:21 20.12.2019
5910 Clouds 23 1019 69 9656 3.1 40 21:59 20.12.2019
5911 Clouds 23 1019 69 9656 3.1 40 21:40 20.12.2019
5912 Clouds 23 1019 69 9656 3.1 40 21:20 20.12.2019
5913 Clouds 23 1020 69 9656 4.6 20 20:41 20.12.2019
5914 Clouds 23 1020 69 9656 4.6 20 20:21 20.12.2019
5915 Clouds 22 1021 68 9656 2.6 20 19:59 20.12.2019
5916 Clouds 22 1021 68 9656 2.6 20 19:40 20.12.2019
5917 Clouds 22 1021 68 9656 2.6 20 19:20 20.12.2019
5918 Clouds 22 1022 68 9656 3.41 357 18:54 20.12.2019
5919 Clouds 22 1022 68 9656 3.41 357 18:54 20.12.2019
5920 Clouds 22 1022 68 9656 3.41 357 18:54 20.12.2019
5921 Clouds 22 1022 68 9656 3.41 357 18:36 20.12.2019
5922 Clouds 22 1022 68 9656 3.41 357 18:36 20.12.2019
5923 Clouds 22 1022 68 9656 3.41 357 18:18 20.12.2019
5924 Clouds 22 1022 73 9656 3.41 357 17:42 20.12.2019
5925 Clouds 22 1022 73 9656 3.41 357 17:42 20.12.2019
5926 Clouds 21 1022 73 9656 3 308 17:21 20.12.2019
5927 Mist 20 1022 82 11265 3 308 16:59 20.12.2019
5928 Mist 20 1022 82 11265 3 308 16:39 20.12.2019
5929 Mist 20 1022 82 11265 3 308 16:20 20.12.2019
5930 Mist 20 1022 82 11265 3 308 16:20 20.12.2019
5931 Mist 18 1022 88 11265 3 308 15:57 20.12.2019
5932 Mist 18 1022 88 11265 3 308 15:38 20.12.2019
5933 Mist 18 1022 88 11265 3 308 15:19 20.12.2019
5934 Mist 17 1021 93 11265 3 308 14:57 20.12.2019
5935 Mist 17 1021 93 11265 3 308 14:39 20.12.2019
5936 Mist 16 1021 93 11265 2.43 315 14:20 20.12.2019
5937 Clouds 17 1021 88 9656 2.43 315 13:41 20.12.2019
5938 Clouds 17 1021 88 9656 2.66 321 13:21 20.12.2019
5939 Rain 17 1020 79 0 0.45 196 12:59 20.12.2019
5940 Rain 17 1020 79 0 2.66 321 12:40 20.12.2019
5941 Rain 17 1020 79 0 2.66 321 12:19 20.12.2019
5942 Rain 18 1020 78 0 2.66 321 11:59 20.12.2019
5943 Rain 18 1019 78 0 2.66 321 11:39 20.12.2019
5944 Rain 18 1020 78 0 3.54 314 11:20 20.12.2019
5945 Rain 18 1020 78 0 3.54 314 10:58 20.12.2019
5946 Rain 18 1020 78 0 0.45 196 10:40 20.12.2019
5947 Rain 18 1020 78 0 0.89 196 10:20 20.12.2019
5948 Rain 18 1020 78 0 0.45 195 09:55 20.12.2019
5949 Rain 18 1020 78 0 0.45 196 09:37 20.12.2019
5950 Rain 18 1020 77 0 0.45 196 09:19 20.12.2019
5951 Rain 18 1021 77 0 0.45 196 08:42 20.12.2019
5952 Clouds 18 1021 76 0 3.9 331 08:22 20.12.2019
5953 Clouds 18 1023 88 11265 1.5 360 07:58 20.12.2019
5954 Clouds 18 1023 88 11265 1.5 360 07:40 20.12.2019
5955 Clouds 18 1023 88 11265 1.5 360 07:19 20.12.2019
5956 Clouds 19 1024 77 11265 2.6 10 06:50 20.12.2019
5957 Clouds 19 1024 77 11265 2.6 10 06:31 20.12.2019
5958 Clouds 19 1024 77 11265 2.6 350 05:52 20.12.2019
5959 Clouds 19 1024 77 11265 2.6 350 05:34 20.12.2019
5960 Clouds 19 1023 77 11265 3.6 360 03:57 20.12.2019
5961 Clouds 19 1023 77 11265 3.6 360 03:29 20.12.2019
5962 Clouds 19 1023 72 11265 4.1 20 02:41 20.12.2019
5963 Clouds 20 1022 68 11265 3.6 10 01:44 20.12.2019
5964 Clouds 20 1022 68 11265 3.6 10 01:44 20.12.2019
5965 Clouds 20 1022 68 11265 3.6 10 01:18 20.12.2019
5966 Clouds 20 1022 72 11265 5.1 10 00:41 20.12.2019
5967 Clouds 20 1022 72 11265 5.1 10 00:19 20.12.2019
5968 Clouds 21 1022 64 11265 6.7 10 23:42 19.12.2019
5969 Clouds 21 1022 64 11265 6.7 10 23:23 19.12.2019
5970 Clouds 21 1022 64 11265 3.6 10 22:56 19.12.2019
5971 Clouds 21 1022 64 11265 3.6 10 22:36 19.12.2019
5972 Clouds 21 1022 64 11265 3.6 10 22:18 19.12.2019
5973 Clouds 21 1023 60 11265 5.1 30 21:42 19.12.2019
5974 Clouds 21 1023 60 11265 5.1 30 21:42 19.12.2019
5975 Clouds 21 1023 60 11265 5.1 30 21:20 19.12.2019
5976 Clouds 22 1024 53 9656 3.1 70 20:59 19.12.2019
5977 Clouds 22 1024 53 9656 3.1 70 20:39 19.12.2019
5978 Clouds 22 1024 53 9656 3.1 70 20:20 19.12.2019
5979 Clouds 22 1024 53 9656 3.1 70 20:20 19.12.2019
5980 Clouds 21 1025 52 9656 4.25 337 19:59 19.12.2019
5981 Clouds 21 1025 52 9656 4.25 337 19:40 19.12.2019
5982 Clouds 21 1025 52 9656 4.25 337 19:20 19.12.2019
5983 Clouds 20 1026 60 9656 1.5 330 19:00 19.12.2019
5984 Clouds 20 1026 60 9656 1.5 330 18:40 19.12.2019
5985 Clouds 20 1026 60 9656 1.5 330 18:20 19.12.2019
5986 Clouds 20 1026 63 8047 1.5 330 17:57 19.12.2019
5987 Clouds 20 1026 63 8047 1.5 330 17:38 19.12.2019
5988 Clouds 20 1026 63 8047 1.5 330 17:38 19.12.2019
5989 Clouds 19 1026 63 8047 1.5 330 17:18 19.12.2019
5990 Clouds 19 1026 68 8047 4.26 321 16:57 19.12.2019
5991 Clouds 18 1026 68 8047 4.26 321 16:38 19.12.2019
5992 Clouds 18 1026 68 8047 4.26 321 16:20 19.12.2019
5993 Clouds 18 1026 68 8047 4.26 321 16:20 19.12.2019
5994 Clouds 17 1024 65 0 0.89 298 15:58 19.12.2019
5995 Clouds 17 1024 65 0 0.89 298 15:38 19.12.2019
5996 Clouds 17 1024 61 0 0.89 339 15:19 19.12.2019
5997 Clouds 17 1024 61 0 0.89 339 14:57 19.12.2019
5998 Clouds 17 1024 61 0 0.89 339 14:39 19.12.2019
5999 Clouds 17 1023 63 0 0.89 308 14:18 19.12.2019
6000 Clouds 16 1023 62 0 3.79 330 13:39 19.12.2019
6001 Clouds 16 1023 65 0 3.47 324 13:20 19.12.2019
6002 Clouds 16 1023 65 0 3.47 324 12:59 19.12.2019
6003 Clouds 16 1023 63 0 3.47 324 12:40 19.12.2019
6004 Clouds 16 1023 61 0 3.47 324 12:19 19.12.2019
6005 Clouds 16 1023 61 0 3.47 324 11:59 19.12.2019
6006 Clouds 16 1022 60 0 3.47 324 11:41 19.12.2019
6007 Clouds 16 1022 59 0 0.45 307 11:19 19.12.2019
6008 Clouds 16 1022 59 0 0.45 307 10:59 19.12.2019
6009 Clouds 16 1022 54 0 1.34 307 10:38 19.12.2019
6010 Clouds 16 1022 54 0 1.34 307 10:38 19.12.2019
6011 Clouds 16 1022 66 0 0.89 294 10:20 19.12.2019
6012 Clouds 16 1022 66 0 0.89 294 09:56 19.12.2019
6013 Clouds 16 1022 66 0 0.89 294 09:37 19.12.2019
6014 Clouds 16 1023 69 0 0.45 267 09:19 19.12.2019
6015 Clouds 16 1023 69 0 0.45 267 08:55 19.12.2019
6016 Clouds 16 1023 69 0 4.14 319 08:37 19.12.2019
6017 Clouds 16 1023 66 0 3.37 329 08:18 19.12.2019
6018 Clouds 16 1024 62 0 3.37 329 07:43 19.12.2019
6019 Clouds 16 1024 62 0 3.37 329 07:24 19.12.2019
6020 Clouds 15 1026 67 9656 3.37 329 06:59 19.12.2019
6021 Clouds 16 1026 67 9656 3.37 329 06:41 19.12.2019
6022 Clouds 16 1026 67 9656 3.37 329 06:21 19.12.2019
6023 Clouds 16 1026 63 9656 3.37 329 05:42 19.12.2019
6024 Clouds 17 1026 63 9656 4.71 318 05:19 19.12.2019
6025 Clouds 18 1026 59 9656 3.6 360 03:53 19.12.2019
6026 Clouds 17 1025 59 9656 3.6 360 02:28 19.12.2019
6027 Clouds 18 1025 52 9656 5.1 360 01:25 19.12.2019
6028 Clouds 18 1025 52 9656 5.1 350 00:57 19.12.2019
6029 Clouds 18 1025 52 9656 5.1 350 00:38 19.12.2019
6030 Clouds 18 1025 52 9656 5.1 350 00:19 19.12.2019
6031 Clouds 19 1024 48 9656 6.7 10 23:44 18.12.2019
6032 Clouds 19 1024 48 9656 6.7 10 23:19 18.12.2019
6033 Clouds 19 1024 48 9656 6.7 10 22:56 18.12.2019
6034 Clouds 19 1024 48 9656 6.7 10 22:56 18.12.2019
6035 Clouds 19 1024 48 9656 6.7 10 22:38 18.12.2019
6036 Clouds 19 1024 48 9656 6.7 10 22:20 18.12.2019
6037 Clouds 19 1025 93 9656 6.2 10 21:58 18.12.2019
6038 Clouds 19 1025 93 9656 6.2 10 21:39 18.12.2019
6039 Clouds 19 1025 93 9656 6.2 10 21:39 18.12.2019
6040 Clouds 19 1025 93 9656 6.2 10 21:39 18.12.2019
6041 Clouds 19 1025 93 9656 6.2 10 21:20 18.12.2019
6042 Clouds 19 1026 48 9656 5.1 360 20:56 18.12.2019
6043 Clouds 18 1026 48 9656 5.1 360 20:38 18.12.2019
6044 Clouds 18 1026 48 9656 5.1 360 20:19 18.12.2019
6045 Clouds 18 1027 52 9656 7.7 350 19:56 18.12.2019
6046 Clouds 18 1027 52 9656 7.7 350 19:37 18.12.2019
6047 Clouds 18 1027 52 9656 7.7 350 19:18 18.12.2019
6048 Clouds 18 1028 48 9656 10.3 360 18:45 18.12.2019
6049 Clouds 18 1028 48 9656 10.3 360 18:45 18.12.2019
6050 Clouds 18 1028 48 9656 10.3 360 18:26 18.12.2019
6051 Clouds 18 1028 48 9656 9.3 350 17:58 18.12.2019
6052 Clouds 18 1028 48 9656 9.3 350 17:40 18.12.2019
6053 Clouds 18 1028 48 9656 9.3 350 17:20 18.12.2019
6054 Clouds 18 1028 48 9656 9.3 350 17:20 18.12.2019
6055 Clouds 17 1027 51 9656 6.2 360 16:58 18.12.2019
6056 Clouds 17 1027 51 9656 6.2 360 16:40 18.12.2019
6057 Clouds 17 1027 51 9656 6.2 360 16:22 18.12.2019
6058 Clouds 17 1026 55 9656 7.7 350 15:57 18.12.2019
6059 Clouds 17 1026 55 9656 7.7 350 15:38 18.12.2019
6060 Clouds 17 1026 55 9656 7.7 350 15:20 18.12.2019
6061 Clouds 18 1025 52 9656 9.3 360 14:43 18.12.2019
6062 Clouds 18 1025 52 9656 9.3 360 14:22 18.12.2019
6063 Sand 18 1024 52 8047 9.3 350 13:58 18.12.2019
6064 Sand 18 1024 52 8047 9.3 350 13:40 18.12.2019
6065 Sand 18 1024 52 8047 9.3 350 13:21 18.12.2019
6066 Clouds 18 1023 45 0 8.05 346 12:59 18.12.2019
6067 Clouds 18 1022 44 0 8.05 360 12:40 18.12.2019
6068 Clouds 18 1022 43 0 9.39 325 12:21 18.12.2019
6069 Clouds 18 1022 43 0 10.73 335 11:56 18.12.2019
6070 Clouds 18 1022 44 0 9.39 350 11:38 18.12.2019
6071 Clouds 18 1021 44 0 8.05 345 11:20 18.12.2019
6072 Clouds 19 1021 44 0 8.05 347 10:57 18.12.2019
6073 Clouds 19 1021 43 0 9.39 342 10:39 18.12.2019
6074 Clouds 19 1021 44 0 7.6 355 10:20 18.12.2019
6075 Clouds 19 1021 44 0 7.6 355 09:57 18.12.2019
6076 Clouds 19 1021 41 0 8.05 360 09:19 18.12.2019
6077 Clouds 19 1021 42 0 8.94 350 08:42 18.12.2019
6078 Clouds 19 1021 41 0 10.73 5 08:24 18.12.2019
6079 Clouds 19 1021 41 0 8.49 346 07:55 18.12.2019
6080 Clouds 19 1021 40 0 11.18 334 07:37 18.12.2019
6081 Clouds 19 1021 40 0 9.39 344 07:19 18.12.2019
6082 Sand 20 1021 45 8047 7.7 360 06:50 18.12.2019
6083 Sand 20 1021 45 8047 7.7 360 06:22 18.12.2019
6084 Sand 20 1021 45 8047 10.3 360 05:27 18.12.2019
6085 Sand 20 1019 52 8047 10.3 350 03:31 18.12.2019
6086 Sand 19 1018 63 6437 12.9 360 02:41 18.12.2019
6087 Sand 20 1018 63 6437 12.9 360 02:23 18.12.2019
6088 Sand 19 1018 63 6437 12.9 360 01:42 18.12.2019
6089 Sand 19 1018 63 6437 12.9 360 01:24 18.12.2019
6090 Sand 20 1016 68 6437 12.9 360 00:42 18.12.2019
6091 Sand 20 1016 68 6437 12.9 360 00:24 18.12.2019
6092 Sand 20 1016 68 6437 12.9 360 00:24 18.12.2019
6093 Sand 21 1016 68 8047 12.9 350 23:58 17.12.2019
6094 Sand 21 1016 68 8047 12.9 350 23:39 17.12.2019
6095 Sand 21 1016 68 8047 12.9 350 23:20 17.12.2019
6096 Sand 22 1016 64 8047 12.9 350 22:56 17.12.2019
6097 Sand 23 1016 64 8047 12.9 350 22:38 17.12.2019
6098 Sand 23 1016 64 8047 12.9 350 22:19 17.12.2019
6099 Sand 23 1016 69 8047 12.9 360 21:56 17.12.2019
6100 Sand 23 1016 69 8047 12.9 360 21:56 17.12.2019
6101 Sand 23 1016 69 8047 12.9 360 21:38 17.12.2019
6102 Sand 23 1016 69 8047 12.9 360 21:19 17.12.2019
6103 Sand 24 1016 69 6437 12.3 360 20:57 17.12.2019
6104 Sand 24 1016 69 6437 12.3 360 20:38 17.12.2019
6105 Sand 24 1016 69 6437 12.3 360 20:18 17.12.2019
6106 Sand 24 1017 73 6437 12.3 350 19:56 17.12.2019
6107 Sand 24 1017 73 6437 12.3 350 19:38 17.12.2019
6108 Sand 24 1017 73 6437 10.3 20 19:18 17.12.2019
6109 Sand 25 1017 73 6437 10.3 360 18:54 17.12.2019
6110 Sand 25 1017 73 6437 10.3 360 18:36 17.12.2019
6111 Sand 25 1017 73 6437 10.3 360 18:18 17.12.2019
6112 Sand 25 1017 78 6437 10.3 340 17:42 17.12.2019
6113 Sand 25 1017 78 6437 10.3 340 17:20 17.12.2019
6114 Haze 25 1016 73 6437 10.3 10 16:56 17.12.2019
6115 Haze 25 1016 73 6437 10.3 10 16:38 17.12.2019
6116 Haze 25 1016 73 6437 10.3 10 16:19 17.12.2019
6117 Haze 24 1014 78 6437 10.3 360 15:58 17.12.2019
6118 Haze 25 1014 78 6437 10.3 360 15:37 17.12.2019
6119 Haze 25 1014 78 6437 10.3 360 15:19 17.12.2019
6120 Clouds 23 1013 88 8047 5.1 350 14:55 17.12.2019
6121 Clouds 23 1013 88 8047 5.1 350 14:37 17.12.2019
6122 Clouds 23 1013 88 8047 5.1 350 14:18 17.12.2019
6123 Clear 23 1012 73 9656 6.2 40 13:55 17.12.2019
6124 Clear 24 1012 73 9656 6.2 40 13:37 17.12.2019
6125 Rain 24 1012 73 9656 6.2 40 13:18 17.12.2019
6126 Rain 24 1010 72 0 6.26 24 12:41 17.12.2019
6127 Clear 23 1010 84 0 3.58 59 12:19 17.12.2019
6128 Clear 23 1010 84 0 1.34 46 11:59 17.12.2019
6129 Clear 22 1010 84 0 1.34 355 11:38 17.12.2019
6130 Clear 22 1010 84 0 3.13 355 11:19 17.12.2019
6131 Clear 22 1010 84 0 3.13 355 11:19 17.12.2019
6132 Clear 22 1010 84 0 0.45 344 10:59 17.12.2019
6133 Clear 22 1010 84 0 0.45 344 10:59 17.12.2019
6134 Clear 22 1010 84 0 0.89 344 10:41 17.12.2019
6135 Clear 22 1009 84 0 0.89 355 10:23 17.12.2019
6136 Mist 22 1011 100 4828 1.5 310 09:59 17.12.2019
6137 Mist 22 1011 100 4828 1.5 310 09:59 17.12.2019
6138 Mist 22 1011 100 4828 1.5 310 09:41 17.12.2019
6139 Mist 22 1011 100 4828 1.5 310 09:20 17.12.2019
6140 Mist 23 1011 100 4828 1 300 08:56 17.12.2019
6141 Mist 23 1011 100 4828 1 300 08:38 17.12.2019
6142 Mist 23 1011 100 4828 1 300 08:38 17.12.2019
6143 Mist 23 1011 100 4828 1 300 08:20 17.12.2019
6144 Mist 23 1011 100 6437 1.5 320 07:54 17.12.2019
6145 Mist 23 1011 100 6437 1.5 320 07:36 17.12.2019
6146 Mist 23 1011 100 6437 1.5 320 07:18 17.12.2019
6147 Mist 23 1012 100 6437 1.5 348 06:35 17.12.2019
6148 Mist 24 1012 94 8047 1 320 05:54 17.12.2019
6149 Mist 24 1012 94 8047 1 320 05:36 17.12.2019
6150 Clear 24 1011 94 8047 2.1 340 04:33 17.12.2019
6151 Clear 24 1009 94 8047 2.1 50 02:45 17.12.2019
6152 Clear 25 1008 88 8047 1 120 01:56 17.12.2019
6153 Clear 25 1008 88 8047 1 120 01:18 17.12.2019
6154 Clear 28 1007 74 9656 2.6 80 00:38 17.12.2019
6155 Clear 28 1007 74 9656 2.6 80 00:38 17.12.2019
6156 Clear 28 1007 74 9656 2.6 80 00:38 17.12.2019
6157 Clear 28 1007 74 9656 2.6 80 00:19 17.12.2019
6158 Clear 30 1007 58 9656 2.6 190 23:42 16.12.2019
6159 Clear 30 1007 58 9656 2.6 190 23:19 16.12.2019
6160 Clear 31 1007 58 9656 3.1 170 22:58 16.12.2019
6161 Clear 31 1007 58 9656 3.1 170 22:37 16.12.2019
6162 Clear 31 1007 58 9656 3.1 170 22:19 16.12.2019
6163 Clear 31 1007 58 9656 3.1 170 22:19 16.12.2019
6164 Clear 30 1007 58 8047 3.6 170 21:55 16.12.2019
6165 Clear 30 1007 58 8047 3.6 170 21:55 16.12.2019
6166 Clear 30 1007 58 8047 3.6 170 21:37 16.12.2019
6167 Clear 30 1007 58 8047 3.6 170 21:19 16.12.2019
6168 Haze 29 1008 66 6437 2.6 190 20:57 16.12.2019
6169 Haze 29 1008 66 6437 2.6 190 20:37 16.12.2019
6170 Haze 29 1008 66 6437 2.6 190 20:19 16.12.2019
6171 Haze 29 1010 69 6437 3.1 190 19:56 16.12.2019
6172 Haze 29 1010 69 6437 3.1 190 19:56 16.12.2019
6173 Haze 28 1010 69 6437 3.1 190 19:37 16.12.2019
6174 Haze 28 1010 69 6437 3.1 190 19:18 16.12.2019
6175 Haze 27 1011 78 4828 2.6 180 18:56 16.12.2019
6176 Haze 27 1011 78 4828 2.6 180 18:38 16.12.2019
6177 Haze 26 1011 78 4828 2.6 180 18:19 16.12.2019
6178 Mist 25 1012 88 4828 2.6 170 17:57 16.12.2019
6179 Mist 25 1012 88 4828 2.6 170 17:38 16.12.2019
6180 Mist 25 1012 88 4828 2.6 170 17:19 16.12.2019
6181 Mist 22 1012 100 1609 3.23 178 16:55 16.12.2019
6182 Mist 22 1012 100 1609 3.23 178 16:37 16.12.2019
6183 Mist 21 1012 100 1609 3.23 178 16:19 16.12.2019
6184 Mist 20 1012 100 1609 3.23 178 15:57 16.12.2019
6185 Mist 19 1012 100 1609 3.23 178 15:38 16.12.2019
6186 Mist 20 1012 100 1609 3.23 178 15:20 16.12.2019
6187 Mist 18 1011 100 1609 1 170 14:55 16.12.2019
6188 Mist 18 1011 100 1609 1 170 14:36 16.12.2019
6189 Mist 18 1011 100 1207 3.04 212 14:18 16.12.2019
6190 Fog 18 1011 100 805 3.04 212 13:55 16.12.2019
6191 Fog 19 1011 100 805 3.04 212 13:37 16.12.2019
6192 Fog 19 1011 100 0 3.16 210 13:19 16.12.2019
6193 Clear 19 1009 85 0 3.16 210 12:54 16.12.2019
6194 Clear 19 1009 85 0 3.16 210 12:54 16.12.2019
6195 Clear 19 1009 85 0 2.88 216 12:36 16.12.2019
6196 Clear 19 1008 85 0 0.45 200 12:18 16.12.2019
6197 Clear 19 1008 85 0 0.45 200 12:18 16.12.2019
6198 Clear 19 1009 84 0 0.89 200 11:55 16.12.2019
6199 Rain 20 1008 85 0 0.45 200 11:37 16.12.2019
6200 Rain 20 1008 85 0 0.89 192 11:19 16.12.2019
6201 Rain 21 1008 85 0 0.45 258 10:40 16.12.2019
6202 Clear 21 1009 84 0 0.89 257 10:21 16.12.2019
6203 Clear 21 1009 84 0 0.89 262 09:56 16.12.2019
6204 Clear 21 1009 84 0 0.89 250 09:38 16.12.2019
6205 Clear 21 1009 84 0 1.34 251 09:20 16.12.2019
6206 Fog 21 1012 100 402 2.51 234 08:39 16.12.2019
6207 Fog 21 1012 100 402 1.74 181 08:19 16.12.2019
6208 Fog 21 1012 100 402 1.74 181 07:51 16.12.2019
6209 Mist 22 1012 94 1609 1.74 181 07:31 16.12.2019
6210 Mist 22 1012 100 1207 1.74 181 06:49 16.12.2019
6211 Mist 22 1012 100 1207 1.74 181 06:27 16.12.2019
6212 Fog 22 1012 100 805 1.74 181 05:58 16.12.2019
6213 Fog 22 1012 100 805 1.74 181 05:39 16.12.2019
6214 Fog 22 1012 100 805 2.61 114 05:21 16.12.2019
6215 Clear 24 1010 94 9656 1 100 02:59 16.12.2019
6216 Clear 24 1010 88 8047 1.5 100 01:45 16.12.2019
6217 Clear 25 1009 78 9656 1 110 00:56 16.12.2019
6218 Clear 25 1009 78 9656 1 110 00:37 16.12.2019
6219 Clear 25 1009 78 9656 1 110 00:18 16.12.2019
6220 Clear 27 1009 69 8047 4.1 80 23:40 15.12.2019
6221 Clear 27 1009 69 8047 4.1 80 23:22 15.12.2019
6222 Clear 28 1009 69 8047 2.6 70 22:56 15.12.2019
6223 Clear 28 1009 69 8047 2.6 70 22:38 15.12.2019
6224 Clear 28 1009 69 8047 2.6 70 22:19 15.12.2019
6225 Clouds 29 1011 58 8047 1 120 21:57 15.12.2019
6226 Clouds 29 1011 58 8047 1 120 21:38 15.12.2019
6227 Clouds 29 1011 58 8047 1 120 21:19 15.12.2019
6228 Haze 29 1012 62 6437 3.6 200 20:57 15.12.2019
6229 Haze 29 1012 62 6437 3.6 200 20:38 15.12.2019
6230 Haze 29 1012 62 6437 3.6 200 20:38 15.12.2019
6231 Haze 29 1012 62 6437 3.6 200 20:19 15.12.2019
6232 Haze 28 1013 69 6437 5.1 180 19:57 15.12.2019
6233 Haze 27 1013 69 6437 5.1 180 19:39 15.12.2019
6234 Haze 27 1013 69 6437 5.1 180 19:19 15.12.2019
6235 Haze 27 1014 74 6437 2.1 150 18:57 15.12.2019
6236 Haze 27 1014 74 6437 2.1 150 18:38 15.12.2019
6237 Haze 27 1014 74 6437 2.1 150 18:38 15.12.2019
6238 Haze 27 1014 74 6437 2.1 150 18:18 15.12.2019
6239 Mist 26 1015 83 4828 4.1 190 17:56 15.12.2019
6240 Mist 26 1015 83 4828 4.1 190 17:37 15.12.2019
6241 Mist 25 1015 83 4828 4.1 190 17:19 15.12.2019
6242 Mist 24 1015 94 4828 3.1 180 16:57 15.12.2019
6243 Mist 24 1015 94 4828 3.1 180 16:39 15.12.2019
6244 Mist 23 1015 94 4828 3.1 180 16:20 15.12.2019
6245 Mist 21 1014 100 1609 3.3 195 15:55 15.12.2019
6246 Rain 21 1014 100 1609 3.35 197 15:37 15.12.2019
6247 Rain 21 1014 100 1609 3.3 195 15:18 15.12.2019
6248 Rain 21 1014 100 805 3.3 195 14:55 15.12.2019
6249 Fog 20 1014 100 805 3.3 195 14:36 15.12.2019
6250 Clear 20 1012 85 0 0.45 200 14:18 15.12.2019
6251 Clear 20 1012 85 0 0.45 200 14:18 15.12.2019
6252 Fog 19 1013 100 0 3.62 179 13:55 15.12.2019
6253 Fog 19 1013 100 0 3.56 183 13:36 15.12.2019
6254 Fog 19 1013 100 0 3.62 179 13:18 15.12.2019
6255 Fog 19 1013 100 0 3.62 179 12:55 15.12.2019
6256 Fog 20 1013 100 0 3.62 179 12:37 15.12.2019
6257 Fog 20 1013 100 0 3.62 179 12:37 15.12.2019
6258 Clear 20 1011 84 0 3.62 179 12:19 15.12.2019
6259 Clear 21 1011 84 0 3.62 179 11:38 15.12.2019
6260 Clear 21 1010 84 0 3.59 179 11:19 15.12.2019
6261 Clear 21 1010 84 0 3.59 179 10:58 15.12.2019
6262 Clear 21 1010 84 0 3.59 179 10:40 15.12.2019
6263 Clear 21 1010 84 0 3.59 179 10:19 15.12.2019
6264 Clear 21 1010 84 0 0.45 200 09:58 15.12.2019
6265 Clear 21 1011 84 0 0.45 219 09:37 15.12.2019
6266 Clear 21 1011 84 0 0.45 219 09:19 15.12.2019
6267 Clear 22 1011 84 0 0.45 219 08:55 15.12.2019
6268 Clear 22 1011 83 0 0.45 219 08:36 15.12.2019
6269 Clear 22 1011 83 0 0.45 219 08:18 15.12.2019
6270 Clear 22 1011 83 0 0.45 221 07:47 15.12.2019
6271 Clear 22 1011 83 0 2.04 217 07:28 15.12.2019
6272 Clouds 22 1013 100 9656 2.04 217 06:26 15.12.2019
6273 Clear 23 1013 94 11265 1.5 110 05:42 15.12.2019
6274 Clear 23 1013 94 11265 1.5 110 05:21 15.12.2019
6275 Clear 23 1013 94 11265 2.9 116 04:21 15.12.2019
6276 Clear 24 1012 83 11265 2.9 116 02:55 15.12.2019
6277 Clear 24 1012 83 11265 2.9 116 02:32 15.12.2019
6278 Clear 24 1011 83 9656 3.06 100 01:41 15.12.2019
6279 Clear 24 1011 83 9656 3.03 100 01:19 15.12.2019
6280 Clear 25 1011 74 9656 1.5 90 00:49 15.12.2019
6281 Clear 25 1011 74 9656 1.5 90 00:31 15.12.2019
6282 Clear 27 1011 74 9656 3.03 100 23:41 14.12.2019
6283 Clear 27 1011 74 9656 3.03 100 23:23 14.12.2019
6284 Clouds 28 1012 69 9656 1 130 22:59 14.12.2019
6285 Clouds 28 1012 69 9656 1 130 22:41 14.12.2019
6286 Clouds 28 1012 69 9656 1 130 22:22 14.12.2019
6287 Smoke 27 1013 69 9656 2.99 85 21:58 14.12.2019
6288 Smoke 27 1013 69 9656 2.99 85 21:39 14.12.2019
6289 Smoke 27 1013 69 9656 2.99 85 21:19 14.12.2019
6290 Smoke 26 1014 78 9656 1 120 20:59 14.12.2019
6291 Smoke 26 1014 78 9656 1 120 20:41 14.12.2019
6292 Smoke 25 1014 78 9656 1 120 20:20 14.12.2019
6293 Mist 24 1015 83 8047 1 110 19:57 14.12.2019
6294 Mist 24 1015 83 8047 1 110 19:39 14.12.2019
6295 Mist 24 1015 83 8047 1 110 19:20 14.12.2019
6296 Mist 24 1016 88 4828 1 230 18:56 14.12.2019
6297 Mist 23 1016 88 4828 1 230 18:38 14.12.2019
6298 Mist 23 1016 88 4828 1 230 18:19 14.12.2019
6299 Mist 23 1016 83 6437 3.6 170 17:44 14.12.2019
6300 Clouds 22 1016 94 6437 3.1 190 17:24 14.12.2019
6301 Mist 22 1016 100 4828 0.72 212 16:58 14.12.2019
6302 Mist 22 1016 100 4828 0.72 212 16:39 14.12.2019
6303 Mist 22 1016 100 4828 0.72 212 16:19 14.12.2019
6304 Mist 22 1016 100 4828 0.72 212 16:19 14.12.2019
6305 Mist 21 1015 100 4828 0.72 212 15:43 14.12.2019
6306 Mist 20 1015 94 6437 0.72 212 15:22 14.12.2019
6307 Mist 18 1014 100 4828 0.72 212 14:59 14.12.2019
6308 Mist 18 1014 100 4828 0.72 212 14:39 14.12.2019
6309 Mist 17 1014 100 4828 3.14 232 14:20 14.12.2019
6310 Mist 18 1014 100 8047 3.14 232 13:57 14.12.2019
6311 Mist 18 1014 100 8047 3.14 232 13:38 14.12.2019
6312 Mist 18 1014 100 8047 3.14 232 13:18 14.12.2019
6313 Clouds 18 1012 83 0 0.89 213 12:55 14.12.2019
6314 Clouds 18 1012 83 0 0.89 213 12:55 14.12.2019
6315 Clouds 18 1012 83 0 0.89 213 12:37 14.12.2019
6316 Clouds 18 1012 83 0 1.34 213 12:18 14.12.2019
6317 Clouds 18 1012 83 0 0.89 213 11:55 14.12.2019
6318 Clouds 18 1012 83 0 0.89 213 11:36 14.12.2019
6319 Clouds 18 1012 83 0 0.89 213 11:36 14.12.2019
6320 Clouds 19 1012 83 0 1.34 218 11:18 14.12.2019
6321 Clouds 19 1012 83 0 0.89 219 10:55 14.12.2019
6322 Clouds 19 1012 83 0 0.89 234 10:37 14.12.2019
6323 Clouds 19 1012 83 0 0.89 234 10:18 14.12.2019
6324 Clouds 19 1012 82 0 2.16 283 09:40 14.12.2019
6325 Clouds 19 1013 82 0 0.89 294 09:20 14.12.2019
6326 Clouds 19 1013 82 0 0.89 294 09:20 14.12.2019
6327 Clouds 19 1013 82 0 0.45 338 08:44 14.12.2019
6328 Clouds 19 1013 82 0 0.45 338 08:44 14.12.2019
6329 Clouds 20 1013 82 0 2.35 325 08:20 14.12.2019
6330 Clouds 20 1013 82 0 1.96 328 08:20 14.12.2019
6331 Clouds 21 1013 82 0 0.45 338 07:57 14.12.2019
6332 Clouds 21 1014 82 0 0.89 338 07:38 14.12.2019
6333 Clouds 21 1014 82 0 0.45 338 07:19 14.12.2019
6334 Clouds 21 1014 82 0 0.45 338 07:19 14.12.2019
6335 Clouds 21 1016 94 8047 1.5 350 06:39 14.12.2019
6336 Clouds 21 1016 94 8047 1.5 350 06:20 14.12.2019
6337 Clear 21 1015 94 8047 2.2 20 05:22 14.12.2019
6338 Clear 22 1014 88 11265 2.2 20 02:49 14.12.2019
6339 Clear 22 1014 88 11265 2.48 57 02:22 14.12.2019
6340 Clear 23 1013 83 11265 2.6 50 01:43 14.12.2019
6341 Clear 24 1013 73 11265 2.6 80 00:50 14.12.2019
6342 Clear 25 1013 73 11265 2.6 80 00:29 14.12.2019
6343 Clear 26 1013 69 11265 3.1 60 23:58 13.12.2019
6344 Clear 26 1013 69 11265 3.1 60 23:39 13.12.2019
6345 Clear 26 1013 69 11265 3.1 60 23:19 13.12.2019
6346 Clouds 26 1013 65 11265 1.5 80 22:55 13.12.2019
6347 Clouds 27 1013 65 11265 1.5 80 22:36 13.12.2019
6348 Clouds 27 1013 65 11265 1.5 80 22:36 13.12.2019
6349 Clouds 27 1013 65 11265 1.5 80 22:18 13.12.2019
6350 Clouds 27 1013 61 11265 2.6 80 21:39 13.12.2019
6351 Clouds 27 1013 61 11265 2.6 80 21:21 13.12.2019
6352 Clouds 26 1014 65 11265 2.1 150 20:54 13.12.2019
6353 Clouds 26 1014 65 11265 2.1 150 20:36 13.12.2019
6354 Clouds 26 1014 65 11265 2.1 150 20:36 13.12.2019
6355 Clouds 27 1012 57 0 2.24 92 20:18 13.12.2019
6356 Clouds 26 1016 69 11265 2.6 40 19:42 13.12.2019
6357 Clouds 25 1016 69 11265 2.6 40 19:23 13.12.2019
6358 Clouds 25 1017 65 11265 1.72 25 18:59 13.12.2019
6359 Clouds 25 1017 65 11265 1.72 25 18:41 13.12.2019
6360 Clouds 25 1017 65 11265 1.72 25 18:19 13.12.2019
6361 Clouds 24 1017 73 11265 1.5 360 17:57 13.12.2019
6362 Clouds 24 1017 73 11265 1.5 360 17:39 13.12.2019
6363 Clouds 24 1017 73 11265 1.5 360 17:18 13.12.2019
6364 Mist 24 1018 78 11265 3.1 360 16:54 13.12.2019
6365 Mist 23 1018 78 11265 3.1 360 16:36 13.12.2019
6366 Mist 23 1018 78 11265 3.1 360 16:18 13.12.2019
6367 Mist 21 1017 88 11265 1 310 15:40 13.12.2019
6368 Mist 20 1017 88 11265 1 310 15:20 13.12.2019
6369 Mist 19 1017 93 11265 2.95 332 14:55 13.12.2019
6370 Mist 18 1017 93 11265 2.95 332 14:36 13.12.2019
6371 Mist 18 1017 93 11265 2.66 305 14:18 13.12.2019
6372 Mist 18 1016 93 9656 2.66 305 13:41 13.12.2019
6373 Mist 18 1016 93 9656 2.31 302 13:21 13.12.2019
6374 Clouds 17 1015 82 0 2.31 302 12:44 13.12.2019
6375 Clouds 17 1015 82 0 2.31 302 12:44 13.12.2019
6376 Clouds 17 1015 82 0 2.31 302 12:23 13.12.2019
6377 Clouds 17 1015 81 0 2.31 302 11:58 13.12.2019
6378 Clouds 17 1014 81 0 2.31 302 11:40 13.12.2019
6379 Clouds 17 1014 81 0 0.89 240 11:22 13.12.2019
6380 Clouds 17 1014 81 0 0.89 241 10:55 13.12.2019
6381 Clouds 17 1015 81 0 1.93 289 10:37 13.12.2019
6382 Clouds 18 1015 80 0 1.93 289 10:19 13.12.2019
6383 Clouds 18 1015 80 0 0.45 241 09:39 13.12.2019
6384 Clouds 18 1015 80 0 0.89 241 09:19 13.12.2019
6385 Clouds 18 1016 80 0 0.89 241 08:42 13.12.2019
6386 Clouds 18 1016 80 0 1.93 289 08:24 13.12.2019
6387 Clouds 18 1016 80 0 0.89 242 07:46 13.12.2019
6388 Clouds 18 1016 80 0 2.94 295 07:23 13.12.2019
6389 Clouds 19 1019 88 11265 2.94 295 06:55 13.12.2019
6390 Clouds 19 1019 88 11265 2.94 295 06:55 13.12.2019
6391 Clouds 19 1019 88 11265 2.94 295 06:29 13.12.2019
6392 Clouds 20 1019 88 11265 2.1 340 05:46 13.12.2019
6393 Clouds 20 1019 88 11265 2.1 340 05:27 13.12.2019
6394 Clouds 21 1019 83 11265 2.6 360 04:35 13.12.2019
6395 Clouds 21 1019 77 11265 3.6 360 03:46 13.12.2019
6396 Clouds 21 1018 77 11265 4.1 10 02:34 13.12.2019
6397 Clouds 21 1018 77 11265 4.6 360 01:44 13.12.2019
6398 Clouds 22 1018 73 11265 6.7 360 00:56 13.12.2019
6399 Clouds 22 1018 73 11265 6.7 360 00:37 13.12.2019
6400 Clouds 23 1018 69 11265 4.6 20 23:57 12.12.2019
6401 Clouds 23 1018 69 11265 4.6 20 23:39 12.12.2019
6402 Clouds 23 1018 69 11265 4.6 20 23:20 12.12.2019
6403 Clouds 23 1018 69 11265 6.2 10 22:55 12.12.2019
6404 Clouds 24 1018 69 11265 6.2 10 22:37 12.12.2019
6405 Clouds 24 1018 69 11265 6.2 10 22:18 12.12.2019
6406 Clouds 25 1019 65 11265 5.7 10 21:54 12.12.2019
6407 Clouds 24 1019 65 11265 5.7 10 21:36 12.12.2019
6408 Clouds 25 1019 65 11265 5.7 10 21:18 12.12.2019
6409 Clouds 25 1020 61 11265 5.1 350 20:55 12.12.2019
6410 Clouds 25 1020 61 11265 5.1 350 20:55 12.12.2019
6411 Clouds 25 1020 61 11265 5.1 350 20:55 12.12.2019
6412 Clouds 25 1020 61 11265 5.1 350 20:37 12.12.2019
6413 Clouds 25 1020 61 11265 5.1 350 20:19 12.12.2019
6414 Clouds 26 1021 57 11265 2.6 360 19:42 12.12.2019
6415 Clouds 25 1021 57 11265 2.6 360 19:22 12.12.2019
6416 Clouds 25 1022 57 9656 3.1 360 18:58 12.12.2019
6417 Clouds 25 1022 57 9656 3.1 360 18:40 12.12.2019
6418 Clouds 25 1022 57 9656 3.1 360 18:20 12.12.2019
6419 Clouds 23 1023 78 9656 6.45 350 17:58 12.12.2019
6420 Clouds 23 1023 78 9656 6.45 350 17:58 12.12.2019
6421 Clouds 23 1023 78 9656 6.45 350 17:39 12.12.2019
6422 Clouds 23 1023 78 9656 6.96 340 17:21 12.12.2019
6423 Clouds 22 1023 83 8047 6.96 340 16:58 12.12.2019
6424 Clouds 21 1023 83 8047 6.96 340 16:39 12.12.2019
6425 Clouds 21 1023 83 8047 6.96 340 16:20 12.12.2019
6426 Clouds 21 1022 82 8047 6.96 340 15:56 12.12.2019
6427 Clouds 21 1022 82 8047 6.96 340 15:56 12.12.2019
6428 Clouds 21 1022 82 8047 6.96 340 15:38 12.12.2019
6429 Clouds 21 1022 82 8047 6.96 340 15:18 12.12.2019
6430 Clouds 20 1022 77 9656 6.96 340 14:38 12.12.2019
6431 Clouds 20 1022 77 9656 6.96 340 14:38 12.12.2019
6432 Clouds 20 1022 77 9656 3.97 336 14:20 12.12.2019
6433 Clouds 20 1021 72 9656 1.5 350 13:58 12.12.2019
6434 Clouds 20 1021 72 9656 1.5 350 13:40 12.12.2019
6435 Clouds 20 1021 72 9656 1.5 350 13:21 12.12.2019
6436 Clouds 20 1021 72 9656 1.5 350 12:59 12.12.2019
6437 Clouds 21 1020 64 0 2.24 346 12:40 12.12.2019
6438 Clouds 22 1019 62 0 1.79 336 12:22 12.12.2019
6439 Clouds 22 1020 64 0 1.79 325 11:57 12.12.2019
6440 Clouds 22 1020 63 0 3.13 360 11:38 12.12.2019
6441 Clouds 22 1020 63 0 2.68 350 11:19 12.12.2019
6442 Clouds 22 1020 65 0 2.68 15 10:56 12.12.2019
6443 Clouds 21 1020 70 0 3.97 307 10:38 12.12.2019
6444 Clouds 21 1020 70 0 3.97 307 10:19 12.12.2019
6445 Clouds 21 1021 70 0 0.89 325 09:42 12.12.2019
6446 Clouds 21 1021 71 0 0.89 325 09:24 12.12.2019
6447 Clouds 20 1021 71 0 0.89 325 08:59 12.12.2019
6448 Clouds 20 1021 71 0 0.89 298 08:40 12.12.2019
6449 Clouds 20 1021 71 0 0.89 329 08:22 12.12.2019
6450 Clouds 21 1023 73 9656 7.2 341 07:47 12.12.2019
6451 Clouds 21 1023 73 9656 7.2 341 07:25 12.12.2019
6452 Clouds 21 1023 73 9656 2.6 20 06:55 12.12.2019
6453 Clouds 21 1023 73 9656 2.6 20 06:34 12.12.2019
6454 Clouds 22 1024 73 9656 3.1 10 05:41 12.12.2019
6455 Clouds 22 1023 73 9656 5.7 360 04:54 12.12.2019
6456 Clouds 21 1023 73 9656 6.2 10 03:37 12.12.2019
6457 Clouds 21 1022 73 9656 7.7 360 02:39 12.12.2019
6458 Clouds 21 1022 73 9656 7.7 360 02:20 12.12.2019
6459 Clouds 21 1021 73 9656 8.7 20 01:43 12.12.2019
6460 Clouds 21 1021 73 9656 8.7 20 01:24 12.12.2019
6461 Clouds 21 1021 77 9656 7.7 20 00:47 12.12.2019
6462 Clouds 21 1021 77 9656 7.7 20 00:20 12.12.2019
6463 Clouds 22 1021 68 9656 9.3 360 23:44 11.12.2019
6464 Clouds 22 1021 68 9656 9.3 360 23:21 11.12.2019
6465 Clouds 22 1021 73 9656 9.3 10 22:58 11.12.2019
6466 Clouds 22 1021 73 9656 9.3 10 22:39 11.12.2019
6467 Clouds 22 1021 73 9656 9.3 10 22:20 11.12.2019
6468 Clouds 23 1021 64 9656 7.7 20 21:59 11.12.2019
6469 Clouds 23 1021 64 9656 7.7 20 21:39 11.12.2019
6470 Clouds 23 1021 64 9656 7.7 20 21:20 11.12.2019
6471 Clouds 23 1022 64 9656 7.7 20 20:56 11.12.2019
6472 Clouds 23 1022 64 9656 7.7 20 20:38 11.12.2019
6473 Clouds 23 1022 64 9656 7.7 20 20:19 11.12.2019
6474 Clouds 23 1023 68 9656 7.7 360 19:58 11.12.2019
6475 Clouds 23 1023 68 9656 7.7 360 19:39 11.12.2019
6476 Clouds 23 1023 68 9656 7.7 360 19:19 11.12.2019
6477 Clouds 23 1023 69 9656 4.1 350 18:42 11.12.2019
6478 Clouds 23 1023 69 9656 4.1 350 18:22 11.12.2019
6479 Clouds 23 1023 60 9656 4.1 360 17:57 11.12.2019
6480 Clouds 24 1023 60 9656 4.1 360 17:39 11.12.2019
6481 Clouds 24 1023 60 9656 4.1 360 17:19 11.12.2019
6482 Clouds 23 1022 64 9656 5.1 360 16:58 11.12.2019
6483 Clouds 23 1022 64 9656 5.1 360 16:40 11.12.2019
6484 Clouds 23 1022 64 9656 5.1 360 16:22 11.12.2019
6485 Clouds 23 1021 64 9656 5.1 360 15:59 11.12.2019
6486 Clouds 23 1021 64 9656 5.1 360 15:59 11.12.2019
6487 Clouds 23 1021 64 9656 5.1 360 15:40 11.12.2019
6488 Clouds 23 1021 64 9656 5.1 360 15:22 11.12.2019
6489 Clouds 23 1021 64 9656 5.1 360 15:22 11.12.2019
6490 Clouds 23 1020 64 9656 6.2 10 14:56 11.12.2019
6491 Clouds 23 1020 64 9656 6.2 10 14:38 11.12.2019
6492 Clouds 23 1020 64 9656 6.2 10 14:38 11.12.2019
6493 Clouds 23 1020 64 9656 6.2 10 14:19 11.12.2019
6494 Clouds 23 1019 60 9656 7.7 10 13:55 11.12.2019
6495 Clouds 24 1019 60 9656 7.7 10 13:36 11.12.2019
6496 Clouds 24 1019 60 9656 7.7 10 13:18 11.12.2019
6497 Clouds 24 1018 57 0 6.71 21 12:55 11.12.2019
6498 Clouds 24 1018 52 0 7.15 5 12:37 11.12.2019
6499 Clouds 24 1017 55 0 7.15 20 12:18 11.12.2019
6500 Clouds 24 1017 55 0 5.81 13 11:56 11.12.2019
6501 Clouds 23 1017 58 0 5.81 355 11:37 11.12.2019
6502 Clouds 23 1017 58 0 5.81 355 11:37 11.12.2019
6503 Clear 24 1017 58 0 6.26 360 11:18 11.12.2019
6504 Clear 24 1017 57 0 5.81 15 10:44 11.12.2019
6505 Clear 24 1017 59 0 6.26 355 10:26 11.12.2019
6506 Clear 23 1017 60 0 7.15 355 09:59 11.12.2019
6507 Clear 23 1017 62 0 10.28 360 09:38 11.12.2019
6508 Clear 23 1017 62 0 10.28 360 09:38 11.12.2019
6509 Clear 23 1017 62 0 10.28 360 09:20 11.12.2019
6510 Clear 23 1017 64 0 8.94 15 08:57 11.12.2019
6511 Clear 23 1017 65 0 9.39 5 08:37 11.12.2019
6512 Clouds 23 1017 68 0 8.05 360 08:19 11.12.2019
6513 Clouds 23 1017 66 0 11.18 360 07:45 11.12.2019
6514 Clouds 23 1017 66 0 12.07 5 07:25 11.12.2019
6515 Sand 23 1019 83 8047 7.7 10 06:47 11.12.2019
6516 Sand 24 1019 83 8047 7.7 10 06:25 11.12.2019
6517 Sand 24 1018 83 8047 10.3 360 05:58 11.12.2019
6518 Sand 24 1018 83 8047 10.3 360 05:37 11.12.2019
6519 Sand 25 1016 78 6437 10.3 360 04:57 11.12.2019
6520 Sand 25 1015 88 8047 7.7 10 03:49 11.12.2019
6521 Clouds 26 1014 74 6437 7.7 40 02:40 11.12.2019
6522 Mist 25 1013 88 4828 7.2 360 01:23 11.12.2019
6523 Clear 27 1011 78 8047 3.6 10 00:46 11.12.2019
6524 Clear 27 1011 78 8047 3.6 10 00:21 11.12.2019
6525 Clear 28 1009 74 9656 3.6 50 23:46 10.12.2019
6526 Clear 28 1009 74 9656 3.6 50 23:27 10.12.2019
6527 Clear 29 1009 70 8047 3.1 60 22:57 10.12.2019
6528 Clear 29 1009 70 8047 3.1 60 22:39 10.12.2019
6529 Clear 29 1009 70 8047 3.1 60 22:21 10.12.2019
6530 Clear 30 1009 66 8047 1 110 21:54 10.12.2019
6531 Clear 30 1009 66 8047 1 110 21:54 10.12.2019
6532 Clear 30 1009 66 8047 1 110 21:36 10.12.2019
6533 Clear 30 1009 66 8047 1 110 21:18 10.12.2019
6534 Clear 29 1010 66 8047 3 102 20:56 10.12.2019
6535 Clear 29 1010 66 8047 3 102 20:56 10.12.2019
6536 Clear 29 1010 66 8047 3 102 20:37 10.12.2019
6537 Clear 29 1010 66 8047 2.53 141 20:18 10.12.2019
6538 Clear 28 1012 69 8047 2.53 141 19:44 10.12.2019
6539 Clear 28 1012 69 8047 2.53 141 19:26 10.12.2019
6540 Clear 27 1012 74 8047 2.53 141 18:59 10.12.2019
6541 Rain 27 1012 74 8047 2.53 141 18:39 10.12.2019
6542 Rain 27 1012 74 8047 2.53 141 18:20 10.12.2019
6543 Rain 26 1013 78 6437 3.6 160 17:55 10.12.2019
6544 Haze 26 1013 78 6437 3.6 160 17:37 10.12.2019
6545 Haze 26 1013 78 6437 3.6 160 17:19 10.12.2019
6546 Haze 24 1013 88 6437 3.14 196 16:42 10.12.2019
6547 Haze 24 1013 88 6437 3.14 196 16:20 10.12.2019
6548 Mist 21 1012 100 4828 3.14 196 15:54 10.12.2019
6549 Mist 21 1012 100 4828 3.14 196 15:36 10.12.2019
6550 Mist 21 1012 100 4828 3.14 196 15:18 10.12.2019
6551 Mist 20 1011 100 2414 3.14 196 14:54 10.12.2019
6552 Mist 20 1011 100 2414 3.14 196 14:36 10.12.2019
6553 Mist 20 1011 100 2414 2.19 233 14:18 10.12.2019
6554 Mist 20 1011 100 2414 2.19 233 14:18 10.12.2019
6555 Clear 20 1011 100 8047 2.19 233 13:54 10.12.2019
6556 Clear 20 1011 100 8047 2.19 233 13:36 10.12.2019
6557 Clear 20 1011 100 8047 2.19 233 13:18 10.12.2019
6558 Clear 21 1009 83 0 2.28 227 12:38 10.12.2019
6559 Clear 21 1009 83 0 0.45 277 12:20 10.12.2019
6560 Clear 22 1009 84 0 1.34 275 11:42 10.12.2019
6561 Clear 22 1009 84 0 1.34 276 11:23 10.12.2019
6562 Clear 21 1009 84 0 2.74 190 10:56 10.12.2019
6563 Clear 21 1009 84 0 2.74 190 10:56 10.12.2019
6564 Clear 21 1009 84 0 0.45 234 10:37 10.12.2019
6565 Clear 21 1009 83 0 0.45 234 10:19 10.12.2019
6566 Clear 21 1009 83 0 2.74 190 09:55 10.12.2019
6567 Clear 21 1009 83 0 2.74 190 09:37 10.12.2019
6568 Clear 21 1009 83 0 2.74 190 09:18 10.12.2019
6569 Clear 21 1009 83 0 2.74 190 08:42 10.12.2019
6570 Clear 22 1010 83 0 2.74 190 08:23 10.12.2019
6571 Clear 22 1010 83 0 2.98 179 07:58 10.12.2019
6572 Clear 22 1010 83 0 1.34 228 07:40 10.12.2019
6573 Clear 22 1010 83 0 1.34 263 07:22 10.12.2019
6574 Mist 22 1012 94 9656 2.98 179 06:46 10.12.2019
6575 Mist 22 1012 94 9656 2.98 179 06:19 10.12.2019
6576 Clear 22 1012 94 11265 2.98 179 05:53 10.12.2019
6577 Clear 23 1012 94 11265 3.08 116 04:52 10.12.2019
6578 Clear 24 1011 88 11265 3.08 116 03:37 10.12.2019
6579 Clear 24 1010 83 11265 1.5 120 02:45 10.12.2019
6580 Clear 25 1010 83 9656 1 110 01:44 10.12.2019
6581 Clear 25 1010 83 9656 1 110 01:20 10.12.2019
6582 Smoke 26 1009 69 11265 1.5 100 00:41 10.12.2019
6583 Smoke 27 1009 69 11265 1.5 100 00:21 10.12.2019
6584 Clouds 27 1009 69 11265 2.6 100 23:41 09.12.2019
6585 Clouds 27 1009 69 11265 2.6 100 23:23 09.12.2019
6586 Clouds 28 1009 65 11265 3.1 90 22:58 09.12.2019
6587 Clouds 28 1009 65 11265 3.1 90 22:40 09.12.2019
6588 Clouds 28 1009 65 11265 3.1 90 22:19 09.12.2019
6589 Clouds 29 1010 51 11265 6.2 190 21:57 09.12.2019
6590 Clouds 29 1010 51 11265 6.2 190 21:38 09.12.2019
6591 Clouds 29 1010 51 11265 6.2 190 21:19 09.12.2019
6592 Clouds 29 1012 58 9656 4.6 180 20:56 09.12.2019
6593 Clouds 29 1012 58 9656 4.6 180 20:38 09.12.2019
6594 Clouds 29 1012 58 9656 4.6 180 20:20 09.12.2019
6595 Clouds 28 1013 65 11265 3.1 156 19:55 09.12.2019
6596 Clouds 28 1013 65 11265 3.1 156 19:37 09.12.2019
6597 Clouds 28 1013 65 11265 3.1 156 19:19 09.12.2019
6598 Clear 28 1015 65 8047 2.6 170 18:56 09.12.2019
6599 Clear 28 1015 65 8047 2.6 170 18:56 09.12.2019
6600 Clear 27 1015 65 8047 2.6 170 18:37 09.12.2019
6601 Clear 27 1015 65 8047 2.6 170 18:19 09.12.2019
6602 Haze 26 1015 73 6437 3.1 156 17:57 09.12.2019
6603 Haze 26 1015 73 6437 3.1 156 17:38 09.12.2019
6604 Haze 26 1015 73 6437 2.95 180 17:20 09.12.2019
6605 Haze 24 1016 94 6437 2.95 180 16:56 09.12.2019
6606 Haze 23 1016 94 6437 2.95 180 16:37 09.12.2019
6607 Haze 23 1016 94 6437 2.95 180 16:18 09.12.2019
6608 Rain 21 1015 100 6437 1.5 240 15:55 09.12.2019
6609 Rain 20 1015 100 6437 1.5 240 15:37 09.12.2019
6610 Rain 20 1015 100 6437 1.5 240 15:19 09.12.2019
6611 Mist 19 1015 100 4828 2.95 180 14:42 09.12.2019
6612 Mist 18 1015 100 4828 2.35 219 14:19 09.12.2019
6613 Mist 18 1015 93 3219 2.35 219 13:58 09.12.2019
6614 Mist 18 1015 93 3219 2.35 219 13:38 09.12.2019
6615 Mist 17 1015 93 3219 2.33 211 13:19 09.12.2019
6616 Clear 17 1013 84 0 2.33 211 12:57 09.12.2019
6617 Clear 18 1013 84 0 0.45 205 12:38 09.12.2019
6618 Clear 17 1013 83 0 0.45 221 12:19 09.12.2019
6619 Clear 18 1013 83 0 0.45 221 11:57 09.12.2019
6620 Clear 18 1013 83 0 2.33 211 11:37 09.12.2019
6621 Clear 18 1013 83 0 2.56 184 11:18 09.12.2019
6622 Clear 18 1012 83 0 2.56 184 10:41 09.12.2019
6623 Clear 19 1013 83 0 2.56 184 10:20 09.12.2019
6624 Clear 19 1013 83 0 2.56 184 09:59 09.12.2019
6625 Clear 19 1013 83 0 2.56 184 09:41 09.12.2019
6626 Clear 19 1013 83 0 2.56 184 09:41 09.12.2019
6627 Clear 19 1013 83 0 0.45 221 09:21 09.12.2019
6628 Clear 19 1013 82 0 0.45 221 08:44 09.12.2019
6629 Clear 20 1013 82 0 0.45 221 08:26 09.12.2019
6630 Clear 20 1014 82 0 0.45 221 07:59 09.12.2019
6631 Clear 20 1014 82 0 0.45 234 07:41 09.12.2019
6632 Clear 20 1014 82 0 0.45 234 07:23 09.12.2019
6633 Clear 20 1016 100 11265 2.19 209 06:47 09.12.2019
6634 Clear 20 1016 100 11265 2.19 209 06:25 09.12.2019
6635 Clear 21 1016 94 11265 2.19 209 05:28 09.12.2019
6636 Clear 22 1016 88 11265 3.43 116 04:46 09.12.2019
6637 Clear 23 1016 88 11265 3.43 116 03:21 09.12.2019
6638 Smoke 24 1015 78 9656 1 120 02:24 09.12.2019
6639 Clear 24 1015 78 11265 1.5 120 01:42 09.12.2019
6640 Clear 25 1015 69 11265 1.5 90 00:46 09.12.2019
6641 Clear 25 1015 69 11265 1.5 90 00:27 09.12.2019
6642 Clear 27 1015 65 11265 3.1 100 23:43 08.12.2019
6643 Clear 27 1015 65 11265 3.1 100 23:24 08.12.2019
6644 Clouds 27 1015 61 11265 2.6 90 22:57 08.12.2019
6645 Clouds 28 1015 61 11265 2.6 90 22:39 08.12.2019
6646 Clouds 28 1015 61 11265 2.6 90 22:19 08.12.2019
6647 Clouds 28 1016 65 11265 1.5 120 21:58 08.12.2019
6648 Clouds 28 1016 65 11265 1.5 120 21:40 08.12.2019
6649 Clouds 28 1016 65 11265 1.5 120 21:20 08.12.2019
6650 Clouds 28 1016 65 11265 1.5 120 21:20 08.12.2019
6651 Clouds 28 1017 61 11265 4.55 93 20:57 08.12.2019
6652 Clouds 28 1017 61 11265 4.55 93 20:38 08.12.2019
6653 Clouds 28 1017 61 11265 2.17 128 20:20 08.12.2019
6654 Clouds 28 1017 61 11265 2.17 128 20:20 08.12.2019
6655 Clouds 28 1018 61 11265 2.17 128 19:58 08.12.2019
6656 Clouds 28 1018 61 11265 2.17 128 19:40 08.12.2019
6657 Clouds 28 1018 61 11265 2.17 128 19:22 08.12.2019
6658 Clear 27 1020 65 8047 2.1 200 18:55 08.12.2019
6659 Clear 27 1020 65 8047 2.1 200 18:37 08.12.2019
6660 Clear 27 1020 65 8047 2.1 200 18:37 08.12.2019
6661 Clear 27 1020 65 8047 2.1 200 18:18 08.12.2019
6662 Clear 26 1020 73 8047 2.1 210 17:56 08.12.2019
6663 Clear 26 1020 73 8047 2.1 210 17:56 08.12.2019
6664 Clear 26 1020 73 8047 2.1 210 17:38 08.12.2019
6665 Clear 26 1020 73 8047 2.1 210 17:19 08.12.2019
6666 Clear 24 1020 88 8047 1.85 240 16:56 08.12.2019
6667 Clear 24 1020 88 8047 1.85 240 16:38 08.12.2019
6668 Clear 24 1020 88 8047 1.85 240 16:20 08.12.2019
6669 Mist 21 1020 100 6437 1.85 240 15:54 08.12.2019
6670 Mist 21 1020 100 6437 1.85 240 15:36 08.12.2019
6671 Mist 21 1020 100 6437 1.85 240 15:18 08.12.2019
6672 Mist 19 1019 100 6437 1.85 240 14:40 08.12.2019
6673 Mist 19 1019 100 6437 1.85 240 14:40 08.12.2019
6674 Mist 19 1019 100 6437 2.39 276 14:22 08.12.2019
6675 Clear 19 1019 100 8047 2.39 276 13:57 08.12.2019
6676 Clear 19 1019 100 8047 2.39 276 13:38 08.12.2019
6677 Clear 19 1019 100 8047 2.32 270 13:20 08.12.2019
6678 Clear 19 1019 100 8047 2.32 270 13:20 08.12.2019
6679 Clear 19 1019 100 8047 2.32 270 12:54 08.12.2019
6680 Clouds 19 1017 83 0 1.34 234 12:36 08.12.2019
6681 Clouds 19 1017 82 0 0.89 273 12:18 08.12.2019
6682 Clouds 20 1017 82 0 0.45 273 11:39 08.12.2019
6683 Clouds 20 1017 82 0 0.45 273 11:39 08.12.2019
6684 Clouds 21 1017 82 0 2.11 285 11:20 08.12.2019
6685 Clouds 21 1017 82 0 2.11 285 10:59 08.12.2019
6686 Clouds 21 1017 83 0 1.34 273 10:38 08.12.2019
6687 Clouds 21 1018 83 0 0.89 273 10:20 08.12.2019
6688 Clouds 21 1018 83 0 2.11 285 09:57 08.12.2019
6689 Clouds 21 1018 83 0 2.11 285 09:57 08.12.2019
6690 Clouds 21 1018 83 0 0.45 273 09:38 08.12.2019
6691 Clouds 21 1018 83 0 0.45 273 09:19 08.12.2019
6692 Clouds 21 1018 83 0 0.89 273 08:58 08.12.2019
6693 Clouds 21 1019 82 0 0.45 275 08:37 08.12.2019
6694 Rain 21 1019 82 0 0.45 275 08:19 08.12.2019
6695 Rain 21 1019 82 0 0.89 275 07:43 08.12.2019
6696 Rain 22 1019 82 0 0.89 273 07:20 08.12.2019
6697 Clouds 23 1022 94 11265 1.5 340 06:50 08.12.2019
6698 Clouds 23 1022 94 11265 1.5 340 06:22 08.12.2019
6699 Clouds 23 1022 94 11265 1.5 340 05:48 08.12.2019
6700 Clouds 23 1022 94 11265 1.5 340 05:18 08.12.2019
6701 Clouds 24 1021 88 9656 3.1 360 03:50 08.12.2019
6702 Clouds 24 1021 88 9656 3.1 360 03:23 08.12.2019
6703 Clouds 24 1021 88 9656 4.1 360 02:39 08.12.2019
6704 Clouds 24 1020 88 8047 4.1 20 01:55 08.12.2019
6705 Clouds 24 1020 88 8047 4.1 20 01:23 08.12.2019
6706 Clouds 25 1020 83 8047 6.7 20 00:40 08.12.2019
6707 Clouds 25 1020 83 8047 6.7 20 00:20 08.12.2019
6708 Clouds 25 1020 83 8047 6.7 20 00:20 08.12.2019
6709 Clear 26 1020 78 9656 4.1 50 23:41 07.12.2019
6710 Clear 26 1020 78 9656 4.1 50 23:21 07.12.2019
6711 Clear 26 1020 78 9656 4.1 50 23:21 07.12.2019
6712 Clear 27 1020 69 9656 6.2 10 22:57 07.12.2019
6713 Clear 27 1020 69 9656 6.2 10 22:39 07.12.2019
6714 Clear 27 1020 69 9656 6.2 10 22:21 07.12.2019
6715 Clouds 27 1021 69 8047 5.1 20 21:56 07.12.2019
6716 Clouds 27 1021 69 8047 5.1 20 21:38 07.12.2019
6717 Clouds 27 1021 69 8047 5.1 20 21:19 07.12.2019
6718 Clouds 28 1021 61 8047 6.2 20 20:59 07.12.2019
6719 Clouds 28 1021 61 8047 6.2 20 20:36 07.12.2019
6720 Clouds 28 1021 61 8047 6.2 20 20:18 07.12.2019
6721 Clouds 28 1022 61 8047 4.6 50 19:56 07.12.2019
6722 Clouds 28 1022 61 8047 4.6 50 19:38 07.12.2019
6723 Clouds 28 1022 61 8047 4.6 50 19:20 07.12.2019
6724 Clear 28 1023 61 8047 5.7 40 18:44 07.12.2019